<?xml version="1.0" encoding="UTF-8" standalone="no" ?>
<gpx xmlns="http://www.topografix.com/GPX/1/1" xmlns:xsi="http://www.w3.org/2001/XMLSchema-instance" xsi:schemaLocation="http://www.topografix.com/GPX/1/1 http://www.topografix.com/GPX/1/1/gpx.xsd" version="1.1" creator="VisuGPX - https://www.visugpx.com">
  <metadata>
    <name>bas-chablais-excenex-balaison</name>
    <desc><![CDATA[
hermance messery yvoire excenevex chevilly massongy ballaison bons-en-chablais moniaz jussy]]></desc>
  </metadata>
  <trk>
    <name><![CDATA[Annemasse Cyclisme]]></name>
    <desc><![CDATA[hermance messery yvoire excenevex chevilly massongy ballaison bons-en-chablais moniaz jussy]]></desc>
    <trkseg>
      <trkpt lat="46.19982" lon="6.2392">
        <ele>436.20001220703</ele>
        <time>2021-03-29T08:46:10.000Z</time>
      </trkpt>
      <trkpt lat="46.19986" lon="6.23927">
        <ele>436.20001220703</ele>
        <time>2021-03-29T08:46:13.000Z</time>
      </trkpt>
      <trkpt lat="46.19986" lon="6.23927">
        <ele>436.20001220703</ele>
        <time>2021-03-29T08:46:16.000Z</time>
      </trkpt>
      <trkpt lat="46.20023" lon="6.23957">
        <ele>436.20001220703</ele>
        <time>2021-03-29T08:46:21.000Z</time>
      </trkpt>
      <trkpt lat="46.20026" lon="6.23967">
        <ele>436.20001220703</ele>
        <time>2021-03-29T08:46:23.000Z</time>
      </trkpt>
      <trkpt lat="46.20036" lon="6.23998">
        <ele>436.39999389648</ele>
        <time>2021-03-29T08:46:29.000Z</time>
      </trkpt>
      <trkpt lat="46.20041" lon="6.24008">
        <ele>436.20001220703</ele>
        <time>2021-03-29T08:46:31.000Z</time>
      </trkpt>
      <trkpt lat="46.20055" lon="6.24039">
        <ele>436</ele>
        <time>2021-03-29T08:46:38.000Z</time>
      </trkpt>
      <trkpt lat="46.20088" lon="6.2407">
        <ele>435.79998779297</ele>
        <time>2021-03-29T08:46:46.000Z</time>
      </trkpt>
      <trkpt lat="46.20087" lon="6.24087">
        <ele>436</ele>
        <time>2021-03-29T08:46:48.000Z</time>
      </trkpt>
      <trkpt lat="46.20087" lon="6.24093">
        <ele>436.20001220703</ele>
        <time>2021-03-29T08:46:50.000Z</time>
      </trkpt>
      <trkpt lat="46.20098" lon="6.24089">
        <ele>435.79998779297</ele>
        <time>2021-03-29T08:46:51.000Z</time>
      </trkpt>
      <trkpt lat="46.201" lon="6.24088">
        <ele>435.79998779297</ele>
        <time>2021-03-29T08:46:52.000Z</time>
      </trkpt>
      <trkpt lat="46.20118" lon="6.24125">
        <ele>436.20001220703</ele>
        <time>2021-03-29T08:46:55.000Z</time>
      </trkpt>
      <trkpt lat="46.2014" lon="6.24174">
        <ele>436.39999389648</ele>
        <time>2021-03-29T08:47:04.000Z</time>
      </trkpt>
      <trkpt lat="46.20172" lon="6.24214">
        <ele>436.39999389648</ele>
        <time>2021-03-29T08:47:12.000Z</time>
      </trkpt>
      <trkpt lat="46.20186" lon="6.24238">
        <ele>436.79998779297</ele>
        <time>2021-03-29T08:47:16.000Z</time>
      </trkpt>
      <trkpt lat="46.20189" lon="6.24242">
        <ele>436.79998779297</ele>
        <time>2021-03-29T08:47:18.000Z</time>
      </trkpt>
      <trkpt lat="46.20226" lon="6.24257">
        <ele>436.60000610352</ele>
        <time>2021-03-29T08:47:24.000Z</time>
      </trkpt>
      <trkpt lat="46.20258" lon="6.24273">
        <ele>436.79998779297</ele>
        <time>2021-03-29T08:47:29.000Z</time>
      </trkpt>
      <trkpt lat="46.20286" lon="6.24285">
        <ele>436.60000610352</ele>
        <time>2021-03-29T08:47:35.000Z</time>
      </trkpt>
      <trkpt lat="46.20291" lon="6.24288">
        <ele>436.60000610352</ele>
        <time>2021-03-29T08:47:36.000Z</time>
      </trkpt>
      <trkpt lat="46.20302" lon="6.243">
        <ele>436.79998779297</ele>
        <time>2021-03-29T08:47:39.000Z</time>
      </trkpt>
      <trkpt lat="46.20306" lon="6.24313">
        <ele>437</ele>
        <time>2021-03-29T08:47:41.000Z</time>
      </trkpt>
      <trkpt lat="46.2031" lon="6.24325">
        <ele>437.39999389648</ele>
        <time>2021-03-29T08:47:43.000Z</time>
      </trkpt>
      <trkpt lat="46.20317" lon="6.24347">
        <ele>437.79998779297</ele>
        <time>2021-03-29T08:47:47.000Z</time>
      </trkpt>
      <trkpt lat="46.20331" lon="6.24396">
        <ele>439.20001220703</ele>
        <time>2021-03-29T08:47:56.000Z</time>
      </trkpt>
      <trkpt lat="46.20343" lon="6.24441">
        <ele>439.20001220703</ele>
        <time>2021-03-29T08:48:04.000Z</time>
      </trkpt>
      <trkpt lat="46.20354" lon="6.24463">
        <ele>439.20001220703</ele>
        <time>2021-03-29T08:48:09.000Z</time>
      </trkpt>
      <trkpt lat="46.20355" lon="6.24464">
        <ele>439.39999389648</ele>
        <time>2021-03-29T08:48:13.000Z</time>
      </trkpt>
      <trkpt lat="46.20355" lon="6.24464">
        <ele>439.39999389648</ele>
        <time>2021-03-29T08:48:20.000Z</time>
      </trkpt>
      <trkpt lat="46.20355" lon="6.24465">
        <ele>439.39999389648</ele>
        <time>2021-03-29T08:48:21.000Z</time>
      </trkpt>
      <trkpt lat="46.20355" lon="6.24465">
        <ele>439.39999389648</ele>
        <time>2021-03-29T08:48:22.000Z</time>
      </trkpt>
      <trkpt lat="46.20367" lon="6.24456">
        <ele>439</ele>
        <time>2021-03-29T08:48:23.000Z</time>
      </trkpt>
      <trkpt lat="46.20375" lon="6.24449">
        <ele>439.20001220703</ele>
        <time>2021-03-29T08:48:27.000Z</time>
      </trkpt>
      <trkpt lat="46.20396" lon="6.24415">
        <ele>439.79998779297</ele>
        <time>2021-03-29T08:48:33.000Z</time>
      </trkpt>
      <trkpt lat="46.20397" lon="6.24408">
        <ele>439.79998779297</ele>
        <time>2021-03-29T08:48:34.000Z</time>
      </trkpt>
      <trkpt lat="46.20398" lon="6.24401">
        <ele>440</ele>
        <time>2021-03-29T08:48:35.000Z</time>
      </trkpt>
      <trkpt lat="46.204" lon="6.24372">
        <ele>440.20001220703</ele>
        <time>2021-03-29T08:48:38.000Z</time>
      </trkpt>
      <trkpt lat="46.20405" lon="6.24305">
        <ele>440.60000610352</ele>
        <time>2021-03-29T08:48:44.000Z</time>
      </trkpt>
      <trkpt lat="46.20411" lon="6.24221">
        <ele>439.79998779297</ele>
        <time>2021-03-29T08:48:51.000Z</time>
      </trkpt>
      <trkpt lat="46.20414" lon="6.24184">
        <ele>439.20001220703</ele>
        <time>2021-03-29T08:48:54.000Z</time>
      </trkpt>
      <trkpt lat="46.20421" lon="6.24115">
        <ele>437.60000610352</ele>
        <time>2021-03-29T08:49:00.000Z</time>
      </trkpt>
      <trkpt lat="46.20421" lon="6.24087">
        <ele>436.60000610352</ele>
        <time>2021-03-29T08:49:03.000Z</time>
      </trkpt>
      <trkpt lat="46.20421" lon="6.24081">
        <ele>436.60000610352</ele>
        <time>2021-03-29T08:49:04.000Z</time>
      </trkpt>
      <trkpt lat="46.20424" lon="6.24073">
        <ele>436.39999389648</ele>
        <time>2021-03-29T08:49:05.000Z</time>
      </trkpt>
      <trkpt lat="46.20428" lon="6.24059">
        <ele>436.39999389648</ele>
        <time>2021-03-29T08:49:07.000Z</time>
      </trkpt>
      <trkpt lat="46.2043" lon="6.24052">
        <ele>436.60000610352</ele>
        <time>2021-03-29T08:49:08.000Z</time>
      </trkpt>
      <trkpt lat="46.2044" lon="6.24018">
        <ele>437</ele>
        <time>2021-03-29T08:49:13.000Z</time>
      </trkpt>
      <trkpt lat="46.20454" lon="6.23969">
        <ele>437.79998779297</ele>
        <time>2021-03-29T08:49:20.000Z</time>
      </trkpt>
      <trkpt lat="46.20461" lon="6.23945">
        <ele>437.60000610352</ele>
        <time>2021-03-29T08:49:25.000Z</time>
      </trkpt>
      <trkpt lat="46.20463" lon="6.23937">
        <ele>437.39999389648</ele>
        <time>2021-03-29T08:49:26.000Z</time>
      </trkpt>
      <trkpt lat="46.2047" lon="6.23929">
        <ele>437</ele>
        <time>2021-03-29T08:49:28.000Z</time>
      </trkpt>
      <trkpt lat="46.20492" lon="6.23937">
        <ele>436.60000610352</ele>
        <time>2021-03-29T08:49:33.000Z</time>
      </trkpt>
      <trkpt lat="46.20511" lon="6.23942">
        <ele>436</ele>
        <time>2021-03-29T08:49:38.000Z</time>
      </trkpt>
      <trkpt lat="46.20517" lon="6.23945">
        <ele>435.79998779297</ele>
        <time>2021-03-29T08:49:39.000Z</time>
      </trkpt>
      <trkpt lat="46.20541" lon="6.23958">
        <ele>435.20001220703</ele>
        <time>2021-03-29T08:49:44.000Z</time>
      </trkpt>
      <trkpt lat="46.20581" lon="6.23977">
        <ele>435</ele>
        <time>2021-03-29T08:49:52.000Z</time>
      </trkpt>
      <trkpt lat="46.20634" lon="6.23995">
        <ele>435.20001220703</ele>
        <time>2021-03-29T08:50:02.000Z</time>
      </trkpt>
      <trkpt lat="46.20657" lon="6.24001">
        <ele>435.39999389648</ele>
        <time>2021-03-29T08:50:07.000Z</time>
      </trkpt>
      <trkpt lat="46.20666" lon="6.24004">
        <ele>435.60000610352</ele>
        <time>2021-03-29T08:50:09.000Z</time>
      </trkpt>
      <trkpt lat="46.20711" lon="6.24013">
        <ele>436.60000610352</ele>
        <time>2021-03-29T08:50:18.000Z</time>
      </trkpt>
      <trkpt lat="46.2075" lon="6.24029">
        <ele>437.20001220703</ele>
        <time>2021-03-29T08:50:26.000Z</time>
      </trkpt>
      <trkpt lat="46.2079" lon="6.24048">
        <ele>437.79998779297</ele>
        <time>2021-03-29T08:50:35.000Z</time>
      </trkpt>
      <trkpt lat="46.2082" lon="6.24054">
        <ele>437.79998779297</ele>
        <time>2021-03-29T08:50:41.000Z</time>
      </trkpt>
      <trkpt lat="46.20827" lon="6.24057">
        <ele>438</ele>
        <time>2021-03-29T08:50:43.000Z</time>
      </trkpt>
      <trkpt lat="46.20836" lon="6.2406">
        <ele>438</ele>
        <time>2021-03-29T08:50:45.000Z</time>
      </trkpt>
      <trkpt lat="46.20861" lon="6.24095">
        <ele>438</ele>
        <time>2021-03-29T08:50:52.000Z</time>
      </trkpt>
      <trkpt lat="46.2087" lon="6.24101">
        <ele>438</ele>
        <time>2021-03-29T08:50:54.000Z</time>
      </trkpt>
      <trkpt lat="46.20885" lon="6.24107">
        <ele>438</ele>
        <time>2021-03-29T08:50:57.000Z</time>
      </trkpt>
      <trkpt lat="46.20926" lon="6.24112">
        <ele>438.39999389648</ele>
        <time>2021-03-29T08:51:04.000Z</time>
      </trkpt>
      <trkpt lat="46.20959" lon="6.24116">
        <ele>438.60000610352</ele>
        <time>2021-03-29T08:51:10.000Z</time>
      </trkpt>
      <trkpt lat="46.20963" lon="6.24118">
        <ele>438.60000610352</ele>
        <time>2021-03-29T08:51:11.000Z</time>
      </trkpt>
      <trkpt lat="46.20973" lon="6.24124">
        <ele>438.79998779297</ele>
        <time>2021-03-29T08:51:13.000Z</time>
      </trkpt>
      <trkpt lat="46.2098" lon="6.24128">
        <ele>438.79998779297</ele>
        <time>2021-03-29T08:51:14.000Z</time>
      </trkpt>
      <trkpt lat="46.21009" lon="6.24172">
        <ele>437.79998779297</ele>
        <time>2021-03-29T08:51:21.000Z</time>
      </trkpt>
      <trkpt lat="46.21045" lon="6.24226">
        <ele>436.20001220703</ele>
        <time>2021-03-29T08:51:30.000Z</time>
      </trkpt>
      <trkpt lat="46.21082" lon="6.24283">
        <ele>437.20001220703</ele>
        <time>2021-03-29T08:51:40.000Z</time>
      </trkpt>
      <trkpt lat="46.2109" lon="6.24294">
        <ele>437.60000610352</ele>
        <time>2021-03-29T08:51:42.000Z</time>
      </trkpt>
      <trkpt lat="46.21127" lon="6.2435">
        <ele>439</ele>
        <time>2021-03-29T08:51:52.000Z</time>
      </trkpt>
      <trkpt lat="46.21166" lon="6.24409">
        <ele>440</ele>
        <time>2021-03-29T08:52:02.000Z</time>
      </trkpt>
      <trkpt lat="46.2117" lon="6.24415">
        <ele>440</ele>
        <time>2021-03-29T08:52:03.000Z</time>
      </trkpt>
      <trkpt lat="46.21209" lon="6.24473">
        <ele>440.20001220703</ele>
        <time>2021-03-29T08:52:13.000Z</time>
      </trkpt>
      <trkpt lat="46.21213" lon="6.24479">
        <ele>440.20001220703</ele>
        <time>2021-03-29T08:52:14.000Z</time>
      </trkpt>
      <trkpt lat="46.21252" lon="6.24537">
        <ele>440.20001220703</ele>
        <time>2021-03-29T08:52:24.000Z</time>
      </trkpt>
      <trkpt lat="46.21261" lon="6.24546">
        <ele>440</ele>
        <time>2021-03-29T08:52:26.000Z</time>
      </trkpt>
      <trkpt lat="46.21302" lon="6.24579">
        <ele>439.39999389648</ele>
        <time>2021-03-29T08:52:34.000Z</time>
      </trkpt>
      <trkpt lat="46.21351" lon="6.24615">
        <ele>440.60000610352</ele>
        <time>2021-03-29T08:52:43.000Z</time>
      </trkpt>
      <trkpt lat="46.21373" lon="6.24631">
        <ele>441.20001220703</ele>
        <time>2021-03-29T08:52:47.000Z</time>
      </trkpt>
      <trkpt lat="46.21414" lon="6.2466">
        <ele>441.79998779297</ele>
        <time>2021-03-29T08:52:55.000Z</time>
      </trkpt>
      <trkpt lat="46.21437" lon="6.24676">
        <ele>441.60000610352</ele>
        <time>2021-03-29T08:53:00.000Z</time>
      </trkpt>
      <trkpt lat="46.2146" lon="6.24692">
        <ele>441.20001220703</ele>
        <time>2021-03-29T08:53:05.000Z</time>
      </trkpt>
      <trkpt lat="46.21507" lon="6.24726">
        <ele>440.39999389648</ele>
        <time>2021-03-29T08:53:13.000Z</time>
      </trkpt>
      <trkpt lat="46.21558" lon="6.24763">
        <ele>439.60000610352</ele>
        <time>2021-03-29T08:53:22.000Z</time>
      </trkpt>
      <trkpt lat="46.21566" lon="6.24777">
        <ele>439.60000610352</ele>
        <time>2021-03-29T08:53:24.000Z</time>
      </trkpt>
      <trkpt lat="46.21568" lon="6.24784">
        <ele>439.60000610352</ele>
        <time>2021-03-29T08:53:25.000Z</time>
      </trkpt>
      <trkpt lat="46.21568" lon="6.24793">
        <ele>439.79998779297</ele>
        <time>2021-03-29T08:53:26.000Z</time>
      </trkpt>
      <trkpt lat="46.21568" lon="6.24801">
        <ele>439.79998779297</ele>
        <time>2021-03-29T08:53:28.000Z</time>
      </trkpt>
      <trkpt lat="46.21554" lon="6.24845">
        <ele>440.79998779297</ele>
        <time>2021-03-29T08:53:33.000Z</time>
      </trkpt>
      <trkpt lat="46.21534" lon="6.2489">
        <ele>442.39999389648</ele>
        <time>2021-03-29T08:53:40.000Z</time>
      </trkpt>
      <trkpt lat="46.21517" lon="6.24928">
        <ele>444.20001220703</ele>
        <time>2021-03-29T08:53:46.000Z</time>
      </trkpt>
      <trkpt lat="46.21506" lon="6.24951">
        <ele>445.39999389648</ele>
        <time>2021-03-29T08:53:50.000Z</time>
      </trkpt>
      <trkpt lat="46.21503" lon="6.24959">
        <ele>445.60000610352</ele>
        <time>2021-03-29T08:53:51.000Z</time>
      </trkpt>
      <trkpt lat="46.2149" lon="6.25005">
        <ele>447.39999389648</ele>
        <time>2021-03-29T08:53:58.000Z</time>
      </trkpt>
      <trkpt lat="46.21489" lon="6.25033">
        <ele>448</ele>
        <time>2021-03-29T08:54:02.000Z</time>
      </trkpt>
      <trkpt lat="46.21489" lon="6.25041">
        <ele>448.20001220703</ele>
        <time>2021-03-29T08:54:03.000Z</time>
      </trkpt>
      <trkpt lat="46.21489" lon="6.25043">
        <ele>448.20001220703</ele>
        <time>2021-03-29T08:54:04.000Z</time>
      </trkpt>
      <trkpt lat="46.21494" lon="6.25047">
        <ele>448.20001220703</ele>
        <time>2021-03-29T08:54:06.000Z</time>
      </trkpt>
      <trkpt lat="46.21496" lon="6.2505">
        <ele>448.20001220703</ele>
        <time>2021-03-29T08:54:07.000Z</time>
      </trkpt>
      <trkpt lat="46.21505" lon="6.25058">
        <ele>448.20001220703</ele>
        <time>2021-03-29T08:54:09.000Z</time>
      </trkpt>
      <trkpt lat="46.21517" lon="6.2507">
        <ele>448.20001220703</ele>
        <time>2021-03-29T08:54:11.000Z</time>
      </trkpt>
      <trkpt lat="46.21539" lon="6.25092">
        <ele>448.20001220703</ele>
        <time>2021-03-29T08:54:15.000Z</time>
      </trkpt>
      <trkpt lat="46.21544" lon="6.25097">
        <ele>448.20001220703</ele>
        <time>2021-03-29T08:54:16.000Z</time>
      </trkpt>
      <trkpt lat="46.21573" lon="6.25126">
        <ele>448.60000610352</ele>
        <time>2021-03-29T08:54:22.000Z</time>
      </trkpt>
      <trkpt lat="46.21597" lon="6.2515">
        <ele>449.20001220703</ele>
        <time>2021-03-29T08:54:27.000Z</time>
      </trkpt>
      <trkpt lat="46.21602" lon="6.25157">
        <ele>449.20001220703</ele>
        <time>2021-03-29T08:54:28.000Z</time>
      </trkpt>
      <trkpt lat="46.21604" lon="6.2516">
        <ele>449.39999389648</ele>
        <time>2021-03-29T08:54:29.000Z</time>
      </trkpt>
      <trkpt lat="46.21617" lon="6.25175">
        <ele>449.60000610352</ele>
        <time>2021-03-29T08:54:32.000Z</time>
      </trkpt>
      <trkpt lat="46.21632" lon="6.25194">
        <ele>450.20001220703</ele>
        <time>2021-03-29T08:54:36.000Z</time>
      </trkpt>
      <trkpt lat="46.2165" lon="6.25216">
        <ele>450.60000610352</ele>
        <time>2021-03-29T08:54:40.000Z</time>
      </trkpt>
      <trkpt lat="46.21658" lon="6.25225">
        <ele>450.79998779297</ele>
        <time>2021-03-29T08:54:42.000Z</time>
      </trkpt>
      <trkpt lat="46.2167" lon="6.25239">
        <ele>451.39999389648</ele>
        <time>2021-03-29T08:54:45.000Z</time>
      </trkpt>
      <trkpt lat="46.2168" lon="6.2525">
        <ele>452</ele>
        <time>2021-03-29T08:54:47.000Z</time>
      </trkpt>
      <trkpt lat="46.21697" lon="6.2527">
        <ele>453</ele>
        <time>2021-03-29T08:54:51.000Z</time>
      </trkpt>
      <trkpt lat="46.21727" lon="6.25292">
        <ele>454</ele>
        <time>2021-03-29T08:54:57.000Z</time>
      </trkpt>
      <trkpt lat="46.21749" lon="6.25305">
        <ele>454.39999389648</ele>
        <time>2021-03-29T08:55:02.000Z</time>
      </trkpt>
      <trkpt lat="46.21753" lon="6.25307">
        <ele>454.39999389648</ele>
        <time>2021-03-29T08:55:03.000Z</time>
      </trkpt>
      <trkpt lat="46.21762" lon="6.25312">
        <ele>454.60000610352</ele>
        <time>2021-03-29T08:55:05.000Z</time>
      </trkpt>
      <trkpt lat="46.21772" lon="6.25317">
        <ele>454.79998779297</ele>
        <time>2021-03-29T08:55:07.000Z</time>
      </trkpt>
      <trkpt lat="46.21813" lon="6.25335">
        <ele>455</ele>
        <time>2021-03-29T08:55:15.000Z</time>
      </trkpt>
      <trkpt lat="46.21824" lon="6.2534">
        <ele>454.79998779297</ele>
        <time>2021-03-29T08:55:17.000Z</time>
      </trkpt>
      <trkpt lat="46.21833" lon="6.25343">
        <ele>454.60000610352</ele>
        <time>2021-03-29T08:55:19.000Z</time>
      </trkpt>
      <trkpt lat="46.2184" lon="6.25345">
        <ele>454.60000610352</ele>
        <time>2021-03-29T08:55:20.000Z</time>
      </trkpt>
      <trkpt lat="46.21851" lon="6.25349">
        <ele>454.39999389648</ele>
        <time>2021-03-29T08:55:22.000Z</time>
      </trkpt>
      <trkpt lat="46.21871" lon="6.25355">
        <ele>454.20001220703</ele>
        <time>2021-03-29T08:55:26.000Z</time>
      </trkpt>
      <trkpt lat="46.21886" lon="6.25353">
        <ele>453.79998779297</ele>
        <time>2021-03-29T08:55:29.000Z</time>
      </trkpt>
      <trkpt lat="46.21895" lon="6.25352">
        <ele>453.39999389648</ele>
        <time>2021-03-29T08:55:31.000Z</time>
      </trkpt>
      <trkpt lat="46.21918" lon="6.25343">
        <ele>452.20001220703</ele>
        <time>2021-03-29T08:55:37.000Z</time>
      </trkpt>
      <trkpt lat="46.21919" lon="6.25342">
        <ele>452.20001220703</ele>
        <time>2021-03-29T08:55:38.000Z</time>
      </trkpt>
      <trkpt lat="46.21928" lon="6.25354">
        <ele>452.39999389648</ele>
        <time>2021-03-29T08:55:40.000Z</time>
      </trkpt>
      <trkpt lat="46.21926" lon="6.25359">
        <ele>452.60000610352</ele>
        <time>2021-03-29T08:55:41.000Z</time>
      </trkpt>
      <trkpt lat="46.21922" lon="6.25371">
        <ele>453.20001220703</ele>
        <time>2021-03-29T08:55:44.000Z</time>
      </trkpt>
      <trkpt lat="46.21916" lon="6.25403">
        <ele>454.79998779297</ele>
        <time>2021-03-29T08:55:50.000Z</time>
      </trkpt>
      <trkpt lat="46.21918" lon="6.25441">
        <ele>457.39999389648</ele>
        <time>2021-03-29T08:55:57.000Z</time>
      </trkpt>
      <trkpt lat="46.21919" lon="6.25458">
        <ele>458.60000610352</ele>
        <time>2021-03-29T08:56:00.000Z</time>
      </trkpt>
      <trkpt lat="46.21923" lon="6.25473">
        <ele>459.60000610352</ele>
        <time>2021-03-29T08:56:03.000Z</time>
      </trkpt>
      <trkpt lat="46.21933" lon="6.25489">
        <ele>460.20001220703</ele>
        <time>2021-03-29T08:56:07.000Z</time>
      </trkpt>
      <trkpt lat="46.21936" lon="6.25493">
        <ele>460.39999389648</ele>
        <time>2021-03-29T08:56:08.000Z</time>
      </trkpt>
      <trkpt lat="46.21958" lon="6.2552">
        <ele>461.20001220703</ele>
        <time>2021-03-29T08:56:15.000Z</time>
      </trkpt>
      <trkpt lat="46.21977" lon="6.2552">
        <ele>460.60000610352</ele>
        <time>2021-03-29T08:56:19.000Z</time>
      </trkpt>
      <trkpt lat="46.2198" lon="6.2552">
        <ele>460.39999389648</ele>
        <time>2021-03-29T08:56:20.000Z</time>
      </trkpt>
      <trkpt lat="46.22011" lon="6.2552">
        <ele>459.20001220703</ele>
        <time>2021-03-29T08:56:27.000Z</time>
      </trkpt>
      <trkpt lat="46.22023" lon="6.25521">
        <ele>459</ele>
        <time>2021-03-29T08:56:30.000Z</time>
      </trkpt>
      <trkpt lat="46.22039" lon="6.25526">
        <ele>459</ele>
        <time>2021-03-29T08:56:34.000Z</time>
      </trkpt>
      <trkpt lat="46.22044" lon="6.25529">
        <ele>459</ele>
        <time>2021-03-29T08:56:36.000Z</time>
      </trkpt>
      <trkpt lat="46.2205" lon="6.25536">
        <ele>459.20001220703</ele>
        <time>2021-03-29T08:56:38.000Z</time>
      </trkpt>
      <trkpt lat="46.22057" lon="6.25564">
        <ele>460.20001220703</ele>
        <time>2021-03-29T08:56:43.000Z</time>
      </trkpt>
      <trkpt lat="46.22058" lon="6.25569">
        <ele>460.39999389648</ele>
        <time>2021-03-29T08:56:44.000Z</time>
      </trkpt>
      <trkpt lat="46.22064" lon="6.25586">
        <ele>460.79998779297</ele>
        <time>2021-03-29T08:56:47.000Z</time>
      </trkpt>
      <trkpt lat="46.22078" lon="6.25611">
        <ele>462</ele>
        <time>2021-03-29T08:56:52.000Z</time>
      </trkpt>
      <trkpt lat="46.22081" lon="6.25614">
        <ele>462</ele>
        <time>2021-03-29T08:56:53.000Z</time>
      </trkpt>
      <trkpt lat="46.22084" lon="6.25616">
        <ele>462.20001220703</ele>
        <time>2021-03-29T08:56:54.000Z</time>
      </trkpt>
      <trkpt lat="46.22092" lon="6.25617">
        <ele>462.39999389648</ele>
        <time>2021-03-29T08:56:56.000Z</time>
      </trkpt>
      <trkpt lat="46.22097" lon="6.25616">
        <ele>462.39999389648</ele>
        <time>2021-03-29T08:56:57.000Z</time>
      </trkpt>
      <trkpt lat="46.22113" lon="6.25616">
        <ele>462.60000610352</ele>
        <time>2021-03-29T08:57:01.000Z</time>
      </trkpt>
      <trkpt lat="46.22123" lon="6.25616">
        <ele>462.60000610352</ele>
        <time>2021-03-29T08:57:03.000Z</time>
      </trkpt>
      <trkpt lat="46.2214" lon="6.25624">
        <ele>463</ele>
        <time>2021-03-29T08:57:08.000Z</time>
      </trkpt>
      <trkpt lat="46.22167" lon="6.25649">
        <ele>463.39999389648</ele>
        <time>2021-03-29T08:57:16.000Z</time>
      </trkpt>
      <trkpt lat="46.22187" lon="6.25675">
        <ele>463.60000610352</ele>
        <time>2021-03-29T08:57:23.000Z</time>
      </trkpt>
      <trkpt lat="46.22212" lon="6.2571">
        <ele>464</ele>
        <time>2021-03-29T08:57:31.000Z</time>
      </trkpt>
      <trkpt lat="46.22216" lon="6.25716">
        <ele>464</ele>
        <time>2021-03-29T08:57:32.000Z</time>
      </trkpt>
      <trkpt lat="46.22225" lon="6.25729">
        <ele>464</ele>
        <time>2021-03-29T08:57:35.000Z</time>
      </trkpt>
      <trkpt lat="46.22247" lon="6.25765">
        <ele>464.60000610352</ele>
        <time>2021-03-29T08:57:41.000Z</time>
      </trkpt>
      <trkpt lat="46.22278" lon="6.25831">
        <ele>465.60000610352</ele>
        <time>2021-03-29T08:57:50.000Z</time>
      </trkpt>
      <trkpt lat="46.22307" lon="6.25899">
        <ele>466</ele>
        <time>2021-03-29T08:58:00.000Z</time>
      </trkpt>
      <trkpt lat="46.22328" lon="6.25949">
        <ele>466.20001220703</ele>
        <time>2021-03-29T08:58:07.000Z</time>
      </trkpt>
      <trkpt lat="46.22334" lon="6.25993">
        <ele>466</ele>
        <time>2021-03-29T08:58:13.000Z</time>
      </trkpt>
      <trkpt lat="46.22332" lon="6.26021">
        <ele>466.60000610352</ele>
        <time>2021-03-29T08:58:17.000Z</time>
      </trkpt>
      <trkpt lat="46.2233" lon="6.26028">
        <ele>466.79998779297</ele>
        <time>2021-03-29T08:58:18.000Z</time>
      </trkpt>
      <trkpt lat="46.22329" lon="6.26034">
        <ele>466.79998779297</ele>
        <time>2021-03-29T08:58:19.000Z</time>
      </trkpt>
      <trkpt lat="46.22326" lon="6.2605">
        <ele>467.39999389648</ele>
        <time>2021-03-29T08:58:21.000Z</time>
      </trkpt>
      <trkpt lat="46.22323" lon="6.26062">
        <ele>467.79998779297</ele>
        <time>2021-03-29T08:58:23.000Z</time>
      </trkpt>
      <trkpt lat="46.22322" lon="6.26068">
        <ele>467.79998779297</ele>
        <time>2021-03-29T08:58:24.000Z</time>
      </trkpt>
      <trkpt lat="46.22327" lon="6.26085">
        <ele>468</ele>
        <time>2021-03-29T08:58:26.000Z</time>
      </trkpt>
      <trkpt lat="46.22339" lon="6.26122">
        <ele>468</ele>
        <time>2021-03-29T08:58:31.000Z</time>
      </trkpt>
      <trkpt lat="46.22357" lon="6.26174">
        <ele>469</ele>
        <time>2021-03-29T08:58:38.000Z</time>
      </trkpt>
      <trkpt lat="46.22361" lon="6.26188">
        <ele>469.39999389648</ele>
        <time>2021-03-29T08:58:40.000Z</time>
      </trkpt>
      <trkpt lat="46.22367" lon="6.26207">
        <ele>469.79998779297</ele>
        <time>2021-03-29T08:58:43.000Z</time>
      </trkpt>
      <trkpt lat="46.22369" lon="6.26211">
        <ele>469.79998779297</ele>
        <time>2021-03-29T08:58:44.000Z</time>
      </trkpt>
      <trkpt lat="46.22373" lon="6.26223">
        <ele>470</ele>
        <time>2021-03-29T08:58:46.000Z</time>
      </trkpt>
      <trkpt lat="46.22373" lon="6.26231">
        <ele>470</ele>
        <time>2021-03-29T08:58:47.000Z</time>
      </trkpt>
      <trkpt lat="46.22373" lon="6.26282">
        <ele>470</ele>
        <time>2021-03-29T08:58:54.000Z</time>
      </trkpt>
      <trkpt lat="46.22373" lon="6.26293">
        <ele>470</ele>
        <time>2021-03-29T08:58:56.000Z</time>
      </trkpt>
      <trkpt lat="46.22375" lon="6.26318">
        <ele>469.79998779297</ele>
        <time>2021-03-29T08:58:59.000Z</time>
      </trkpt>
      <trkpt lat="46.22377" lon="6.26325">
        <ele>470</ele>
        <time>2021-03-29T08:59:00.000Z</time>
      </trkpt>
      <trkpt lat="46.22386" lon="6.26355">
        <ele>470.39999389648</ele>
        <time>2021-03-29T08:59:04.000Z</time>
      </trkpt>
      <trkpt lat="46.22388" lon="6.26362">
        <ele>470.60000610352</ele>
        <time>2021-03-29T08:59:05.000Z</time>
      </trkpt>
      <trkpt lat="46.22395" lon="6.26382">
        <ele>470.79998779297</ele>
        <time>2021-03-29T08:59:08.000Z</time>
      </trkpt>
      <trkpt lat="46.22397" lon="6.2639">
        <ele>471</ele>
        <time>2021-03-29T08:59:09.000Z</time>
      </trkpt>
      <trkpt lat="46.22399" lon="6.26398">
        <ele>471</ele>
        <time>2021-03-29T08:59:10.000Z</time>
      </trkpt>
      <trkpt lat="46.22396" lon="6.26415">
        <ele>471.20001220703</ele>
        <time>2021-03-29T08:59:12.000Z</time>
      </trkpt>
      <trkpt lat="46.22394" lon="6.26422">
        <ele>471.20001220703</ele>
        <time>2021-03-29T08:59:13.000Z</time>
      </trkpt>
      <trkpt lat="46.22391" lon="6.2644">
        <ele>471.39999389648</ele>
        <time>2021-03-29T08:59:16.000Z</time>
      </trkpt>
      <trkpt lat="46.22388" lon="6.26459">
        <ele>471.60000610352</ele>
        <time>2021-03-29T08:59:18.000Z</time>
      </trkpt>
      <trkpt lat="46.22393" lon="6.26475">
        <ele>472</ele>
        <time>2021-03-29T08:59:20.000Z</time>
      </trkpt>
      <trkpt lat="46.22396" lon="6.26479">
        <ele>472</ele>
        <time>2021-03-29T08:59:21.000Z</time>
      </trkpt>
      <trkpt lat="46.22405" lon="6.26488">
        <ele>472</ele>
        <time>2021-03-29T08:59:23.000Z</time>
      </trkpt>
      <trkpt lat="46.22418" lon="6.26505">
        <ele>472</ele>
        <time>2021-03-29T08:59:26.000Z</time>
      </trkpt>
      <trkpt lat="46.22426" lon="6.26523">
        <ele>472</ele>
        <time>2021-03-29T08:59:29.000Z</time>
      </trkpt>
      <trkpt lat="46.22433" lon="6.26536">
        <ele>472</ele>
        <time>2021-03-29T08:59:31.000Z</time>
      </trkpt>
      <trkpt lat="46.2244" lon="6.2654">
        <ele>472</ele>
        <time>2021-03-29T08:59:33.000Z</time>
      </trkpt>
      <trkpt lat="46.22446" lon="6.26541">
        <ele>472</ele>
        <time>2021-03-29T08:59:34.000Z</time>
      </trkpt>
      <trkpt lat="46.22452" lon="6.26542">
        <ele>472</ele>
        <time>2021-03-29T08:59:35.000Z</time>
      </trkpt>
      <trkpt lat="46.22467" lon="6.26537">
        <ele>471.79998779297</ele>
        <time>2021-03-29T08:59:38.000Z</time>
      </trkpt>
      <trkpt lat="46.22474" lon="6.26535">
        <ele>471.79998779297</ele>
        <time>2021-03-29T08:59:39.000Z</time>
      </trkpt>
      <trkpt lat="46.2251" lon="6.26525">
        <ele>471.60000610352</ele>
        <time>2021-03-29T08:59:46.000Z</time>
      </trkpt>
      <trkpt lat="46.22566" lon="6.26509">
        <ele>472</ele>
        <time>2021-03-29T08:59:56.000Z</time>
      </trkpt>
      <trkpt lat="46.22608" lon="6.26497">
        <ele>471.39999389648</ele>
        <time>2021-03-29T09:00:05.000Z</time>
      </trkpt>
      <trkpt lat="46.22617" lon="6.26495">
        <ele>471</ele>
        <time>2021-03-29T09:00:07.000Z</time>
      </trkpt>
      <trkpt lat="46.22624" lon="6.26493">
        <ele>470.79998779297</ele>
        <time>2021-03-29T09:00:09.000Z</time>
      </trkpt>
      <trkpt lat="46.22628" lon="6.26505">
        <ele>471</ele>
        <time>2021-03-29T09:00:11.000Z</time>
      </trkpt>
      <trkpt lat="46.22629" lon="6.26511">
        <ele>471.20001220703</ele>
        <time>2021-03-29T09:00:12.000Z</time>
      </trkpt>
      <trkpt lat="46.22636" lon="6.2657">
        <ele>472</ele>
        <time>2021-03-29T09:00:20.000Z</time>
      </trkpt>
      <trkpt lat="46.22645" lon="6.26648">
        <ele>472</ele>
        <time>2021-03-29T09:00:30.000Z</time>
      </trkpt>
      <trkpt lat="46.22646" lon="6.26656">
        <ele>472.20001220703</ele>
        <time>2021-03-29T09:00:31.000Z</time>
      </trkpt>
      <trkpt lat="46.22655" lon="6.26735">
        <ele>472.79998779297</ele>
        <time>2021-03-29T09:00:41.000Z</time>
      </trkpt>
      <trkpt lat="46.22657" lon="6.26749">
        <ele>473</ele>
        <time>2021-03-29T09:00:43.000Z</time>
      </trkpt>
      <trkpt lat="46.22666" lon="6.26825">
        <ele>473.79998779297</ele>
        <time>2021-03-29T09:00:52.000Z</time>
      </trkpt>
      <trkpt lat="46.22675" lon="6.26904">
        <ele>474.79998779297</ele>
        <time>2021-03-29T09:01:02.000Z</time>
      </trkpt>
      <trkpt lat="46.22685" lon="6.26982">
        <ele>476</ele>
        <time>2021-03-29T09:01:12.000Z</time>
      </trkpt>
      <trkpt lat="46.22692" lon="6.27039">
        <ele>476.79998779297</ele>
        <time>2021-03-29T09:01:20.000Z</time>
      </trkpt>
      <trkpt lat="46.22706" lon="6.27123">
        <ele>477.79998779297</ele>
        <time>2021-03-29T09:01:31.000Z</time>
      </trkpt>
      <trkpt lat="46.22728" lon="6.27185">
        <ele>478.39999389648</ele>
        <time>2021-03-29T09:01:40.000Z</time>
      </trkpt>
      <trkpt lat="46.22757" lon="6.27244">
        <ele>479.60000610352</ele>
        <time>2021-03-29T09:01:49.000Z</time>
      </trkpt>
      <trkpt lat="46.22785" lon="6.27286">
        <ele>480.39999389648</ele>
        <time>2021-03-29T09:01:57.000Z</time>
      </trkpt>
      <trkpt lat="46.22818" lon="6.27324">
        <ele>481.20001220703</ele>
        <time>2021-03-29T09:02:05.000Z</time>
      </trkpt>
      <trkpt lat="46.22849" lon="6.27359">
        <ele>481.79998779297</ele>
        <time>2021-03-29T09:02:13.000Z</time>
      </trkpt>
      <trkpt lat="46.22857" lon="6.27368">
        <ele>482</ele>
        <time>2021-03-29T09:02:17.000Z</time>
      </trkpt>
      <trkpt lat="46.22871" lon="6.27383">
        <ele>482.20001220703</ele>
        <time>2021-03-29T09:02:23.000Z</time>
      </trkpt>
      <trkpt lat="46.2288" lon="6.27394">
        <ele>482.20001220703</ele>
        <time>2021-03-29T09:02:26.000Z</time>
      </trkpt>
      <trkpt lat="46.22891" lon="6.27407">
        <ele>482.20001220703</ele>
        <time>2021-03-29T09:02:29.000Z</time>
      </trkpt>
      <trkpt lat="46.22927" lon="6.27446">
        <ele>483.39999389648</ele>
        <time>2021-03-29T09:02:38.000Z</time>
      </trkpt>
      <trkpt lat="46.2296" lon="6.27484">
        <ele>484.60000610352</ele>
        <time>2021-03-29T09:02:47.000Z</time>
      </trkpt>
      <trkpt lat="46.22993" lon="6.27521">
        <ele>484.79998779297</ele>
        <time>2021-03-29T09:02:56.000Z</time>
      </trkpt>
      <trkpt lat="46.23028" lon="6.27561">
        <ele>484.39999389648</ele>
        <time>2021-03-29T09:03:05.000Z</time>
      </trkpt>
      <trkpt lat="46.2304" lon="6.27575">
        <ele>484.20001220703</ele>
        <time>2021-03-29T09:03:08.000Z</time>
      </trkpt>
      <trkpt lat="46.23057" lon="6.27593">
        <ele>484</ele>
        <time>2021-03-29T09:03:12.000Z</time>
      </trkpt>
      <trkpt lat="46.23104" lon="6.27644">
        <ele>484</ele>
        <time>2021-03-29T09:03:22.000Z</time>
      </trkpt>
      <trkpt lat="46.23139" lon="6.27684">
        <ele>484</ele>
        <time>2021-03-29T09:03:30.000Z</time>
      </trkpt>
      <trkpt lat="46.23177" lon="6.27725">
        <ele>483.60000610352</ele>
        <time>2021-03-29T09:03:39.000Z</time>
      </trkpt>
      <trkpt lat="46.23208" lon="6.27759">
        <ele>484</ele>
        <time>2021-03-29T09:03:47.000Z</time>
      </trkpt>
      <trkpt lat="46.23249" lon="6.27806">
        <ele>484.39999389648</ele>
        <time>2021-03-29T09:03:57.000Z</time>
      </trkpt>
      <trkpt lat="46.23282" lon="6.27843">
        <ele>484.39999389648</ele>
        <time>2021-03-29T09:04:05.000Z</time>
      </trkpt>
      <trkpt lat="46.23319" lon="6.27884">
        <ele>484.79998779297</ele>
        <time>2021-03-29T09:04:14.000Z</time>
      </trkpt>
      <trkpt lat="46.23355" lon="6.27924">
        <ele>486.39999389648</ele>
        <time>2021-03-29T09:04:22.000Z</time>
      </trkpt>
      <trkpt lat="46.23388" lon="6.27961">
        <ele>488.20001220703</ele>
        <time>2021-03-29T09:04:29.000Z</time>
      </trkpt>
      <trkpt lat="46.23396" lon="6.2797">
        <ele>488.60000610352</ele>
        <time>2021-03-29T09:04:31.000Z</time>
      </trkpt>
      <trkpt lat="46.234" lon="6.27974">
        <ele>488.60000610352</ele>
        <time>2021-03-29T09:04:32.000Z</time>
      </trkpt>
      <trkpt lat="46.23405" lon="6.27968">
        <ele>488.20001220703</ele>
        <time>2021-03-29T09:04:33.000Z</time>
      </trkpt>
      <trkpt lat="46.23409" lon="6.27958">
        <ele>487.39999389648</ele>
        <time>2021-03-29T09:04:35.000Z</time>
      </trkpt>
      <trkpt lat="46.23415" lon="6.27938">
        <ele>486.39999389648</ele>
        <time>2021-03-29T09:04:38.000Z</time>
      </trkpt>
      <trkpt lat="46.2342" lon="6.27923">
        <ele>485.39999389648</ele>
        <time>2021-03-29T09:04:40.000Z</time>
      </trkpt>
      <trkpt lat="46.23424" lon="6.2791">
        <ele>485</ele>
        <time>2021-03-29T09:04:42.000Z</time>
      </trkpt>
      <trkpt lat="46.23427" lon="6.27901">
        <ele>484.79998779297</ele>
        <time>2021-03-29T09:04:44.000Z</time>
      </trkpt>
      <trkpt lat="46.2344" lon="6.2791">
        <ele>484.79998779297</ele>
        <time>2021-03-29T09:04:46.000Z</time>
      </trkpt>
      <trkpt lat="46.23444" lon="6.27913">
        <ele>484.79998779297</ele>
        <time>2021-03-29T09:04:47.000Z</time>
      </trkpt>
      <trkpt lat="46.23472" lon="6.27939">
        <ele>485</ele>
        <time>2021-03-29T09:04:53.000Z</time>
      </trkpt>
      <trkpt lat="46.23514" lon="6.27976">
        <ele>484.60000610352</ele>
        <time>2021-03-29T09:05:01.000Z</time>
      </trkpt>
      <trkpt lat="46.23558" lon="6.28016">
        <ele>484.39999389648</ele>
        <time>2021-03-29T09:05:10.000Z</time>
      </trkpt>
      <trkpt lat="46.23594" lon="6.28072">
        <ele>486.20001220703</ele>
        <time>2021-03-29T09:05:19.000Z</time>
      </trkpt>
      <trkpt lat="46.23629" lon="6.28127">
        <ele>486.79998779297</ele>
        <time>2021-03-29T09:05:28.000Z</time>
      </trkpt>
      <trkpt lat="46.2366" lon="6.28176">
        <ele>487</ele>
        <time>2021-03-29T09:05:36.000Z</time>
      </trkpt>
      <trkpt lat="46.2367" lon="6.28181">
        <ele>486.79998779297</ele>
        <time>2021-03-29T09:05:38.000Z</time>
      </trkpt>
      <trkpt lat="46.23675" lon="6.28171">
        <ele>486.60000610352</ele>
        <time>2021-03-29T09:05:40.000Z</time>
      </trkpt>
      <trkpt lat="46.23679" lon="6.28163">
        <ele>486.39999389648</ele>
        <time>2021-03-29T09:05:41.000Z</time>
      </trkpt>
      <trkpt lat="46.23708" lon="6.28107">
        <ele>485.20001220703</ele>
        <time>2021-03-29T09:05:49.000Z</time>
      </trkpt>
      <trkpt lat="46.2374" lon="6.28045">
        <ele>484.60000610352</ele>
        <time>2021-03-29T09:05:58.000Z</time>
      </trkpt>
      <trkpt lat="46.23749" lon="6.28028">
        <ele>484.39999389648</ele>
        <time>2021-03-29T09:06:00.000Z</time>
      </trkpt>
      <trkpt lat="46.23783" lon="6.27964">
        <ele>483.20001220703</ele>
        <time>2021-03-29T09:06:09.000Z</time>
      </trkpt>
      <trkpt lat="46.23786" lon="6.27957">
        <ele>483</ele>
        <time>2021-03-29T09:06:10.000Z</time>
      </trkpt>
      <trkpt lat="46.23808" lon="6.27914">
        <ele>483.79998779297</ele>
        <time>2021-03-29T09:06:17.000Z</time>
      </trkpt>
      <trkpt lat="46.23813" lon="6.27905">
        <ele>484</ele>
        <time>2021-03-29T09:06:19.000Z</time>
      </trkpt>
      <trkpt lat="46.2382" lon="6.27909">
        <ele>483.79998779297</ele>
        <time>2021-03-29T09:06:20.000Z</time>
      </trkpt>
      <trkpt lat="46.23822" lon="6.27914">
        <ele>483.79998779297</ele>
        <time>2021-03-29T09:06:21.000Z</time>
      </trkpt>
      <trkpt lat="46.2383" lon="6.27938">
        <ele>483.60000610352</ele>
        <time>2021-03-29T09:06:25.000Z</time>
      </trkpt>
      <trkpt lat="46.23847" lon="6.27988">
        <ele>483</ele>
        <time>2021-03-29T09:06:33.000Z</time>
      </trkpt>
      <trkpt lat="46.23872" lon="6.28069">
        <ele>484</ele>
        <time>2021-03-29T09:06:43.000Z</time>
      </trkpt>
      <trkpt lat="46.23892" lon="6.28138">
        <ele>484.79998779297</ele>
        <time>2021-03-29T09:06:52.000Z</time>
      </trkpt>
      <trkpt lat="46.23899" lon="6.28164">
        <ele>485.20001220703</ele>
        <time>2021-03-29T09:06:55.000Z</time>
      </trkpt>
      <trkpt lat="46.23919" lon="6.28235">
        <ele>485.79998779297</ele>
        <time>2021-03-29T09:07:04.000Z</time>
      </trkpt>
      <trkpt lat="46.23922" lon="6.28243">
        <ele>485.60000610352</ele>
        <time>2021-03-29T09:07:05.000Z</time>
      </trkpt>
      <trkpt lat="46.23925" lon="6.28253">
        <ele>485.60000610352</ele>
        <time>2021-03-29T09:07:06.000Z</time>
      </trkpt>
      <trkpt lat="46.23931" lon="6.28275">
        <ele>485.79998779297</ele>
        <time>2021-03-29T09:07:09.000Z</time>
      </trkpt>
      <trkpt lat="46.23952" lon="6.28353">
        <ele>486.20001220703</ele>
        <time>2021-03-29T09:07:18.000Z</time>
      </trkpt>
      <trkpt lat="46.23959" lon="6.28378">
        <ele>486.20001220703</ele>
        <time>2021-03-29T09:07:21.000Z</time>
      </trkpt>
      <trkpt lat="46.23977" lon="6.28454">
        <ele>488.79998779297</ele>
        <time>2021-03-29T09:07:30.000Z</time>
      </trkpt>
      <trkpt lat="46.23979" lon="6.28515">
        <ele>492</ele>
        <time>2021-03-29T09:07:37.000Z</time>
      </trkpt>
      <trkpt lat="46.23979" lon="6.28521">
        <ele>492.39999389648</ele>
        <time>2021-03-29T09:07:38.000Z</time>
      </trkpt>
      <trkpt lat="46.23987" lon="6.28544">
        <ele>494.20001220703</ele>
        <time>2021-03-29T09:07:40.000Z</time>
      </trkpt>
      <trkpt lat="46.23987" lon="6.28544">
        <ele>494.20001220703</ele>
        <time>2021-03-29T09:07:42.000Z</time>
      </trkpt>
      <trkpt lat="46.23993" lon="6.28538">
        <ele>494.39999389648</ele>
        <time>2021-03-29T09:07:43.000Z</time>
      </trkpt>
      <trkpt lat="46.23999" lon="6.28533">
        <ele>494.39999389648</ele>
        <time>2021-03-29T09:07:44.000Z</time>
      </trkpt>
      <trkpt lat="46.24018" lon="6.28515">
        <ele>494.60000610352</ele>
        <time>2021-03-29T09:07:48.000Z</time>
      </trkpt>
      <trkpt lat="46.24047" lon="6.28489">
        <ele>495.39999389648</ele>
        <time>2021-03-29T09:07:53.000Z</time>
      </trkpt>
      <trkpt lat="46.24092" lon="6.28448">
        <ele>491.79998779297</ele>
        <time>2021-03-29T09:08:00.000Z</time>
      </trkpt>
      <trkpt lat="46.2413" lon="6.28415">
        <ele>491.60000610352</ele>
        <time>2021-03-29T09:08:06.000Z</time>
      </trkpt>
      <trkpt lat="46.24174" lon="6.28375">
        <ele>490.39999389648</ele>
        <time>2021-03-29T09:08:13.000Z</time>
      </trkpt>
      <trkpt lat="46.24215" lon="6.28338">
        <ele>489.39999389648</ele>
        <time>2021-03-29T09:08:20.000Z</time>
      </trkpt>
      <trkpt lat="46.24243" lon="6.28313">
        <ele>488.39999389648</ele>
        <time>2021-03-29T09:08:25.000Z</time>
      </trkpt>
      <trkpt lat="46.24292" lon="6.28269">
        <ele>483.20001220703</ele>
        <time>2021-03-29T09:08:33.000Z</time>
      </trkpt>
      <trkpt lat="46.24304" lon="6.28258">
        <ele>482.60000610352</ele>
        <time>2021-03-29T09:08:35.000Z</time>
      </trkpt>
      <trkpt lat="46.24353" lon="6.28214">
        <ele>478.60000610352</ele>
        <time>2021-03-29T09:08:43.000Z</time>
      </trkpt>
      <trkpt lat="46.2437" lon="6.28199">
        <ele>477.60000610352</ele>
        <time>2021-03-29T09:08:46.000Z</time>
      </trkpt>
      <trkpt lat="46.24423" lon="6.2815">
        <ele>477</ele>
        <time>2021-03-29T09:08:54.000Z</time>
      </trkpt>
      <trkpt lat="46.24458" lon="6.28118">
        <ele>477</ele>
        <time>2021-03-29T09:09:00.000Z</time>
      </trkpt>
      <trkpt lat="46.24491" lon="6.28089">
        <ele>477</ele>
        <time>2021-03-29T09:09:07.000Z</time>
      </trkpt>
      <trkpt lat="46.245" lon="6.2808">
        <ele>477</ele>
        <time>2021-03-29T09:09:09.000Z</time>
      </trkpt>
      <trkpt lat="46.24498" lon="6.2807">
        <ele>476.79998779297</ele>
        <time>2021-03-29T09:09:10.000Z</time>
      </trkpt>
      <trkpt lat="46.24497" lon="6.28063">
        <ele>476.79998779297</ele>
        <time>2021-03-29T09:09:11.000Z</time>
      </trkpt>
      <trkpt lat="46.24489" lon="6.28028">
        <ele>476.39999389648</ele>
        <time>2021-03-29T09:09:15.000Z</time>
      </trkpt>
      <trkpt lat="46.24478" lon="6.27963">
        <ele>476</ele>
        <time>2021-03-29T09:09:22.000Z</time>
      </trkpt>
      <trkpt lat="46.24469" lon="6.27898">
        <ele>476.20001220703</ele>
        <time>2021-03-29T09:09:29.000Z</time>
      </trkpt>
      <trkpt lat="46.2446" lon="6.27853">
        <ele>475.39999389648</ele>
        <time>2021-03-29T09:09:35.000Z</time>
      </trkpt>
      <trkpt lat="46.24446" lon="6.27787">
        <ele>474.20001220703</ele>
        <time>2021-03-29T09:09:42.000Z</time>
      </trkpt>
      <trkpt lat="46.2443" lon="6.2771">
        <ele>473</ele>
        <time>2021-03-29T09:09:50.000Z</time>
      </trkpt>
      <trkpt lat="46.24414" lon="6.27632">
        <ele>472.20001220703</ele>
        <time>2021-03-29T09:09:58.000Z</time>
      </trkpt>
      <trkpt lat="46.24412" lon="6.27622">
        <ele>472</ele>
        <time>2021-03-29T09:09:59.000Z</time>
      </trkpt>
      <trkpt lat="46.24392" lon="6.27548">
        <ele>471</ele>
        <time>2021-03-29T09:10:07.000Z</time>
      </trkpt>
      <trkpt lat="46.24373" lon="6.27484">
        <ele>471.20001220703</ele>
        <time>2021-03-29T09:10:14.000Z</time>
      </trkpt>
      <trkpt lat="46.24349" lon="6.2741">
        <ele>470.79998779297</ele>
        <time>2021-03-29T09:10:22.000Z</time>
      </trkpt>
      <trkpt lat="46.24347" lon="6.27403">
        <ele>470.60000610352</ele>
        <time>2021-03-29T09:10:23.000Z</time>
      </trkpt>
      <trkpt lat="46.24324" lon="6.27323">
        <ele>470</ele>
        <time>2021-03-29T09:10:32.000Z</time>
      </trkpt>
      <trkpt lat="46.24314" lon="6.27268">
        <ele>469.39999389648</ele>
        <time>2021-03-29T09:10:38.000Z</time>
      </trkpt>
      <trkpt lat="46.24298" lon="6.27184">
        <ele>468.60000610352</ele>
        <time>2021-03-29T09:10:47.000Z</time>
      </trkpt>
      <trkpt lat="46.24295" lon="6.27175">
        <ele>468.60000610352</ele>
        <time>2021-03-29T09:10:48.000Z</time>
      </trkpt>
      <trkpt lat="46.24275" lon="6.27115">
        <ele>468.39999389648</ele>
        <time>2021-03-29T09:10:55.000Z</time>
      </trkpt>
      <trkpt lat="46.24255" lon="6.27057">
        <ele>468</ele>
        <time>2021-03-29T09:11:02.000Z</time>
      </trkpt>
      <trkpt lat="46.24247" lon="6.27037">
        <ele>467.79998779297</ele>
        <time>2021-03-29T09:11:06.000Z</time>
      </trkpt>
      <trkpt lat="46.24245" lon="6.27033">
        <ele>467.79998779297</ele>
        <time>2021-03-29T09:11:07.000Z</time>
      </trkpt>
      <trkpt lat="46.24251" lon="6.2702">
        <ele>467.20001220703</ele>
        <time>2021-03-29T09:11:09.000Z</time>
      </trkpt>
      <trkpt lat="46.24276" lon="6.26997">
        <ele>466</ele>
        <time>2021-03-29T09:11:14.000Z</time>
      </trkpt>
      <trkpt lat="46.24313" lon="6.26962">
        <ele>464.79998779297</ele>
        <time>2021-03-29T09:11:21.000Z</time>
      </trkpt>
      <trkpt lat="46.24323" lon="6.26952">
        <ele>464.39999389648</ele>
        <time>2021-03-29T09:11:23.000Z</time>
      </trkpt>
      <trkpt lat="46.24333" lon="6.26942">
        <ele>464</ele>
        <time>2021-03-29T09:11:25.000Z</time>
      </trkpt>
      <trkpt lat="46.2437" lon="6.26905">
        <ele>462.20001220703</ele>
        <time>2021-03-29T09:11:32.000Z</time>
      </trkpt>
      <trkpt lat="46.24407" lon="6.26862">
        <ele>460.60000610352</ele>
        <time>2021-03-29T09:11:39.000Z</time>
      </trkpt>
      <trkpt lat="46.24433" lon="6.26818">
        <ele>459.60000610352</ele>
        <time>2021-03-29T09:11:45.000Z</time>
      </trkpt>
      <trkpt lat="46.24438" lon="6.26811">
        <ele>459.39999389648</ele>
        <time>2021-03-29T09:11:46.000Z</time>
      </trkpt>
      <trkpt lat="46.24465" lon="6.26754">
        <ele>458.39999389648</ele>
        <time>2021-03-29T09:11:53.000Z</time>
      </trkpt>
      <trkpt lat="46.24496" lon="6.2669">
        <ele>458</ele>
        <time>2021-03-29T09:12:01.000Z</time>
      </trkpt>
      <trkpt lat="46.24508" lon="6.26664">
        <ele>458</ele>
        <time>2021-03-29T09:12:04.000Z</time>
      </trkpt>
      <trkpt lat="46.24535" lon="6.2659">
        <ele>458</ele>
        <time>2021-03-29T09:12:13.000Z</time>
      </trkpt>
      <trkpt lat="46.24555" lon="6.26513">
        <ele>459</ele>
        <time>2021-03-29T09:12:22.000Z</time>
      </trkpt>
      <trkpt lat="46.24571" lon="6.26454">
        <ele>459</ele>
        <time>2021-03-29T09:12:29.000Z</time>
      </trkpt>
      <trkpt lat="46.24585" lon="6.26392">
        <ele>458.39999389648</ele>
        <time>2021-03-29T09:12:36.000Z</time>
      </trkpt>
      <trkpt lat="46.246" lon="6.26332">
        <ele>458.60000610352</ele>
        <time>2021-03-29T09:12:43.000Z</time>
      </trkpt>
      <trkpt lat="46.24616" lon="6.26264">
        <ele>458.60000610352</ele>
        <time>2021-03-29T09:12:51.000Z</time>
      </trkpt>
      <trkpt lat="46.24628" lon="6.26212">
        <ele>458.60000610352</ele>
        <time>2021-03-29T09:12:57.000Z</time>
      </trkpt>
      <trkpt lat="46.24631" lon="6.26201">
        <ele>458.60000610352</ele>
        <time>2021-03-29T09:12:58.000Z</time>
      </trkpt>
      <trkpt lat="46.24639" lon="6.26167">
        <ele>458.79998779297</ele>
        <time>2021-03-29T09:13:02.000Z</time>
      </trkpt>
      <trkpt lat="46.24658" lon="6.26089">
        <ele>460.60000610352</ele>
        <time>2021-03-29T09:13:11.000Z</time>
      </trkpt>
      <trkpt lat="46.24676" lon="6.26015">
        <ele>460.60000610352</ele>
        <time>2021-03-29T09:13:20.000Z</time>
      </trkpt>
      <trkpt lat="46.24689" lon="6.25959">
        <ele>461.20001220703</ele>
        <time>2021-03-29T09:13:27.000Z</time>
      </trkpt>
      <trkpt lat="46.24709" lon="6.25879">
        <ele>462.20001220703</ele>
        <time>2021-03-29T09:13:37.000Z</time>
      </trkpt>
      <trkpt lat="46.24727" lon="6.25802">
        <ele>463.20001220703</ele>
        <time>2021-03-29T09:13:47.000Z</time>
      </trkpt>
      <trkpt lat="46.24731" lon="6.25786">
        <ele>463.60000610352</ele>
        <time>2021-03-29T09:13:49.000Z</time>
      </trkpt>
      <trkpt lat="46.24736" lon="6.25764">
        <ele>464</ele>
        <time>2021-03-29T09:13:52.000Z</time>
      </trkpt>
      <trkpt lat="46.24747" lon="6.25738">
        <ele>464</ele>
        <time>2021-03-29T09:13:55.000Z</time>
      </trkpt>
      <trkpt lat="46.24772" lon="6.25696">
        <ele>461.60000610352</ele>
        <time>2021-03-29T09:14:01.000Z</time>
      </trkpt>
      <trkpt lat="46.24811" lon="6.25633">
        <ele>458.79998779297</ele>
        <time>2021-03-29T09:14:10.000Z</time>
      </trkpt>
      <trkpt lat="46.24857" lon="6.2558">
        <ele>457.20001220703</ele>
        <time>2021-03-29T09:14:18.000Z</time>
      </trkpt>
      <trkpt lat="46.24903" lon="6.25529">
        <ele>455.39999389648</ele>
        <time>2021-03-29T09:14:25.000Z</time>
      </trkpt>
      <trkpt lat="46.24929" lon="6.25496">
        <ele>454.20001220703</ele>
        <time>2021-03-29T09:14:30.000Z</time>
      </trkpt>
      <trkpt lat="46.24938" lon="6.25484">
        <ele>453.60000610352</ele>
        <time>2021-03-29T09:14:32.000Z</time>
      </trkpt>
      <trkpt lat="46.24945" lon="6.25475">
        <ele>453.20001220703</ele>
        <time>2021-03-29T09:14:34.000Z</time>
      </trkpt>
      <trkpt lat="46.24953" lon="6.25477">
        <ele>453</ele>
        <time>2021-03-29T09:14:35.000Z</time>
      </trkpt>
      <trkpt lat="46.24958" lon="6.25473">
        <ele>452.60000610352</ele>
        <time>2021-03-29T09:14:36.000Z</time>
      </trkpt>
      <trkpt lat="46.24961" lon="6.2547">
        <ele>452.60000610352</ele>
        <time>2021-03-29T09:14:37.000Z</time>
      </trkpt>
      <trkpt lat="46.24958" lon="6.25451">
        <ele>452.60000610352</ele>
        <time>2021-03-29T09:14:38.000Z</time>
      </trkpt>
      <trkpt lat="46.24965" lon="6.25439">
        <ele>452.39999389648</ele>
        <time>2021-03-29T09:14:40.000Z</time>
      </trkpt>
      <trkpt lat="46.24981" lon="6.25412">
        <ele>452</ele>
        <time>2021-03-29T09:14:44.000Z</time>
      </trkpt>
      <trkpt lat="46.24989" lon="6.25397">
        <ele>452.20001220703</ele>
        <time>2021-03-29T09:14:46.000Z</time>
      </trkpt>
      <trkpt lat="46.25001" lon="6.25377">
        <ele>452</ele>
        <time>2021-03-29T09:14:49.000Z</time>
      </trkpt>
      <trkpt lat="46.25024" lon="6.25338">
        <ele>451.79998779297</ele>
        <time>2021-03-29T09:14:54.000Z</time>
      </trkpt>
      <trkpt lat="46.25054" lon="6.2528">
        <ele>451.39999389648</ele>
        <time>2021-03-29T09:15:02.000Z</time>
      </trkpt>
      <trkpt lat="46.25075" lon="6.25234">
        <ele>450.79998779297</ele>
        <time>2021-03-29T09:15:08.000Z</time>
      </trkpt>
      <trkpt lat="46.25096" lon="6.2519">
        <ele>451</ele>
        <time>2021-03-29T09:15:14.000Z</time>
      </trkpt>
      <trkpt lat="46.25098" lon="6.25185">
        <ele>451.20001220703</ele>
        <time>2021-03-29T09:15:15.000Z</time>
      </trkpt>
      <trkpt lat="46.25104" lon="6.25168">
        <ele>451</ele>
        <time>2021-03-29T09:15:17.000Z</time>
      </trkpt>
      <trkpt lat="46.25112" lon="6.25143">
        <ele>450.79998779297</ele>
        <time>2021-03-29T09:15:20.000Z</time>
      </trkpt>
      <trkpt lat="46.25138" lon="6.25071">
        <ele>450.20001220703</ele>
        <time>2021-03-29T09:15:29.000Z</time>
      </trkpt>
      <trkpt lat="46.2514" lon="6.25064">
        <ele>450.20001220703</ele>
        <time>2021-03-29T09:15:30.000Z</time>
      </trkpt>
      <trkpt lat="46.25162" lon="6.24986">
        <ele>450.39999389648</ele>
        <time>2021-03-29T09:15:39.000Z</time>
      </trkpt>
      <trkpt lat="46.25165" lon="6.24975">
        <ele>450.39999389648</ele>
        <time>2021-03-29T09:15:40.000Z</time>
      </trkpt>
      <trkpt lat="46.25185" lon="6.24896">
        <ele>449.20001220703</ele>
        <time>2021-03-29T09:15:49.000Z</time>
      </trkpt>
      <trkpt lat="46.25187" lon="6.24888">
        <ele>449</ele>
        <time>2021-03-29T09:15:50.000Z</time>
      </trkpt>
      <trkpt lat="46.252" lon="6.24837">
        <ele>448</ele>
        <time>2021-03-29T09:15:56.000Z</time>
      </trkpt>
      <trkpt lat="46.25207" lon="6.24809">
        <ele>447.79998779297</ele>
        <time>2021-03-29T09:16:00.000Z</time>
      </trkpt>
      <trkpt lat="46.25223" lon="6.24744">
        <ele>446.39999389648</ele>
        <time>2021-03-29T09:16:06.000Z</time>
      </trkpt>
      <trkpt lat="46.25236" lon="6.24694">
        <ele>446.60000610352</ele>
        <time>2021-03-29T09:16:11.000Z</time>
      </trkpt>
      <trkpt lat="46.25248" lon="6.24644">
        <ele>446.60000610352</ele>
        <time>2021-03-29T09:16:16.000Z</time>
      </trkpt>
      <trkpt lat="46.25266" lon="6.24574">
        <ele>445</ele>
        <time>2021-03-29T09:16:22.000Z</time>
      </trkpt>
      <trkpt lat="46.25284" lon="6.24501">
        <ele>439.79998779297</ele>
        <time>2021-03-29T09:16:28.000Z</time>
      </trkpt>
      <trkpt lat="46.25287" lon="6.24489">
        <ele>439.20001220703</ele>
        <time>2021-03-29T09:16:29.000Z</time>
      </trkpt>
      <trkpt lat="46.25287" lon="6.24461">
        <ele>438.39999389648</ele>
        <time>2021-03-29T09:16:31.000Z</time>
      </trkpt>
      <trkpt lat="46.25286" lon="6.24409">
        <ele>438.20001220703</ele>
        <time>2021-03-29T09:16:35.000Z</time>
      </trkpt>
      <trkpt lat="46.25286" lon="6.24397">
        <ele>438.20001220703</ele>
        <time>2021-03-29T09:16:36.000Z</time>
      </trkpt>
      <trkpt lat="46.25286" lon="6.24387">
        <ele>437.60000610352</ele>
        <time>2021-03-29T09:16:37.000Z</time>
      </trkpt>
      <trkpt lat="46.25289" lon="6.24369">
        <ele>436.39999389648</ele>
        <time>2021-03-29T09:16:39.000Z</time>
      </trkpt>
      <trkpt lat="46.25293" lon="6.24358">
        <ele>436.60000610352</ele>
        <time>2021-03-29T09:16:40.000Z</time>
      </trkpt>
      <trkpt lat="46.25309" lon="6.24307">
        <ele>437.79998779297</ele>
        <time>2021-03-29T09:16:46.000Z</time>
      </trkpt>
      <trkpt lat="46.25314" lon="6.2429">
        <ele>437.39999389648</ele>
        <time>2021-03-29T09:16:48.000Z</time>
      </trkpt>
      <trkpt lat="46.25321" lon="6.2427">
        <ele>436.79998779297</ele>
        <time>2021-03-29T09:16:50.000Z</time>
      </trkpt>
      <trkpt lat="46.25344" lon="6.24204">
        <ele>435.60000610352</ele>
        <time>2021-03-29T09:16:57.000Z</time>
      </trkpt>
      <trkpt lat="46.2537" lon="6.2413">
        <ele>434.79998779297</ele>
        <time>2021-03-29T09:17:05.000Z</time>
      </trkpt>
      <trkpt lat="46.25376" lon="6.24115">
        <ele>435</ele>
        <time>2021-03-29T09:17:07.000Z</time>
      </trkpt>
      <trkpt lat="46.25401" lon="6.24044">
        <ele>436.20001220703</ele>
        <time>2021-03-29T09:17:15.000Z</time>
      </trkpt>
      <trkpt lat="46.25421" lon="6.23987">
        <ele>436.79998779297</ele>
        <time>2021-03-29T09:17:22.000Z</time>
      </trkpt>
      <trkpt lat="46.25446" lon="6.23916">
        <ele>437</ele>
        <time>2021-03-29T09:17:31.000Z</time>
      </trkpt>
      <trkpt lat="46.25451" lon="6.23901">
        <ele>437.60000610352</ele>
        <time>2021-03-29T09:17:33.000Z</time>
      </trkpt>
      <trkpt lat="46.25473" lon="6.23839">
        <ele>439.20001220703</ele>
        <time>2021-03-29T09:17:42.000Z</time>
      </trkpt>
      <trkpt lat="46.25494" lon="6.23777">
        <ele>440.39999389648</ele>
        <time>2021-03-29T09:17:51.000Z</time>
      </trkpt>
      <trkpt lat="46.25515" lon="6.23717">
        <ele>441.79998779297</ele>
        <time>2021-03-29T09:18:00.000Z</time>
      </trkpt>
      <trkpt lat="46.25542" lon="6.23643">
        <ele>443</ele>
        <time>2021-03-29T09:18:11.000Z</time>
      </trkpt>
      <trkpt lat="46.25544" lon="6.23637">
        <ele>443.39999389648</ele>
        <time>2021-03-29T09:18:12.000Z</time>
      </trkpt>
      <trkpt lat="46.25558" lon="6.23599">
        <ele>445.20001220703</ele>
        <time>2021-03-29T09:18:19.000Z</time>
      </trkpt>
      <trkpt lat="46.25564" lon="6.23582">
        <ele>446</ele>
        <time>2021-03-29T09:18:22.000Z</time>
      </trkpt>
      <trkpt lat="46.25578" lon="6.2354">
        <ele>446.20001220703</ele>
        <time>2021-03-29T09:18:28.000Z</time>
      </trkpt>
      <trkpt lat="46.25592" lon="6.23499">
        <ele>445.60000610352</ele>
        <time>2021-03-29T09:18:34.000Z</time>
      </trkpt>
      <trkpt lat="46.25613" lon="6.23436">
        <ele>445.20001220703</ele>
        <time>2021-03-29T09:18:43.000Z</time>
      </trkpt>
      <trkpt lat="46.25627" lon="6.23402">
        <ele>444.79998779297</ele>
        <time>2021-03-29T09:18:48.000Z</time>
      </trkpt>
      <trkpt lat="46.25633" lon="6.2339">
        <ele>444.60000610352</ele>
        <time>2021-03-29T09:18:50.000Z</time>
      </trkpt>
      <trkpt lat="46.25636" lon="6.23383">
        <ele>444.39999389648</ele>
        <time>2021-03-29T09:18:51.000Z</time>
      </trkpt>
      <trkpt lat="46.25642" lon="6.2338">
        <ele>444.20001220703</ele>
        <time>2021-03-29T09:18:52.000Z</time>
      </trkpt>
      <trkpt lat="46.25654" lon="6.2338">
        <ele>443.60000610352</ele>
        <time>2021-03-29T09:18:54.000Z</time>
      </trkpt>
      <trkpt lat="46.25676" lon="6.23392">
        <ele>442.60000610352</ele>
        <time>2021-03-29T09:18:58.000Z</time>
      </trkpt>
      <trkpt lat="46.2568" lon="6.23394">
        <ele>442.39999389648</ele>
        <time>2021-03-29T09:18:59.000Z</time>
      </trkpt>
      <trkpt lat="46.25684" lon="6.23391">
        <ele>442.20001220703</ele>
        <time>2021-03-29T09:19:00.000Z</time>
      </trkpt>
      <trkpt lat="46.25689" lon="6.23385">
        <ele>442</ele>
        <time>2021-03-29T09:19:01.000Z</time>
      </trkpt>
      <trkpt lat="46.25692" lon="6.23382">
        <ele>441.79998779297</ele>
        <time>2021-03-29T09:19:02.000Z</time>
      </trkpt>
      <trkpt lat="46.25698" lon="6.23364">
        <ele>441.60000610352</ele>
        <time>2021-03-29T09:19:04.000Z</time>
      </trkpt>
      <trkpt lat="46.25715" lon="6.23309">
        <ele>442.39999389648</ele>
        <time>2021-03-29T09:19:11.000Z</time>
      </trkpt>
      <trkpt lat="46.25736" lon="6.23242">
        <ele>443.39999389648</ele>
        <time>2021-03-29T09:19:20.000Z</time>
      </trkpt>
      <trkpt lat="46.25753" lon="6.23187">
        <ele>442.60000610352</ele>
        <time>2021-03-29T09:19:27.000Z</time>
      </trkpt>
      <trkpt lat="46.25772" lon="6.23124">
        <ele>441.39999389648</ele>
        <time>2021-03-29T09:19:34.000Z</time>
      </trkpt>
      <trkpt lat="46.25794" lon="6.23052">
        <ele>440.20001220703</ele>
        <time>2021-03-29T09:19:41.000Z</time>
      </trkpt>
      <trkpt lat="46.25816" lon="6.22996">
        <ele>440</ele>
        <time>2021-03-29T09:19:47.000Z</time>
      </trkpt>
      <trkpt lat="46.25838" lon="6.22948">
        <ele>440.39999389648</ele>
        <time>2021-03-29T09:19:53.000Z</time>
      </trkpt>
      <trkpt lat="46.2586" lon="6.22899">
        <ele>439.60000610352</ele>
        <time>2021-03-29T09:19:59.000Z</time>
      </trkpt>
      <trkpt lat="46.25886" lon="6.2284">
        <ele>437.20001220703</ele>
        <time>2021-03-29T09:20:06.000Z</time>
      </trkpt>
      <trkpt lat="46.25905" lon="6.22795">
        <ele>436</ele>
        <time>2021-03-29T09:20:12.000Z</time>
      </trkpt>
      <trkpt lat="46.25909" lon="6.22787">
        <ele>436</ele>
        <time>2021-03-29T09:20:15.000Z</time>
      </trkpt>
      <trkpt lat="46.25909" lon="6.22787">
        <ele>436</ele>
        <time>2021-03-29T09:20:19.000Z</time>
      </trkpt>
      <trkpt lat="46.25911" lon="6.22781">
        <ele>436</ele>
        <time>2021-03-29T09:20:21.000Z</time>
      </trkpt>
      <trkpt lat="46.2592" lon="6.22759">
        <ele>436</ele>
        <time>2021-03-29T09:20:26.000Z</time>
      </trkpt>
      <trkpt lat="46.25933" lon="6.22729">
        <ele>435.60000610352</ele>
        <time>2021-03-29T09:20:31.000Z</time>
      </trkpt>
      <trkpt lat="46.25958" lon="6.22673">
        <ele>433.60000610352</ele>
        <time>2021-03-29T09:20:38.000Z</time>
      </trkpt>
      <trkpt lat="46.25961" lon="6.22666">
        <ele>433.20001220703</ele>
        <time>2021-03-29T09:20:39.000Z</time>
      </trkpt>
      <trkpt lat="46.25967" lon="6.22652">
        <ele>432</ele>
        <time>2021-03-29T09:20:41.000Z</time>
      </trkpt>
      <trkpt lat="46.2597" lon="6.22644">
        <ele>431.39999389648</ele>
        <time>2021-03-29T09:20:42.000Z</time>
      </trkpt>
      <trkpt lat="46.25996" lon="6.22586">
        <ele>430.60000610352</ele>
        <time>2021-03-29T09:20:50.000Z</time>
      </trkpt>
      <trkpt lat="46.26003" lon="6.2257">
        <ele>430.60000610352</ele>
        <time>2021-03-29T09:20:52.000Z</time>
      </trkpt>
      <trkpt lat="46.26015" lon="6.22553">
        <ele>430.60000610352</ele>
        <time>2021-03-29T09:20:55.000Z</time>
      </trkpt>
      <trkpt lat="46.2604" lon="6.22529">
        <ele>430.60000610352</ele>
        <time>2021-03-29T09:21:01.000Z</time>
      </trkpt>
      <trkpt lat="46.26044" lon="6.22524">
        <ele>430.60000610352</ele>
        <time>2021-03-29T09:21:02.000Z</time>
      </trkpt>
      <trkpt lat="46.26052" lon="6.22518">
        <ele>430.60000610352</ele>
        <time>2021-03-29T09:21:04.000Z</time>
      </trkpt>
      <trkpt lat="46.26065" lon="6.22505">
        <ele>430.79998779297</ele>
        <time>2021-03-29T09:21:07.000Z</time>
      </trkpt>
      <trkpt lat="46.26078" lon="6.22497">
        <ele>431.39999389648</ele>
        <time>2021-03-29T09:21:09.000Z</time>
      </trkpt>
      <trkpt lat="46.26107" lon="6.22489">
        <ele>431.60000610352</ele>
        <time>2021-03-29T09:21:14.000Z</time>
      </trkpt>
      <trkpt lat="46.26135" lon="6.22488">
        <ele>432</ele>
        <time>2021-03-29T09:21:19.000Z</time>
      </trkpt>
      <trkpt lat="46.26142" lon="6.22489">
        <ele>432</ele>
        <time>2021-03-29T09:21:20.000Z</time>
      </trkpt>
      <trkpt lat="46.26158" lon="6.22492">
        <ele>432.39999389648</ele>
        <time>2021-03-29T09:21:23.000Z</time>
      </trkpt>
      <trkpt lat="46.26185" lon="6.22494">
        <ele>433.39999389648</ele>
        <time>2021-03-29T09:21:28.000Z</time>
      </trkpt>
      <trkpt lat="46.26191" lon="6.22494">
        <ele>433.60000610352</ele>
        <time>2021-03-29T09:21:29.000Z</time>
      </trkpt>
      <trkpt lat="46.26224" lon="6.22492">
        <ele>434.79998779297</ele>
        <time>2021-03-29T09:21:35.000Z</time>
      </trkpt>
      <trkpt lat="46.26229" lon="6.22494">
        <ele>435</ele>
        <time>2021-03-29T09:21:36.000Z</time>
      </trkpt>
      <trkpt lat="46.26247" lon="6.225">
        <ele>434.60000610352</ele>
        <time>2021-03-29T09:21:40.000Z</time>
      </trkpt>
      <trkpt lat="46.2625" lon="6.22501">
        <ele>434.39999389648</ele>
        <time>2021-03-29T09:21:41.000Z</time>
      </trkpt>
      <trkpt lat="46.26257" lon="6.22503">
        <ele>434.39999389648</ele>
        <time>2021-03-29T09:21:44.000Z</time>
      </trkpt>
      <trkpt lat="46.26257" lon="6.22503">
        <ele>434.39999389648</ele>
        <time>2021-03-29T09:21:45.000Z</time>
      </trkpt>
      <trkpt lat="46.2626" lon="6.22503">
        <ele>434.39999389648</ele>
        <time>2021-03-29T09:21:46.000Z</time>
      </trkpt>
      <trkpt lat="46.26263" lon="6.22505">
        <ele>434.20001220703</ele>
        <time>2021-03-29T09:21:48.000Z</time>
      </trkpt>
      <trkpt lat="46.26273" lon="6.22499">
        <ele>434.20001220703</ele>
        <time>2021-03-29T09:21:51.000Z</time>
      </trkpt>
      <trkpt lat="46.2628" lon="6.22498">
        <ele>434.20001220703</ele>
        <time>2021-03-29T09:21:52.000Z</time>
      </trkpt>
      <trkpt lat="46.26305" lon="6.22493">
        <ele>434</ele>
        <time>2021-03-29T09:21:57.000Z</time>
      </trkpt>
      <trkpt lat="46.2631" lon="6.22493">
        <ele>433.79998779297</ele>
        <time>2021-03-29T09:21:58.000Z</time>
      </trkpt>
      <trkpt lat="46.26322" lon="6.22495">
        <ele>433.39999389648</ele>
        <time>2021-03-29T09:22:00.000Z</time>
      </trkpt>
      <trkpt lat="46.26337" lon="6.22497">
        <ele>432.60000610352</ele>
        <time>2021-03-29T09:22:03.000Z</time>
      </trkpt>
      <trkpt lat="46.26359" lon="6.22504">
        <ele>431.20001220703</ele>
        <time>2021-03-29T09:22:07.000Z</time>
      </trkpt>
      <trkpt lat="46.2637" lon="6.22507">
        <ele>430.60000610352</ele>
        <time>2021-03-29T09:22:09.000Z</time>
      </trkpt>
      <trkpt lat="46.26413" lon="6.22526">
        <ele>428.60000610352</ele>
        <time>2021-03-29T09:22:17.000Z</time>
      </trkpt>
      <trkpt lat="46.26435" lon="6.22538">
        <ele>428</ele>
        <time>2021-03-29T09:22:21.000Z</time>
      </trkpt>
      <trkpt lat="46.26445" lon="6.22546">
        <ele>427.79998779297</ele>
        <time>2021-03-29T09:22:23.000Z</time>
      </trkpt>
      <trkpt lat="46.26482" lon="6.22577">
        <ele>427.20001220703</ele>
        <time>2021-03-29T09:22:29.000Z</time>
      </trkpt>
      <trkpt lat="46.26501" lon="6.22593">
        <ele>427</ele>
        <time>2021-03-29T09:22:33.000Z</time>
      </trkpt>
      <trkpt lat="46.26522" lon="6.22624">
        <ele>427</ele>
        <time>2021-03-29T09:22:38.000Z</time>
      </trkpt>
      <trkpt lat="46.26529" lon="6.22636">
        <ele>427</ele>
        <time>2021-03-29T09:22:40.000Z</time>
      </trkpt>
      <trkpt lat="46.26544" lon="6.2266">
        <ele>426.79998779297</ele>
        <time>2021-03-29T09:22:44.000Z</time>
      </trkpt>
      <trkpt lat="46.26575" lon="6.22711">
        <ele>426.60000610352</ele>
        <time>2021-03-29T09:22:52.000Z</time>
      </trkpt>
      <trkpt lat="46.26587" lon="6.22732">
        <ele>426.39999389648</ele>
        <time>2021-03-29T09:22:55.000Z</time>
      </trkpt>
      <trkpt lat="46.266" lon="6.22755">
        <ele>426.39999389648</ele>
        <time>2021-03-29T09:22:59.000Z</time>
      </trkpt>
      <trkpt lat="46.26635" lon="6.22818">
        <ele>426.20001220703</ele>
        <time>2021-03-29T09:23:09.000Z</time>
      </trkpt>
      <trkpt lat="46.26657" lon="6.22853">
        <ele>426.60000610352</ele>
        <time>2021-03-29T09:23:15.000Z</time>
      </trkpt>
      <trkpt lat="46.26688" lon="6.22892">
        <ele>427.39999389648</ele>
        <time>2021-03-29T09:23:22.000Z</time>
      </trkpt>
      <trkpt lat="46.26724" lon="6.22932">
        <ele>428</ele>
        <time>2021-03-29T09:23:30.000Z</time>
      </trkpt>
      <trkpt lat="46.26765" lon="6.22975">
        <ele>428.39999389648</ele>
        <time>2021-03-29T09:23:39.000Z</time>
      </trkpt>
      <trkpt lat="46.26799" lon="6.23008">
        <ele>429.79998779297</ele>
        <time>2021-03-29T09:23:46.000Z</time>
      </trkpt>
      <trkpt lat="46.26827" lon="6.23032">
        <ele>430.20001220703</ele>
        <time>2021-03-29T09:23:51.000Z</time>
      </trkpt>
      <trkpt lat="46.26831" lon="6.23036">
        <ele>430.20001220703</ele>
        <time>2021-03-29T09:23:52.000Z</time>
      </trkpt>
      <trkpt lat="46.2686" lon="6.23059">
        <ele>429.60000610352</ele>
        <time>2021-03-29T09:23:57.000Z</time>
      </trkpt>
      <trkpt lat="46.26904" lon="6.23096">
        <ele>427.79998779297</ele>
        <time>2021-03-29T09:24:06.000Z</time>
      </trkpt>
      <trkpt lat="46.26946" lon="6.2313">
        <ele>429</ele>
        <time>2021-03-29T09:24:14.000Z</time>
      </trkpt>
      <trkpt lat="46.26995" lon="6.2317">
        <ele>429.20001220703</ele>
        <time>2021-03-29T09:24:23.000Z</time>
      </trkpt>
      <trkpt lat="46.27001" lon="6.23175">
        <ele>429</ele>
        <time>2021-03-29T09:24:24.000Z</time>
      </trkpt>
      <trkpt lat="46.27043" lon="6.23212">
        <ele>428.39999389648</ele>
        <time>2021-03-29T09:24:32.000Z</time>
      </trkpt>
      <trkpt lat="46.27075" lon="6.23242">
        <ele>427.79998779297</ele>
        <time>2021-03-29T09:24:38.000Z</time>
      </trkpt>
      <trkpt lat="46.27119" lon="6.23284">
        <ele>427.39999389648</ele>
        <time>2021-03-29T09:24:46.000Z</time>
      </trkpt>
      <trkpt lat="46.27144" lon="6.23307">
        <ele>427</ele>
        <time>2021-03-29T09:24:52.000Z</time>
      </trkpt>
      <trkpt lat="46.27155" lon="6.23318">
        <ele>426.60000610352</ele>
        <time>2021-03-29T09:24:57.000Z</time>
      </trkpt>
      <trkpt lat="46.27167" lon="6.23327">
        <ele>426</ele>
        <time>2021-03-29T09:25:01.000Z</time>
      </trkpt>
      <trkpt lat="46.27197" lon="6.23349">
        <ele>424.79998779297</ele>
        <time>2021-03-29T09:25:07.000Z</time>
      </trkpt>
      <trkpt lat="46.27236" lon="6.23379">
        <ele>423.39999389648</ele>
        <time>2021-03-29T09:25:14.000Z</time>
      </trkpt>
      <trkpt lat="46.27286" lon="6.23415">
        <ele>423.20001220703</ele>
        <time>2021-03-29T09:25:23.000Z</time>
      </trkpt>
      <trkpt lat="46.27293" lon="6.23421">
        <ele>423</ele>
        <time>2021-03-29T09:25:24.000Z</time>
      </trkpt>
      <trkpt lat="46.27347" lon="6.2346">
        <ele>424</ele>
        <time>2021-03-29T09:25:33.000Z</time>
      </trkpt>
      <trkpt lat="46.27389" lon="6.23488">
        <ele>425</ele>
        <time>2021-03-29T09:25:40.000Z</time>
      </trkpt>
      <trkpt lat="46.27415" lon="6.23494">
        <ele>424.79998779297</ele>
        <time>2021-03-29T09:25:44.000Z</time>
      </trkpt>
      <trkpt lat="46.27446" lon="6.23501">
        <ele>424.79998779297</ele>
        <time>2021-03-29T09:25:48.000Z</time>
      </trkpt>
      <trkpt lat="46.27453" lon="6.23502">
        <ele>424.79998779297</ele>
        <time>2021-03-29T09:25:49.000Z</time>
      </trkpt>
      <trkpt lat="46.27472" lon="6.23506">
        <ele>425</ele>
        <time>2021-03-29T09:25:52.000Z</time>
      </trkpt>
      <trkpt lat="46.27484" lon="6.23504">
        <ele>425</ele>
        <time>2021-03-29T09:25:54.000Z</time>
      </trkpt>
      <trkpt lat="46.27511" lon="6.23499">
        <ele>424.20001220703</ele>
        <time>2021-03-29T09:25:58.000Z</time>
      </trkpt>
      <trkpt lat="46.2754" lon="6.23494">
        <ele>423</ele>
        <time>2021-03-29T09:26:02.000Z</time>
      </trkpt>
      <trkpt lat="46.2755" lon="6.23491">
        <ele>422.60000610352</ele>
        <time>2021-03-29T09:26:03.000Z</time>
      </trkpt>
      <trkpt lat="46.27556" lon="6.23485">
        <ele>422.20001220703</ele>
        <time>2021-03-29T09:26:04.000Z</time>
      </trkpt>
      <trkpt lat="46.27573" lon="6.23465">
        <ele>422.20001220703</ele>
        <time>2021-03-29T09:26:07.000Z</time>
      </trkpt>
      <trkpt lat="46.27594" lon="6.23441">
        <ele>422.60000610352</ele>
        <time>2021-03-29T09:26:11.000Z</time>
      </trkpt>
      <trkpt lat="46.27602" lon="6.23431">
        <ele>422.79998779297</ele>
        <time>2021-03-29T09:26:13.000Z</time>
      </trkpt>
      <trkpt lat="46.27614" lon="6.2341">
        <ele>422.39999389648</ele>
        <time>2021-03-29T09:26:16.000Z</time>
      </trkpt>
      <trkpt lat="46.2762" lon="6.234">
        <ele>422.20001220703</ele>
        <time>2021-03-29T09:26:18.000Z</time>
      </trkpt>
      <trkpt lat="46.27627" lon="6.23388">
        <ele>422</ele>
        <time>2021-03-29T09:26:20.000Z</time>
      </trkpt>
      <trkpt lat="46.27634" lon="6.23377">
        <ele>421.79998779297</ele>
        <time>2021-03-29T09:26:22.000Z</time>
      </trkpt>
      <trkpt lat="46.27642" lon="6.23373">
        <ele>421.60000610352</ele>
        <time>2021-03-29T09:26:24.000Z</time>
      </trkpt>
      <trkpt lat="46.27654" lon="6.23375">
        <ele>421.60000610352</ele>
        <time>2021-03-29T09:26:26.000Z</time>
      </trkpt>
      <trkpt lat="46.27664" lon="6.23379">
        <ele>421.39999389648</ele>
        <time>2021-03-29T09:26:28.000Z</time>
      </trkpt>
      <trkpt lat="46.27708" lon="6.23419">
        <ele>420.79998779297</ele>
        <time>2021-03-29T09:26:37.000Z</time>
      </trkpt>
      <trkpt lat="46.27744" lon="6.23451">
        <ele>420.79998779297</ele>
        <time>2021-03-29T09:26:44.000Z</time>
      </trkpt>
      <trkpt lat="46.27791" lon="6.23494">
        <ele>422.39999389648</ele>
        <time>2021-03-29T09:26:53.000Z</time>
      </trkpt>
      <trkpt lat="46.27806" lon="6.23507">
        <ele>423</ele>
        <time>2021-03-29T09:26:56.000Z</time>
      </trkpt>
      <trkpt lat="46.27812" lon="6.23513">
        <ele>423.39999389648</ele>
        <time>2021-03-29T09:26:57.000Z</time>
      </trkpt>
      <trkpt lat="46.27815" lon="6.23518">
        <ele>423.39999389648</ele>
        <time>2021-03-29T09:26:58.000Z</time>
      </trkpt>
      <trkpt lat="46.27824" lon="6.23527">
        <ele>423.39999389648</ele>
        <time>2021-03-29T09:27:00.000Z</time>
      </trkpt>
      <trkpt lat="46.27829" lon="6.23529">
        <ele>423.20001220703</ele>
        <time>2021-03-29T09:27:01.000Z</time>
      </trkpt>
      <trkpt lat="46.27834" lon="6.23532">
        <ele>423.20001220703</ele>
        <time>2021-03-29T09:27:02.000Z</time>
      </trkpt>
      <trkpt lat="46.27846" lon="6.23539">
        <ele>423</ele>
        <time>2021-03-29T09:27:04.000Z</time>
      </trkpt>
      <trkpt lat="46.27852" lon="6.23542">
        <ele>422.79998779297</ele>
        <time>2021-03-29T09:27:05.000Z</time>
      </trkpt>
      <trkpt lat="46.2787" lon="6.23547">
        <ele>422.39999389648</ele>
        <time>2021-03-29T09:27:08.000Z</time>
      </trkpt>
      <trkpt lat="46.27908" lon="6.23544">
        <ele>421.20001220703</ele>
        <time>2021-03-29T09:27:14.000Z</time>
      </trkpt>
      <trkpt lat="46.27958" lon="6.23545">
        <ele>419.39999389648</ele>
        <time>2021-03-29T09:27:21.000Z</time>
      </trkpt>
      <trkpt lat="46.27965" lon="6.23545">
        <ele>419.20001220703</ele>
        <time>2021-03-29T09:27:22.000Z</time>
      </trkpt>
      <trkpt lat="46.27979" lon="6.23546">
        <ele>418.79998779297</ele>
        <time>2021-03-29T09:27:24.000Z</time>
      </trkpt>
      <trkpt lat="46.27985" lon="6.23548">
        <ele>418.79998779297</ele>
        <time>2021-03-29T09:27:25.000Z</time>
      </trkpt>
      <trkpt lat="46.28006" lon="6.2355">
        <ele>418.79998779297</ele>
        <time>2021-03-29T09:27:28.000Z</time>
      </trkpt>
      <trkpt lat="46.28045" lon="6.23545">
        <ele>418.79998779297</ele>
        <time>2021-03-29T09:27:34.000Z</time>
      </trkpt>
      <trkpt lat="46.28058" lon="6.23543">
        <ele>419.20001220703</ele>
        <time>2021-03-29T09:27:36.000Z</time>
      </trkpt>
      <trkpt lat="46.28062" lon="6.23542">
        <ele>419.20001220703</ele>
        <time>2021-03-29T09:27:37.000Z</time>
      </trkpt>
      <trkpt lat="46.28069" lon="6.2354">
        <ele>419.39999389648</ele>
        <time>2021-03-29T09:27:38.000Z</time>
      </trkpt>
      <trkpt lat="46.28078" lon="6.23527">
        <ele>420</ele>
        <time>2021-03-29T09:27:40.000Z</time>
      </trkpt>
      <trkpt lat="46.28108" lon="6.23486">
        <ele>421.60000610352</ele>
        <time>2021-03-29T09:27:47.000Z</time>
      </trkpt>
      <trkpt lat="46.28138" lon="6.23445">
        <ele>422.79998779297</ele>
        <time>2021-03-29T09:27:55.000Z</time>
      </trkpt>
      <trkpt lat="46.28151" lon="6.23428">
        <ele>422.79998779297</ele>
        <time>2021-03-29T09:28:00.000Z</time>
      </trkpt>
      <trkpt lat="46.28161" lon="6.23432">
        <ele>422.60000610352</ele>
        <time>2021-03-29T09:28:03.000Z</time>
      </trkpt>
      <trkpt lat="46.28186" lon="6.23468">
        <ele>422</ele>
        <time>2021-03-29T09:28:10.000Z</time>
      </trkpt>
      <trkpt lat="46.28219" lon="6.23524">
        <ele>422.79998779297</ele>
        <time>2021-03-29T09:28:19.000Z</time>
      </trkpt>
      <trkpt lat="46.28242" lon="6.23578">
        <ele>424</ele>
        <time>2021-03-29T09:28:27.000Z</time>
      </trkpt>
      <trkpt lat="46.28262" lon="6.23631">
        <ele>423.60000610352</ele>
        <time>2021-03-29T09:28:34.000Z</time>
      </trkpt>
      <trkpt lat="46.28285" lon="6.2367">
        <ele>424.20001220703</ele>
        <time>2021-03-29T09:28:40.000Z</time>
      </trkpt>
      <trkpt lat="46.28288" lon="6.23677">
        <ele>424.39999389648</ele>
        <time>2021-03-29T09:28:41.000Z</time>
      </trkpt>
      <trkpt lat="46.28291" lon="6.23682">
        <ele>424.60000610352</ele>
        <time>2021-03-29T09:28:42.000Z</time>
      </trkpt>
      <trkpt lat="46.28298" lon="6.23693">
        <ele>425</ele>
        <time>2021-03-29T09:28:44.000Z</time>
      </trkpt>
      <trkpt lat="46.28325" lon="6.23741">
        <ele>425.79998779297</ele>
        <time>2021-03-29T09:28:51.000Z</time>
      </trkpt>
      <trkpt lat="46.28342" lon="6.23777">
        <ele>424.60000610352</ele>
        <time>2021-03-29T09:28:56.000Z</time>
      </trkpt>
      <trkpt lat="46.28349" lon="6.2379">
        <ele>424.20001220703</ele>
        <time>2021-03-29T09:28:58.000Z</time>
      </trkpt>
      <trkpt lat="46.28358" lon="6.23808">
        <ele>423.60000610352</ele>
        <time>2021-03-29T09:29:01.000Z</time>
      </trkpt>
      <trkpt lat="46.28365" lon="6.23823">
        <ele>423.60000610352</ele>
        <time>2021-03-29T09:29:03.000Z</time>
      </trkpt>
      <trkpt lat="46.28377" lon="6.23848">
        <ele>423.79998779297</ele>
        <time>2021-03-29T09:29:07.000Z</time>
      </trkpt>
      <trkpt lat="46.28382" lon="6.23856">
        <ele>423.79998779297</ele>
        <time>2021-03-29T09:29:08.000Z</time>
      </trkpt>
      <trkpt lat="46.28406" lon="6.23906">
        <ele>423.60000610352</ele>
        <time>2021-03-29T09:29:15.000Z</time>
      </trkpt>
      <trkpt lat="46.28424" lon="6.23938">
        <ele>423</ele>
        <time>2021-03-29T09:29:20.000Z</time>
      </trkpt>
      <trkpt lat="46.2843" lon="6.23944">
        <ele>422.79998779297</ele>
        <time>2021-03-29T09:29:22.000Z</time>
      </trkpt>
      <trkpt lat="46.28437" lon="6.23955">
        <ele>422.60000610352</ele>
        <time>2021-03-29T09:29:24.000Z</time>
      </trkpt>
      <trkpt lat="46.28442" lon="6.23964">
        <ele>422.39999389648</ele>
        <time>2021-03-29T09:29:26.000Z</time>
      </trkpt>
      <trkpt lat="46.28454" lon="6.23984">
        <ele>422</ele>
        <time>2021-03-29T09:29:29.000Z</time>
      </trkpt>
      <trkpt lat="46.28487" lon="6.24017">
        <ele>421.60000610352</ele>
        <time>2021-03-29T09:29:36.000Z</time>
      </trkpt>
      <trkpt lat="46.28517" lon="6.24046">
        <ele>422.60000610352</ele>
        <time>2021-03-29T09:29:42.000Z</time>
      </trkpt>
      <trkpt lat="46.28546" lon="6.24068">
        <ele>423.60000610352</ele>
        <time>2021-03-29T09:29:48.000Z</time>
      </trkpt>
      <trkpt lat="46.28583" lon="6.24089">
        <ele>423.60000610352</ele>
        <time>2021-03-29T09:29:55.000Z</time>
      </trkpt>
      <trkpt lat="46.2863" lon="6.24106">
        <ele>421.60000610352</ele>
        <time>2021-03-29T09:30:03.000Z</time>
      </trkpt>
      <trkpt lat="46.28675" lon="6.24124">
        <ele>420.60000610352</ele>
        <time>2021-03-29T09:30:10.000Z</time>
      </trkpt>
      <trkpt lat="46.28725" lon="6.24143">
        <ele>420</ele>
        <time>2021-03-29T09:30:18.000Z</time>
      </trkpt>
      <trkpt lat="46.28775" lon="6.24169">
        <ele>418.60000610352</ele>
        <time>2021-03-29T09:30:26.000Z</time>
      </trkpt>
      <trkpt lat="46.28827" lon="6.24197">
        <ele>417.20001220703</ele>
        <time>2021-03-29T09:30:34.000Z</time>
      </trkpt>
      <trkpt lat="46.28834" lon="6.24201">
        <ele>417</ele>
        <time>2021-03-29T09:30:35.000Z</time>
      </trkpt>
      <trkpt lat="46.28885" lon="6.24228">
        <ele>415.60000610352</ele>
        <time>2021-03-29T09:30:42.000Z</time>
      </trkpt>
      <trkpt lat="46.28893" lon="6.24232">
        <ele>415.39999389648</ele>
        <time>2021-03-29T09:30:43.000Z</time>
      </trkpt>
      <trkpt lat="46.28915" lon="6.24244">
        <ele>414.79998779297</ele>
        <time>2021-03-29T09:30:46.000Z</time>
      </trkpt>
      <trkpt lat="46.28922" lon="6.24248">
        <ele>414.60000610352</ele>
        <time>2021-03-29T09:30:47.000Z</time>
      </trkpt>
      <trkpt lat="46.28968" lon="6.24272">
        <ele>413.60000610352</ele>
        <time>2021-03-29T09:30:53.000Z</time>
      </trkpt>
      <trkpt lat="46.29019" lon="6.24303">
        <ele>412.60000610352</ele>
        <time>2021-03-29T09:31:00.000Z</time>
      </trkpt>
      <trkpt lat="46.29061" lon="6.24335">
        <ele>412.20001220703</ele>
        <time>2021-03-29T09:31:06.000Z</time>
      </trkpt>
      <trkpt lat="46.29079" lon="6.24349">
        <ele>411.79998779297</ele>
        <time>2021-03-29T09:31:09.000Z</time>
      </trkpt>
      <trkpt lat="46.2909" lon="6.24357">
        <ele>411.60000610352</ele>
        <time>2021-03-29T09:31:11.000Z</time>
      </trkpt>
      <trkpt lat="46.29099" lon="6.2434">
        <ele>410.39999389648</ele>
        <time>2021-03-29T09:31:13.000Z</time>
      </trkpt>
      <trkpt lat="46.29103" lon="6.24331">
        <ele>410</ele>
        <time>2021-03-29T09:31:14.000Z</time>
      </trkpt>
      <trkpt lat="46.29129" lon="6.24267">
        <ele>407.39999389648</ele>
        <time>2021-03-29T09:31:21.000Z</time>
      </trkpt>
      <trkpt lat="46.29139" lon="6.24242">
        <ele>406.39999389648</ele>
        <time>2021-03-29T09:31:24.000Z</time>
      </trkpt>
      <trkpt lat="46.29142" lon="6.24235">
        <ele>406.20001220703</ele>
        <time>2021-03-29T09:31:25.000Z</time>
      </trkpt>
      <trkpt lat="46.29149" lon="6.24229">
        <ele>406</ele>
        <time>2021-03-29T09:31:26.000Z</time>
      </trkpt>
      <trkpt lat="46.29163" lon="6.24225">
        <ele>405.60000610352</ele>
        <time>2021-03-29T09:31:28.000Z</time>
      </trkpt>
      <trkpt lat="46.29176" lon="6.24223">
        <ele>405.20001220703</ele>
        <time>2021-03-29T09:31:30.000Z</time>
      </trkpt>
      <trkpt lat="46.29182" lon="6.24227">
        <ele>405.20001220703</ele>
        <time>2021-03-29T09:31:31.000Z</time>
      </trkpt>
      <trkpt lat="46.2922" lon="6.24253">
        <ele>404.79998779297</ele>
        <time>2021-03-29T09:31:37.000Z</time>
      </trkpt>
      <trkpt lat="46.29233" lon="6.24262">
        <ele>404.79998779297</ele>
        <time>2021-03-29T09:31:39.000Z</time>
      </trkpt>
      <trkpt lat="46.29248" lon="6.24264">
        <ele>404.79998779297</ele>
        <time>2021-03-29T09:31:41.000Z</time>
      </trkpt>
      <trkpt lat="46.29301" lon="6.24273">
        <ele>404.39999389648</ele>
        <time>2021-03-29T09:31:48.000Z</time>
      </trkpt>
      <trkpt lat="46.29316" lon="6.2428">
        <ele>404.39999389648</ele>
        <time>2021-03-29T09:31:50.000Z</time>
      </trkpt>
      <trkpt lat="46.2933" lon="6.24288">
        <ele>404.20001220703</ele>
        <time>2021-03-29T09:31:52.000Z</time>
      </trkpt>
      <trkpt lat="46.29354" lon="6.24317">
        <ele>404.79998779297</ele>
        <time>2021-03-29T09:31:56.000Z</time>
      </trkpt>
      <trkpt lat="46.29364" lon="6.24329">
        <ele>405</ele>
        <time>2021-03-29T09:31:58.000Z</time>
      </trkpt>
      <trkpt lat="46.29369" lon="6.24335">
        <ele>405</ele>
        <time>2021-03-29T09:31:59.000Z</time>
      </trkpt>
      <trkpt lat="46.29374" lon="6.24341">
        <ele>405.20001220703</ele>
        <time>2021-03-29T09:32:00.000Z</time>
      </trkpt>
      <trkpt lat="46.29382" lon="6.2435">
        <ele>405.39999389648</ele>
        <time>2021-03-29T09:32:02.000Z</time>
      </trkpt>
      <trkpt lat="46.29387" lon="6.24357">
        <ele>405.39999389648</ele>
        <time>2021-03-29T09:32:04.000Z</time>
      </trkpt>
      <trkpt lat="46.29396" lon="6.24353">
        <ele>405</ele>
        <time>2021-03-29T09:32:05.000Z</time>
      </trkpt>
      <trkpt lat="46.294" lon="6.2434">
        <ele>404.20001220703</ele>
        <time>2021-03-29T09:32:07.000Z</time>
      </trkpt>
      <trkpt lat="46.29405" lon="6.24326">
        <ele>403.39999389648</ele>
        <time>2021-03-29T09:32:09.000Z</time>
      </trkpt>
      <trkpt lat="46.29418" lon="6.24288">
        <ele>401.39999389648</ele>
        <time>2021-03-29T09:32:14.000Z</time>
      </trkpt>
      <trkpt lat="46.2943" lon="6.24258">
        <ele>400.20001220703</ele>
        <time>2021-03-29T09:32:18.000Z</time>
      </trkpt>
      <trkpt lat="46.29434" lon="6.24248">
        <ele>399.60000610352</ele>
        <time>2021-03-29T09:32:20.000Z</time>
      </trkpt>
      <trkpt lat="46.29442" lon="6.2424">
        <ele>399</ele>
        <time>2021-03-29T09:32:21.000Z</time>
      </trkpt>
      <trkpt lat="46.29459" lon="6.24249">
        <ele>398.39999389648</ele>
        <time>2021-03-29T09:32:25.000Z</time>
      </trkpt>
      <trkpt lat="46.29491" lon="6.24267">
        <ele>397.39999389648</ele>
        <time>2021-03-29T09:32:31.000Z</time>
      </trkpt>
      <trkpt lat="46.29497" lon="6.2427">
        <ele>397.39999389648</ele>
        <time>2021-03-29T09:32:32.000Z</time>
      </trkpt>
      <trkpt lat="46.29507" lon="6.24275">
        <ele>397.20001220703</ele>
        <time>2021-03-29T09:32:34.000Z</time>
      </trkpt>
      <trkpt lat="46.2955" lon="6.24292">
        <ele>396</ele>
        <time>2021-03-29T09:32:40.000Z</time>
      </trkpt>
      <trkpt lat="46.29599" lon="6.2431">
        <ele>394.60000610352</ele>
        <time>2021-03-29T09:32:47.000Z</time>
      </trkpt>
      <trkpt lat="46.29606" lon="6.24313">
        <ele>394.39999389648</ele>
        <time>2021-03-29T09:32:48.000Z</time>
      </trkpt>
      <trkpt lat="46.29657" lon="6.24332">
        <ele>393.39999389648</ele>
        <time>2021-03-29T09:32:55.000Z</time>
      </trkpt>
      <trkpt lat="46.29677" lon="6.2434">
        <ele>392.39999389648</ele>
        <time>2021-03-29T09:32:58.000Z</time>
      </trkpt>
      <trkpt lat="46.2969" lon="6.24345">
        <ele>391.79998779297</ele>
        <time>2021-03-29T09:33:00.000Z</time>
      </trkpt>
      <trkpt lat="46.29726" lon="6.24359">
        <ele>390</ele>
        <time>2021-03-29T09:33:05.000Z</time>
      </trkpt>
      <trkpt lat="46.29776" lon="6.24375">
        <ele>387.39999389648</ele>
        <time>2021-03-29T09:33:12.000Z</time>
      </trkpt>
      <trkpt lat="46.29814" lon="6.24386">
        <ele>385.60000610352</ele>
        <time>2021-03-29T09:33:17.000Z</time>
      </trkpt>
      <trkpt lat="46.29872" lon="6.244">
        <ele>386.60000610352</ele>
        <time>2021-03-29T09:33:25.000Z</time>
      </trkpt>
      <trkpt lat="46.2988" lon="6.24402">
        <ele>386.79998779297</ele>
        <time>2021-03-29T09:33:26.000Z</time>
      </trkpt>
      <trkpt lat="46.29906" lon="6.24407">
        <ele>387.60000610352</ele>
        <time>2021-03-29T09:33:30.000Z</time>
      </trkpt>
      <trkpt lat="46.29922" lon="6.24406">
        <ele>387</ele>
        <time>2021-03-29T09:33:32.000Z</time>
      </trkpt>
      <trkpt lat="46.29972" lon="6.244">
        <ele>385</ele>
        <time>2021-03-29T09:33:39.000Z</time>
      </trkpt>
      <trkpt lat="46.30033" lon="6.24391">
        <ele>384.20001220703</ele>
        <time>2021-03-29T09:33:47.000Z</time>
      </trkpt>
      <trkpt lat="46.30086" lon="6.24382">
        <ele>383.60000610352</ele>
        <time>2021-03-29T09:33:54.000Z</time>
      </trkpt>
      <trkpt lat="46.301" lon="6.2438">
        <ele>383.20001220703</ele>
        <time>2021-03-29T09:33:56.000Z</time>
      </trkpt>
      <trkpt lat="46.30113" lon="6.24378">
        <ele>383</ele>
        <time>2021-03-29T09:33:58.000Z</time>
      </trkpt>
      <trkpt lat="46.30147" lon="6.24398">
        <ele>385.20001220703</ele>
        <time>2021-03-29T09:34:04.000Z</time>
      </trkpt>
      <trkpt lat="46.30184" lon="6.24421">
        <ele>383.60000610352</ele>
        <time>2021-03-29T09:34:10.000Z</time>
      </trkpt>
      <trkpt lat="46.30207" lon="6.2443">
        <ele>382.60000610352</ele>
        <time>2021-03-29T09:34:14.000Z</time>
      </trkpt>
      <trkpt lat="46.30216" lon="6.24434">
        <ele>382.20001220703</ele>
        <time>2021-03-29T09:34:16.000Z</time>
      </trkpt>
      <trkpt lat="46.30225" lon="6.24437">
        <ele>381.79998779297</ele>
        <time>2021-03-29T09:34:17.000Z</time>
      </trkpt>
      <trkpt lat="46.30229" lon="6.24439">
        <ele>381.60000610352</ele>
        <time>2021-03-29T09:34:18.000Z</time>
      </trkpt>
      <trkpt lat="46.30237" lon="6.24455">
        <ele>381.60000610352</ele>
        <time>2021-03-29T09:34:20.000Z</time>
      </trkpt>
      <trkpt lat="46.30244" lon="6.24467">
        <ele>381.79998779297</ele>
        <time>2021-03-29T09:34:22.000Z</time>
      </trkpt>
      <trkpt lat="46.30246" lon="6.24485">
        <ele>382.20001220703</ele>
        <time>2021-03-29T09:34:24.000Z</time>
      </trkpt>
      <trkpt lat="46.30247" lon="6.24494">
        <ele>382.39999389648</ele>
        <time>2021-03-29T09:34:25.000Z</time>
      </trkpt>
      <trkpt lat="46.30249" lon="6.24517">
        <ele>382.79998779297</ele>
        <time>2021-03-29T09:34:28.000Z</time>
      </trkpt>
      <trkpt lat="46.30251" lon="6.2455">
        <ele>383.39999389648</ele>
        <time>2021-03-29T09:34:32.000Z</time>
      </trkpt>
      <trkpt lat="46.30251" lon="6.24557">
        <ele>383.60000610352</ele>
        <time>2021-03-29T09:34:33.000Z</time>
      </trkpt>
      <trkpt lat="46.30252" lon="6.24568">
        <ele>383.79998779297</ele>
        <time>2021-03-29T09:34:36.000Z</time>
      </trkpt>
      <trkpt lat="46.30253" lon="6.24576">
        <ele>384.20001220703</ele>
        <time>2021-03-29T09:34:37.000Z</time>
      </trkpt>
      <trkpt lat="46.30254" lon="6.24594">
        <ele>384.20001220703</ele>
        <time>2021-03-29T09:34:40.000Z</time>
      </trkpt>
      <trkpt lat="46.30255" lon="6.24607">
        <ele>383.79998779297</ele>
        <time>2021-03-29T09:34:42.000Z</time>
      </trkpt>
      <trkpt lat="46.30253" lon="6.24626">
        <ele>383</ele>
        <time>2021-03-29T09:34:45.000Z</time>
      </trkpt>
      <trkpt lat="46.3025" lon="6.24679">
        <ele>382.79998779297</ele>
        <time>2021-03-29T09:34:52.000Z</time>
      </trkpt>
      <trkpt lat="46.30249" lon="6.24696">
        <ele>382.60000610352</ele>
        <time>2021-03-29T09:34:54.000Z</time>
      </trkpt>
      <trkpt lat="46.30248" lon="6.24715">
        <ele>382.20001220703</ele>
        <time>2021-03-29T09:34:57.000Z</time>
      </trkpt>
      <trkpt lat="46.30259" lon="6.24741">
        <ele>383.79998779297</ele>
        <time>2021-03-29T09:35:01.000Z</time>
      </trkpt>
      <trkpt lat="46.3028" lon="6.24756">
        <ele>386.60000610352</ele>
        <time>2021-03-29T09:35:06.000Z</time>
      </trkpt>
      <trkpt lat="46.30296" lon="6.24767">
        <ele>388.60000610352</ele>
        <time>2021-03-29T09:35:11.000Z</time>
      </trkpt>
      <trkpt lat="46.30319" lon="6.24782">
        <ele>390.79998779297</ele>
        <time>2021-03-29T09:35:17.000Z</time>
      </trkpt>
      <trkpt lat="46.30337" lon="6.24794">
        <ele>391.39999389648</ele>
        <time>2021-03-29T09:35:22.000Z</time>
      </trkpt>
      <trkpt lat="46.30359" lon="6.24809">
        <ele>392</ele>
        <time>2021-03-29T09:35:28.000Z</time>
      </trkpt>
      <trkpt lat="46.30377" lon="6.24821">
        <ele>392.79998779297</ele>
        <time>2021-03-29T09:35:33.000Z</time>
      </trkpt>
      <trkpt lat="46.30394" lon="6.24833">
        <ele>393.60000610352</ele>
        <time>2021-03-29T09:35:38.000Z</time>
      </trkpt>
      <trkpt lat="46.30415" lon="6.24847">
        <ele>393.79998779297</ele>
        <time>2021-03-29T09:35:44.000Z</time>
      </trkpt>
      <trkpt lat="46.30437" lon="6.24861">
        <ele>394</ele>
        <time>2021-03-29T09:35:50.000Z</time>
      </trkpt>
      <trkpt lat="46.30457" lon="6.24875">
        <ele>394.20001220703</ele>
        <time>2021-03-29T09:35:55.000Z</time>
      </trkpt>
      <trkpt lat="46.3046" lon="6.24877">
        <ele>394.20001220703</ele>
        <time>2021-03-29T09:35:56.000Z</time>
      </trkpt>
      <trkpt lat="46.30466" lon="6.24881">
        <ele>394.20001220703</ele>
        <time>2021-03-29T09:35:58.000Z</time>
      </trkpt>
      <trkpt lat="46.30477" lon="6.24889">
        <ele>394.60000610352</ele>
        <time>2021-03-29T09:36:01.000Z</time>
      </trkpt>
      <trkpt lat="46.30505" lon="6.2491">
        <ele>394.20001220703</ele>
        <time>2021-03-29T09:36:09.000Z</time>
      </trkpt>
      <trkpt lat="46.30523" lon="6.24928">
        <ele>394</ele>
        <time>2021-03-29T09:36:15.000Z</time>
      </trkpt>
      <trkpt lat="46.30536" lon="6.2494">
        <ele>393.79998779297</ele>
        <time>2021-03-29T09:36:19.000Z</time>
      </trkpt>
      <trkpt lat="46.30544" lon="6.24953">
        <ele>394</ele>
        <time>2021-03-29T09:36:22.000Z</time>
      </trkpt>
      <trkpt lat="46.30546" lon="6.24958">
        <ele>394</ele>
        <time>2021-03-29T09:36:23.000Z</time>
      </trkpt>
      <trkpt lat="46.30556" lon="6.24976">
        <ele>395</ele>
        <time>2021-03-29T09:36:27.000Z</time>
      </trkpt>
      <trkpt lat="46.30565" lon="6.24994">
        <ele>395.60000610352</ele>
        <time>2021-03-29T09:36:31.000Z</time>
      </trkpt>
      <trkpt lat="46.3057" lon="6.25005">
        <ele>396.20001220703</ele>
        <time>2021-03-29T09:36:33.000Z</time>
      </trkpt>
      <trkpt lat="46.30591" lon="6.25044">
        <ele>398</ele>
        <time>2021-03-29T09:36:41.000Z</time>
      </trkpt>
      <trkpt lat="46.30595" lon="6.25054">
        <ele>398.39999389648</ele>
        <time>2021-03-29T09:36:43.000Z</time>
      </trkpt>
      <trkpt lat="46.306" lon="6.25065">
        <ele>399</ele>
        <time>2021-03-29T09:36:45.000Z</time>
      </trkpt>
      <trkpt lat="46.30615" lon="6.25096">
        <ele>399.39999389648</ele>
        <time>2021-03-29T09:36:51.000Z</time>
      </trkpt>
      <trkpt lat="46.30617" lon="6.25102">
        <ele>399.60000610352</ele>
        <time>2021-03-29T09:36:52.000Z</time>
      </trkpt>
      <trkpt lat="46.30621" lon="6.2511">
        <ele>399.79998779297</ele>
        <time>2021-03-29T09:36:54.000Z</time>
      </trkpt>
      <trkpt lat="46.30626" lon="6.25122">
        <ele>400</ele>
        <time>2021-03-29T09:36:56.000Z</time>
      </trkpt>
      <trkpt lat="46.30628" lon="6.25127">
        <ele>400</ele>
        <time>2021-03-29T09:36:57.000Z</time>
      </trkpt>
      <trkpt lat="46.30632" lon="6.25144">
        <ele>400.79998779297</ele>
        <time>2021-03-29T09:37:00.000Z</time>
      </trkpt>
      <trkpt lat="46.30634" lon="6.2515">
        <ele>400.79998779297</ele>
        <time>2021-03-29T09:37:01.000Z</time>
      </trkpt>
      <trkpt lat="46.30639" lon="6.25172">
        <ele>401</ele>
        <time>2021-03-29T09:37:05.000Z</time>
      </trkpt>
      <trkpt lat="46.30639" lon="6.25186">
        <ele>401.39999389648</ele>
        <time>2021-03-29T09:37:07.000Z</time>
      </trkpt>
      <trkpt lat="46.30639" lon="6.25205">
        <ele>402.20001220703</ele>
        <time>2021-03-29T09:37:10.000Z</time>
      </trkpt>
      <trkpt lat="46.30635" lon="6.25222">
        <ele>403.20001220703</ele>
        <time>2021-03-29T09:37:13.000Z</time>
      </trkpt>
      <trkpt lat="46.30624" lon="6.25273">
        <ele>406</ele>
        <time>2021-03-29T09:37:22.000Z</time>
      </trkpt>
      <trkpt lat="46.30612" lon="6.25319">
        <ele>407.79998779297</ele>
        <time>2021-03-29T09:37:30.000Z</time>
      </trkpt>
      <trkpt lat="46.30611" lon="6.25324">
        <ele>408.20001220703</ele>
        <time>2021-03-29T09:37:31.000Z</time>
      </trkpt>
      <trkpt lat="46.30608" lon="6.25347">
        <ele>409</ele>
        <time>2021-03-29T09:37:35.000Z</time>
      </trkpt>
      <trkpt lat="46.30607" lon="6.25354">
        <ele>409.20001220703</ele>
        <time>2021-03-29T09:37:36.000Z</time>
      </trkpt>
      <trkpt lat="46.30613" lon="6.25393">
        <ele>409.60000610352</ele>
        <time>2021-03-29T09:37:42.000Z</time>
      </trkpt>
      <trkpt lat="46.30618" lon="6.25411">
        <ele>410</ele>
        <time>2021-03-29T09:37:45.000Z</time>
      </trkpt>
      <trkpt lat="46.30622" lon="6.25429">
        <ele>410.79998779297</ele>
        <time>2021-03-29T09:37:48.000Z</time>
      </trkpt>
      <trkpt lat="46.30634" lon="6.25468">
        <ele>411.60000610352</ele>
        <time>2021-03-29T09:37:55.000Z</time>
      </trkpt>
      <trkpt lat="46.3065" lon="6.25512">
        <ele>412.60000610352</ele>
        <time>2021-03-29T09:38:03.000Z</time>
      </trkpt>
      <trkpt lat="46.30669" lon="6.25552">
        <ele>414.79998779297</ele>
        <time>2021-03-29T09:38:11.000Z</time>
      </trkpt>
      <trkpt lat="46.30688" lon="6.25589">
        <ele>416.39999389648</ele>
        <time>2021-03-29T09:38:18.000Z</time>
      </trkpt>
      <trkpt lat="46.30696" lon="6.25596">
        <ele>416.79998779297</ele>
        <time>2021-03-29T09:38:20.000Z</time>
      </trkpt>
      <trkpt lat="46.30713" lon="6.25613">
        <ele>417.60000610352</ele>
        <time>2021-03-29T09:38:25.000Z</time>
      </trkpt>
      <trkpt lat="46.30741" lon="6.25639">
        <ele>418.79998779297</ele>
        <time>2021-03-29T09:38:33.000Z</time>
      </trkpt>
      <trkpt lat="46.30773" lon="6.25668">
        <ele>419.60000610352</ele>
        <time>2021-03-29T09:38:42.000Z</time>
      </trkpt>
      <trkpt lat="46.30781" lon="6.25674">
        <ele>419.60000610352</ele>
        <time>2021-03-29T09:38:44.000Z</time>
      </trkpt>
      <trkpt lat="46.30796" lon="6.25686">
        <ele>420</ele>
        <time>2021-03-29T09:38:48.000Z</time>
      </trkpt>
      <trkpt lat="46.30799" lon="6.25689">
        <ele>420</ele>
        <time>2021-03-29T09:38:49.000Z</time>
      </trkpt>
      <trkpt lat="46.30814" lon="6.25704">
        <ele>420.39999389648</ele>
        <time>2021-03-29T09:38:53.000Z</time>
      </trkpt>
      <trkpt lat="46.30846" lon="6.25752">
        <ele>421</ele>
        <time>2021-03-29T09:39:02.000Z</time>
      </trkpt>
      <trkpt lat="46.30877" lon="6.25805">
        <ele>421</ele>
        <time>2021-03-29T09:39:11.000Z</time>
      </trkpt>
      <trkpt lat="46.30902" lon="6.25848">
        <ele>421.39999389648</ele>
        <time>2021-03-29T09:39:18.000Z</time>
      </trkpt>
      <trkpt lat="46.30936" lon="6.25905">
        <ele>421.79998779297</ele>
        <time>2021-03-29T09:39:27.000Z</time>
      </trkpt>
      <trkpt lat="46.30973" lon="6.25963">
        <ele>422.60000610352</ele>
        <time>2021-03-29T09:39:36.000Z</time>
      </trkpt>
      <trkpt lat="46.30978" lon="6.2597">
        <ele>422.79998779297</ele>
        <time>2021-03-29T09:39:37.000Z</time>
      </trkpt>
      <trkpt lat="46.31017" lon="6.26026">
        <ele>421</ele>
        <time>2021-03-29T09:39:46.000Z</time>
      </trkpt>
      <trkpt lat="46.31054" lon="6.26076">
        <ele>419.20001220703</ele>
        <time>2021-03-29T09:39:54.000Z</time>
      </trkpt>
      <trkpt lat="46.31099" lon="6.2613">
        <ele>418.60000610352</ele>
        <time>2021-03-29T09:40:03.000Z</time>
      </trkpt>
      <trkpt lat="46.3114" lon="6.26176">
        <ele>418.79998779297</ele>
        <time>2021-03-29T09:40:11.000Z</time>
      </trkpt>
      <trkpt lat="46.31174" lon="6.26212">
        <ele>419.20001220703</ele>
        <time>2021-03-29T09:40:18.000Z</time>
      </trkpt>
      <trkpt lat="46.31217" lon="6.26257">
        <ele>419.20001220703</ele>
        <time>2021-03-29T09:40:27.000Z</time>
      </trkpt>
      <trkpt lat="46.31248" lon="6.2629">
        <ele>419.20001220703</ele>
        <time>2021-03-29T09:40:34.000Z</time>
      </trkpt>
      <trkpt lat="46.31292" lon="6.26336">
        <ele>419.79998779297</ele>
        <time>2021-03-29T09:40:43.000Z</time>
      </trkpt>
      <trkpt lat="46.31307" lon="6.26352">
        <ele>420</ele>
        <time>2021-03-29T09:40:46.000Z</time>
      </trkpt>
      <trkpt lat="46.31354" lon="6.26401">
        <ele>420.60000610352</ele>
        <time>2021-03-29T09:40:55.000Z</time>
      </trkpt>
      <trkpt lat="46.31376" lon="6.26424">
        <ele>421</ele>
        <time>2021-03-29T09:40:59.000Z</time>
      </trkpt>
      <trkpt lat="46.31424" lon="6.26474">
        <ele>422.20001220703</ele>
        <time>2021-03-29T09:41:08.000Z</time>
      </trkpt>
      <trkpt lat="46.31439" lon="6.26491">
        <ele>422.60000610352</ele>
        <time>2021-03-29T09:41:11.000Z</time>
      </trkpt>
      <trkpt lat="46.31486" lon="6.26541">
        <ele>423.60000610352</ele>
        <time>2021-03-29T09:41:20.000Z</time>
      </trkpt>
      <trkpt lat="46.31497" lon="6.26552">
        <ele>423.39999389648</ele>
        <time>2021-03-29T09:41:22.000Z</time>
      </trkpt>
      <trkpt lat="46.31538" lon="6.266">
        <ele>422.20001220703</ele>
        <time>2021-03-29T09:41:30.000Z</time>
      </trkpt>
      <trkpt lat="46.3157" lon="6.26645">
        <ele>420.60000610352</ele>
        <time>2021-03-29T09:41:37.000Z</time>
      </trkpt>
      <trkpt lat="46.31579" lon="6.26657">
        <ele>419.79998779297</ele>
        <time>2021-03-29T09:41:39.000Z</time>
      </trkpt>
      <trkpt lat="46.31587" lon="6.26667">
        <ele>419.39999389648</ele>
        <time>2021-03-29T09:41:41.000Z</time>
      </trkpt>
      <trkpt lat="46.31596" lon="6.26679">
        <ele>418.60000610352</ele>
        <time>2021-03-29T09:41:45.000Z</time>
      </trkpt>
      <trkpt lat="46.31601" lon="6.26685">
        <ele>418.20001220703</ele>
        <time>2021-03-29T09:41:48.000Z</time>
      </trkpt>
      <trkpt lat="46.31602" lon="6.26685">
        <ele>418.20001220703</ele>
        <time>2021-03-29T09:41:49.000Z</time>
      </trkpt>
      <trkpt lat="46.31604" lon="6.26683">
        <ele>418</ele>
        <time>2021-03-29T09:41:50.000Z</time>
      </trkpt>
      <trkpt lat="46.31613" lon="6.26676">
        <ele>417.39999389648</ele>
        <time>2021-03-29T09:41:52.000Z</time>
      </trkpt>
      <trkpt lat="46.31633" lon="6.26664">
        <ele>416</ele>
        <time>2021-03-29T09:41:56.000Z</time>
      </trkpt>
      <trkpt lat="46.31645" lon="6.26657">
        <ele>415.20001220703</ele>
        <time>2021-03-29T09:41:58.000Z</time>
      </trkpt>
      <trkpt lat="46.31658" lon="6.26658">
        <ele>414.60000610352</ele>
        <time>2021-03-29T09:42:00.000Z</time>
      </trkpt>
      <trkpt lat="46.31665" lon="6.2666">
        <ele>414.39999389648</ele>
        <time>2021-03-29T09:42:01.000Z</time>
      </trkpt>
      <trkpt lat="46.31672" lon="6.26663">
        <ele>414.20001220703</ele>
        <time>2021-03-29T09:42:02.000Z</time>
      </trkpt>
      <trkpt lat="46.31681" lon="6.26674">
        <ele>414</ele>
        <time>2021-03-29T09:42:04.000Z</time>
      </trkpt>
      <trkpt lat="46.31699" lon="6.26671">
        <ele>413.79998779297</ele>
        <time>2021-03-29T09:42:06.000Z</time>
      </trkpt>
      <trkpt lat="46.31705" lon="6.26676">
        <ele>413.60000610352</ele>
        <time>2021-03-29T09:42:07.000Z</time>
      </trkpt>
      <trkpt lat="46.3171" lon="6.26681">
        <ele>413.39999389648</ele>
        <time>2021-03-29T09:42:08.000Z</time>
      </trkpt>
      <trkpt lat="46.31731" lon="6.26702">
        <ele>412.60000610352</ele>
        <time>2021-03-29T09:42:12.000Z</time>
      </trkpt>
      <trkpt lat="46.31741" lon="6.26712">
        <ele>412.60000610352</ele>
        <time>2021-03-29T09:42:14.000Z</time>
      </trkpt>
      <trkpt lat="46.31761" lon="6.26731">
        <ele>412.79998779297</ele>
        <time>2021-03-29T09:42:18.000Z</time>
      </trkpt>
      <trkpt lat="46.31779" lon="6.26749">
        <ele>413.60000610352</ele>
        <time>2021-03-29T09:42:22.000Z</time>
      </trkpt>
      <trkpt lat="46.31783" lon="6.26754">
        <ele>413.79998779297</ele>
        <time>2021-03-29T09:42:23.000Z</time>
      </trkpt>
      <trkpt lat="46.31788" lon="6.26758">
        <ele>414</ele>
        <time>2021-03-29T09:42:24.000Z</time>
      </trkpt>
      <trkpt lat="46.31807" lon="6.26779">
        <ele>415</ele>
        <time>2021-03-29T09:42:28.000Z</time>
      </trkpt>
      <trkpt lat="46.31851" lon="6.26825">
        <ele>416.39999389648</ele>
        <time>2021-03-29T09:42:37.000Z</time>
      </trkpt>
      <trkpt lat="46.31874" lon="6.26851">
        <ele>416.79998779297</ele>
        <time>2021-03-29T09:42:42.000Z</time>
      </trkpt>
      <trkpt lat="46.31879" lon="6.26856">
        <ele>416.79998779297</ele>
        <time>2021-03-29T09:42:43.000Z</time>
      </trkpt>
      <trkpt lat="46.31882" lon="6.26861">
        <ele>416.79998779297</ele>
        <time>2021-03-29T09:42:44.000Z</time>
      </trkpt>
      <trkpt lat="46.31902" lon="6.26883">
        <ele>417</ele>
        <time>2021-03-29T09:42:48.000Z</time>
      </trkpt>
      <trkpt lat="46.31929" lon="6.26907">
        <ele>416.60000610352</ele>
        <time>2021-03-29T09:42:53.000Z</time>
      </trkpt>
      <trkpt lat="46.31939" lon="6.26917">
        <ele>416.39999389648</ele>
        <time>2021-03-29T09:42:55.000Z</time>
      </trkpt>
      <trkpt lat="46.31969" lon="6.26934">
        <ele>416.20001220703</ele>
        <time>2021-03-29T09:43:00.000Z</time>
      </trkpt>
      <trkpt lat="46.32012" lon="6.26947">
        <ele>416.39999389648</ele>
        <time>2021-03-29T09:43:06.000Z</time>
      </trkpt>
      <trkpt lat="46.32057" lon="6.2695">
        <ele>417</ele>
        <time>2021-03-29T09:43:13.000Z</time>
      </trkpt>
      <trkpt lat="46.32093" lon="6.26946">
        <ele>417</ele>
        <time>2021-03-29T09:43:19.000Z</time>
      </trkpt>
      <trkpt lat="46.32134" lon="6.26931">
        <ele>417.39999389648</ele>
        <time>2021-03-29T09:43:26.000Z</time>
      </trkpt>
      <trkpt lat="46.32169" lon="6.26918">
        <ele>417.79998779297</ele>
        <time>2021-03-29T09:43:32.000Z</time>
      </trkpt>
      <trkpt lat="46.32199" lon="6.26907">
        <ele>417.79998779297</ele>
        <time>2021-03-29T09:43:37.000Z</time>
      </trkpt>
      <trkpt lat="46.32216" lon="6.26903">
        <ele>418</ele>
        <time>2021-03-29T09:43:40.000Z</time>
      </trkpt>
      <trkpt lat="46.32226" lon="6.26901">
        <ele>418</ele>
        <time>2021-03-29T09:43:42.000Z</time>
      </trkpt>
      <trkpt lat="46.32237" lon="6.26909">
        <ele>418</ele>
        <time>2021-03-29T09:43:44.000Z</time>
      </trkpt>
      <trkpt lat="46.32244" lon="6.26905">
        <ele>418.20001220703</ele>
        <time>2021-03-29T09:43:46.000Z</time>
      </trkpt>
      <trkpt lat="46.32252" lon="6.26888">
        <ele>418</ele>
        <time>2021-03-29T09:43:48.000Z</time>
      </trkpt>
      <trkpt lat="46.32258" lon="6.26885">
        <ele>418</ele>
        <time>2021-03-29T09:43:49.000Z</time>
      </trkpt>
      <trkpt lat="46.32262" lon="6.26883">
        <ele>418</ele>
        <time>2021-03-29T09:43:50.000Z</time>
      </trkpt>
      <trkpt lat="46.32279" lon="6.26877">
        <ele>418</ele>
        <time>2021-03-29T09:43:53.000Z</time>
      </trkpt>
      <trkpt lat="46.32318" lon="6.26862">
        <ele>418</ele>
        <time>2021-03-29T09:44:00.000Z</time>
      </trkpt>
      <trkpt lat="46.32347" lon="6.2685">
        <ele>417.60000610352</ele>
        <time>2021-03-29T09:44:05.000Z</time>
      </trkpt>
      <trkpt lat="46.32383" lon="6.26837">
        <ele>417.79998779297</ele>
        <time>2021-03-29T09:44:11.000Z</time>
      </trkpt>
      <trkpt lat="46.32425" lon="6.26822">
        <ele>417.39999389648</ele>
        <time>2021-03-29T09:44:18.000Z</time>
      </trkpt>
      <trkpt lat="46.32479" lon="6.26801">
        <ele>416.20001220703</ele>
        <time>2021-03-29T09:44:27.000Z</time>
      </trkpt>
      <trkpt lat="46.32531" lon="6.26783">
        <ele>418.20001220703</ele>
        <time>2021-03-29T09:44:36.000Z</time>
      </trkpt>
      <trkpt lat="46.32576" lon="6.26774">
        <ele>418.60000610352</ele>
        <time>2021-03-29T09:44:44.000Z</time>
      </trkpt>
      <trkpt lat="46.32618" lon="6.26769">
        <ele>419.20001220703</ele>
        <time>2021-03-29T09:44:52.000Z</time>
      </trkpt>
      <trkpt lat="46.32654" lon="6.26763">
        <ele>419.20001220703</ele>
        <time>2021-03-29T09:44:59.000Z</time>
      </trkpt>
      <trkpt lat="46.32658" lon="6.26762">
        <ele>419.20001220703</ele>
        <time>2021-03-29T09:45:00.000Z</time>
      </trkpt>
      <trkpt lat="46.32667" lon="6.2676">
        <ele>418.79998779297</ele>
        <time>2021-03-29T09:45:02.000Z</time>
      </trkpt>
      <trkpt lat="46.32685" lon="6.26756">
        <ele>418.60000610352</ele>
        <time>2021-03-29T09:45:06.000Z</time>
      </trkpt>
      <trkpt lat="46.32689" lon="6.26754">
        <ele>418.79998779297</ele>
        <time>2021-03-29T09:45:07.000Z</time>
      </trkpt>
      <trkpt lat="46.327" lon="6.26752">
        <ele>418.79998779297</ele>
        <time>2021-03-29T09:45:11.000Z</time>
      </trkpt>
      <trkpt lat="46.32711" lon="6.26757">
        <ele>418.60000610352</ele>
        <time>2021-03-29T09:45:16.000Z</time>
      </trkpt>
      <trkpt lat="46.32716" lon="6.2676">
        <ele>418.60000610352</ele>
        <time>2021-03-29T09:45:20.000Z</time>
      </trkpt>
      <trkpt lat="46.32716" lon="6.2676">
        <ele>418.60000610352</ele>
        <time>2021-03-29T09:46:33.000Z</time>
      </trkpt>
      <trkpt lat="46.3273" lon="6.26769">
        <ele>418.60000610352</ele>
        <time>2021-03-29T09:46:37.000Z</time>
      </trkpt>
      <trkpt lat="46.32734" lon="6.26771">
        <ele>418.39999389648</ele>
        <time>2021-03-29T09:46:39.000Z</time>
      </trkpt>
      <trkpt lat="46.32743" lon="6.26777">
        <ele>417.79998779297</ele>
        <time>2021-03-29T09:46:42.000Z</time>
      </trkpt>
      <trkpt lat="46.3275" lon="6.26782">
        <ele>417.39999389648</ele>
        <time>2021-03-29T09:46:44.000Z</time>
      </trkpt>
      <trkpt lat="46.32776" lon="6.26799">
        <ele>416</ele>
        <time>2021-03-29T09:46:50.000Z</time>
      </trkpt>
      <trkpt lat="46.32798" lon="6.26818">
        <ele>414.60000610352</ele>
        <time>2021-03-29T09:46:54.000Z</time>
      </trkpt>
      <trkpt lat="46.32804" lon="6.26824">
        <ele>414.20001220703</ele>
        <time>2021-03-29T09:46:55.000Z</time>
      </trkpt>
      <trkpt lat="46.32814" lon="6.2684">
        <ele>413.39999389648</ele>
        <time>2021-03-29T09:46:57.000Z</time>
      </trkpt>
      <trkpt lat="46.32822" lon="6.26856">
        <ele>412.79998779297</ele>
        <time>2021-03-29T09:46:59.000Z</time>
      </trkpt>
      <trkpt lat="46.3283" lon="6.26873">
        <ele>412.20001220703</ele>
        <time>2021-03-29T09:47:01.000Z</time>
      </trkpt>
      <trkpt lat="46.32839" lon="6.26891">
        <ele>411.60000610352</ele>
        <time>2021-03-29T09:47:03.000Z</time>
      </trkpt>
      <trkpt lat="46.32871" lon="6.26936">
        <ele>411.60000610352</ele>
        <time>2021-03-29T09:47:09.000Z</time>
      </trkpt>
      <trkpt lat="46.32878" lon="6.26942">
        <ele>411.60000610352</ele>
        <time>2021-03-29T09:47:10.000Z</time>
      </trkpt>
      <trkpt lat="46.32896" lon="6.26958">
        <ele>411.60000610352</ele>
        <time>2021-03-29T09:47:13.000Z</time>
      </trkpt>
      <trkpt lat="46.32925" lon="6.26985">
        <ele>411.60000610352</ele>
        <time>2021-03-29T09:47:19.000Z</time>
      </trkpt>
      <trkpt lat="46.32936" lon="6.26994">
        <ele>411.60000610352</ele>
        <time>2021-03-29T09:47:21.000Z</time>
      </trkpt>
      <trkpt lat="46.32957" lon="6.27012">
        <ele>411.79998779297</ele>
        <time>2021-03-29T09:47:25.000Z</time>
      </trkpt>
      <trkpt lat="46.32986" lon="6.27038">
        <ele>412</ele>
        <time>2021-03-29T09:47:31.000Z</time>
      </trkpt>
      <trkpt lat="46.33017" lon="6.27065">
        <ele>411.79998779297</ele>
        <time>2021-03-29T09:47:37.000Z</time>
      </trkpt>
      <trkpt lat="46.33046" lon="6.27095">
        <ele>411.79998779297</ele>
        <time>2021-03-29T09:47:43.000Z</time>
      </trkpt>
      <trkpt lat="46.33057" lon="6.27103">
        <ele>411.60000610352</ele>
        <time>2021-03-29T09:47:45.000Z</time>
      </trkpt>
      <trkpt lat="46.33073" lon="6.27115">
        <ele>411.39999389648</ele>
        <time>2021-03-29T09:47:48.000Z</time>
      </trkpt>
      <trkpt lat="46.33078" lon="6.27119">
        <ele>411.39999389648</ele>
        <time>2021-03-29T09:47:49.000Z</time>
      </trkpt>
      <trkpt lat="46.33111" lon="6.27147">
        <ele>410.79998779297</ele>
        <time>2021-03-29T09:47:55.000Z</time>
      </trkpt>
      <trkpt lat="46.33141" lon="6.27186">
        <ele>410.20001220703</ele>
        <time>2021-03-29T09:48:01.000Z</time>
      </trkpt>
      <trkpt lat="46.33167" lon="6.27231">
        <ele>410.20001220703</ele>
        <time>2021-03-29T09:48:07.000Z</time>
      </trkpt>
      <trkpt lat="46.33192" lon="6.27287">
        <ele>411</ele>
        <time>2021-03-29T09:48:14.000Z</time>
      </trkpt>
      <trkpt lat="46.33222" lon="6.27354">
        <ele>411.79998779297</ele>
        <time>2021-03-29T09:48:22.000Z</time>
      </trkpt>
      <trkpt lat="46.33239" lon="6.27383">
        <ele>412.20001220703</ele>
        <time>2021-03-29T09:48:26.000Z</time>
      </trkpt>
      <trkpt lat="46.33244" lon="6.2739">
        <ele>412.20001220703</ele>
        <time>2021-03-29T09:48:27.000Z</time>
      </trkpt>
      <trkpt lat="46.33249" lon="6.27396">
        <ele>412.39999389648</ele>
        <time>2021-03-29T09:48:28.000Z</time>
      </trkpt>
      <trkpt lat="46.33265" lon="6.27415">
        <ele>412.79998779297</ele>
        <time>2021-03-29T09:48:31.000Z</time>
      </trkpt>
      <trkpt lat="46.33294" lon="6.27451">
        <ele>413.39999389648</ele>
        <time>2021-03-29T09:48:37.000Z</time>
      </trkpt>
      <trkpt lat="46.33331" lon="6.27494">
        <ele>414</ele>
        <time>2021-03-29T09:48:45.000Z</time>
      </trkpt>
      <trkpt lat="46.33355" lon="6.27519">
        <ele>414.39999389648</ele>
        <time>2021-03-29T09:48:50.000Z</time>
      </trkpt>
      <trkpt lat="46.3336" lon="6.27524">
        <ele>414.39999389648</ele>
        <time>2021-03-29T09:48:51.000Z</time>
      </trkpt>
      <trkpt lat="46.33398" lon="6.27553">
        <ele>414.39999389648</ele>
        <time>2021-03-29T09:48:58.000Z</time>
      </trkpt>
      <trkpt lat="46.33454" lon="6.27587">
        <ele>413.39999389648</ele>
        <time>2021-03-29T09:49:07.000Z</time>
      </trkpt>
      <trkpt lat="46.33486" lon="6.27604">
        <ele>412.79998779297</ele>
        <time>2021-03-29T09:49:12.000Z</time>
      </trkpt>
      <trkpt lat="46.33532" lon="6.27628">
        <ele>412.79998779297</ele>
        <time>2021-03-29T09:49:19.000Z</time>
      </trkpt>
      <trkpt lat="46.33572" lon="6.27651">
        <ele>413.39999389648</ele>
        <time>2021-03-29T09:49:25.000Z</time>
      </trkpt>
      <trkpt lat="46.33614" lon="6.27674">
        <ele>416.20001220703</ele>
        <time>2021-03-29T09:49:31.000Z</time>
      </trkpt>
      <trkpt lat="46.3362" lon="6.27678">
        <ele>416.60000610352</ele>
        <time>2021-03-29T09:49:32.000Z</time>
      </trkpt>
      <trkpt lat="46.33633" lon="6.27685">
        <ele>417.39999389648</ele>
        <time>2021-03-29T09:49:34.000Z</time>
      </trkpt>
      <trkpt lat="46.33667" lon="6.27705">
        <ele>418.79998779297</ele>
        <time>2021-03-29T09:49:39.000Z</time>
      </trkpt>
      <trkpt lat="46.33674" lon="6.27708">
        <ele>418.79998779297</ele>
        <time>2021-03-29T09:49:40.000Z</time>
      </trkpt>
      <trkpt lat="46.33692" lon="6.27718">
        <ele>419</ele>
        <time>2021-03-29T09:49:43.000Z</time>
      </trkpt>
      <trkpt lat="46.33705" lon="6.27725">
        <ele>419.20001220703</ele>
        <time>2021-03-29T09:49:45.000Z</time>
      </trkpt>
      <trkpt lat="46.33737" lon="6.27742">
        <ele>419.39999389648</ele>
        <time>2021-03-29T09:49:50.000Z</time>
      </trkpt>
      <trkpt lat="46.33743" lon="6.27746">
        <ele>419.39999389648</ele>
        <time>2021-03-29T09:49:51.000Z</time>
      </trkpt>
      <trkpt lat="46.33764" lon="6.27757">
        <ele>419.20001220703</ele>
        <time>2021-03-29T09:49:54.000Z</time>
      </trkpt>
      <trkpt lat="46.33771" lon="6.2776">
        <ele>419.20001220703</ele>
        <time>2021-03-29T09:49:55.000Z</time>
      </trkpt>
      <trkpt lat="46.3379" lon="6.27771">
        <ele>419</ele>
        <time>2021-03-29T09:49:58.000Z</time>
      </trkpt>
      <trkpt lat="46.33804" lon="6.27778">
        <ele>419</ele>
        <time>2021-03-29T09:50:00.000Z</time>
      </trkpt>
      <trkpt lat="46.33808" lon="6.27781">
        <ele>419</ele>
        <time>2021-03-29T09:50:01.000Z</time>
      </trkpt>
      <trkpt lat="46.33829" lon="6.27792">
        <ele>419</ele>
        <time>2021-03-29T09:50:04.000Z</time>
      </trkpt>
      <trkpt lat="46.33836" lon="6.27796">
        <ele>419.20001220703</ele>
        <time>2021-03-29T09:50:05.000Z</time>
      </trkpt>
      <trkpt lat="46.33873" lon="6.27816">
        <ele>419.39999389648</ele>
        <time>2021-03-29T09:50:10.000Z</time>
      </trkpt>
      <trkpt lat="46.3388" lon="6.2782">
        <ele>419.39999389648</ele>
        <time>2021-03-29T09:50:11.000Z</time>
      </trkpt>
      <trkpt lat="46.33903" lon="6.27833">
        <ele>419.39999389648</ele>
        <time>2021-03-29T09:50:14.000Z</time>
      </trkpt>
      <trkpt lat="46.33936" lon="6.27852">
        <ele>418.60000610352</ele>
        <time>2021-03-29T09:50:19.000Z</time>
      </trkpt>
      <trkpt lat="46.33949" lon="6.2786">
        <ele>418.20001220703</ele>
        <time>2021-03-29T09:50:21.000Z</time>
      </trkpt>
      <trkpt lat="46.33973" lon="6.27876">
        <ele>417.79998779297</ele>
        <time>2021-03-29T09:50:25.000Z</time>
      </trkpt>
      <trkpt lat="46.34005" lon="6.27901">
        <ele>417.20001220703</ele>
        <time>2021-03-29T09:50:30.000Z</time>
      </trkpt>
      <trkpt lat="46.34011" lon="6.27908">
        <ele>417.20001220703</ele>
        <time>2021-03-29T09:50:31.000Z</time>
      </trkpt>
      <trkpt lat="46.34029" lon="6.27928">
        <ele>417</ele>
        <time>2021-03-29T09:50:34.000Z</time>
      </trkpt>
      <trkpt lat="46.3406" lon="6.27964">
        <ele>416.79998779297</ele>
        <time>2021-03-29T09:50:39.000Z</time>
      </trkpt>
      <trkpt lat="46.34087" lon="6.27997">
        <ele>415.20001220703</ele>
        <time>2021-03-29T09:50:44.000Z</time>
      </trkpt>
      <trkpt lat="46.34104" lon="6.28018">
        <ele>414.20001220703</ele>
        <time>2021-03-29T09:50:47.000Z</time>
      </trkpt>
      <trkpt lat="46.34109" lon="6.28025">
        <ele>413.79998779297</ele>
        <time>2021-03-29T09:50:48.000Z</time>
      </trkpt>
      <trkpt lat="46.34121" lon="6.2804">
        <ele>413</ele>
        <time>2021-03-29T09:50:50.000Z</time>
      </trkpt>
      <trkpt lat="46.34167" lon="6.28098">
        <ele>411.79998779297</ele>
        <time>2021-03-29T09:50:58.000Z</time>
      </trkpt>
      <trkpt lat="46.34183" lon="6.28118">
        <ele>412.20001220703</ele>
        <time>2021-03-29T09:51:01.000Z</time>
      </trkpt>
      <trkpt lat="46.34194" lon="6.28132">
        <ele>412.39999389648</ele>
        <time>2021-03-29T09:51:03.000Z</time>
      </trkpt>
      <trkpt lat="46.34226" lon="6.28173">
        <ele>411.39999389648</ele>
        <time>2021-03-29T09:51:09.000Z</time>
      </trkpt>
      <trkpt lat="46.34259" lon="6.28214">
        <ele>409.39999389648</ele>
        <time>2021-03-29T09:51:15.000Z</time>
      </trkpt>
      <trkpt lat="46.34296" lon="6.28261">
        <ele>407.60000610352</ele>
        <time>2021-03-29T09:51:22.000Z</time>
      </trkpt>
      <trkpt lat="46.34341" lon="6.28317">
        <ele>407.39999389648</ele>
        <time>2021-03-29T09:51:30.000Z</time>
      </trkpt>
      <trkpt lat="46.34373" lon="6.28358">
        <ele>408.20001220703</ele>
        <time>2021-03-29T09:51:36.000Z</time>
      </trkpt>
      <trkpt lat="46.34402" lon="6.2839">
        <ele>409</ele>
        <time>2021-03-29T09:51:42.000Z</time>
      </trkpt>
      <trkpt lat="46.34412" lon="6.28398">
        <ele>409</ele>
        <time>2021-03-29T09:51:44.000Z</time>
      </trkpt>
      <trkpt lat="46.34422" lon="6.28406">
        <ele>409.20001220703</ele>
        <time>2021-03-29T09:51:46.000Z</time>
      </trkpt>
      <trkpt lat="46.34454" lon="6.2843">
        <ele>409.79998779297</ele>
        <time>2021-03-29T09:51:52.000Z</time>
      </trkpt>
      <trkpt lat="46.34486" lon="6.28452">
        <ele>410.39999389648</ele>
        <time>2021-03-29T09:51:58.000Z</time>
      </trkpt>
      <trkpt lat="46.34514" lon="6.28471">
        <ele>410.79998779297</ele>
        <time>2021-03-29T09:52:03.000Z</time>
      </trkpt>
      <trkpt lat="46.34554" lon="6.28498">
        <ele>411.60000610352</ele>
        <time>2021-03-29T09:52:10.000Z</time>
      </trkpt>
      <trkpt lat="46.34583" lon="6.28517">
        <ele>412.20001220703</ele>
        <time>2021-03-29T09:52:15.000Z</time>
      </trkpt>
      <trkpt lat="46.34589" lon="6.28521">
        <ele>412.20001220703</ele>
        <time>2021-03-29T09:52:16.000Z</time>
      </trkpt>
      <trkpt lat="46.34594" lon="6.28525">
        <ele>412.20001220703</ele>
        <time>2021-03-29T09:52:17.000Z</time>
      </trkpt>
      <trkpt lat="46.34606" lon="6.28533">
        <ele>412.39999389648</ele>
        <time>2021-03-29T09:52:19.000Z</time>
      </trkpt>
      <trkpt lat="46.34611" lon="6.28536">
        <ele>412.39999389648</ele>
        <time>2021-03-29T09:52:20.000Z</time>
      </trkpt>
      <trkpt lat="46.34627" lon="6.28547">
        <ele>412.60000610352</ele>
        <time>2021-03-29T09:52:23.000Z</time>
      </trkpt>
      <trkpt lat="46.34643" lon="6.28558">
        <ele>412.79998779297</ele>
        <time>2021-03-29T09:52:26.000Z</time>
      </trkpt>
      <trkpt lat="46.34649" lon="6.28562">
        <ele>413</ele>
        <time>2021-03-29T09:52:27.000Z</time>
      </trkpt>
      <trkpt lat="46.34661" lon="6.28582">
        <ele>413.60000610352</ele>
        <time>2021-03-29T09:52:30.000Z</time>
      </trkpt>
      <trkpt lat="46.34668" lon="6.28597">
        <ele>414</ele>
        <time>2021-03-29T09:52:32.000Z</time>
      </trkpt>
      <trkpt lat="46.34692" lon="6.28644">
        <ele>415.39999389648</ele>
        <time>2021-03-29T09:52:39.000Z</time>
      </trkpt>
      <trkpt lat="46.34711" lon="6.28684">
        <ele>416.20001220703</ele>
        <time>2021-03-29T09:52:45.000Z</time>
      </trkpt>
      <trkpt lat="46.34714" lon="6.28691">
        <ele>416.39999389648</ele>
        <time>2021-03-29T09:52:46.000Z</time>
      </trkpt>
      <trkpt lat="46.3472" lon="6.28704">
        <ele>416.60000610352</ele>
        <time>2021-03-29T09:52:48.000Z</time>
      </trkpt>
      <trkpt lat="46.3473" lon="6.28725">
        <ele>417</ele>
        <time>2021-03-29T09:52:51.000Z</time>
      </trkpt>
      <trkpt lat="46.34734" lon="6.28733">
        <ele>417</ele>
        <time>2021-03-29T09:52:52.000Z</time>
      </trkpt>
      <trkpt lat="46.34749" lon="6.28767">
        <ele>416.79998779297</ele>
        <time>2021-03-29T09:52:57.000Z</time>
      </trkpt>
      <trkpt lat="46.34767" lon="6.28809">
        <ele>416.60000610352</ele>
        <time>2021-03-29T09:53:03.000Z</time>
      </trkpt>
      <trkpt lat="46.34784" lon="6.28848">
        <ele>417.20001220703</ele>
        <time>2021-03-29T09:53:09.000Z</time>
      </trkpt>
      <trkpt lat="46.34787" lon="6.28854">
        <ele>417.39999389648</ele>
        <time>2021-03-29T09:53:10.000Z</time>
      </trkpt>
      <trkpt lat="46.34803" lon="6.28877">
        <ele>417.60000610352</ele>
        <time>2021-03-29T09:53:14.000Z</time>
      </trkpt>
      <trkpt lat="46.34807" lon="6.28883">
        <ele>417.79998779297</ele>
        <time>2021-03-29T09:53:15.000Z</time>
      </trkpt>
      <trkpt lat="46.34822" lon="6.28904">
        <ele>418</ele>
        <time>2021-03-29T09:53:19.000Z</time>
      </trkpt>
      <trkpt lat="46.34825" lon="6.28908">
        <ele>418</ele>
        <time>2021-03-29T09:53:20.000Z</time>
      </trkpt>
      <trkpt lat="46.34828" lon="6.28912">
        <ele>418</ele>
        <time>2021-03-29T09:53:21.000Z</time>
      </trkpt>
      <trkpt lat="46.34837" lon="6.28924">
        <ele>418</ele>
        <time>2021-03-29T09:53:23.000Z</time>
      </trkpt>
      <trkpt lat="46.34837" lon="6.28927">
        <ele>418</ele>
        <time>2021-03-29T09:53:24.000Z</time>
      </trkpt>
      <trkpt lat="46.34837" lon="6.28939">
        <ele>418.20001220703</ele>
        <time>2021-03-29T09:53:26.000Z</time>
      </trkpt>
      <trkpt lat="46.34845" lon="6.28952">
        <ele>418.20001220703</ele>
        <time>2021-03-29T09:53:28.000Z</time>
      </trkpt>
      <trkpt lat="46.34852" lon="6.28948">
        <ele>418.20001220703</ele>
        <time>2021-03-29T09:53:29.000Z</time>
      </trkpt>
      <trkpt lat="46.34855" lon="6.28946">
        <ele>418.20001220703</ele>
        <time>2021-03-29T09:53:30.000Z</time>
      </trkpt>
      <trkpt lat="46.34855" lon="6.28933">
        <ele>418</ele>
        <time>2021-03-29T09:53:32.000Z</time>
      </trkpt>
      <trkpt lat="46.34873" lon="6.28915">
        <ele>417.60000610352</ele>
        <time>2021-03-29T09:53:35.000Z</time>
      </trkpt>
      <trkpt lat="46.34914" lon="6.28886">
        <ele>417.39999389648</ele>
        <time>2021-03-29T09:53:43.000Z</time>
      </trkpt>
      <trkpt lat="46.34951" lon="6.28861">
        <ele>418.39999389648</ele>
        <time>2021-03-29T09:53:50.000Z</time>
      </trkpt>
      <trkpt lat="46.34977" lon="6.28842">
        <ele>418.60000610352</ele>
        <time>2021-03-29T09:53:56.000Z</time>
      </trkpt>
      <trkpt lat="46.34995" lon="6.28824">
        <ele>417.79998779297</ele>
        <time>2021-03-29T09:54:00.000Z</time>
      </trkpt>
      <trkpt lat="46.35015" lon="6.28809">
        <ele>416.60000610352</ele>
        <time>2021-03-29T09:54:04.000Z</time>
      </trkpt>
      <trkpt lat="46.35044" lon="6.28788">
        <ele>415.20001220703</ele>
        <time>2021-03-29T09:54:09.000Z</time>
      </trkpt>
      <trkpt lat="46.35051" lon="6.28785">
        <ele>415</ele>
        <time>2021-03-29T09:54:10.000Z</time>
      </trkpt>
      <trkpt lat="46.35074" lon="6.28786">
        <ele>414.39999389648</ele>
        <time>2021-03-29T09:54:14.000Z</time>
      </trkpt>
      <trkpt lat="46.35089" lon="6.28791">
        <ele>413.79998779297</ele>
        <time>2021-03-29T09:54:17.000Z</time>
      </trkpt>
      <trkpt lat="46.35099" lon="6.28794">
        <ele>413.60000610352</ele>
        <time>2021-03-29T09:54:19.000Z</time>
      </trkpt>
      <trkpt lat="46.35137" lon="6.28807">
        <ele>412.39999389648</ele>
        <time>2021-03-29T09:54:26.000Z</time>
      </trkpt>
      <trkpt lat="46.35166" lon="6.28818">
        <ele>410.60000610352</ele>
        <time>2021-03-29T09:54:31.000Z</time>
      </trkpt>
      <trkpt lat="46.352" lon="6.28839">
        <ele>408.79998779297</ele>
        <time>2021-03-29T09:54:37.000Z</time>
      </trkpt>
      <trkpt lat="46.35205" lon="6.28843">
        <ele>408.60000610352</ele>
        <time>2021-03-29T09:54:38.000Z</time>
      </trkpt>
      <trkpt lat="46.35241" lon="6.28884">
        <ele>407.39999389648</ele>
        <time>2021-03-29T09:54:46.000Z</time>
      </trkpt>
      <trkpt lat="46.35279" lon="6.28932">
        <ele>406.60000610352</ele>
        <time>2021-03-29T09:54:54.000Z</time>
      </trkpt>
      <trkpt lat="46.35304" lon="6.28967">
        <ele>406.20001220703</ele>
        <time>2021-03-29T09:55:00.000Z</time>
      </trkpt>
      <trkpt lat="46.35331" lon="6.29005">
        <ele>405.79998779297</ele>
        <time>2021-03-29T09:55:06.000Z</time>
      </trkpt>
      <trkpt lat="46.35367" lon="6.29059">
        <ele>405.39999389648</ele>
        <time>2021-03-29T09:55:14.000Z</time>
      </trkpt>
      <trkpt lat="46.35392" lon="6.29113">
        <ele>405.39999389648</ele>
        <time>2021-03-29T09:55:21.000Z</time>
      </trkpt>
      <trkpt lat="46.35411" lon="6.29169">
        <ele>405.60000610352</ele>
        <time>2021-03-29T09:55:28.000Z</time>
      </trkpt>
      <trkpt lat="46.35435" lon="6.29239">
        <ele>405.39999389648</ele>
        <time>2021-03-29T09:55:36.000Z</time>
      </trkpt>
      <trkpt lat="46.35441" lon="6.29257">
        <ele>405.20001220703</ele>
        <time>2021-03-29T09:55:38.000Z</time>
      </trkpt>
      <trkpt lat="46.3546" lon="6.2931">
        <ele>404.39999389648</ele>
        <time>2021-03-29T09:55:44.000Z</time>
      </trkpt>
      <trkpt lat="46.35485" lon="6.29345">
        <ele>403</ele>
        <time>2021-03-29T09:55:49.000Z</time>
      </trkpt>
      <trkpt lat="46.35512" lon="6.29381">
        <ele>402.60000610352</ele>
        <time>2021-03-29T09:55:54.000Z</time>
      </trkpt>
      <trkpt lat="46.35548" lon="6.29432">
        <ele>402.20001220703</ele>
        <time>2021-03-29T09:56:01.000Z</time>
      </trkpt>
      <trkpt lat="46.35578" lon="6.29473">
        <ele>401.60000610352</ele>
        <time>2021-03-29T09:56:07.000Z</time>
      </trkpt>
      <trkpt lat="46.35602" lon="6.29505">
        <ele>401</ele>
        <time>2021-03-29T09:56:12.000Z</time>
      </trkpt>
      <trkpt lat="46.35607" lon="6.2951">
        <ele>400.79998779297</ele>
        <time>2021-03-29T09:56:13.000Z</time>
      </trkpt>
      <trkpt lat="46.35648" lon="6.29546">
        <ele>399.79998779297</ele>
        <time>2021-03-29T09:56:20.000Z</time>
      </trkpt>
      <trkpt lat="46.35693" lon="6.29587">
        <ele>399.79998779297</ele>
        <time>2021-03-29T09:56:28.000Z</time>
      </trkpt>
      <trkpt lat="46.35703" lon="6.29599">
        <ele>400</ele>
        <time>2021-03-29T09:56:30.000Z</time>
      </trkpt>
      <trkpt lat="46.35718" lon="6.2962">
        <ele>400.39999389648</ele>
        <time>2021-03-29T09:56:33.000Z</time>
      </trkpt>
      <trkpt lat="46.35757" lon="6.29675">
        <ele>400</ele>
        <time>2021-03-29T09:56:41.000Z</time>
      </trkpt>
      <trkpt lat="46.3577" lon="6.29694">
        <ele>399.39999389648</ele>
        <time>2021-03-29T09:56:44.000Z</time>
      </trkpt>
      <trkpt lat="46.35779" lon="6.29707">
        <ele>399</ele>
        <time>2021-03-29T09:56:46.000Z</time>
      </trkpt>
      <trkpt lat="46.35805" lon="6.29736">
        <ele>398.20001220703</ele>
        <time>2021-03-29T09:56:51.000Z</time>
      </trkpt>
      <trkpt lat="46.3581" lon="6.29741">
        <ele>398.39999389648</ele>
        <time>2021-03-29T09:56:52.000Z</time>
      </trkpt>
      <trkpt lat="46.35841" lon="6.29776">
        <ele>398.79998779297</ele>
        <time>2021-03-29T09:56:58.000Z</time>
      </trkpt>
      <trkpt lat="46.35863" lon="6.29806">
        <ele>399.20001220703</ele>
        <time>2021-03-29T09:57:03.000Z</time>
      </trkpt>
      <trkpt lat="46.35868" lon="6.29813">
        <ele>399.39999389648</ele>
        <time>2021-03-29T09:57:04.000Z</time>
      </trkpt>
      <trkpt lat="46.35885" lon="6.29841">
        <ele>399.20001220703</ele>
        <time>2021-03-29T09:57:08.000Z</time>
      </trkpt>
      <trkpt lat="46.35888" lon="6.29849">
        <ele>399.20001220703</ele>
        <time>2021-03-29T09:57:09.000Z</time>
      </trkpt>
      <trkpt lat="46.35903" lon="6.29881">
        <ele>398.60000610352</ele>
        <time>2021-03-29T09:57:13.000Z</time>
      </trkpt>
      <trkpt lat="46.35916" lon="6.29902">
        <ele>398</ele>
        <time>2021-03-29T09:57:16.000Z</time>
      </trkpt>
      <trkpt lat="46.35944" lon="6.29936">
        <ele>397.20001220703</ele>
        <time>2021-03-29T09:57:22.000Z</time>
      </trkpt>
      <trkpt lat="46.3598" lon="6.2998">
        <ele>396</ele>
        <time>2021-03-29T09:57:28.000Z</time>
      </trkpt>
      <trkpt lat="46.3598" lon="6.2998">
        <ele>396</ele>
        <time>2021-03-29T09:57:29.000Z</time>
      </trkpt>
      <trkpt lat="46.36001" lon="6.30006">
        <ele>395.20001220703</ele>
        <time>2021-03-29T09:57:33.000Z</time>
      </trkpt>
      <trkpt lat="46.36021" lon="6.30036">
        <ele>394.20001220703</ele>
        <time>2021-03-29T09:57:36.000Z</time>
      </trkpt>
      <trkpt lat="46.36026" lon="6.30043">
        <ele>394</ele>
        <time>2021-03-29T09:57:37.000Z</time>
      </trkpt>
      <trkpt lat="46.36056" lon="6.3009">
        <ele>393.79998779297</ele>
        <time>2021-03-29T09:57:44.000Z</time>
      </trkpt>
      <trkpt lat="46.36097" lon="6.30147">
        <ele>394.39999389648</ele>
        <time>2021-03-29T09:57:52.000Z</time>
      </trkpt>
      <trkpt lat="46.36126" lon="6.30186">
        <ele>393.60000610352</ele>
        <time>2021-03-29T09:57:58.000Z</time>
      </trkpt>
      <trkpt lat="46.3614" lon="6.30205">
        <ele>393</ele>
        <time>2021-03-29T09:58:00.000Z</time>
      </trkpt>
      <trkpt lat="46.36165" lon="6.30233">
        <ele>392.20001220703</ele>
        <time>2021-03-29T09:58:06.000Z</time>
      </trkpt>
      <trkpt lat="46.36177" lon="6.30241">
        <ele>391.79998779297</ele>
        <time>2021-03-29T09:58:07.000Z</time>
      </trkpt>
      <trkpt lat="46.36201" lon="6.30257">
        <ele>391.20001220703</ele>
        <time>2021-03-29T09:58:12.000Z</time>
      </trkpt>
      <trkpt lat="46.36231" lon="6.30278">
        <ele>390.20001220703</ele>
        <time>2021-03-29T09:58:17.000Z</time>
      </trkpt>
      <trkpt lat="46.36253" lon="6.30301">
        <ele>389.39999389648</ele>
        <time>2021-03-29T09:58:21.000Z</time>
      </trkpt>
      <trkpt lat="46.36263" lon="6.30315">
        <ele>389.20001220703</ele>
        <time>2021-03-29T09:58:23.000Z</time>
      </trkpt>
      <trkpt lat="46.36273" lon="6.3033">
        <ele>388.79998779297</ele>
        <time>2021-03-29T09:58:25.000Z</time>
      </trkpt>
      <trkpt lat="46.36288" lon="6.3035">
        <ele>388.39999389648</ele>
        <time>2021-03-29T09:58:28.000Z</time>
      </trkpt>
      <trkpt lat="46.36306" lon="6.30374">
        <ele>388</ele>
        <time>2021-03-29T09:58:32.000Z</time>
      </trkpt>
      <trkpt lat="46.36326" lon="6.30396">
        <ele>387.20001220703</ele>
        <time>2021-03-29T09:58:35.000Z</time>
      </trkpt>
      <trkpt lat="46.36326" lon="6.30396">
        <ele>387.20001220703</ele>
        <time>2021-03-29T09:58:36.000Z</time>
      </trkpt>
      <trkpt lat="46.36331" lon="6.30399">
        <ele>387</ele>
        <time>2021-03-29T09:58:37.000Z</time>
      </trkpt>
      <trkpt lat="46.36342" lon="6.30408">
        <ele>386.39999389648</ele>
        <time>2021-03-29T09:58:39.000Z</time>
      </trkpt>
      <trkpt lat="46.36351" lon="6.30421">
        <ele>386</ele>
        <time>2021-03-29T09:58:41.000Z</time>
      </trkpt>
      <trkpt lat="46.3635" lon="6.30437">
        <ele>386.20001220703</ele>
        <time>2021-03-29T09:58:43.000Z</time>
      </trkpt>
      <trkpt lat="46.36354" lon="6.30449">
        <ele>386</ele>
        <time>2021-03-29T09:58:45.000Z</time>
      </trkpt>
      <trkpt lat="46.3636" lon="6.30449">
        <ele>385.79998779297</ele>
        <time>2021-03-29T09:58:46.000Z</time>
      </trkpt>
      <trkpt lat="46.36364" lon="6.30449">
        <ele>385.60000610352</ele>
        <time>2021-03-29T09:58:47.000Z</time>
      </trkpt>
      <trkpt lat="46.36375" lon="6.30439">
        <ele>384.79998779297</ele>
        <time>2021-03-29T09:58:49.000Z</time>
      </trkpt>
      <trkpt lat="46.36388" lon="6.30443">
        <ele>384.20001220703</ele>
        <time>2021-03-29T09:58:51.000Z</time>
      </trkpt>
      <trkpt lat="46.36399" lon="6.30452">
        <ele>383.60000610352</ele>
        <time>2021-03-29T09:58:53.000Z</time>
      </trkpt>
      <trkpt lat="46.36405" lon="6.30456">
        <ele>383.39999389648</ele>
        <time>2021-03-29T09:58:54.000Z</time>
      </trkpt>
      <trkpt lat="46.36417" lon="6.30466">
        <ele>382.79998779297</ele>
        <time>2021-03-29T09:58:56.000Z</time>
      </trkpt>
      <trkpt lat="46.36424" lon="6.30471">
        <ele>382.60000610352</ele>
        <time>2021-03-29T09:58:57.000Z</time>
      </trkpt>
      <trkpt lat="46.3643" lon="6.30473">
        <ele>382.39999389648</ele>
        <time>2021-03-29T09:58:58.000Z</time>
      </trkpt>
      <trkpt lat="46.36452" lon="6.30479">
        <ele>381.39999389648</ele>
        <time>2021-03-29T09:59:01.000Z</time>
      </trkpt>
      <trkpt lat="46.36485" lon="6.30488">
        <ele>380.20001220703</ele>
        <time>2021-03-29T09:59:06.000Z</time>
      </trkpt>
      <trkpt lat="46.36497" lon="6.30491">
        <ele>380.60000610352</ele>
        <time>2021-03-29T09:59:08.000Z</time>
      </trkpt>
      <trkpt lat="46.3651" lon="6.30492">
        <ele>380.60000610352</ele>
        <time>2021-03-29T09:59:10.000Z</time>
      </trkpt>
      <trkpt lat="46.36516" lon="6.30499">
        <ele>381</ele>
        <time>2021-03-29T09:59:12.000Z</time>
      </trkpt>
      <trkpt lat="46.36519" lon="6.30505">
        <ele>381.20001220703</ele>
        <time>2021-03-29T09:59:13.000Z</time>
      </trkpt>
      <trkpt lat="46.36538" lon="6.30538">
        <ele>382.79998779297</ele>
        <time>2021-03-29T09:59:19.000Z</time>
      </trkpt>
      <trkpt lat="46.3654" lon="6.30544">
        <ele>383</ele>
        <time>2021-03-29T09:59:20.000Z</time>
      </trkpt>
      <trkpt lat="46.36543" lon="6.30551">
        <ele>383.20001220703</ele>
        <time>2021-03-29T09:59:21.000Z</time>
      </trkpt>
      <trkpt lat="46.3655" lon="6.30577">
        <ele>383.39999389648</ele>
        <time>2021-03-29T09:59:24.000Z</time>
      </trkpt>
      <trkpt lat="46.36549" lon="6.30583">
        <ele>383.39999389648</ele>
        <time>2021-03-29T09:59:26.000Z</time>
      </trkpt>
      <trkpt lat="46.36548" lon="6.30596">
        <ele>383.20001220703</ele>
        <time>2021-03-29T09:59:27.000Z</time>
      </trkpt>
      <trkpt lat="46.36547" lon="6.30603">
        <ele>383.20001220703</ele>
        <time>2021-03-29T09:59:28.000Z</time>
      </trkpt>
      <trkpt lat="46.36535" lon="6.30627">
        <ele>382.79998779297</ele>
        <time>2021-03-29T09:59:32.000Z</time>
      </trkpt>
      <trkpt lat="46.36521" lon="6.30655">
        <ele>383.79998779297</ele>
        <time>2021-03-29T09:59:37.000Z</time>
      </trkpt>
      <trkpt lat="46.36504" lon="6.30688">
        <ele>385</ele>
        <time>2021-03-29T09:59:43.000Z</time>
      </trkpt>
      <trkpt lat="46.36493" lon="6.30711">
        <ele>386</ele>
        <time>2021-03-29T09:59:48.000Z</time>
      </trkpt>
      <trkpt lat="46.36485" lon="6.30727">
        <ele>386.79998779297</ele>
        <time>2021-03-29T09:59:53.000Z</time>
      </trkpt>
      <trkpt lat="46.36479" lon="6.30746">
        <ele>387</ele>
        <time>2021-03-29T09:59:59.000Z</time>
      </trkpt>
      <trkpt lat="46.36483" lon="6.30755">
        <ele>387</ele>
        <time>2021-03-29T10:00:03.000Z</time>
      </trkpt>
      <trkpt lat="46.3649" lon="6.3077">
        <ele>387.20001220703</ele>
        <time>2021-03-29T10:00:05.000Z</time>
      </trkpt>
      <trkpt lat="46.36495" lon="6.3078">
        <ele>387.20001220703</ele>
        <time>2021-03-29T10:00:07.000Z</time>
      </trkpt>
      <trkpt lat="46.36497" lon="6.30785">
        <ele>387.20001220703</ele>
        <time>2021-03-29T10:00:08.000Z</time>
      </trkpt>
      <trkpt lat="46.36512" lon="6.30812">
        <ele>387.39999389648</ele>
        <time>2021-03-29T10:00:13.000Z</time>
      </trkpt>
      <trkpt lat="46.36515" lon="6.30818">
        <ele>387.39999389648</ele>
        <time>2021-03-29T10:00:14.000Z</time>
      </trkpt>
      <trkpt lat="46.36529" lon="6.30839">
        <ele>387.60000610352</ele>
        <time>2021-03-29T10:00:18.000Z</time>
      </trkpt>
      <trkpt lat="46.36536" lon="6.30849">
        <ele>387.60000610352</ele>
        <time>2021-03-29T10:00:20.000Z</time>
      </trkpt>
      <trkpt lat="46.36548" lon="6.30866">
        <ele>387.79998779297</ele>
        <time>2021-03-29T10:00:23.000Z</time>
      </trkpt>
      <trkpt lat="46.36552" lon="6.30872">
        <ele>387.79998779297</ele>
        <time>2021-03-29T10:00:24.000Z</time>
      </trkpt>
      <trkpt lat="46.36564" lon="6.30911">
        <ele>387.60000610352</ele>
        <time>2021-03-29T10:00:29.000Z</time>
      </trkpt>
      <trkpt lat="46.36581" lon="6.30958">
        <ele>386.79998779297</ele>
        <time>2021-03-29T10:00:36.000Z</time>
      </trkpt>
      <trkpt lat="46.36586" lon="6.3097">
        <ele>386.60000610352</ele>
        <time>2021-03-29T10:00:38.000Z</time>
      </trkpt>
      <trkpt lat="46.36592" lon="6.30984">
        <ele>386.39999389648</ele>
        <time>2021-03-29T10:00:41.000Z</time>
      </trkpt>
      <trkpt lat="46.36598" lon="6.30998">
        <ele>387.20001220703</ele>
        <time>2021-03-29T10:00:42.000Z</time>
      </trkpt>
      <trkpt lat="46.36607" lon="6.3102">
        <ele>388.39999389648</ele>
        <time>2021-03-29T10:00:46.000Z</time>
      </trkpt>
      <trkpt lat="46.3663" lon="6.31075">
        <ele>390.79998779297</ele>
        <time>2021-03-29T10:00:53.000Z</time>
      </trkpt>
      <trkpt lat="46.36631" lon="6.31083">
        <ele>391.20001220703</ele>
        <time>2021-03-29T10:00:54.000Z</time>
      </trkpt>
      <trkpt lat="46.36634" lon="6.31105">
        <ele>392</ele>
        <time>2021-03-29T10:00:57.000Z</time>
      </trkpt>
      <trkpt lat="46.36629" lon="6.31147">
        <ele>393</ele>
        <time>2021-03-29T10:01:03.000Z</time>
      </trkpt>
      <trkpt lat="46.36625" lon="6.31183">
        <ele>392</ele>
        <time>2021-03-29T10:01:08.000Z</time>
      </trkpt>
      <trkpt lat="46.36624" lon="6.3119">
        <ele>391.79998779297</ele>
        <time>2021-03-29T10:01:09.000Z</time>
      </trkpt>
      <trkpt lat="46.36621" lon="6.31212">
        <ele>391.20001220703</ele>
        <time>2021-03-29T10:01:12.000Z</time>
      </trkpt>
      <trkpt lat="46.3662" lon="6.31228">
        <ele>391</ele>
        <time>2021-03-29T10:01:14.000Z</time>
      </trkpt>
      <trkpt lat="46.36621" lon="6.31266">
        <ele>390.20001220703</ele>
        <time>2021-03-29T10:01:19.000Z</time>
      </trkpt>
      <trkpt lat="46.36622" lon="6.31281">
        <ele>389.79998779297</ele>
        <time>2021-03-29T10:01:21.000Z</time>
      </trkpt>
      <trkpt lat="46.36622" lon="6.31304">
        <ele>390</ele>
        <time>2021-03-29T10:01:24.000Z</time>
      </trkpt>
      <trkpt lat="46.36623" lon="6.31318">
        <ele>390.39999389648</ele>
        <time>2021-03-29T10:01:26.000Z</time>
      </trkpt>
      <trkpt lat="46.36623" lon="6.31318">
        <ele>390.39999389648</ele>
        <time>2021-03-29T10:01:27.000Z</time>
      </trkpt>
      <trkpt lat="46.36623" lon="6.31325">
        <ele>390.39999389648</ele>
        <time>2021-03-29T10:01:28.000Z</time>
      </trkpt>
      <trkpt lat="46.36616" lon="6.31339">
        <ele>390.60000610352</ele>
        <time>2021-03-29T10:01:30.000Z</time>
      </trkpt>
      <trkpt lat="46.3661" lon="6.31343">
        <ele>390.79998779297</ele>
        <time>2021-03-29T10:01:32.000Z</time>
      </trkpt>
      <trkpt lat="46.36602" lon="6.31347">
        <ele>391</ele>
        <time>2021-03-29T10:01:34.000Z</time>
      </trkpt>
      <trkpt lat="46.36597" lon="6.3135">
        <ele>391</ele>
        <time>2021-03-29T10:01:35.000Z</time>
      </trkpt>
      <trkpt lat="46.36582" lon="6.31359">
        <ele>391.60000610352</ele>
        <time>2021-03-29T10:01:38.000Z</time>
      </trkpt>
      <trkpt lat="46.36582" lon="6.31359">
        <ele>391.60000610352</ele>
        <time>2021-03-29T10:01:39.000Z</time>
      </trkpt>
      <trkpt lat="46.3657" lon="6.31368">
        <ele>392.20001220703</ele>
        <time>2021-03-29T10:01:40.000Z</time>
      </trkpt>
      <trkpt lat="46.36569" lon="6.31378">
        <ele>392.39999389648</ele>
        <time>2021-03-29T10:01:42.000Z</time>
      </trkpt>
      <trkpt lat="46.36568" lon="6.31387">
        <ele>392.60000610352</ele>
        <time>2021-03-29T10:01:44.000Z</time>
      </trkpt>
      <trkpt lat="46.36567" lon="6.31398">
        <ele>393</ele>
        <time>2021-03-29T10:01:46.000Z</time>
      </trkpt>
      <trkpt lat="46.36565" lon="6.31416">
        <ele>392.79998779297</ele>
        <time>2021-03-29T10:01:49.000Z</time>
      </trkpt>
      <trkpt lat="46.36564" lon="6.3143">
        <ele>392.60000610352</ele>
        <time>2021-03-29T10:01:51.000Z</time>
      </trkpt>
      <trkpt lat="46.36557" lon="6.31478">
        <ele>391.60000610352</ele>
        <time>2021-03-29T10:01:56.000Z</time>
      </trkpt>
      <trkpt lat="46.36551" lon="6.31503">
        <ele>390.39999389648</ele>
        <time>2021-03-29T10:02:00.000Z</time>
      </trkpt>
      <trkpt lat="46.36544" lon="6.31527">
        <ele>389.20001220703</ele>
        <time>2021-03-29T10:02:04.000Z</time>
      </trkpt>
      <trkpt lat="46.36532" lon="6.3157">
        <ele>388.60000610352</ele>
        <time>2021-03-29T10:02:09.000Z</time>
      </trkpt>
      <trkpt lat="46.36529" lon="6.31579">
        <ele>388.60000610352</ele>
        <time>2021-03-29T10:02:10.000Z</time>
      </trkpt>
      <trkpt lat="46.36514" lon="6.31632">
        <ele>388.79998779297</ele>
        <time>2021-03-29T10:02:16.000Z</time>
      </trkpt>
      <trkpt lat="46.36512" lon="6.3164">
        <ele>389</ele>
        <time>2021-03-29T10:02:17.000Z</time>
      </trkpt>
      <trkpt lat="46.36507" lon="6.31655">
        <ele>389.20001220703</ele>
        <time>2021-03-29T10:02:19.000Z</time>
      </trkpt>
      <trkpt lat="46.365" lon="6.31679">
        <ele>390.39999389648</ele>
        <time>2021-03-29T10:02:22.000Z</time>
      </trkpt>
      <trkpt lat="46.36498" lon="6.31688">
        <ele>391</ele>
        <time>2021-03-29T10:02:23.000Z</time>
      </trkpt>
      <trkpt lat="46.36473" lon="6.31732">
        <ele>393.60000610352</ele>
        <time>2021-03-29T10:02:29.000Z</time>
      </trkpt>
      <trkpt lat="46.3645" lon="6.31763">
        <ele>392.60000610352</ele>
        <time>2021-03-29T10:02:35.000Z</time>
      </trkpt>
      <trkpt lat="46.36433" lon="6.31788">
        <ele>392.79998779297</ele>
        <time>2021-03-29T10:02:40.000Z</time>
      </trkpt>
      <trkpt lat="46.36429" lon="6.31793">
        <ele>393</ele>
        <time>2021-03-29T10:02:41.000Z</time>
      </trkpt>
      <trkpt lat="46.36424" lon="6.31801">
        <ele>393.39999389648</ele>
        <time>2021-03-29T10:02:43.000Z</time>
      </trkpt>
      <trkpt lat="46.36421" lon="6.31813">
        <ele>394</ele>
        <time>2021-03-29T10:02:44.000Z</time>
      </trkpt>
      <trkpt lat="46.36423" lon="6.31819">
        <ele>393.79998779297</ele>
        <time>2021-03-29T10:02:45.000Z</time>
      </trkpt>
      <trkpt lat="46.36429" lon="6.31835">
        <ele>393.20001220703</ele>
        <time>2021-03-29T10:02:48.000Z</time>
      </trkpt>
      <trkpt lat="46.36437" lon="6.31856">
        <ele>392.60000610352</ele>
        <time>2021-03-29T10:02:50.000Z</time>
      </trkpt>
      <trkpt lat="46.36445" lon="6.31873">
        <ele>392.60000610352</ele>
        <time>2021-03-29T10:02:53.000Z</time>
      </trkpt>
      <trkpt lat="46.3645" lon="6.31884">
        <ele>392.60000610352</ele>
        <time>2021-03-29T10:02:55.000Z</time>
      </trkpt>
      <trkpt lat="46.36455" lon="6.31895">
        <ele>392.60000610352</ele>
        <time>2021-03-29T10:02:57.000Z</time>
      </trkpt>
      <trkpt lat="46.36473" lon="6.31923">
        <ele>392.39999389648</ele>
        <time>2021-03-29T10:03:03.000Z</time>
      </trkpt>
      <trkpt lat="46.36486" lon="6.31938">
        <ele>392.39999389648</ele>
        <time>2021-03-29T10:03:07.000Z</time>
      </trkpt>
      <trkpt lat="46.36496" lon="6.31946">
        <ele>392.39999389648</ele>
        <time>2021-03-29T10:03:11.000Z</time>
      </trkpt>
      <trkpt lat="46.365" lon="6.3195">
        <ele>392.39999389648</ele>
        <time>2021-03-29T10:03:12.000Z</time>
      </trkpt>
      <trkpt lat="46.36538" lon="6.31979">
        <ele>392.60000610352</ele>
        <time>2021-03-29T10:03:21.000Z</time>
      </trkpt>
      <trkpt lat="46.36572" lon="6.32005">
        <ele>393.79998779297</ele>
        <time>2021-03-29T10:03:29.000Z</time>
      </trkpt>
      <trkpt lat="46.36593" lon="6.32022">
        <ele>394.60000610352</ele>
        <time>2021-03-29T10:03:33.000Z</time>
      </trkpt>
      <trkpt lat="46.36598" lon="6.32023">
        <ele>394.60000610352</ele>
        <time>2021-03-29T10:03:35.000Z</time>
      </trkpt>
      <trkpt lat="46.3661" lon="6.32026">
        <ele>394.79998779297</ele>
        <time>2021-03-29T10:03:37.000Z</time>
      </trkpt>
      <trkpt lat="46.36616" lon="6.32027">
        <ele>394.79998779297</ele>
        <time>2021-03-29T10:03:39.000Z</time>
      </trkpt>
      <trkpt lat="46.36621" lon="6.32035">
        <ele>395.20001220703</ele>
        <time>2021-03-29T10:03:42.000Z</time>
      </trkpt>
      <trkpt lat="46.36622" lon="6.32039">
        <ele>395.60000610352</ele>
        <time>2021-03-29T10:03:43.000Z</time>
      </trkpt>
      <trkpt lat="46.36637" lon="6.32051">
        <ele>396.20001220703</ele>
        <time>2021-03-29T10:03:49.000Z</time>
      </trkpt>
      <trkpt lat="46.3667" lon="6.32064">
        <ele>396.79998779297</ele>
        <time>2021-03-29T10:03:57.000Z</time>
      </trkpt>
      <trkpt lat="46.367" lon="6.32077">
        <ele>397</ele>
        <time>2021-03-29T10:04:06.000Z</time>
      </trkpt>
      <trkpt lat="46.36709" lon="6.3209">
        <ele>397.60000610352</ele>
        <time>2021-03-29T10:04:09.000Z</time>
      </trkpt>
      <trkpt lat="46.36726" lon="6.32099">
        <ele>397.79998779297</ele>
        <time>2021-03-29T10:04:13.000Z</time>
      </trkpt>
      <trkpt lat="46.36759" lon="6.32114">
        <ele>397.79998779297</ele>
        <time>2021-03-29T10:04:21.000Z</time>
      </trkpt>
      <trkpt lat="46.36783" lon="6.32147">
        <ele>398.79998779297</ele>
        <time>2021-03-29T10:04:30.000Z</time>
      </trkpt>
      <trkpt lat="46.36789" lon="6.32155">
        <ele>399</ele>
        <time>2021-03-29T10:04:31.000Z</time>
      </trkpt>
      <trkpt lat="46.36795" lon="6.32164">
        <ele>399</ele>
        <time>2021-03-29T10:04:33.000Z</time>
      </trkpt>
      <trkpt lat="46.36801" lon="6.32172">
        <ele>399.20001220703</ele>
        <time>2021-03-29T10:04:36.000Z</time>
      </trkpt>
      <trkpt lat="46.36815" lon="6.32212">
        <ele>400.20001220703</ele>
        <time>2021-03-29T10:04:45.000Z</time>
      </trkpt>
      <trkpt lat="46.36817" lon="6.32225">
        <ele>400.39999389648</ele>
        <time>2021-03-29T10:04:47.000Z</time>
      </trkpt>
      <trkpt lat="46.36818" lon="6.3223">
        <ele>400.39999389648</ele>
        <time>2021-03-29T10:04:49.000Z</time>
      </trkpt>
      <trkpt lat="46.36821" lon="6.32247">
        <ele>400.39999389648</ele>
        <time>2021-03-29T10:04:52.000Z</time>
      </trkpt>
      <trkpt lat="46.36821" lon="6.32247">
        <ele>400.39999389648</ele>
        <time>2021-03-29T10:04:53.000Z</time>
      </trkpt>
      <trkpt lat="46.36821" lon="6.32269">
        <ele>400</ele>
        <time>2021-03-29T10:04:56.000Z</time>
      </trkpt>
      <trkpt lat="46.36821" lon="6.32281">
        <ele>400</ele>
        <time>2021-03-29T10:04:58.000Z</time>
      </trkpt>
      <trkpt lat="46.36821" lon="6.32307">
        <ele>399.60000610352</ele>
        <time>2021-03-29T10:05:03.000Z</time>
      </trkpt>
      <trkpt lat="46.36821" lon="6.32313">
        <ele>399.60000610352</ele>
        <time>2021-03-29T10:05:04.000Z</time>
      </trkpt>
      <trkpt lat="46.36822" lon="6.32326">
        <ele>399.39999389648</ele>
        <time>2021-03-29T10:05:06.000Z</time>
      </trkpt>
      <trkpt lat="46.36871" lon="6.32379">
        <ele>396.39999389648</ele>
        <time>2021-03-29T10:05:09.000Z</time>
      </trkpt>
      <trkpt lat="46.36875" lon="6.32383">
        <ele>396.20001220703</ele>
        <time>2021-03-29T10:05:10.000Z</time>
      </trkpt>
      <trkpt lat="46.36884" lon="6.3239">
        <ele>395.60000610352</ele>
        <time>2021-03-29T10:05:12.000Z</time>
      </trkpt>
      <trkpt lat="46.36888" lon="6.32393">
        <ele>395.39999389648</ele>
        <time>2021-03-29T10:05:13.000Z</time>
      </trkpt>
      <trkpt lat="46.36895" lon="6.32412">
        <ele>394.79998779297</ele>
        <time>2021-03-29T10:05:19.000Z</time>
      </trkpt>
      <trkpt lat="46.36895" lon="6.32412">
        <ele>394.79998779297</ele>
        <time>2021-03-29T10:05:20.000Z</time>
      </trkpt>
      <trkpt lat="46.36895" lon="6.32412">
        <ele>394.79998779297</ele>
        <time>2021-03-29T10:05:22.000Z</time>
      </trkpt>
      <trkpt lat="46.36895" lon="6.32412">
        <ele>394.79998779297</ele>
        <time>2021-03-29T10:05:23.000Z</time>
      </trkpt>
      <trkpt lat="46.36895" lon="6.32412">
        <ele>394.79998779297</ele>
        <time>2021-03-29T10:05:24.000Z</time>
      </trkpt>
      <trkpt lat="46.36895" lon="6.32412">
        <ele>394.79998779297</ele>
        <time>2021-03-29T10:05:28.000Z</time>
      </trkpt>
      <trkpt lat="46.36895" lon="6.32412">
        <ele>394.79998779297</ele>
        <time>2021-03-29T10:05:30.000Z</time>
      </trkpt>
      <trkpt lat="46.36986" lon="6.32474">
        <ele>388</ele>
        <time>2021-03-29T10:05:33.000Z</time>
      </trkpt>
      <trkpt lat="46.3699" lon="6.32486">
        <ele>388.20001220703</ele>
        <time>2021-03-29T10:05:37.000Z</time>
      </trkpt>
      <trkpt lat="46.36991" lon="6.32514">
        <ele>388.60000610352</ele>
        <time>2021-03-29T10:05:40.000Z</time>
      </trkpt>
      <trkpt lat="46.36991" lon="6.32514">
        <ele>388.60000610352</ele>
        <time>2021-03-29T10:05:41.000Z</time>
      </trkpt>
      <trkpt lat="46.36988" lon="6.32516">
        <ele>388.79998779297</ele>
        <time>2021-03-29T10:05:44.000Z</time>
      </trkpt>
      <trkpt lat="46.36995" lon="6.32523">
        <ele>388.39999389648</ele>
        <time>2021-03-29T10:05:45.000Z</time>
      </trkpt>
      <trkpt lat="46.36989" lon="6.32536">
        <ele>389</ele>
        <time>2021-03-29T10:05:49.000Z</time>
      </trkpt>
      <trkpt lat="46.36982" lon="6.3255">
        <ele>389.79998779297</ele>
        <time>2021-03-29T10:05:52.000Z</time>
      </trkpt>
      <trkpt lat="46.36977" lon="6.32562">
        <ele>390.20001220703</ele>
        <time>2021-03-29T10:05:54.000Z</time>
      </trkpt>
      <trkpt lat="46.36968" lon="6.32581">
        <ele>390.20001220703</ele>
        <time>2021-03-29T10:05:58.000Z</time>
      </trkpt>
      <trkpt lat="46.36965" lon="6.32587">
        <ele>390</ele>
        <time>2021-03-29T10:06:00.000Z</time>
      </trkpt>
      <trkpt lat="46.36965" lon="6.32587">
        <ele>390</ele>
        <time>2021-03-29T10:06:01.000Z</time>
      </trkpt>
      <trkpt lat="46.36965" lon="6.32587">
        <ele>390</ele>
        <time>2021-03-29T10:06:04.000Z</time>
      </trkpt>
      <trkpt lat="46.36965" lon="6.32587">
        <ele>390</ele>
        <time>2021-03-29T10:06:05.000Z</time>
      </trkpt>
      <trkpt lat="46.36952" lon="6.3262">
        <ele>390</ele>
        <time>2021-03-29T10:06:06.000Z</time>
      </trkpt>
      <trkpt lat="46.36951" lon="6.32645">
        <ele>390</ele>
        <time>2021-03-29T10:06:10.000Z</time>
      </trkpt>
      <trkpt lat="46.36949" lon="6.32666">
        <ele>390</ele>
        <time>2021-03-29T10:06:14.000Z</time>
      </trkpt>
      <trkpt lat="46.36949" lon="6.32666">
        <ele>390</ele>
        <time>2021-03-29T10:06:17.000Z</time>
      </trkpt>
      <trkpt lat="46.36949" lon="6.32658">
        <ele>390</ele>
        <time>2021-03-29T10:06:29.000Z</time>
      </trkpt>
      <trkpt lat="46.3695" lon="6.32647">
        <ele>390.20001220703</ele>
        <time>2021-03-29T10:06:34.000Z</time>
      </trkpt>
      <trkpt lat="46.3695" lon="6.32634">
        <ele>390.20001220703</ele>
        <time>2021-03-29T10:06:36.000Z</time>
      </trkpt>
      <trkpt lat="46.3695" lon="6.32629">
        <ele>390.20001220703</ele>
        <time>2021-03-29T10:06:38.000Z</time>
      </trkpt>
      <trkpt lat="46.36957" lon="6.32591">
        <ele>390.20001220703</ele>
        <time>2021-03-29T10:06:44.000Z</time>
      </trkpt>
      <trkpt lat="46.36968" lon="6.32563">
        <ele>390.39999389648</ele>
        <time>2021-03-29T10:06:50.000Z</time>
      </trkpt>
      <trkpt lat="46.3698" lon="6.32532">
        <ele>389.60000610352</ele>
        <time>2021-03-29T10:06:56.000Z</time>
      </trkpt>
      <trkpt lat="46.36991" lon="6.32513">
        <ele>388.60000610352</ele>
        <time>2021-03-29T10:07:01.000Z</time>
      </trkpt>
      <trkpt lat="46.36999" lon="6.32508">
        <ele>387.79998779297</ele>
        <time>2021-03-29T10:07:04.000Z</time>
      </trkpt>
      <trkpt lat="46.37002" lon="6.32507">
        <ele>387.60000610352</ele>
        <time>2021-03-29T10:07:05.000Z</time>
      </trkpt>
      <trkpt lat="46.37007" lon="6.32514">
        <ele>387.20001220703</ele>
        <time>2021-03-29T10:07:10.000Z</time>
      </trkpt>
      <trkpt lat="46.3701" lon="6.32519">
        <ele>387</ele>
        <time>2021-03-29T10:07:13.000Z</time>
      </trkpt>
      <trkpt lat="46.37011" lon="6.3252">
        <ele>387</ele>
        <time>2021-03-29T10:07:14.000Z</time>
      </trkpt>
      <trkpt lat="46.37011" lon="6.3252">
        <ele>387</ele>
        <time>2021-03-29T10:07:16.000Z</time>
      </trkpt>
      <trkpt lat="46.37011" lon="6.3252">
        <ele>387</ele>
        <time>2021-03-29T10:07:19.000Z</time>
      </trkpt>
      <trkpt lat="46.37012" lon="6.32522">
        <ele>387</ele>
        <time>2021-03-29T10:07:20.000Z</time>
      </trkpt>
      <trkpt lat="46.37021" lon="6.32537">
        <ele>386.39999389648</ele>
        <time>2021-03-29T10:07:24.000Z</time>
      </trkpt>
      <trkpt lat="46.37023" lon="6.3254">
        <ele>386.20001220703</ele>
        <time>2021-03-29T10:07:25.000Z</time>
      </trkpt>
      <trkpt lat="46.37026" lon="6.32558">
        <ele>386.20001220703</ele>
        <time>2021-03-29T10:07:27.000Z</time>
      </trkpt>
      <trkpt lat="46.37023" lon="6.32571">
        <ele>386.20001220703</ele>
        <time>2021-03-29T10:07:31.000Z</time>
      </trkpt>
      <trkpt lat="46.37016" lon="6.32595">
        <ele>386</ele>
        <time>2021-03-29T10:07:37.000Z</time>
      </trkpt>
      <trkpt lat="46.37009" lon="6.32619">
        <ele>386.39999389648</ele>
        <time>2021-03-29T10:07:42.000Z</time>
      </trkpt>
      <trkpt lat="46.37003" lon="6.32644">
        <ele>386.79998779297</ele>
        <time>2021-03-29T10:07:47.000Z</time>
      </trkpt>
      <trkpt lat="46.36997" lon="6.3267">
        <ele>386.39999389648</ele>
        <time>2021-03-29T10:07:52.000Z</time>
      </trkpt>
      <trkpt lat="46.36988" lon="6.32702">
        <ele>387.39999389648</ele>
        <time>2021-03-29T10:07:58.000Z</time>
      </trkpt>
      <trkpt lat="46.36977" lon="6.32722">
        <ele>388.20001220703</ele>
        <time>2021-03-29T10:08:03.000Z</time>
      </trkpt>
      <trkpt lat="46.36975" lon="6.32723">
        <ele>388.39999389648</ele>
        <time>2021-03-29T10:08:07.000Z</time>
      </trkpt>
      <trkpt lat="46.36971" lon="6.32726">
        <ele>388.39999389648</ele>
        <time>2021-03-29T10:08:09.000Z</time>
      </trkpt>
      <trkpt lat="46.36966" lon="6.32729">
        <ele>388.60000610352</ele>
        <time>2021-03-29T10:08:11.000Z</time>
      </trkpt>
      <trkpt lat="46.3696" lon="6.3274">
        <ele>388.20001220703</ele>
        <time>2021-03-29T10:08:15.000Z</time>
      </trkpt>
      <trkpt lat="46.36955" lon="6.32771">
        <ele>386.39999389648</ele>
        <time>2021-03-29T10:08:21.000Z</time>
      </trkpt>
      <trkpt lat="46.36947" lon="6.32801">
        <ele>386</ele>
        <time>2021-03-29T10:08:27.000Z</time>
      </trkpt>
      <trkpt lat="46.36945" lon="6.32806">
        <ele>386.20001220703</ele>
        <time>2021-03-29T10:08:28.000Z</time>
      </trkpt>
      <trkpt lat="46.36939" lon="6.32826">
        <ele>386.39999389648</ele>
        <time>2021-03-29T10:08:32.000Z</time>
      </trkpt>
      <trkpt lat="46.36926" lon="6.32867">
        <ele>388.60000610352</ele>
        <time>2021-03-29T10:08:40.000Z</time>
      </trkpt>
      <trkpt lat="46.36913" lon="6.32906">
        <ele>391.79998779297</ele>
        <time>2021-03-29T10:08:48.000Z</time>
      </trkpt>
      <trkpt lat="46.36899" lon="6.32951">
        <ele>397</ele>
        <time>2021-03-29T10:08:57.000Z</time>
      </trkpt>
      <trkpt lat="46.36885" lon="6.32995">
        <ele>400.20001220703</ele>
        <time>2021-03-29T10:09:06.000Z</time>
      </trkpt>
      <trkpt lat="46.36877" lon="6.33019">
        <ele>401.39999389648</ele>
        <time>2021-03-29T10:09:12.000Z</time>
      </trkpt>
      <trkpt lat="46.36876" lon="6.33023">
        <ele>401.60000610352</ele>
        <time>2021-03-29T10:09:13.000Z</time>
      </trkpt>
      <trkpt lat="46.36871" lon="6.33038">
        <ele>402.39999389648</ele>
        <time>2021-03-29T10:09:16.000Z</time>
      </trkpt>
      <trkpt lat="46.36863" lon="6.33063">
        <ele>402.39999389648</ele>
        <time>2021-03-29T10:09:21.000Z</time>
      </trkpt>
      <trkpt lat="46.36851" lon="6.331">
        <ele>401.79998779297</ele>
        <time>2021-03-29T10:09:27.000Z</time>
      </trkpt>
      <trkpt lat="46.36839" lon="6.33135">
        <ele>401</ele>
        <time>2021-03-29T10:09:33.000Z</time>
      </trkpt>
      <trkpt lat="46.36837" lon="6.33141">
        <ele>400.79998779297</ele>
        <time>2021-03-29T10:09:34.000Z</time>
      </trkpt>
      <trkpt lat="46.36826" lon="6.33176">
        <ele>400</ele>
        <time>2021-03-29T10:09:40.000Z</time>
      </trkpt>
      <trkpt lat="46.36825" lon="6.33202">
        <ele>400.20001220703</ele>
        <time>2021-03-29T10:09:44.000Z</time>
      </trkpt>
      <trkpt lat="46.36815" lon="6.33234">
        <ele>401</ele>
        <time>2021-03-29T10:09:51.000Z</time>
      </trkpt>
      <trkpt lat="46.36806" lon="6.33293">
        <ele>403</ele>
        <time>2021-03-29T10:09:58.000Z</time>
      </trkpt>
      <trkpt lat="46.36804" lon="6.33313">
        <ele>403.39999389648</ele>
        <time>2021-03-29T10:10:01.000Z</time>
      </trkpt>
      <trkpt lat="46.36802" lon="6.3334">
        <ele>403.60000610352</ele>
        <time>2021-03-29T10:10:05.000Z</time>
      </trkpt>
      <trkpt lat="46.368" lon="6.33374">
        <ele>403.60000610352</ele>
        <time>2021-03-29T10:10:11.000Z</time>
      </trkpt>
      <trkpt lat="46.36806" lon="6.33382">
        <ele>403.39999389648</ele>
        <time>2021-03-29T10:10:12.000Z</time>
      </trkpt>
      <trkpt lat="46.36794" lon="6.33452">
        <ele>403.39999389648</ele>
        <time>2021-03-29T10:10:21.000Z</time>
      </trkpt>
      <trkpt lat="46.36791" lon="6.33496">
        <ele>403</ele>
        <time>2021-03-29T10:10:28.000Z</time>
      </trkpt>
      <trkpt lat="46.36789" lon="6.33517">
        <ele>402.79998779297</ele>
        <time>2021-03-29T10:10:30.000Z</time>
      </trkpt>
      <trkpt lat="46.36787" lon="6.33544">
        <ele>402.60000610352</ele>
        <time>2021-03-29T10:10:34.000Z</time>
      </trkpt>
      <trkpt lat="46.36782" lon="6.33611">
        <ele>402.60000610352</ele>
        <time>2021-03-29T10:10:43.000Z</time>
      </trkpt>
      <trkpt lat="46.36778" lon="6.33672">
        <ele>402.60000610352</ele>
        <time>2021-03-29T10:10:51.000Z</time>
      </trkpt>
      <trkpt lat="46.36781" lon="6.33721">
        <ele>403.20001220703</ele>
        <time>2021-03-29T10:10:58.000Z</time>
      </trkpt>
      <trkpt lat="46.36783" lon="6.33747">
        <ele>402.79998779297</ele>
        <time>2021-03-29T10:11:03.000Z</time>
      </trkpt>
      <trkpt lat="46.36785" lon="6.33781">
        <ele>401.79998779297</ele>
        <time>2021-03-29T10:11:08.000Z</time>
      </trkpt>
      <trkpt lat="46.36792" lon="6.33856">
        <ele>401.60000610352</ele>
        <time>2021-03-29T10:11:17.000Z</time>
      </trkpt>
      <trkpt lat="46.36796" lon="6.3392">
        <ele>402.20001220703</ele>
        <time>2021-03-29T10:11:25.000Z</time>
      </trkpt>
      <trkpt lat="46.36794" lon="6.33958">
        <ele>403.60000610352</ele>
        <time>2021-03-29T10:11:30.000Z</time>
      </trkpt>
      <trkpt lat="46.36784" lon="6.34009">
        <ele>404.39999389648</ele>
        <time>2021-03-29T10:11:37.000Z</time>
      </trkpt>
      <trkpt lat="46.36779" lon="6.34029">
        <ele>405</ele>
        <time>2021-03-29T10:11:40.000Z</time>
      </trkpt>
      <trkpt lat="46.36778" lon="6.34036">
        <ele>405</ele>
        <time>2021-03-29T10:11:42.000Z</time>
      </trkpt>
      <trkpt lat="46.36774" lon="6.3405">
        <ele>405</ele>
        <time>2021-03-29T10:11:46.000Z</time>
      </trkpt>
      <trkpt lat="46.36779" lon="6.3407">
        <ele>404.79998779297</ele>
        <time>2021-03-29T10:11:49.000Z</time>
      </trkpt>
      <trkpt lat="46.36784" lon="6.34099">
        <ele>404.20001220703</ele>
        <time>2021-03-29T10:11:53.000Z</time>
      </trkpt>
      <trkpt lat="46.36787" lon="6.34116">
        <ele>403.79998779297</ele>
        <time>2021-03-29T10:11:55.000Z</time>
      </trkpt>
      <trkpt lat="46.36789" lon="6.34132">
        <ele>403.39999389648</ele>
        <time>2021-03-29T10:11:57.000Z</time>
      </trkpt>
      <trkpt lat="46.36792" lon="6.34148">
        <ele>403.20001220703</ele>
        <time>2021-03-29T10:11:59.000Z</time>
      </trkpt>
      <trkpt lat="46.36794" lon="6.34161">
        <ele>402.20001220703</ele>
        <time>2021-03-29T10:12:01.000Z</time>
      </trkpt>
      <trkpt lat="46.36787" lon="6.34172">
        <ele>401.60000610352</ele>
        <time>2021-03-29T10:12:03.000Z</time>
      </trkpt>
      <trkpt lat="46.36783" lon="6.34175">
        <ele>401.39999389648</ele>
        <time>2021-03-29T10:12:04.000Z</time>
      </trkpt>
      <trkpt lat="46.36754" lon="6.34199">
        <ele>400</ele>
        <time>2021-03-29T10:12:12.000Z</time>
      </trkpt>
      <trkpt lat="46.36737" lon="6.34213">
        <ele>399.20001220703</ele>
        <time>2021-03-29T10:12:16.000Z</time>
      </trkpt>
      <trkpt lat="46.36729" lon="6.3422">
        <ele>398.79998779297</ele>
        <time>2021-03-29T10:12:18.000Z</time>
      </trkpt>
      <trkpt lat="46.367" lon="6.34249">
        <ele>399.20001220703</ele>
        <time>2021-03-29T10:12:25.000Z</time>
      </trkpt>
      <trkpt lat="46.36676" lon="6.34279">
        <ele>399.60000610352</ele>
        <time>2021-03-29T10:12:32.000Z</time>
      </trkpt>
      <trkpt lat="46.36643" lon="6.34319">
        <ele>399.39999389648</ele>
        <time>2021-03-29T10:12:39.000Z</time>
      </trkpt>
      <trkpt lat="46.36633" lon="6.34337">
        <ele>400.20001220703</ele>
        <time>2021-03-29T10:12:42.000Z</time>
      </trkpt>
      <trkpt lat="46.36626" lon="6.34371">
        <ele>400.39999389648</ele>
        <time>2021-03-29T10:12:47.000Z</time>
      </trkpt>
      <trkpt lat="46.36624" lon="6.34386">
        <ele>400.60000610352</ele>
        <time>2021-03-29T10:12:49.000Z</time>
      </trkpt>
      <trkpt lat="46.36622" lon="6.34402">
        <ele>400.79998779297</ele>
        <time>2021-03-29T10:12:51.000Z</time>
      </trkpt>
      <trkpt lat="46.36615" lon="6.34419">
        <ele>401.20001220703</ele>
        <time>2021-03-29T10:12:53.000Z</time>
      </trkpt>
      <trkpt lat="46.36611" lon="6.34425">
        <ele>401.60000610352</ele>
        <time>2021-03-29T10:12:54.000Z</time>
      </trkpt>
      <trkpt lat="46.36587" lon="6.34472">
        <ele>400</ele>
        <time>2021-03-29T10:13:01.000Z</time>
      </trkpt>
      <trkpt lat="46.36562" lon="6.34521">
        <ele>399</ele>
        <time>2021-03-29T10:13:08.000Z</time>
      </trkpt>
      <trkpt lat="46.36548" lon="6.34547">
        <ele>398.60000610352</ele>
        <time>2021-03-29T10:13:12.000Z</time>
      </trkpt>
      <trkpt lat="46.36546" lon="6.34552">
        <ele>398.60000610352</ele>
        <time>2021-03-29T10:13:13.000Z</time>
      </trkpt>
      <trkpt lat="46.36542" lon="6.34556">
        <ele>398.60000610352</ele>
        <time>2021-03-29T10:13:14.000Z</time>
      </trkpt>
      <trkpt lat="46.36535" lon="6.34562">
        <ele>398.79998779297</ele>
        <time>2021-03-29T10:13:16.000Z</time>
      </trkpt>
      <trkpt lat="46.36527" lon="6.34568">
        <ele>398.79998779297</ele>
        <time>2021-03-29T10:13:18.000Z</time>
      </trkpt>
      <trkpt lat="46.3652" lon="6.34574">
        <ele>399</ele>
        <time>2021-03-29T10:13:20.000Z</time>
      </trkpt>
      <trkpt lat="46.36516" lon="6.34579">
        <ele>399</ele>
        <time>2021-03-29T10:13:21.000Z</time>
      </trkpt>
      <trkpt lat="46.36511" lon="6.34589">
        <ele>399</ele>
        <time>2021-03-29T10:13:23.000Z</time>
      </trkpt>
      <trkpt lat="46.36509" lon="6.34593">
        <ele>399</ele>
        <time>2021-03-29T10:13:24.000Z</time>
      </trkpt>
      <trkpt lat="46.36507" lon="6.34596">
        <ele>399</ele>
        <time>2021-03-29T10:13:25.000Z</time>
      </trkpt>
      <trkpt lat="46.36504" lon="6.34602">
        <ele>398.79998779297</ele>
        <time>2021-03-29T10:13:27.000Z</time>
      </trkpt>
      <trkpt lat="46.365" lon="6.34598">
        <ele>399</ele>
        <time>2021-03-29T10:13:30.000Z</time>
      </trkpt>
      <trkpt lat="46.36494" lon="6.34598">
        <ele>399</ele>
        <time>2021-03-29T10:13:32.000Z</time>
      </trkpt>
      <trkpt lat="46.36492" lon="6.34603">
        <ele>399</ele>
        <time>2021-03-29T10:13:33.000Z</time>
      </trkpt>
      <trkpt lat="46.36486" lon="6.34615">
        <ele>398.79998779297</ele>
        <time>2021-03-29T10:13:35.000Z</time>
      </trkpt>
      <trkpt lat="46.36479" lon="6.34629">
        <ele>398.39999389648</ele>
        <time>2021-03-29T10:13:37.000Z</time>
      </trkpt>
      <trkpt lat="46.36468" lon="6.34651">
        <ele>398</ele>
        <time>2021-03-29T10:13:40.000Z</time>
      </trkpt>
      <trkpt lat="46.36444" lon="6.34687">
        <ele>397</ele>
        <time>2021-03-29T10:13:45.000Z</time>
      </trkpt>
      <trkpt lat="46.36415" lon="6.34714">
        <ele>397</ele>
        <time>2021-03-29T10:13:50.000Z</time>
      </trkpt>
      <trkpt lat="46.3638" lon="6.3473">
        <ele>396.79998779297</ele>
        <time>2021-03-29T10:13:55.000Z</time>
      </trkpt>
      <trkpt lat="46.36332" lon="6.3475">
        <ele>395</ele>
        <time>2021-03-29T10:14:02.000Z</time>
      </trkpt>
      <trkpt lat="46.36301" lon="6.34762">
        <ele>394.20001220703</ele>
        <time>2021-03-29T10:14:07.000Z</time>
      </trkpt>
      <trkpt lat="46.36266" lon="6.34776">
        <ele>393.79998779297</ele>
        <time>2021-03-29T10:14:13.000Z</time>
      </trkpt>
      <trkpt lat="46.36237" lon="6.34787">
        <ele>395</ele>
        <time>2021-03-29T10:14:18.000Z</time>
      </trkpt>
      <trkpt lat="46.36199" lon="6.34802">
        <ele>395.20001220703</ele>
        <time>2021-03-29T10:14:23.000Z</time>
      </trkpt>
      <trkpt lat="46.36163" lon="6.34816">
        <ele>393.39999389648</ele>
        <time>2021-03-29T10:14:28.000Z</time>
      </trkpt>
      <trkpt lat="46.36118" lon="6.34833">
        <ele>393</ele>
        <time>2021-03-29T10:14:35.000Z</time>
      </trkpt>
      <trkpt lat="46.3608" lon="6.34848">
        <ele>393</ele>
        <time>2021-03-29T10:14:41.000Z</time>
      </trkpt>
      <trkpt lat="46.36049" lon="6.34862">
        <ele>392.20001220703</ele>
        <time>2021-03-29T10:14:46.000Z</time>
      </trkpt>
      <trkpt lat="46.36011" lon="6.34882">
        <ele>391.39999389648</ele>
        <time>2021-03-29T10:14:52.000Z</time>
      </trkpt>
      <trkpt lat="46.35973" lon="6.34905">
        <ele>391</ele>
        <time>2021-03-29T10:14:59.000Z</time>
      </trkpt>
      <trkpt lat="46.35919" lon="6.34948">
        <ele>391.20001220703</ele>
        <time>2021-03-29T10:15:07.000Z</time>
      </trkpt>
      <trkpt lat="46.35913" lon="6.34953">
        <ele>391.20001220703</ele>
        <time>2021-03-29T10:15:08.000Z</time>
      </trkpt>
      <trkpt lat="46.35865" lon="6.34994">
        <ele>393.39999389648</ele>
        <time>2021-03-29T10:15:16.000Z</time>
      </trkpt>
      <trkpt lat="46.35815" lon="6.35035">
        <ele>394.39999389648</ele>
        <time>2021-03-29T10:15:24.000Z</time>
      </trkpt>
      <trkpt lat="46.35773" lon="6.35069">
        <ele>392.60000610352</ele>
        <time>2021-03-29T10:15:31.000Z</time>
      </trkpt>
      <trkpt lat="46.35731" lon="6.35103">
        <ele>391.20001220703</ele>
        <time>2021-03-29T10:15:38.000Z</time>
      </trkpt>
      <trkpt lat="46.357" lon="6.3513">
        <ele>390.20001220703</ele>
        <time>2021-03-29T10:15:44.000Z</time>
      </trkpt>
      <trkpt lat="46.3566" lon="6.35163">
        <ele>390.20001220703</ele>
        <time>2021-03-29T10:15:52.000Z</time>
      </trkpt>
      <trkpt lat="46.35656" lon="6.35168">
        <ele>390.39999389648</ele>
        <time>2021-03-29T10:15:53.000Z</time>
      </trkpt>
      <trkpt lat="46.35634" lon="6.35187">
        <ele>391.60000610352</ele>
        <time>2021-03-29T10:15:58.000Z</time>
      </trkpt>
      <trkpt lat="46.35624" lon="6.35195">
        <ele>391.79998779297</ele>
        <time>2021-03-29T10:16:02.000Z</time>
      </trkpt>
      <trkpt lat="46.35624" lon="6.35195">
        <ele>391.79998779297</ele>
        <time>2021-03-29T10:16:04.000Z</time>
      </trkpt>
      <trkpt lat="46.35624" lon="6.35195">
        <ele>391.79998779297</ele>
        <time>2021-03-29T10:16:05.000Z</time>
      </trkpt>
      <trkpt lat="46.3559" lon="6.35152">
        <ele>393</ele>
        <time>2021-03-29T10:16:12.000Z</time>
      </trkpt>
      <trkpt lat="46.35575" lon="6.35124">
        <ele>394.39999389648</ele>
        <time>2021-03-29T10:16:19.000Z</time>
      </trkpt>
      <trkpt lat="46.35559" lon="6.35092">
        <ele>396.20001220703</ele>
        <time>2021-03-29T10:16:27.000Z</time>
      </trkpt>
      <trkpt lat="46.35542" lon="6.35059">
        <ele>398.20001220703</ele>
        <time>2021-03-29T10:16:36.000Z</time>
      </trkpt>
      <trkpt lat="46.35528" lon="6.35032">
        <ele>400</ele>
        <time>2021-03-29T10:16:44.000Z</time>
      </trkpt>
      <trkpt lat="46.35511" lon="6.34998">
        <ele>402</ele>
        <time>2021-03-29T10:16:54.000Z</time>
      </trkpt>
      <trkpt lat="46.35501" lon="6.34981">
        <ele>403</ele>
        <time>2021-03-29T10:17:00.000Z</time>
      </trkpt>
      <trkpt lat="46.3549" lon="6.34965">
        <ele>404.39999389648</ele>
        <time>2021-03-29T10:17:06.000Z</time>
      </trkpt>
      <trkpt lat="46.35477" lon="6.34944">
        <ele>406</ele>
        <time>2021-03-29T10:17:13.000Z</time>
      </trkpt>
      <trkpt lat="46.35462" lon="6.34922">
        <ele>408.20001220703</ele>
        <time>2021-03-29T10:17:21.000Z</time>
      </trkpt>
      <trkpt lat="46.35447" lon="6.34901">
        <ele>410.20001220703</ele>
        <time>2021-03-29T10:17:28.000Z</time>
      </trkpt>
      <trkpt lat="46.35432" lon="6.3488">
        <ele>412</ele>
        <time>2021-03-29T10:17:35.000Z</time>
      </trkpt>
      <trkpt lat="46.35414" lon="6.34846">
        <ele>414</ele>
        <time>2021-03-29T10:17:45.000Z</time>
      </trkpt>
      <trkpt lat="46.35406" lon="6.34821">
        <ele>415.39999389648</ele>
        <time>2021-03-29T10:17:52.000Z</time>
      </trkpt>
      <trkpt lat="46.354" lon="6.34791">
        <ele>417.60000610352</ele>
        <time>2021-03-29T10:17:59.000Z</time>
      </trkpt>
      <trkpt lat="46.35399" lon="6.34768">
        <ele>419.20001220703</ele>
        <time>2021-03-29T10:18:05.000Z</time>
      </trkpt>
      <trkpt lat="46.35397" lon="6.34747">
        <ele>420.79998779297</ele>
        <time>2021-03-29T10:18:11.000Z</time>
      </trkpt>
      <trkpt lat="46.35395" lon="6.34721">
        <ele>422.79998779297</ele>
        <time>2021-03-29T10:18:18.000Z</time>
      </trkpt>
      <trkpt lat="46.35393" lon="6.3469">
        <ele>425</ele>
        <time>2021-03-29T10:18:26.000Z</time>
      </trkpt>
      <trkpt lat="46.3539" lon="6.34662">
        <ele>427</ele>
        <time>2021-03-29T10:18:33.000Z</time>
      </trkpt>
      <trkpt lat="46.35388" lon="6.34631">
        <ele>427.79998779297</ele>
        <time>2021-03-29T10:18:40.000Z</time>
      </trkpt>
      <trkpt lat="46.35385" lon="6.34593">
        <ele>428</ele>
        <time>2021-03-29T10:18:47.000Z</time>
      </trkpt>
      <trkpt lat="46.35384" lon="6.34581">
        <ele>428.20001220703</ele>
        <time>2021-03-29T10:18:49.000Z</time>
      </trkpt>
      <trkpt lat="46.35383" lon="6.34554">
        <ele>428</ele>
        <time>2021-03-29T10:18:53.000Z</time>
      </trkpt>
      <trkpt lat="46.3538" lon="6.34507">
        <ele>426.39999389648</ele>
        <time>2021-03-29T10:18:59.000Z</time>
      </trkpt>
      <trkpt lat="46.35376" lon="6.34433">
        <ele>424</ele>
        <time>2021-03-29T10:19:07.000Z</time>
      </trkpt>
      <trkpt lat="46.35375" lon="6.34404">
        <ele>423</ele>
        <time>2021-03-29T10:19:10.000Z</time>
      </trkpt>
      <trkpt lat="46.35373" lon="6.34374">
        <ele>423.20001220703</ele>
        <time>2021-03-29T10:19:13.000Z</time>
      </trkpt>
      <trkpt lat="46.3537" lon="6.34292">
        <ele>423.39999389648</ele>
        <time>2021-03-29T10:19:21.000Z</time>
      </trkpt>
      <trkpt lat="46.3537" lon="6.34263">
        <ele>424</ele>
        <time>2021-03-29T10:19:24.000Z</time>
      </trkpt>
      <trkpt lat="46.35371" lon="6.34245">
        <ele>424.20001220703</ele>
        <time>2021-03-29T10:19:26.000Z</time>
      </trkpt>
      <trkpt lat="46.35373" lon="6.34202">
        <ele>425.79998779297</ele>
        <time>2021-03-29T10:19:32.000Z</time>
      </trkpt>
      <trkpt lat="46.35373" lon="6.3419">
        <ele>426.60000610352</ele>
        <time>2021-03-29T10:19:34.000Z</time>
      </trkpt>
      <trkpt lat="46.35371" lon="6.34168">
        <ele>428</ele>
        <time>2021-03-29T10:19:37.000Z</time>
      </trkpt>
      <trkpt lat="46.35369" lon="6.34129">
        <ele>429.39999389648</ele>
        <time>2021-03-29T10:19:42.000Z</time>
      </trkpt>
      <trkpt lat="46.35368" lon="6.34121">
        <ele>429.39999389648</ele>
        <time>2021-03-29T10:19:43.000Z</time>
      </trkpt>
      <trkpt lat="46.35365" lon="6.3408">
        <ele>430</ele>
        <time>2021-03-29T10:19:48.000Z</time>
      </trkpt>
      <trkpt lat="46.3536" lon="6.34018">
        <ele>427.60000610352</ele>
        <time>2021-03-29T10:19:55.000Z</time>
      </trkpt>
      <trkpt lat="46.35359" lon="6.34009">
        <ele>427.39999389648</ele>
        <time>2021-03-29T10:19:56.000Z</time>
      </trkpt>
      <trkpt lat="46.35351" lon="6.33979">
        <ele>426.79998779297</ele>
        <time>2021-03-29T10:20:00.000Z</time>
      </trkpt>
      <trkpt lat="46.35326" lon="6.33913">
        <ele>427</ele>
        <time>2021-03-29T10:20:09.000Z</time>
      </trkpt>
      <trkpt lat="46.35314" lon="6.33853">
        <ele>427.60000610352</ele>
        <time>2021-03-29T10:20:16.000Z</time>
      </trkpt>
      <trkpt lat="46.35303" lon="6.33771">
        <ele>427.60000610352</ele>
        <time>2021-03-29T10:20:25.000Z</time>
      </trkpt>
      <trkpt lat="46.35295" lon="6.33711">
        <ele>427.79998779297</ele>
        <time>2021-03-29T10:20:32.000Z</time>
      </trkpt>
      <trkpt lat="46.35294" lon="6.33703">
        <ele>428</ele>
        <time>2021-03-29T10:20:33.000Z</time>
      </trkpt>
      <trkpt lat="46.35292" lon="6.33695">
        <ele>428</ele>
        <time>2021-03-29T10:20:34.000Z</time>
      </trkpt>
      <trkpt lat="46.35282" lon="6.33683">
        <ele>428</ele>
        <time>2021-03-29T10:20:36.000Z</time>
      </trkpt>
      <trkpt lat="46.35257" lon="6.3365">
        <ele>427.79998779297</ele>
        <time>2021-03-29T10:20:41.000Z</time>
      </trkpt>
      <trkpt lat="46.3525" lon="6.33632">
        <ele>427.60000610352</ele>
        <time>2021-03-29T10:20:43.000Z</time>
      </trkpt>
      <trkpt lat="46.35245" lon="6.33613">
        <ele>427.39999389648</ele>
        <time>2021-03-29T10:20:45.000Z</time>
      </trkpt>
      <trkpt lat="46.35226" lon="6.33537">
        <ele>426.79998779297</ele>
        <time>2021-03-29T10:20:53.000Z</time>
      </trkpt>
      <trkpt lat="46.35224" lon="6.33527">
        <ele>426.79998779297</ele>
        <time>2021-03-29T10:20:54.000Z</time>
      </trkpt>
      <trkpt lat="46.35206" lon="6.33464">
        <ele>426.60000610352</ele>
        <time>2021-03-29T10:21:01.000Z</time>
      </trkpt>
      <trkpt lat="46.35202" lon="6.33456">
        <ele>426.60000610352</ele>
        <time>2021-03-29T10:21:02.000Z</time>
      </trkpt>
      <trkpt lat="46.35192" lon="6.33442">
        <ele>426.60000610352</ele>
        <time>2021-03-29T10:21:04.000Z</time>
      </trkpt>
      <trkpt lat="46.35174" lon="6.33422">
        <ele>426.39999389648</ele>
        <time>2021-03-29T10:21:07.000Z</time>
      </trkpt>
      <trkpt lat="46.35134" lon="6.33378">
        <ele>426</ele>
        <time>2021-03-29T10:21:14.000Z</time>
      </trkpt>
      <trkpt lat="46.35096" lon="6.33336">
        <ele>426.20001220703</ele>
        <time>2021-03-29T10:21:21.000Z</time>
      </trkpt>
      <trkpt lat="46.3507" lon="6.33308">
        <ele>426.20001220703</ele>
        <time>2021-03-29T10:21:26.000Z</time>
      </trkpt>
      <trkpt lat="46.35056" lon="6.33292">
        <ele>426.39999389648</ele>
        <time>2021-03-29T10:21:29.000Z</time>
      </trkpt>
      <trkpt lat="46.35051" lon="6.33286">
        <ele>426.60000610352</ele>
        <time>2021-03-29T10:21:30.000Z</time>
      </trkpt>
      <trkpt lat="46.35027" lon="6.33244">
        <ele>427.20001220703</ele>
        <time>2021-03-29T10:21:37.000Z</time>
      </trkpt>
      <trkpt lat="46.35004" lon="6.33205">
        <ele>428.39999389648</ele>
        <time>2021-03-29T10:21:44.000Z</time>
      </trkpt>
      <trkpt lat="46.35001" lon="6.332">
        <ele>428.79998779297</ele>
        <time>2021-03-29T10:21:45.000Z</time>
      </trkpt>
      <trkpt lat="46.34977" lon="6.33159">
        <ele>430.20001220703</ele>
        <time>2021-03-29T10:21:52.000Z</time>
      </trkpt>
      <trkpt lat="46.34961" lon="6.33109">
        <ele>431.39999389648</ele>
        <time>2021-03-29T10:21:59.000Z</time>
      </trkpt>
      <trkpt lat="46.3495" lon="6.33056">
        <ele>433</ele>
        <time>2021-03-29T10:22:06.000Z</time>
      </trkpt>
      <trkpt lat="46.34946" lon="6.33033">
        <ele>434.20001220703</ele>
        <time>2021-03-29T10:22:09.000Z</time>
      </trkpt>
      <trkpt lat="46.34943" lon="6.33017">
        <ele>434.79998779297</ele>
        <time>2021-03-29T10:22:11.000Z</time>
      </trkpt>
      <trkpt lat="46.3492" lon="6.32987">
        <ele>435.60000610352</ele>
        <time>2021-03-29T10:22:17.000Z</time>
      </trkpt>
      <trkpt lat="46.34909" lon="6.32978">
        <ele>435.39999389648</ele>
        <time>2021-03-29T10:22:19.000Z</time>
      </trkpt>
      <trkpt lat="46.34898" lon="6.3297">
        <ele>434.79998779297</ele>
        <time>2021-03-29T10:22:21.000Z</time>
      </trkpt>
      <trkpt lat="46.34887" lon="6.32961">
        <ele>434.39999389648</ele>
        <time>2021-03-29T10:22:23.000Z</time>
      </trkpt>
      <trkpt lat="46.34869" lon="6.32947">
        <ele>434</ele>
        <time>2021-03-29T10:22:26.000Z</time>
      </trkpt>
      <trkpt lat="46.34829" lon="6.32901">
        <ele>432.39999389648</ele>
        <time>2021-03-29T10:22:34.000Z</time>
      </trkpt>
      <trkpt lat="46.34796" lon="6.32856">
        <ele>432</ele>
        <time>2021-03-29T10:22:41.000Z</time>
      </trkpt>
      <trkpt lat="46.34759" lon="6.32816">
        <ele>432</ele>
        <time>2021-03-29T10:22:48.000Z</time>
      </trkpt>
      <trkpt lat="46.3472" lon="6.32777">
        <ele>431.60000610352</ele>
        <time>2021-03-29T10:22:55.000Z</time>
      </trkpt>
      <trkpt lat="46.34715" lon="6.32772">
        <ele>431.20001220703</ele>
        <time>2021-03-29T10:22:56.000Z</time>
      </trkpt>
      <trkpt lat="46.34709" lon="6.32773">
        <ele>431</ele>
        <time>2021-03-29T10:22:57.000Z</time>
      </trkpt>
      <trkpt lat="46.34697" lon="6.32776">
        <ele>430.39999389648</ele>
        <time>2021-03-29T10:22:59.000Z</time>
      </trkpt>
      <trkpt lat="46.34685" lon="6.32787">
        <ele>430</ele>
        <time>2021-03-29T10:23:01.000Z</time>
      </trkpt>
      <trkpt lat="46.34673" lon="6.32798">
        <ele>429.79998779297</ele>
        <time>2021-03-29T10:23:03.000Z</time>
      </trkpt>
      <trkpt lat="46.34667" lon="6.328">
        <ele>429.60000610352</ele>
        <time>2021-03-29T10:23:04.000Z</time>
      </trkpt>
      <trkpt lat="46.34647" lon="6.32808">
        <ele>429</ele>
        <time>2021-03-29T10:23:07.000Z</time>
      </trkpt>
      <trkpt lat="46.34611" lon="6.3281">
        <ele>427.39999389648</ele>
        <time>2021-03-29T10:23:12.000Z</time>
      </trkpt>
      <trkpt lat="46.3455" lon="6.32807">
        <ele>424.60000610352</ele>
        <time>2021-03-29T10:23:20.000Z</time>
      </trkpt>
      <trkpt lat="46.34493" lon="6.3281">
        <ele>421.79998779297</ele>
        <time>2021-03-29T10:23:27.000Z</time>
      </trkpt>
      <trkpt lat="46.34477" lon="6.3281">
        <ele>421.20001220703</ele>
        <time>2021-03-29T10:23:29.000Z</time>
      </trkpt>
      <trkpt lat="46.34437" lon="6.32815">
        <ele>421.60000610352</ele>
        <time>2021-03-29T10:23:36.000Z</time>
      </trkpt>
      <trkpt lat="46.3437" lon="6.32837">
        <ele>422</ele>
        <time>2021-03-29T10:23:43.000Z</time>
      </trkpt>
      <trkpt lat="46.34311" lon="6.32845">
        <ele>420.79998779297</ele>
        <time>2021-03-29T10:23:51.000Z</time>
      </trkpt>
      <trkpt lat="46.34289" lon="6.32848">
        <ele>420.39999389648</ele>
        <time>2021-03-29T10:23:54.000Z</time>
      </trkpt>
      <trkpt lat="46.3423" lon="6.32843">
        <ele>420.39999389648</ele>
        <time>2021-03-29T10:24:02.000Z</time>
      </trkpt>
      <trkpt lat="46.34223" lon="6.32842">
        <ele>420.39999389648</ele>
        <time>2021-03-29T10:24:03.000Z</time>
      </trkpt>
      <trkpt lat="46.34164" lon="6.32836">
        <ele>420.60000610352</ele>
        <time>2021-03-29T10:24:11.000Z</time>
      </trkpt>
      <trkpt lat="46.34156" lon="6.32836">
        <ele>420.79998779297</ele>
        <time>2021-03-29T10:24:12.000Z</time>
      </trkpt>
      <trkpt lat="46.34102" lon="6.32826">
        <ele>421</ele>
        <time>2021-03-29T10:24:19.000Z</time>
      </trkpt>
      <trkpt lat="46.34086" lon="6.32821">
        <ele>421</ele>
        <time>2021-03-29T10:24:21.000Z</time>
      </trkpt>
      <trkpt lat="46.34026" lon="6.32804">
        <ele>419.79998779297</ele>
        <time>2021-03-29T10:24:29.000Z</time>
      </trkpt>
      <trkpt lat="46.33974" lon="6.32789">
        <ele>418.20001220703</ele>
        <time>2021-03-29T10:24:36.000Z</time>
      </trkpt>
      <trkpt lat="46.33939" lon="6.32765">
        <ele>418</ele>
        <time>2021-03-29T10:24:41.000Z</time>
      </trkpt>
      <trkpt lat="46.33886" lon="6.32726">
        <ele>418.20001220703</ele>
        <time>2021-03-29T10:24:49.000Z</time>
      </trkpt>
      <trkpt lat="46.33867" lon="6.32713">
        <ele>419</ele>
        <time>2021-03-29T10:24:52.000Z</time>
      </trkpt>
      <trkpt lat="46.33823" lon="6.32681">
        <ele>420.60000610352</ele>
        <time>2021-03-29T10:24:59.000Z</time>
      </trkpt>
      <trkpt lat="46.33794" lon="6.32666">
        <ele>421.79998779297</ele>
        <time>2021-03-29T10:25:03.000Z</time>
      </trkpt>
      <trkpt lat="46.33743" lon="6.32645">
        <ele>423.79998779297</ele>
        <time>2021-03-29T10:25:10.000Z</time>
      </trkpt>
      <trkpt lat="46.33709" lon="6.3263">
        <ele>424</ele>
        <time>2021-03-29T10:25:15.000Z</time>
      </trkpt>
      <trkpt lat="46.33688" lon="6.32622">
        <ele>423.79998779297</ele>
        <time>2021-03-29T10:25:18.000Z</time>
      </trkpt>
      <trkpt lat="46.33682" lon="6.32619">
        <ele>423.79998779297</ele>
        <time>2021-03-29T10:25:19.000Z</time>
      </trkpt>
      <trkpt lat="46.33674" lon="6.32621">
        <ele>423.60000610352</ele>
        <time>2021-03-29T10:25:20.000Z</time>
      </trkpt>
      <trkpt lat="46.33663" lon="6.32634">
        <ele>422.79998779297</ele>
        <time>2021-03-29T10:25:22.000Z</time>
      </trkpt>
      <trkpt lat="46.33635" lon="6.32667">
        <ele>420.60000610352</ele>
        <time>2021-03-29T10:25:26.000Z</time>
      </trkpt>
      <trkpt lat="46.336" lon="6.32708">
        <ele>417.60000610352</ele>
        <time>2021-03-29T10:25:31.000Z</time>
      </trkpt>
      <trkpt lat="46.33569" lon="6.32745">
        <ele>416</ele>
        <time>2021-03-29T10:25:35.000Z</time>
      </trkpt>
      <trkpt lat="46.33547" lon="6.32771">
        <ele>415</ele>
        <time>2021-03-29T10:25:38.000Z</time>
      </trkpt>
      <trkpt lat="46.3354" lon="6.32778">
        <ele>414.79998779297</ele>
        <time>2021-03-29T10:25:39.000Z</time>
      </trkpt>
      <trkpt lat="46.33532" lon="6.32779">
        <ele>414.60000610352</ele>
        <time>2021-03-29T10:25:40.000Z</time>
      </trkpt>
      <trkpt lat="46.33515" lon="6.32782">
        <ele>414.39999389648</ele>
        <time>2021-03-29T10:25:42.000Z</time>
      </trkpt>
      <trkpt lat="46.33483" lon="6.32764">
        <ele>414</ele>
        <time>2021-03-29T10:25:46.000Z</time>
      </trkpt>
      <trkpt lat="46.3346" lon="6.32751">
        <ele>413.60000610352</ele>
        <time>2021-03-29T10:25:49.000Z</time>
      </trkpt>
      <trkpt lat="46.33452" lon="6.32747">
        <ele>413.39999389648</ele>
        <time>2021-03-29T10:25:50.000Z</time>
      </trkpt>
      <trkpt lat="46.33444" lon="6.32743">
        <ele>413.20001220703</ele>
        <time>2021-03-29T10:25:51.000Z</time>
      </trkpt>
      <trkpt lat="46.33423" lon="6.32751">
        <ele>412.60000610352</ele>
        <time>2021-03-29T10:25:53.000Z</time>
      </trkpt>
      <trkpt lat="46.334" lon="6.32778">
        <ele>412</ele>
        <time>2021-03-29T10:25:56.000Z</time>
      </trkpt>
      <trkpt lat="46.33394" lon="6.32786">
        <ele>411.79998779297</ele>
        <time>2021-03-29T10:25:57.000Z</time>
      </trkpt>
      <trkpt lat="46.33368" lon="6.32819">
        <ele>410.79998779297</ele>
        <time>2021-03-29T10:26:01.000Z</time>
      </trkpt>
      <trkpt lat="46.33332" lon="6.32863">
        <ele>409.60000610352</ele>
        <time>2021-03-29T10:26:07.000Z</time>
      </trkpt>
      <trkpt lat="46.333" lon="6.32898">
        <ele>409.39999389648</ele>
        <time>2021-03-29T10:26:13.000Z</time>
      </trkpt>
      <trkpt lat="46.33295" lon="6.32901">
        <ele>409.20001220703</ele>
        <time>2021-03-29T10:26:14.000Z</time>
      </trkpt>
      <trkpt lat="46.33288" lon="6.32902">
        <ele>409</ele>
        <time>2021-03-29T10:26:15.000Z</time>
      </trkpt>
      <trkpt lat="46.33276" lon="6.32903">
        <ele>408.60000610352</ele>
        <time>2021-03-29T10:26:17.000Z</time>
      </trkpt>
      <trkpt lat="46.33249" lon="6.32893">
        <ele>407.79998779297</ele>
        <time>2021-03-29T10:26:22.000Z</time>
      </trkpt>
      <trkpt lat="46.33196" lon="6.32869">
        <ele>408.20001220703</ele>
        <time>2021-03-29T10:26:32.000Z</time>
      </trkpt>
      <trkpt lat="46.3318" lon="6.32865">
        <ele>408.20001220703</ele>
        <time>2021-03-29T10:26:35.000Z</time>
      </trkpt>
      <trkpt lat="46.33168" lon="6.32865">
        <ele>408.20001220703</ele>
        <time>2021-03-29T10:26:37.000Z</time>
      </trkpt>
      <trkpt lat="46.33157" lon="6.32868">
        <ele>407.79998779297</ele>
        <time>2021-03-29T10:26:39.000Z</time>
      </trkpt>
      <trkpt lat="46.33151" lon="6.32871">
        <ele>407.60000610352</ele>
        <time>2021-03-29T10:26:40.000Z</time>
      </trkpt>
      <trkpt lat="46.33123" lon="6.3289">
        <ele>406</ele>
        <time>2021-03-29T10:26:45.000Z</time>
      </trkpt>
      <trkpt lat="46.33087" lon="6.32913">
        <ele>404.79998779297</ele>
        <time>2021-03-29T10:26:51.000Z</time>
      </trkpt>
      <trkpt lat="46.33053" lon="6.32939">
        <ele>404</ele>
        <time>2021-03-29T10:26:57.000Z</time>
      </trkpt>
      <trkpt lat="46.33043" lon="6.32949">
        <ele>403.79998779297</ele>
        <time>2021-03-29T10:26:59.000Z</time>
      </trkpt>
      <trkpt lat="46.33027" lon="6.32964">
        <ele>403.60000610352</ele>
        <time>2021-03-29T10:27:02.000Z</time>
      </trkpt>
      <trkpt lat="46.33012" lon="6.3298">
        <ele>403.60000610352</ele>
        <time>2021-03-29T10:27:05.000Z</time>
      </trkpt>
      <trkpt lat="46.33002" lon="6.32989">
        <ele>403.79998779297</ele>
        <time>2021-03-29T10:27:07.000Z</time>
      </trkpt>
      <trkpt lat="46.3299" lon="6.3299">
        <ele>403.79998779297</ele>
        <time>2021-03-29T10:27:09.000Z</time>
      </trkpt>
      <trkpt lat="46.32978" lon="6.32988">
        <ele>404</ele>
        <time>2021-03-29T10:27:11.000Z</time>
      </trkpt>
      <trkpt lat="46.32967" lon="6.32982">
        <ele>404.39999389648</ele>
        <time>2021-03-29T10:27:13.000Z</time>
      </trkpt>
      <trkpt lat="46.32958" lon="6.3297">
        <ele>404.60000610352</ele>
        <time>2021-03-29T10:27:15.000Z</time>
      </trkpt>
      <trkpt lat="46.32918" lon="6.32913">
        <ele>405.60000610352</ele>
        <time>2021-03-29T10:27:24.000Z</time>
      </trkpt>
      <trkpt lat="46.32877" lon="6.32855">
        <ele>406</ele>
        <time>2021-03-29T10:27:33.000Z</time>
      </trkpt>
      <trkpt lat="46.32836" lon="6.32796">
        <ele>406.39999389648</ele>
        <time>2021-03-29T10:27:42.000Z</time>
      </trkpt>
      <trkpt lat="46.32796" lon="6.32734">
        <ele>408</ele>
        <time>2021-03-29T10:27:51.000Z</time>
      </trkpt>
      <trkpt lat="46.3277" lon="6.32679">
        <ele>408.60000610352</ele>
        <time>2021-03-29T10:27:58.000Z</time>
      </trkpt>
      <trkpt lat="46.32748" lon="6.32646">
        <ele>409</ele>
        <time>2021-03-29T10:28:03.000Z</time>
      </trkpt>
      <trkpt lat="46.32706" lon="6.32588">
        <ele>409.20001220703</ele>
        <time>2021-03-29T10:28:12.000Z</time>
      </trkpt>
      <trkpt lat="46.32689" lon="6.32573">
        <ele>409.39999389648</ele>
        <time>2021-03-29T10:28:15.000Z</time>
      </trkpt>
      <trkpt lat="46.32677" lon="6.32566">
        <ele>409.60000610352</ele>
        <time>2021-03-29T10:28:17.000Z</time>
      </trkpt>
      <trkpt lat="46.32665" lon="6.32572">
        <ele>409.79998779297</ele>
        <time>2021-03-29T10:28:19.000Z</time>
      </trkpt>
      <trkpt lat="46.32659" lon="6.32575">
        <ele>409.79998779297</ele>
        <time>2021-03-29T10:28:20.000Z</time>
      </trkpt>
      <trkpt lat="46.32653" lon="6.32578">
        <ele>410</ele>
        <time>2021-03-29T10:28:21.000Z</time>
      </trkpt>
      <trkpt lat="46.32641" lon="6.32584">
        <ele>410.39999389648</ele>
        <time>2021-03-29T10:28:23.000Z</time>
      </trkpt>
      <trkpt lat="46.32631" lon="6.32597">
        <ele>410.79998779297</ele>
        <time>2021-03-29T10:28:25.000Z</time>
      </trkpt>
      <trkpt lat="46.32602" lon="6.3264">
        <ele>412</ele>
        <time>2021-03-29T10:28:32.000Z</time>
      </trkpt>
      <trkpt lat="46.32586" lon="6.32662">
        <ele>412.20001220703</ele>
        <time>2021-03-29T10:28:36.000Z</time>
      </trkpt>
      <trkpt lat="46.32581" lon="6.32663">
        <ele>412.20001220703</ele>
        <time>2021-03-29T10:28:37.000Z</time>
      </trkpt>
      <trkpt lat="46.32576" lon="6.32664">
        <ele>412.39999389648</ele>
        <time>2021-03-29T10:28:38.000Z</time>
      </trkpt>
      <trkpt lat="46.32565" lon="6.32666">
        <ele>413</ele>
        <time>2021-03-29T10:28:40.000Z</time>
      </trkpt>
      <trkpt lat="46.3256" lon="6.32667">
        <ele>413</ele>
        <time>2021-03-29T10:28:41.000Z</time>
      </trkpt>
      <trkpt lat="46.32555" lon="6.32666">
        <ele>413.20001220703</ele>
        <time>2021-03-29T10:28:42.000Z</time>
      </trkpt>
      <trkpt lat="46.32536" lon="6.32658">
        <ele>413.60000610352</ele>
        <time>2021-03-29T10:28:46.000Z</time>
      </trkpt>
      <trkpt lat="46.32515" lon="6.3265">
        <ele>414.20001220703</ele>
        <time>2021-03-29T10:28:50.000Z</time>
      </trkpt>
      <trkpt lat="46.32505" lon="6.32649">
        <ele>414.39999389648</ele>
        <time>2021-03-29T10:28:52.000Z</time>
      </trkpt>
      <trkpt lat="46.32468" lon="6.32643">
        <ele>415.79998779297</ele>
        <time>2021-03-29T10:29:00.000Z</time>
      </trkpt>
      <trkpt lat="46.32451" lon="6.32641">
        <ele>416.79998779297</ele>
        <time>2021-03-29T10:29:04.000Z</time>
      </trkpt>
      <trkpt lat="46.32442" lon="6.32639">
        <ele>417.39999389648</ele>
        <time>2021-03-29T10:29:06.000Z</time>
      </trkpt>
      <trkpt lat="46.32425" lon="6.32636">
        <ele>418.39999389648</ele>
        <time>2021-03-29T10:29:10.000Z</time>
      </trkpt>
      <trkpt lat="46.32418" lon="6.32633">
        <ele>418.79998779297</ele>
        <time>2021-03-29T10:29:12.000Z</time>
      </trkpt>
      <trkpt lat="46.32402" lon="6.32627">
        <ele>419.79998779297</ele>
        <time>2021-03-29T10:29:16.000Z</time>
      </trkpt>
      <trkpt lat="46.32398" lon="6.32626">
        <ele>420</ele>
        <time>2021-03-29T10:29:17.000Z</time>
      </trkpt>
      <trkpt lat="46.3237" lon="6.32606">
        <ele>421.39999389648</ele>
        <time>2021-03-29T10:29:24.000Z</time>
      </trkpt>
      <trkpt lat="46.32341" lon="6.32595">
        <ele>422.60000610352</ele>
        <time>2021-03-29T10:29:31.000Z</time>
      </trkpt>
      <trkpt lat="46.32302" lon="6.32582">
        <ele>423.39999389648</ele>
        <time>2021-03-29T10:29:40.000Z</time>
      </trkpt>
      <trkpt lat="46.32271" lon="6.32572">
        <ele>423.20001220703</ele>
        <time>2021-03-29T10:29:47.000Z</time>
      </trkpt>
      <trkpt lat="46.32237" lon="6.32561">
        <ele>423</ele>
        <time>2021-03-29T10:29:54.000Z</time>
      </trkpt>
      <trkpt lat="46.32196" lon="6.32547">
        <ele>423.20001220703</ele>
        <time>2021-03-29T10:30:02.000Z</time>
      </trkpt>
      <trkpt lat="46.32159" lon="6.32534">
        <ele>423.60000610352</ele>
        <time>2021-03-29T10:30:09.000Z</time>
      </trkpt>
      <trkpt lat="46.32149" lon="6.32531">
        <ele>423.60000610352</ele>
        <time>2021-03-29T10:30:11.000Z</time>
      </trkpt>
      <trkpt lat="46.3214" lon="6.32528">
        <ele>423.60000610352</ele>
        <time>2021-03-29T10:30:13.000Z</time>
      </trkpt>
      <trkpt lat="46.32136" lon="6.32532">
        <ele>423.79998779297</ele>
        <time>2021-03-29T10:30:15.000Z</time>
      </trkpt>
      <trkpt lat="46.32134" lon="6.32537">
        <ele>423.79998779297</ele>
        <time>2021-03-29T10:30:16.000Z</time>
      </trkpt>
      <trkpt lat="46.32129" lon="6.32549">
        <ele>424</ele>
        <time>2021-03-29T10:30:18.000Z</time>
      </trkpt>
      <trkpt lat="46.3212" lon="6.32574">
        <ele>424.39999389648</ele>
        <time>2021-03-29T10:30:22.000Z</time>
      </trkpt>
      <trkpt lat="46.32102" lon="6.32606">
        <ele>424.39999389648</ele>
        <time>2021-03-29T10:30:28.000Z</time>
      </trkpt>
      <trkpt lat="46.32071" lon="6.3266">
        <ele>424.39999389648</ele>
        <time>2021-03-29T10:30:37.000Z</time>
      </trkpt>
      <trkpt lat="46.32037" lon="6.3272">
        <ele>425.39999389648</ele>
        <time>2021-03-29T10:30:47.000Z</time>
      </trkpt>
      <trkpt lat="46.32015" lon="6.32763">
        <ele>424.79998779297</ele>
        <time>2021-03-29T10:30:54.000Z</time>
      </trkpt>
      <trkpt lat="46.31987" lon="6.3282">
        <ele>424</ele>
        <time>2021-03-29T10:31:03.000Z</time>
      </trkpt>
      <trkpt lat="46.31955" lon="6.32881">
        <ele>425.20001220703</ele>
        <time>2021-03-29T10:31:13.000Z</time>
      </trkpt>
      <trkpt lat="46.31932" lon="6.32925">
        <ele>425.20001220703</ele>
        <time>2021-03-29T10:31:20.000Z</time>
      </trkpt>
      <trkpt lat="46.31909" lon="6.3297">
        <ele>426.39999389648</ele>
        <time>2021-03-29T10:31:27.000Z</time>
      </trkpt>
      <trkpt lat="46.31885" lon="6.33017">
        <ele>427.60000610352</ele>
        <time>2021-03-29T10:31:35.000Z</time>
      </trkpt>
      <trkpt lat="46.31871" lon="6.33044">
        <ele>428</ele>
        <time>2021-03-29T10:31:41.000Z</time>
      </trkpt>
      <trkpt lat="46.31867" lon="6.33052">
        <ele>428.20001220703</ele>
        <time>2021-03-29T10:31:45.000Z</time>
      </trkpt>
      <trkpt lat="46.31866" lon="6.33052">
        <ele>428.20001220703</ele>
        <time>2021-03-29T10:31:46.000Z</time>
      </trkpt>
      <trkpt lat="46.31861" lon="6.33058">
        <ele>428.39999389648</ele>
        <time>2021-03-29T10:32:02.000Z</time>
      </trkpt>
      <trkpt lat="46.3186" lon="6.3306">
        <ele>428.39999389648</ele>
        <time>2021-03-29T10:32:03.000Z</time>
      </trkpt>
      <trkpt lat="46.31856" lon="6.33064">
        <ele>428.39999389648</ele>
        <time>2021-03-29T10:32:05.000Z</time>
      </trkpt>
      <trkpt lat="46.31851" lon="6.33069">
        <ele>428.79998779297</ele>
        <time>2021-03-29T10:32:07.000Z</time>
      </trkpt>
      <trkpt lat="46.31841" lon="6.33068">
        <ele>428.79998779297</ele>
        <time>2021-03-29T10:32:09.000Z</time>
      </trkpt>
      <trkpt lat="46.31834" lon="6.33077">
        <ele>429.39999389648</ele>
        <time>2021-03-29T10:32:11.000Z</time>
      </trkpt>
      <trkpt lat="46.3182" lon="6.33093">
        <ele>430</ele>
        <time>2021-03-29T10:32:15.000Z</time>
      </trkpt>
      <trkpt lat="46.31813" lon="6.33102">
        <ele>430.39999389648</ele>
        <time>2021-03-29T10:32:17.000Z</time>
      </trkpt>
      <trkpt lat="46.31789" lon="6.33131">
        <ele>431.20001220703</ele>
        <time>2021-03-29T10:32:24.000Z</time>
      </trkpt>
      <trkpt lat="46.31774" lon="6.33153">
        <ele>432.20001220703</ele>
        <time>2021-03-29T10:32:30.000Z</time>
      </trkpt>
      <trkpt lat="46.31768" lon="6.33162">
        <ele>432.79998779297</ele>
        <time>2021-03-29T10:32:33.000Z</time>
      </trkpt>
      <trkpt lat="46.31749" lon="6.33191">
        <ele>433.79998779297</ele>
        <time>2021-03-29T10:32:40.000Z</time>
      </trkpt>
      <trkpt lat="46.31734" lon="6.33213">
        <ele>434.39999389648</ele>
        <time>2021-03-29T10:32:46.000Z</time>
      </trkpt>
      <trkpt lat="46.31721" lon="6.33231">
        <ele>435.20001220703</ele>
        <time>2021-03-29T10:32:51.000Z</time>
      </trkpt>
      <trkpt lat="46.31711" lon="6.33247">
        <ele>435.60000610352</ele>
        <time>2021-03-29T10:32:55.000Z</time>
      </trkpt>
      <trkpt lat="46.31697" lon="6.33267">
        <ele>436.20001220703</ele>
        <time>2021-03-29T10:33:00.000Z</time>
      </trkpt>
      <trkpt lat="46.31692" lon="6.33275">
        <ele>436.39999389648</ele>
        <time>2021-03-29T10:33:02.000Z</time>
      </trkpt>
      <trkpt lat="46.31686" lon="6.33284">
        <ele>436.20001220703</ele>
        <time>2021-03-29T10:33:04.000Z</time>
      </trkpt>
      <trkpt lat="46.31673" lon="6.33303">
        <ele>435.60000610352</ele>
        <time>2021-03-29T10:33:08.000Z</time>
      </trkpt>
      <trkpt lat="46.3167" lon="6.33308">
        <ele>435.39999389648</ele>
        <time>2021-03-29T10:33:09.000Z</time>
      </trkpt>
      <trkpt lat="46.31656" lon="6.33328">
        <ele>434.60000610352</ele>
        <time>2021-03-29T10:33:13.000Z</time>
      </trkpt>
      <trkpt lat="46.31627" lon="6.3337">
        <ele>432.79998779297</ele>
        <time>2021-03-29T10:33:21.000Z</time>
      </trkpt>
      <trkpt lat="46.31594" lon="6.33418">
        <ele>432.79998779297</ele>
        <time>2021-03-29T10:33:29.000Z</time>
      </trkpt>
      <trkpt lat="46.31583" lon="6.33435">
        <ele>432.79998779297</ele>
        <time>2021-03-29T10:33:32.000Z</time>
      </trkpt>
      <trkpt lat="46.31572" lon="6.33451">
        <ele>433</ele>
        <time>2021-03-29T10:33:35.000Z</time>
      </trkpt>
      <trkpt lat="46.31568" lon="6.33457">
        <ele>433.20001220703</ele>
        <time>2021-03-29T10:33:36.000Z</time>
      </trkpt>
      <trkpt lat="46.31554" lon="6.33478">
        <ele>433</ele>
        <time>2021-03-29T10:33:40.000Z</time>
      </trkpt>
      <trkpt lat="46.31548" lon="6.33487">
        <ele>433.20001220703</ele>
        <time>2021-03-29T10:33:42.000Z</time>
      </trkpt>
      <trkpt lat="46.31541" lon="6.33497">
        <ele>433.20001220703</ele>
        <time>2021-03-29T10:33:44.000Z</time>
      </trkpt>
      <trkpt lat="46.31537" lon="6.33502">
        <ele>433.39999389648</ele>
        <time>2021-03-29T10:33:45.000Z</time>
      </trkpt>
      <trkpt lat="46.31527" lon="6.33516">
        <ele>433.39999389648</ele>
        <time>2021-03-29T10:33:48.000Z</time>
      </trkpt>
      <trkpt lat="46.31521" lon="6.33525">
        <ele>433.60000610352</ele>
        <time>2021-03-29T10:33:50.000Z</time>
      </trkpt>
      <trkpt lat="46.31502" lon="6.33552">
        <ele>433.79998779297</ele>
        <time>2021-03-29T10:33:56.000Z</time>
      </trkpt>
      <trkpt lat="46.31487" lon="6.33574">
        <ele>434.20001220703</ele>
        <time>2021-03-29T10:34:01.000Z</time>
      </trkpt>
      <trkpt lat="46.31484" lon="6.33578">
        <ele>434.60000610352</ele>
        <time>2021-03-29T10:34:02.000Z</time>
      </trkpt>
      <trkpt lat="46.31478" lon="6.33587">
        <ele>435.39999389648</ele>
        <time>2021-03-29T10:34:04.000Z</time>
      </trkpt>
      <trkpt lat="46.31469" lon="6.33596">
        <ele>436</ele>
        <time>2021-03-29T10:34:06.000Z</time>
      </trkpt>
      <trkpt lat="46.31461" lon="6.33596">
        <ele>436.20001220703</ele>
        <time>2021-03-29T10:34:07.000Z</time>
      </trkpt>
      <trkpt lat="46.31457" lon="6.33594">
        <ele>436</ele>
        <time>2021-03-29T10:34:08.000Z</time>
      </trkpt>
      <trkpt lat="46.31447" lon="6.33589">
        <ele>436</ele>
        <time>2021-03-29T10:34:11.000Z</time>
      </trkpt>
      <trkpt lat="46.31438" lon="6.33585">
        <ele>435.79998779297</ele>
        <time>2021-03-29T10:34:13.000Z</time>
      </trkpt>
      <trkpt lat="46.31429" lon="6.33586">
        <ele>436</ele>
        <time>2021-03-29T10:34:15.000Z</time>
      </trkpt>
      <trkpt lat="46.31414" lon="6.33598">
        <ele>437.20001220703</ele>
        <time>2021-03-29T10:34:20.000Z</time>
      </trkpt>
      <trkpt lat="46.31404" lon="6.33615">
        <ele>439</ele>
        <time>2021-03-29T10:34:25.000Z</time>
      </trkpt>
      <trkpt lat="46.31393" lon="6.33634">
        <ele>441.20001220703</ele>
        <time>2021-03-29T10:34:31.000Z</time>
      </trkpt>
      <trkpt lat="46.31384" lon="6.3365">
        <ele>443.20001220703</ele>
        <time>2021-03-29T10:34:36.000Z</time>
      </trkpt>
      <trkpt lat="46.31372" lon="6.33661">
        <ele>445.20001220703</ele>
        <time>2021-03-29T10:34:42.000Z</time>
      </trkpt>
      <trkpt lat="46.3136" lon="6.33663">
        <ele>446.39999389648</ele>
        <time>2021-03-29T10:34:47.000Z</time>
      </trkpt>
      <trkpt lat="46.31349" lon="6.33659">
        <ele>447</ele>
        <time>2021-03-29T10:34:52.000Z</time>
      </trkpt>
      <trkpt lat="46.31333" lon="6.33644">
        <ele>447.20001220703</ele>
        <time>2021-03-29T10:34:59.000Z</time>
      </trkpt>
      <trkpt lat="46.31312" lon="6.33626">
        <ele>447.20001220703</ele>
        <time>2021-03-29T10:35:08.000Z</time>
      </trkpt>
      <trkpt lat="46.31295" lon="6.33611">
        <ele>448</ele>
        <time>2021-03-29T10:35:16.000Z</time>
      </trkpt>
      <trkpt lat="46.31277" lon="6.33597">
        <ele>449.39999389648</ele>
        <time>2021-03-29T10:35:24.000Z</time>
      </trkpt>
      <trkpt lat="46.3126" lon="6.33599">
        <ele>452</ele>
        <time>2021-03-29T10:35:31.000Z</time>
      </trkpt>
      <trkpt lat="46.31246" lon="6.33615">
        <ele>455.60000610352</ele>
        <time>2021-03-29T10:35:38.000Z</time>
      </trkpt>
      <trkpt lat="46.31246" lon="6.33637">
        <ele>457.79998779297</ele>
        <time>2021-03-29T10:35:44.000Z</time>
      </trkpt>
      <trkpt lat="46.3125" lon="6.33662">
        <ele>459.39999389648</ele>
        <time>2021-03-29T10:35:51.000Z</time>
      </trkpt>
      <trkpt lat="46.31253" lon="6.33679">
        <ele>460.60000610352</ele>
        <time>2021-03-29T10:35:56.000Z</time>
      </trkpt>
      <trkpt lat="46.31257" lon="6.33698">
        <ele>461.79998779297</ele>
        <time>2021-03-29T10:36:02.000Z</time>
      </trkpt>
      <trkpt lat="46.31257" lon="6.33701">
        <ele>462</ele>
        <time>2021-03-29T10:36:03.000Z</time>
      </trkpt>
      <trkpt lat="46.31258" lon="6.33708">
        <ele>462.39999389648</ele>
        <time>2021-03-29T10:36:05.000Z</time>
      </trkpt>
      <trkpt lat="46.31262" lon="6.33728">
        <ele>463.60000610352</ele>
        <time>2021-03-29T10:36:11.000Z</time>
      </trkpt>
      <trkpt lat="46.31264" lon="6.33737">
        <ele>464.20001220703</ele>
        <time>2021-03-29T10:36:14.000Z</time>
      </trkpt>
      <trkpt lat="46.31265" lon="6.33744">
        <ele>464.60000610352</ele>
        <time>2021-03-29T10:36:16.000Z</time>
      </trkpt>
      <trkpt lat="46.31268" lon="6.3376">
        <ele>465.60000610352</ele>
        <time>2021-03-29T10:36:21.000Z</time>
      </trkpt>
      <trkpt lat="46.31274" lon="6.33783">
        <ele>466.39999389648</ele>
        <time>2021-03-29T10:36:28.000Z</time>
      </trkpt>
      <trkpt lat="46.31281" lon="6.33805">
        <ele>467.20001220703</ele>
        <time>2021-03-29T10:36:35.000Z</time>
      </trkpt>
      <trkpt lat="46.31291" lon="6.33838">
        <ele>468.39999389648</ele>
        <time>2021-03-29T10:36:45.000Z</time>
      </trkpt>
      <trkpt lat="46.31298" lon="6.33863">
        <ele>469.39999389648</ele>
        <time>2021-03-29T10:36:53.000Z</time>
      </trkpt>
      <trkpt lat="46.31298" lon="6.33881">
        <ele>470.60000610352</ele>
        <time>2021-03-29T10:36:59.000Z</time>
      </trkpt>
      <trkpt lat="46.31299" lon="6.33902">
        <ele>472.39999389648</ele>
        <time>2021-03-29T10:37:05.000Z</time>
      </trkpt>
      <trkpt lat="46.313" lon="6.33926">
        <ele>474.79998779297</ele>
        <time>2021-03-29T10:37:11.000Z</time>
      </trkpt>
      <trkpt lat="46.31302" lon="6.33944">
        <ele>476.60000610352</ele>
        <time>2021-03-29T10:37:17.000Z</time>
      </trkpt>
      <trkpt lat="46.31305" lon="6.33965">
        <ele>478.39999389648</ele>
        <time>2021-03-29T10:37:23.000Z</time>
      </trkpt>
      <trkpt lat="46.31307" lon="6.33982">
        <ele>479.79998779297</ele>
        <time>2021-03-29T10:37:28.000Z</time>
      </trkpt>
      <trkpt lat="46.31307" lon="6.33985">
        <ele>480</ele>
        <time>2021-03-29T10:37:29.000Z</time>
      </trkpt>
      <trkpt lat="46.3131" lon="6.34004">
        <ele>480.79998779297</ele>
        <time>2021-03-29T10:37:35.000Z</time>
      </trkpt>
      <trkpt lat="46.31312" lon="6.34021">
        <ele>481.60000610352</ele>
        <time>2021-03-29T10:37:40.000Z</time>
      </trkpt>
      <trkpt lat="46.31321" lon="6.34041">
        <ele>482.39999389648</ele>
        <time>2021-03-29T10:37:47.000Z</time>
      </trkpt>
      <trkpt lat="46.3133" lon="6.34059">
        <ele>483</ele>
        <time>2021-03-29T10:37:53.000Z</time>
      </trkpt>
      <trkpt lat="46.31338" lon="6.34073">
        <ele>483.60000610352</ele>
        <time>2021-03-29T10:37:58.000Z</time>
      </trkpt>
      <trkpt lat="46.31353" lon="6.34101">
        <ele>484.39999389648</ele>
        <time>2021-03-29T10:38:07.000Z</time>
      </trkpt>
      <trkpt lat="46.31357" lon="6.34121">
        <ele>485.39999389648</ele>
        <time>2021-03-29T10:38:13.000Z</time>
      </trkpt>
      <trkpt lat="46.31358" lon="6.34148">
        <ele>487.39999389648</ele>
        <time>2021-03-29T10:38:20.000Z</time>
      </trkpt>
      <trkpt lat="46.31354" lon="6.34166">
        <ele>487.79998779297</ele>
        <time>2021-03-29T10:38:25.000Z</time>
      </trkpt>
      <trkpt lat="46.31349" lon="6.34186">
        <ele>488.60000610352</ele>
        <time>2021-03-29T10:38:31.000Z</time>
      </trkpt>
      <trkpt lat="46.31343" lon="6.34213">
        <ele>490.39999389648</ele>
        <time>2021-03-29T10:38:39.000Z</time>
      </trkpt>
      <trkpt lat="46.31345" lon="6.34234">
        <ele>491</ele>
        <time>2021-03-29T10:38:45.000Z</time>
      </trkpt>
      <trkpt lat="46.31348" lon="6.34256">
        <ele>491.39999389648</ele>
        <time>2021-03-29T10:38:51.000Z</time>
      </trkpt>
      <trkpt lat="46.31354" lon="6.34291">
        <ele>491.79998779297</ele>
        <time>2021-03-29T10:39:00.000Z</time>
      </trkpt>
      <trkpt lat="46.3136" lon="6.34324">
        <ele>492.79998779297</ele>
        <time>2021-03-29T10:39:09.000Z</time>
      </trkpt>
      <trkpt lat="46.31365" lon="6.34353">
        <ele>494.60000610352</ele>
        <time>2021-03-29T10:39:17.000Z</time>
      </trkpt>
      <trkpt lat="46.31371" lon="6.34384">
        <ele>496.60000610352</ele>
        <time>2021-03-29T10:39:25.000Z</time>
      </trkpt>
      <trkpt lat="46.31375" lon="6.34407">
        <ele>498.39999389648</ele>
        <time>2021-03-29T10:39:31.000Z</time>
      </trkpt>
      <trkpt lat="46.31378" lon="6.34433">
        <ele>500.79998779297</ele>
        <time>2021-03-29T10:39:38.000Z</time>
      </trkpt>
      <trkpt lat="46.31381" lon="6.34459">
        <ele>503.39999389648</ele>
        <time>2021-03-29T10:39:45.000Z</time>
      </trkpt>
      <trkpt lat="46.31384" lon="6.3448">
        <ele>505.60000610352</ele>
        <time>2021-03-29T10:39:51.000Z</time>
      </trkpt>
      <trkpt lat="46.31384" lon="6.34498">
        <ele>506.39999389648</ele>
        <time>2021-03-29T10:39:56.000Z</time>
      </trkpt>
      <trkpt lat="46.31382" lon="6.345">
        <ele>506.60000610352</ele>
        <time>2021-03-29T10:39:57.000Z</time>
      </trkpt>
      <trkpt lat="46.31376" lon="6.34513">
        <ele>507.79998779297</ele>
        <time>2021-03-29T10:40:02.000Z</time>
      </trkpt>
      <trkpt lat="46.31365" lon="6.34516">
        <ele>509.39999389648</ele>
        <time>2021-03-29T10:40:07.000Z</time>
      </trkpt>
      <trkpt lat="46.31355" lon="6.34509">
        <ele>510.39999389648</ele>
        <time>2021-03-29T10:40:12.000Z</time>
      </trkpt>
      <trkpt lat="46.31354" lon="6.34507">
        <ele>510.60000610352</ele>
        <time>2021-03-29T10:40:13.000Z</time>
      </trkpt>
      <trkpt lat="46.31351" lon="6.34498">
        <ele>510.60000610352</ele>
        <time>2021-03-29T10:40:15.000Z</time>
      </trkpt>
      <trkpt lat="46.31351" lon="6.34494">
        <ele>510.60000610352</ele>
        <time>2021-03-29T10:40:16.000Z</time>
      </trkpt>
      <trkpt lat="46.31349" lon="6.34476">
        <ele>509.79998779297</ele>
        <time>2021-03-29T10:40:21.000Z</time>
      </trkpt>
      <trkpt lat="46.31344" lon="6.34452">
        <ele>507.20001220703</ele>
        <time>2021-03-29T10:40:28.000Z</time>
      </trkpt>
      <trkpt lat="46.31336" lon="6.34439">
        <ele>506.39999389648</ele>
        <time>2021-03-29T10:40:33.000Z</time>
      </trkpt>
      <trkpt lat="46.31322" lon="6.34429">
        <ele>507</ele>
        <time>2021-03-29T10:40:40.000Z</time>
      </trkpt>
      <trkpt lat="46.31305" lon="6.34425">
        <ele>509.79998779297</ele>
        <time>2021-03-29T10:40:47.000Z</time>
      </trkpt>
      <trkpt lat="46.31286" lon="6.34421">
        <ele>514.20001220703</ele>
        <time>2021-03-29T10:40:55.000Z</time>
      </trkpt>
      <trkpt lat="46.31272" lon="6.34417">
        <ele>517.59997558594</ele>
        <time>2021-03-29T10:41:01.000Z</time>
      </trkpt>
      <trkpt lat="46.3126" lon="6.34405">
        <ele>519.20001220703</ele>
        <time>2021-03-29T10:41:07.000Z</time>
      </trkpt>
      <trkpt lat="46.31254" lon="6.34397">
        <ele>519.59997558594</ele>
        <time>2021-03-29T10:41:12.000Z</time>
      </trkpt>
      <trkpt lat="46.31242" lon="6.3438">
        <ele>521</ele>
        <time>2021-03-29T10:41:19.000Z</time>
      </trkpt>
      <trkpt lat="46.31231" lon="6.34369">
        <ele>522.79998779297</ele>
        <time>2021-03-29T10:41:24.000Z</time>
      </trkpt>
      <trkpt lat="46.31221" lon="6.34361">
        <ele>524</ele>
        <time>2021-03-29T10:41:29.000Z</time>
      </trkpt>
      <trkpt lat="46.31208" lon="6.34351">
        <ele>525.59997558594</ele>
        <time>2021-03-29T10:41:34.000Z</time>
      </trkpt>
      <trkpt lat="46.31199" lon="6.34344">
        <ele>526.79998779297</ele>
        <time>2021-03-29T10:41:39.000Z</time>
      </trkpt>
      <trkpt lat="46.31191" lon="6.34337">
        <ele>528</ele>
        <time>2021-03-29T10:41:43.000Z</time>
      </trkpt>
      <trkpt lat="46.31185" lon="6.34332">
        <ele>528.59997558594</ele>
        <time>2021-03-29T10:41:46.000Z</time>
      </trkpt>
      <trkpt lat="46.31184" lon="6.3433">
        <ele>528.79998779297</ele>
        <time>2021-03-29T10:41:47.000Z</time>
      </trkpt>
      <trkpt lat="46.3117" lon="6.34312">
        <ele>529.59997558594</ele>
        <time>2021-03-29T10:41:55.000Z</time>
      </trkpt>
      <trkpt lat="46.31157" lon="6.34294">
        <ele>529.40002441406</ele>
        <time>2021-03-29T10:42:02.000Z</time>
      </trkpt>
      <trkpt lat="46.31143" lon="6.34285">
        <ele>530.59997558594</ele>
        <time>2021-03-29T10:42:08.000Z</time>
      </trkpt>
      <trkpt lat="46.31124" lon="6.34273">
        <ele>532.40002441406</ele>
        <time>2021-03-29T10:42:17.000Z</time>
      </trkpt>
      <trkpt lat="46.3111" lon="6.34265">
        <ele>533.59997558594</ele>
        <time>2021-03-29T10:42:23.000Z</time>
      </trkpt>
      <trkpt lat="46.31099" lon="6.34253">
        <ele>533.79998779297</ele>
        <time>2021-03-29T10:42:30.000Z</time>
      </trkpt>
      <trkpt lat="46.3108" lon="6.34233">
        <ele>534</ele>
        <time>2021-03-29T10:42:38.000Z</time>
      </trkpt>
      <trkpt lat="46.31073" lon="6.34225">
        <ele>535</ele>
        <time>2021-03-29T10:42:43.000Z</time>
      </trkpt>
      <trkpt lat="46.31062" lon="6.34222">
        <ele>537</ele>
        <time>2021-03-29T10:42:47.000Z</time>
      </trkpt>
      <trkpt lat="46.31049" lon="6.34222">
        <ele>540.40002441406</ele>
        <time>2021-03-29T10:42:52.000Z</time>
      </trkpt>
      <trkpt lat="46.3104" lon="6.3423">
        <ele>542.20001220703</ele>
        <time>2021-03-29T10:42:56.000Z</time>
      </trkpt>
      <trkpt lat="46.31032" lon="6.34237">
        <ele>544.20001220703</ele>
        <time>2021-03-29T10:43:00.000Z</time>
      </trkpt>
      <trkpt lat="46.31025" lon="6.34244">
        <ele>546</ele>
        <time>2021-03-29T10:43:04.000Z</time>
      </trkpt>
      <trkpt lat="46.31015" lon="6.34253">
        <ele>548.59997558594</ele>
        <time>2021-03-29T10:43:09.000Z</time>
      </trkpt>
      <trkpt lat="46.31006" lon="6.34261">
        <ele>550.59997558594</ele>
        <time>2021-03-29T10:43:14.000Z</time>
      </trkpt>
      <trkpt lat="46.30996" lon="6.3427">
        <ele>552</ele>
        <time>2021-03-29T10:43:19.000Z</time>
      </trkpt>
      <trkpt lat="46.30988" lon="6.34277">
        <ele>553.20001220703</ele>
        <time>2021-03-29T10:43:25.000Z</time>
      </trkpt>
      <trkpt lat="46.30989" lon="6.3428">
        <ele>553</ele>
        <time>2021-03-29T10:43:26.000Z</time>
      </trkpt>
      <trkpt lat="46.3099" lon="6.34292">
        <ele>552.79998779297</ele>
        <time>2021-03-29T10:43:29.000Z</time>
      </trkpt>
      <trkpt lat="46.3099" lon="6.34296">
        <ele>552.59997558594</ele>
        <time>2021-03-29T10:43:30.000Z</time>
      </trkpt>
      <trkpt lat="46.30993" lon="6.34323">
        <ele>552.79998779297</ele>
        <time>2021-03-29T10:43:36.000Z</time>
      </trkpt>
      <trkpt lat="46.30995" lon="6.34344">
        <ele>554</ele>
        <time>2021-03-29T10:43:42.000Z</time>
      </trkpt>
      <trkpt lat="46.30996" lon="6.34356">
        <ele>554.59997558594</ele>
        <time>2021-03-29T10:43:46.000Z</time>
      </trkpt>
      <trkpt lat="46.30996" lon="6.34358">
        <ele>554.59997558594</ele>
        <time>2021-03-29T10:43:47.000Z</time>
      </trkpt>
      <trkpt lat="46.30996" lon="6.34373">
        <ele>555.59997558594</ele>
        <time>2021-03-29T10:43:53.000Z</time>
      </trkpt>
      <trkpt lat="46.30983" lon="6.34366">
        <ele>556.79998779297</ele>
        <time>2021-03-29T10:43:56.000Z</time>
      </trkpt>
      <trkpt lat="46.30983" lon="6.3437">
        <ele>557</ele>
        <time>2021-03-29T10:43:58.000Z</time>
      </trkpt>
      <trkpt lat="46.30983" lon="6.34376">
        <ele>557.40002441406</ele>
        <time>2021-03-29T10:44:00.000Z</time>
      </trkpt>
      <trkpt lat="46.30992" lon="6.34395">
        <ele>557.40002441406</ele>
        <time>2021-03-29T10:44:06.000Z</time>
      </trkpt>
      <trkpt lat="46.3099" lon="6.34407">
        <ele>559</ele>
        <time>2021-03-29T10:44:11.000Z</time>
      </trkpt>
      <trkpt lat="46.30987" lon="6.34428">
        <ele>561</ele>
        <time>2021-03-29T10:44:16.000Z</time>
      </trkpt>
      <trkpt lat="46.30985" lon="6.34444">
        <ele>562.40002441406</ele>
        <time>2021-03-29T10:44:20.000Z</time>
      </trkpt>
      <trkpt lat="46.30987" lon="6.34466">
        <ele>564.20001220703</ele>
        <time>2021-03-29T10:44:25.000Z</time>
      </trkpt>
      <trkpt lat="46.30993" lon="6.34485">
        <ele>565.20001220703</ele>
        <time>2021-03-29T10:44:30.000Z</time>
      </trkpt>
      <trkpt lat="46.30993" lon="6.34488">
        <ele>565.20001220703</ele>
        <time>2021-03-29T10:44:31.000Z</time>
      </trkpt>
      <trkpt lat="46.30995" lon="6.34494">
        <ele>565.40002441406</ele>
        <time>2021-03-29T10:44:33.000Z</time>
      </trkpt>
      <trkpt lat="46.30996" lon="6.34496">
        <ele>565.40002441406</ele>
        <time>2021-03-29T10:44:34.000Z</time>
      </trkpt>
      <trkpt lat="46.30996" lon="6.34498">
        <ele>565.40002441406</ele>
        <time>2021-03-29T10:44:35.000Z</time>
      </trkpt>
      <trkpt lat="46.30999" lon="6.34508">
        <ele>565.59997558594</ele>
        <time>2021-03-29T10:44:39.000Z</time>
      </trkpt>
      <trkpt lat="46.31005" lon="6.34537">
        <ele>565.79998779297</ele>
        <time>2021-03-29T10:44:45.000Z</time>
      </trkpt>
      <trkpt lat="46.31007" lon="6.34556">
        <ele>566.20001220703</ele>
        <time>2021-03-29T10:44:50.000Z</time>
      </trkpt>
      <trkpt lat="46.31008" lon="6.34563">
        <ele>566.40002441406</ele>
        <time>2021-03-29T10:44:52.000Z</time>
      </trkpt>
      <trkpt lat="46.31008" lon="6.34569">
        <ele>566.20001220703</ele>
        <time>2021-03-29T10:44:54.000Z</time>
      </trkpt>
      <trkpt lat="46.31009" lon="6.34571">
        <ele>566.20001220703</ele>
        <time>2021-03-29T10:44:55.000Z</time>
      </trkpt>
      <trkpt lat="46.31009" lon="6.34577">
        <ele>566.20001220703</ele>
        <time>2021-03-29T10:44:57.000Z</time>
      </trkpt>
      <trkpt lat="46.31009" lon="6.34579">
        <ele>566</ele>
        <time>2021-03-29T10:44:58.000Z</time>
      </trkpt>
      <trkpt lat="46.31009" lon="6.34581">
        <ele>566</ele>
        <time>2021-03-29T10:44:59.000Z</time>
      </trkpt>
      <trkpt lat="46.31004" lon="6.34599">
        <ele>566.59997558594</ele>
        <time>2021-03-29T10:45:04.000Z</time>
      </trkpt>
      <trkpt lat="46.30998" lon="6.34617">
        <ele>567.59997558594</ele>
        <time>2021-03-29T10:45:10.000Z</time>
      </trkpt>
      <trkpt lat="46.30989" lon="6.34624">
        <ele>568.59997558594</ele>
        <time>2021-03-29T10:45:13.000Z</time>
      </trkpt>
      <trkpt lat="46.30987" lon="6.34625">
        <ele>568.79998779297</ele>
        <time>2021-03-29T10:45:14.000Z</time>
      </trkpt>
      <trkpt lat="46.3098" lon="6.34628">
        <ele>569.59997558594</ele>
        <time>2021-03-29T10:45:18.000Z</time>
      </trkpt>
      <trkpt lat="46.3097" lon="6.34631">
        <ele>571</ele>
        <time>2021-03-29T10:45:23.000Z</time>
      </trkpt>
      <trkpt lat="46.30962" lon="6.34623">
        <ele>571.79998779297</ele>
        <time>2021-03-29T10:45:28.000Z</time>
      </trkpt>
      <trkpt lat="46.30953" lon="6.34609">
        <ele>572.79998779297</ele>
        <time>2021-03-29T10:45:34.000Z</time>
      </trkpt>
      <trkpt lat="46.30951" lon="6.34607">
        <ele>572.79998779297</ele>
        <time>2021-03-29T10:45:35.000Z</time>
      </trkpt>
      <trkpt lat="46.30948" lon="6.34599">
        <ele>573</ele>
        <time>2021-03-29T10:45:38.000Z</time>
      </trkpt>
      <trkpt lat="46.30947" lon="6.34585">
        <ele>573</ele>
        <time>2021-03-29T10:45:43.000Z</time>
      </trkpt>
      <trkpt lat="46.30946" lon="6.34582">
        <ele>572.79998779297</ele>
        <time>2021-03-29T10:45:44.000Z</time>
      </trkpt>
      <trkpt lat="46.30945" lon="6.34573">
        <ele>572.79998779297</ele>
        <time>2021-03-29T10:45:47.000Z</time>
      </trkpt>
      <trkpt lat="46.30944" lon="6.34562">
        <ele>572.79998779297</ele>
        <time>2021-03-29T10:45:51.000Z</time>
      </trkpt>
      <trkpt lat="46.30944" lon="6.34557">
        <ele>572.79998779297</ele>
        <time>2021-03-29T10:45:53.000Z</time>
      </trkpt>
      <trkpt lat="46.30943" lon="6.34553">
        <ele>572.79998779297</ele>
        <time>2021-03-29T10:45:55.000Z</time>
      </trkpt>
      <trkpt lat="46.30943" lon="6.34551">
        <ele>573</ele>
        <time>2021-03-29T10:45:56.000Z</time>
      </trkpt>
      <trkpt lat="46.30943" lon="6.34548">
        <ele>573</ele>
        <time>2021-03-29T10:45:57.000Z</time>
      </trkpt>
      <trkpt lat="46.30942" lon="6.34544">
        <ele>573</ele>
        <time>2021-03-29T10:45:59.000Z</time>
      </trkpt>
      <trkpt lat="46.30949" lon="6.34529">
        <ele>572</ele>
        <time>2021-03-29T10:46:02.000Z</time>
      </trkpt>
      <trkpt lat="46.30949" lon="6.34526">
        <ele>572</ele>
        <time>2021-03-29T10:46:03.000Z</time>
      </trkpt>
      <trkpt lat="46.30948" lon="6.34521">
        <ele>572</ele>
        <time>2021-03-29T10:46:05.000Z</time>
      </trkpt>
      <trkpt lat="46.30944" lon="6.34516">
        <ele>572.40002441406</ele>
        <time>2021-03-29T10:46:07.000Z</time>
      </trkpt>
      <trkpt lat="46.30931" lon="6.3451">
        <ele>574.40002441406</ele>
        <time>2021-03-29T10:46:11.000Z</time>
      </trkpt>
      <trkpt lat="46.30924" lon="6.34492">
        <ele>575</ele>
        <time>2021-03-29T10:46:18.000Z</time>
      </trkpt>
      <trkpt lat="46.30912" lon="6.34477">
        <ele>576.59997558594</ele>
        <time>2021-03-29T10:46:24.000Z</time>
      </trkpt>
      <trkpt lat="46.30899" lon="6.34461">
        <ele>578.20001220703</ele>
        <time>2021-03-29T10:46:30.000Z</time>
      </trkpt>
      <trkpt lat="46.30887" lon="6.34446">
        <ele>579.79998779297</ele>
        <time>2021-03-29T10:46:36.000Z</time>
      </trkpt>
      <trkpt lat="46.30872" lon="6.34427">
        <ele>582</ele>
        <time>2021-03-29T10:46:42.000Z</time>
      </trkpt>
      <trkpt lat="46.30859" lon="6.34412">
        <ele>583.59997558594</ele>
        <time>2021-03-29T10:46:47.000Z</time>
      </trkpt>
      <trkpt lat="46.30849" lon="6.344">
        <ele>585</ele>
        <time>2021-03-29T10:46:53.000Z</time>
      </trkpt>
      <trkpt lat="46.30844" lon="6.34392">
        <ele>586.20001220703</ele>
        <time>2021-03-29T10:46:58.000Z</time>
      </trkpt>
      <trkpt lat="46.30837" lon="6.34379">
        <ele>587.79998779297</ele>
        <time>2021-03-29T10:47:03.000Z</time>
      </trkpt>
      <trkpt lat="46.30832" lon="6.34369">
        <ele>589</ele>
        <time>2021-03-29T10:47:07.000Z</time>
      </trkpt>
      <trkpt lat="46.30831" lon="6.34367">
        <ele>589.20001220703</ele>
        <time>2021-03-29T10:47:08.000Z</time>
      </trkpt>
      <trkpt lat="46.3083" lon="6.34366">
        <ele>589.40002441406</ele>
        <time>2021-03-29T10:47:09.000Z</time>
      </trkpt>
      <trkpt lat="46.30827" lon="6.34361">
        <ele>590</ele>
        <time>2021-03-29T10:47:12.000Z</time>
      </trkpt>
      <trkpt lat="46.30826" lon="6.34358">
        <ele>590.40002441406</ele>
        <time>2021-03-29T10:47:13.000Z</time>
      </trkpt>
      <trkpt lat="46.30829" lon="6.34349">
        <ele>590</ele>
        <time>2021-03-29T10:47:15.000Z</time>
      </trkpt>
      <trkpt lat="46.30823" lon="6.34353">
        <ele>591</ele>
        <time>2021-03-29T10:47:16.000Z</time>
      </trkpt>
      <trkpt lat="46.3082" lon="6.34343">
        <ele>591.79998779297</ele>
        <time>2021-03-29T10:47:18.000Z</time>
      </trkpt>
      <trkpt lat="46.30819" lon="6.3434">
        <ele>592.20001220703</ele>
        <time>2021-03-29T10:47:19.000Z</time>
      </trkpt>
      <trkpt lat="46.30815" lon="6.34324">
        <ele>593.40002441406</ele>
        <time>2021-03-29T10:47:23.000Z</time>
      </trkpt>
      <trkpt lat="46.30812" lon="6.34307">
        <ele>594.59997558594</ele>
        <time>2021-03-29T10:47:28.000Z</time>
      </trkpt>
      <trkpt lat="46.30812" lon="6.34303">
        <ele>594.79998779297</ele>
        <time>2021-03-29T10:47:29.000Z</time>
      </trkpt>
      <trkpt lat="46.30812" lon="6.34284">
        <ele>596</ele>
        <time>2021-03-29T10:47:34.000Z</time>
      </trkpt>
      <trkpt lat="46.30812" lon="6.34282">
        <ele>596.20001220703</ele>
        <time>2021-03-29T10:47:35.000Z</time>
      </trkpt>
      <trkpt lat="46.30812" lon="6.34267">
        <ele>597.20001220703</ele>
        <time>2021-03-29T10:47:39.000Z</time>
      </trkpt>
      <trkpt lat="46.30812" lon="6.34264">
        <ele>597.40002441406</ele>
        <time>2021-03-29T10:47:40.000Z</time>
      </trkpt>
      <trkpt lat="46.30814" lon="6.34252">
        <ele>597.79998779297</ele>
        <time>2021-03-29T10:47:44.000Z</time>
      </trkpt>
      <trkpt lat="46.30818" lon="6.34243">
        <ele>597.20001220703</ele>
        <time>2021-03-29T10:47:48.000Z</time>
      </trkpt>
      <trkpt lat="46.30819" lon="6.34241">
        <ele>597</ele>
        <time>2021-03-29T10:47:49.000Z</time>
      </trkpt>
      <trkpt lat="46.30824" lon="6.34232">
        <ele>596</ele>
        <time>2021-03-29T10:47:52.000Z</time>
      </trkpt>
      <trkpt lat="46.3083" lon="6.34219">
        <ele>595.20001220703</ele>
        <time>2021-03-29T10:47:57.000Z</time>
      </trkpt>
      <trkpt lat="46.30832" lon="6.34215">
        <ele>595.20001220703</ele>
        <time>2021-03-29T10:47:59.000Z</time>
      </trkpt>
      <trkpt lat="46.30836" lon="6.34206">
        <ele>594.79998779297</ele>
        <time>2021-03-29T10:48:02.000Z</time>
      </trkpt>
      <trkpt lat="46.30838" lon="6.34203">
        <ele>594.59997558594</ele>
        <time>2021-03-29T10:48:03.000Z</time>
      </trkpt>
      <trkpt lat="46.30842" lon="6.34188">
        <ele>595</ele>
        <time>2021-03-29T10:48:06.000Z</time>
      </trkpt>
      <trkpt lat="46.30842" lon="6.34184">
        <ele>595.40002441406</ele>
        <time>2021-03-29T10:48:07.000Z</time>
      </trkpt>
      <trkpt lat="46.30842" lon="6.34172">
        <ele>596.40002441406</ele>
        <time>2021-03-29T10:48:11.000Z</time>
      </trkpt>
      <trkpt lat="46.3084" lon="6.34154">
        <ele>598.20001220703</ele>
        <time>2021-03-29T10:48:17.000Z</time>
      </trkpt>
      <trkpt lat="46.30835" lon="6.34142">
        <ele>600.59997558594</ele>
        <time>2021-03-29T10:48:22.000Z</time>
      </trkpt>
      <trkpt lat="46.30828" lon="6.34126">
        <ele>603.20001220703</ele>
        <time>2021-03-29T10:48:27.000Z</time>
      </trkpt>
      <trkpt lat="46.30821" lon="6.3411">
        <ele>605.79998779297</ele>
        <time>2021-03-29T10:48:32.000Z</time>
      </trkpt>
      <trkpt lat="46.30818" lon="6.34104">
        <ele>606.79998779297</ele>
        <time>2021-03-29T10:48:34.000Z</time>
      </trkpt>
      <trkpt lat="46.30815" lon="6.34098">
        <ele>608</ele>
        <time>2021-03-29T10:48:36.000Z</time>
      </trkpt>
      <trkpt lat="46.30807" lon="6.34086">
        <ele>609.59997558594</ele>
        <time>2021-03-29T10:48:41.000Z</time>
      </trkpt>
      <trkpt lat="46.30803" lon="6.34081">
        <ele>610.20001220703</ele>
        <time>2021-03-29T10:48:44.000Z</time>
      </trkpt>
      <trkpt lat="46.30795" lon="6.34071">
        <ele>611.40002441406</ele>
        <time>2021-03-29T10:48:48.000Z</time>
      </trkpt>
      <trkpt lat="46.30782" lon="6.34058">
        <ele>612.40002441406</ele>
        <time>2021-03-29T10:48:53.000Z</time>
      </trkpt>
      <trkpt lat="46.30771" lon="6.34052">
        <ele>613.20001220703</ele>
        <time>2021-03-29T10:48:57.000Z</time>
      </trkpt>
      <trkpt lat="46.30757" lon="6.34045">
        <ele>614.20001220703</ele>
        <time>2021-03-29T10:49:02.000Z</time>
      </trkpt>
      <trkpt lat="46.30747" lon="6.3404">
        <ele>615</ele>
        <time>2021-03-29T10:49:07.000Z</time>
      </trkpt>
      <trkpt lat="46.30733" lon="6.34033">
        <ele>615.79998779297</ele>
        <time>2021-03-29T10:49:12.000Z</time>
      </trkpt>
      <trkpt lat="46.30726" lon="6.34029">
        <ele>616.40002441406</ele>
        <time>2021-03-29T10:49:16.000Z</time>
      </trkpt>
      <trkpt lat="46.30718" lon="6.34025">
        <ele>617</ele>
        <time>2021-03-29T10:49:20.000Z</time>
      </trkpt>
      <trkpt lat="46.30709" lon="6.34021">
        <ele>617.79998779297</ele>
        <time>2021-03-29T10:49:25.000Z</time>
      </trkpt>
      <trkpt lat="46.30695" lon="6.34004">
        <ele>618</ele>
        <time>2021-03-29T10:49:30.000Z</time>
      </trkpt>
      <trkpt lat="46.30691" lon="6.33997">
        <ele>617.59997558594</ele>
        <time>2021-03-29T10:49:32.000Z</time>
      </trkpt>
      <trkpt lat="46.30687" lon="6.33991">
        <ele>617.40002441406</ele>
        <time>2021-03-29T10:49:34.000Z</time>
      </trkpt>
      <trkpt lat="46.30677" lon="6.33971">
        <ele>617</ele>
        <time>2021-03-29T10:49:40.000Z</time>
      </trkpt>
      <trkpt lat="46.30671" lon="6.33959">
        <ele>617.20001220703</ele>
        <time>2021-03-29T10:49:44.000Z</time>
      </trkpt>
      <trkpt lat="46.3066" lon="6.33939">
        <ele>617.59997558594</ele>
        <time>2021-03-29T10:49:50.000Z</time>
      </trkpt>
      <trkpt lat="46.30655" lon="6.3393">
        <ele>617.79998779297</ele>
        <time>2021-03-29T10:49:53.000Z</time>
      </trkpt>
      <trkpt lat="46.30639" lon="6.33909">
        <ele>618.59997558594</ele>
        <time>2021-03-29T10:49:58.000Z</time>
      </trkpt>
      <trkpt lat="46.30627" lon="6.33893">
        <ele>619</ele>
        <time>2021-03-29T10:50:03.000Z</time>
      </trkpt>
      <trkpt lat="46.3063" lon="6.33884">
        <ele>618.20001220703</ele>
        <time>2021-03-29T10:50:04.000Z</time>
      </trkpt>
      <trkpt lat="46.3063" lon="6.33875">
        <ele>617.20001220703</ele>
        <time>2021-03-29T10:50:06.000Z</time>
      </trkpt>
      <trkpt lat="46.30626" lon="6.33854">
        <ele>615.40002441406</ele>
        <time>2021-03-29T10:50:10.000Z</time>
      </trkpt>
      <trkpt lat="46.30607" lon="6.33835">
        <ele>616.40002441406</ele>
        <time>2021-03-29T10:50:15.000Z</time>
      </trkpt>
      <trkpt lat="46.30596" lon="6.33797">
        <ele>614.40002441406</ele>
        <time>2021-03-29T10:50:22.000Z</time>
      </trkpt>
      <trkpt lat="46.3058" lon="6.33758">
        <ele>614.20001220703</ele>
        <time>2021-03-29T10:50:30.000Z</time>
      </trkpt>
      <trkpt lat="46.30564" lon="6.33719">
        <ele>614.79998779297</ele>
        <time>2021-03-29T10:50:39.000Z</time>
      </trkpt>
      <trkpt lat="46.30548" lon="6.33677">
        <ele>616.79998779297</ele>
        <time>2021-03-29T10:50:47.000Z</time>
      </trkpt>
      <trkpt lat="46.30531" lon="6.33636">
        <ele>618.40002441406</ele>
        <time>2021-03-29T10:50:55.000Z</time>
      </trkpt>
      <trkpt lat="46.30522" lon="6.33614">
        <ele>618.40002441406</ele>
        <time>2021-03-29T10:50:59.000Z</time>
      </trkpt>
      <trkpt lat="46.30516" lon="6.33597">
        <ele>618.40002441406</ele>
        <time>2021-03-29T10:51:02.000Z</time>
      </trkpt>
      <trkpt lat="46.30516" lon="6.33591">
        <ele>618.59997558594</ele>
        <time>2021-03-29T10:51:03.000Z</time>
      </trkpt>
      <trkpt lat="46.30513" lon="6.3356">
        <ele>619</ele>
        <time>2021-03-29T10:51:08.000Z</time>
      </trkpt>
      <trkpt lat="46.30509" lon="6.3351">
        <ele>619.20001220703</ele>
        <time>2021-03-29T10:51:16.000Z</time>
      </trkpt>
      <trkpt lat="46.30508" lon="6.33489">
        <ele>619.79998779297</ele>
        <time>2021-03-29T10:51:19.000Z</time>
      </trkpt>
      <trkpt lat="46.30502" lon="6.33467">
        <ele>619.20001220703</ele>
        <time>2021-03-29T10:51:22.000Z</time>
      </trkpt>
      <trkpt lat="46.30481" lon="6.33423">
        <ele>616.79998779297</ele>
        <time>2021-03-29T10:51:28.000Z</time>
      </trkpt>
      <trkpt lat="46.30456" lon="6.33376">
        <ele>617</ele>
        <time>2021-03-29T10:51:35.000Z</time>
      </trkpt>
      <trkpt lat="46.30428" lon="6.33341">
        <ele>618.59997558594</ele>
        <time>2021-03-29T10:51:42.000Z</time>
      </trkpt>
      <trkpt lat="46.30403" lon="6.33314">
        <ele>620.40002441406</ele>
        <time>2021-03-29T10:51:48.000Z</time>
      </trkpt>
      <trkpt lat="46.30377" lon="6.33286">
        <ele>620.59997558594</ele>
        <time>2021-03-29T10:51:53.000Z</time>
      </trkpt>
      <trkpt lat="46.30368" lon="6.33268">
        <ele>620</ele>
        <time>2021-03-29T10:51:55.000Z</time>
      </trkpt>
      <trkpt lat="46.3036" lon="6.33248">
        <ele>619.20001220703</ele>
        <time>2021-03-29T10:51:57.000Z</time>
      </trkpt>
      <trkpt lat="46.30343" lon="6.33204">
        <ele>619</ele>
        <time>2021-03-29T10:52:02.000Z</time>
      </trkpt>
      <trkpt lat="46.30336" lon="6.33189">
        <ele>619.20001220703</ele>
        <time>2021-03-29T10:52:04.000Z</time>
      </trkpt>
      <trkpt lat="46.30325" lon="6.33168">
        <ele>619.59997558594</ele>
        <time>2021-03-29T10:52:07.000Z</time>
      </trkpt>
      <trkpt lat="46.30319" lon="6.33162">
        <ele>619.79998779297</ele>
        <time>2021-03-29T10:52:08.000Z</time>
      </trkpt>
      <trkpt lat="46.30301" lon="6.33144">
        <ele>619.59997558594</ele>
        <time>2021-03-29T10:52:11.000Z</time>
      </trkpt>
      <trkpt lat="46.30275" lon="6.33119">
        <ele>617.59997558594</ele>
        <time>2021-03-29T10:52:15.000Z</time>
      </trkpt>
      <trkpt lat="46.30246" lon="6.33099">
        <ele>615.59997558594</ele>
        <time>2021-03-29T10:52:19.000Z</time>
      </trkpt>
      <trkpt lat="46.30231" lon="6.33089">
        <ele>614.79998779297</ele>
        <time>2021-03-29T10:52:21.000Z</time>
      </trkpt>
      <trkpt lat="46.30187" lon="6.33064">
        <ele>614</ele>
        <time>2021-03-29T10:52:27.000Z</time>
      </trkpt>
      <trkpt lat="46.30143" lon="6.33048">
        <ele>613.40002441406</ele>
        <time>2021-03-29T10:52:33.000Z</time>
      </trkpt>
      <trkpt lat="46.30113" lon="6.33035">
        <ele>611.20001220703</ele>
        <time>2021-03-29T10:52:37.000Z</time>
      </trkpt>
      <trkpt lat="46.30105" lon="6.3303">
        <ele>610.40002441406</ele>
        <time>2021-03-29T10:52:38.000Z</time>
      </trkpt>
      <trkpt lat="46.3007" lon="6.33004">
        <ele>606.79998779297</ele>
        <time>2021-03-29T10:52:43.000Z</time>
      </trkpt>
      <trkpt lat="46.30057" lon="6.32994">
        <ele>605.79998779297</ele>
        <time>2021-03-29T10:52:45.000Z</time>
      </trkpt>
      <trkpt lat="46.30015" lon="6.32963">
        <ele>603.40002441406</ele>
        <time>2021-03-29T10:52:52.000Z</time>
      </trkpt>
      <trkpt lat="46.29994" lon="6.32939">
        <ele>601.79998779297</ele>
        <time>2021-03-29T10:52:56.000Z</time>
      </trkpt>
      <trkpt lat="46.29989" lon="6.32932">
        <ele>601.20001220703</ele>
        <time>2021-03-29T10:52:57.000Z</time>
      </trkpt>
      <trkpt lat="46.29973" lon="6.32911">
        <ele>599.20001220703</ele>
        <time>2021-03-29T10:53:00.000Z</time>
      </trkpt>
      <trkpt lat="46.2995" lon="6.32882">
        <ele>597.40002441406</ele>
        <time>2021-03-29T10:53:04.000Z</time>
      </trkpt>
      <trkpt lat="46.29937" lon="6.32872">
        <ele>597</ele>
        <time>2021-03-29T10:53:06.000Z</time>
      </trkpt>
      <trkpt lat="46.29897" lon="6.32846">
        <ele>596.20001220703</ele>
        <time>2021-03-29T10:53:12.000Z</time>
      </trkpt>
      <trkpt lat="46.29882" lon="6.32839">
        <ele>595</ele>
        <time>2021-03-29T10:53:16.000Z</time>
      </trkpt>
      <trkpt lat="46.29881" lon="6.32838">
        <ele>594.79998779297</ele>
        <time>2021-03-29T10:53:17.000Z</time>
      </trkpt>
      <trkpt lat="46.29872" lon="6.32841">
        <ele>594.40002441406</ele>
        <time>2021-03-29T10:53:19.000Z</time>
      </trkpt>
      <trkpt lat="46.29867" lon="6.32849">
        <ele>594.40002441406</ele>
        <time>2021-03-29T10:53:21.000Z</time>
      </trkpt>
      <trkpt lat="46.29861" lon="6.32858">
        <ele>594.40002441406</ele>
        <time>2021-03-29T10:53:23.000Z</time>
      </trkpt>
      <trkpt lat="46.29847" lon="6.32877">
        <ele>595</ele>
        <time>2021-03-29T10:53:27.000Z</time>
      </trkpt>
      <trkpt lat="46.29838" lon="6.32884">
        <ele>595.20001220703</ele>
        <time>2021-03-29T10:53:29.000Z</time>
      </trkpt>
      <trkpt lat="46.29834" lon="6.32888">
        <ele>595.20001220703</ele>
        <time>2021-03-29T10:53:30.000Z</time>
      </trkpt>
      <trkpt lat="46.29818" lon="6.329">
        <ele>595.40002441406</ele>
        <time>2021-03-29T10:53:34.000Z</time>
      </trkpt>
      <trkpt lat="46.29814" lon="6.32903">
        <ele>595.40002441406</ele>
        <time>2021-03-29T10:53:35.000Z</time>
      </trkpt>
      <trkpt lat="46.29798" lon="6.32915">
        <ele>595.79998779297</ele>
        <time>2021-03-29T10:53:39.000Z</time>
      </trkpt>
      <trkpt lat="46.29767" lon="6.32938">
        <ele>597</ele>
        <time>2021-03-29T10:53:45.000Z</time>
      </trkpt>
      <trkpt lat="46.29734" lon="6.32963">
        <ele>598.79998779297</ele>
        <time>2021-03-29T10:53:52.000Z</time>
      </trkpt>
      <trkpt lat="46.297" lon="6.32988">
        <ele>599</ele>
        <time>2021-03-29T10:54:00.000Z</time>
      </trkpt>
      <trkpt lat="46.29663" lon="6.33015">
        <ele>598.59997558594</ele>
        <time>2021-03-29T10:54:09.000Z</time>
      </trkpt>
      <trkpt lat="46.2963" lon="6.33039">
        <ele>599.20001220703</ele>
        <time>2021-03-29T10:54:17.000Z</time>
      </trkpt>
      <trkpt lat="46.29617" lon="6.33048">
        <ele>599.79998779297</ele>
        <time>2021-03-29T10:54:20.000Z</time>
      </trkpt>
      <trkpt lat="46.29609" lon="6.33055">
        <ele>600.20001220703</ele>
        <time>2021-03-29T10:54:22.000Z</time>
      </trkpt>
      <trkpt lat="46.29588" lon="6.3307">
        <ele>601.20001220703</ele>
        <time>2021-03-29T10:54:27.000Z</time>
      </trkpt>
      <trkpt lat="46.29584" lon="6.33073">
        <ele>601.40002441406</ele>
        <time>2021-03-29T10:54:28.000Z</time>
      </trkpt>
      <trkpt lat="46.29555" lon="6.33094">
        <ele>603</ele>
        <time>2021-03-29T10:54:35.000Z</time>
      </trkpt>
      <trkpt lat="46.29526" lon="6.33121">
        <ele>605.20001220703</ele>
        <time>2021-03-29T10:54:43.000Z</time>
      </trkpt>
      <trkpt lat="46.29502" lon="6.33149">
        <ele>606.79998779297</ele>
        <time>2021-03-29T10:54:50.000Z</time>
      </trkpt>
      <trkpt lat="46.29496" lon="6.33159">
        <ele>607.59997558594</ele>
        <time>2021-03-29T10:54:52.000Z</time>
      </trkpt>
      <trkpt lat="46.29484" lon="6.33179">
        <ele>607.59997558594</ele>
        <time>2021-03-29T10:54:56.000Z</time>
      </trkpt>
      <trkpt lat="46.29478" lon="6.3319">
        <ele>607.40002441406</ele>
        <time>2021-03-29T10:54:58.000Z</time>
      </trkpt>
      <trkpt lat="46.29472" lon="6.33199">
        <ele>607.40002441406</ele>
        <time>2021-03-29T10:55:00.000Z</time>
      </trkpt>
      <trkpt lat="46.29464" lon="6.33214">
        <ele>607.20001220703</ele>
        <time>2021-03-29T10:55:03.000Z</time>
      </trkpt>
      <trkpt lat="46.2946" lon="6.33218">
        <ele>607.40002441406</ele>
        <time>2021-03-29T10:55:04.000Z</time>
      </trkpt>
      <trkpt lat="46.29434" lon="6.33247">
        <ele>608</ele>
        <time>2021-03-29T10:55:11.000Z</time>
      </trkpt>
      <trkpt lat="46.29403" lon="6.33283">
        <ele>608.40002441406</ele>
        <time>2021-03-29T10:55:20.000Z</time>
      </trkpt>
      <trkpt lat="46.29375" lon="6.33314">
        <ele>609</ele>
        <time>2021-03-29T10:55:28.000Z</time>
      </trkpt>
      <trkpt lat="46.29351" lon="6.33346">
        <ele>610.59997558594</ele>
        <time>2021-03-29T10:55:36.000Z</time>
      </trkpt>
      <trkpt lat="46.29337" lon="6.33376">
        <ele>611.59997558594</ele>
        <time>2021-03-29T10:55:42.000Z</time>
      </trkpt>
      <trkpt lat="46.29336" lon="6.33383">
        <ele>611.79998779297</ele>
        <time>2021-03-29T10:55:43.000Z</time>
      </trkpt>
      <trkpt lat="46.29331" lon="6.33421">
        <ele>613.40002441406</ele>
        <time>2021-03-29T10:55:49.000Z</time>
      </trkpt>
      <trkpt lat="46.29326" lon="6.33462">
        <ele>614.20001220703</ele>
        <time>2021-03-29T10:55:56.000Z</time>
      </trkpt>
      <trkpt lat="46.29321" lon="6.33481">
        <ele>614.40002441406</ele>
        <time>2021-03-29T10:55:59.000Z</time>
      </trkpt>
      <trkpt lat="46.29314" lon="6.33505">
        <ele>614.59997558594</ele>
        <time>2021-03-29T10:56:03.000Z</time>
      </trkpt>
      <trkpt lat="46.29295" lon="6.3355">
        <ele>615</ele>
        <time>2021-03-29T10:56:10.000Z</time>
      </trkpt>
      <trkpt lat="46.29272" lon="6.33602">
        <ele>614</ele>
        <time>2021-03-29T10:56:18.000Z</time>
      </trkpt>
      <trkpt lat="46.29258" lon="6.3363">
        <ele>613.40002441406</ele>
        <time>2021-03-29T10:56:22.000Z</time>
      </trkpt>
      <trkpt lat="46.29247" lon="6.33639">
        <ele>612.79998779297</ele>
        <time>2021-03-29T10:56:24.000Z</time>
      </trkpt>
      <trkpt lat="46.29234" lon="6.33647">
        <ele>612.20001220703</ele>
        <time>2021-03-29T10:56:26.000Z</time>
      </trkpt>
      <trkpt lat="46.29221" lon="6.33655">
        <ele>612.20001220703</ele>
        <time>2021-03-29T10:56:28.000Z</time>
      </trkpt>
      <trkpt lat="46.29214" lon="6.33657">
        <ele>612.20001220703</ele>
        <time>2021-03-29T10:56:29.000Z</time>
      </trkpt>
      <trkpt lat="46.29191" lon="6.33656">
        <ele>612.40002441406</ele>
        <time>2021-03-29T10:56:32.000Z</time>
      </trkpt>
      <trkpt lat="46.29142" lon="6.33654">
        <ele>612.79998779297</ele>
        <time>2021-03-29T10:56:38.000Z</time>
      </trkpt>
      <trkpt lat="46.29091" lon="6.33652">
        <ele>612.20001220703</ele>
        <time>2021-03-29T10:56:44.000Z</time>
      </trkpt>
      <trkpt lat="46.29074" lon="6.33657">
        <ele>612</ele>
        <time>2021-03-29T10:56:46.000Z</time>
      </trkpt>
      <trkpt lat="46.2906" lon="6.3367">
        <ele>611.79998779297</ele>
        <time>2021-03-29T10:56:48.000Z</time>
      </trkpt>
      <trkpt lat="46.29044" lon="6.33683">
        <ele>611.59997558594</ele>
        <time>2021-03-29T10:56:50.000Z</time>
      </trkpt>
      <trkpt lat="46.29037" lon="6.3369">
        <ele>611.40002441406</ele>
        <time>2021-03-29T10:56:51.000Z</time>
      </trkpt>
      <trkpt lat="46.29031" lon="6.33696">
        <ele>611.40002441406</ele>
        <time>2021-03-29T10:56:52.000Z</time>
      </trkpt>
      <trkpt lat="46.29014" lon="6.33725">
        <ele>611</ele>
        <time>2021-03-29T10:56:55.000Z</time>
      </trkpt>
      <trkpt lat="46.29" lon="6.33752">
        <ele>611</ele>
        <time>2021-03-29T10:56:58.000Z</time>
      </trkpt>
      <trkpt lat="46.28998" lon="6.33765">
        <ele>611</ele>
        <time>2021-03-29T10:56:59.000Z</time>
      </trkpt>
      <trkpt lat="46.28989" lon="6.33825">
        <ele>611</ele>
        <time>2021-03-29T10:57:04.000Z</time>
      </trkpt>
      <trkpt lat="46.28979" lon="6.33894">
        <ele>608</ele>
        <time>2021-03-29T10:57:10.000Z</time>
      </trkpt>
      <trkpt lat="46.28967" lon="6.33975">
        <ele>606.59997558594</ele>
        <time>2021-03-29T10:57:17.000Z</time>
      </trkpt>
      <trkpt lat="46.2896" lon="6.34027">
        <ele>605.40002441406</ele>
        <time>2021-03-29T10:57:21.000Z</time>
      </trkpt>
      <trkpt lat="46.28956" lon="6.34067">
        <ele>603.40002441406</ele>
        <time>2021-03-29T10:57:24.000Z</time>
      </trkpt>
      <trkpt lat="46.28957" lon="6.34079">
        <ele>603</ele>
        <time>2021-03-29T10:57:25.000Z</time>
      </trkpt>
      <trkpt lat="46.2896" lon="6.34105">
        <ele>601.79998779297</ele>
        <time>2021-03-29T10:57:27.000Z</time>
      </trkpt>
      <trkpt lat="46.28966" lon="6.3413">
        <ele>601</ele>
        <time>2021-03-29T10:57:29.000Z</time>
      </trkpt>
      <trkpt lat="46.28983" lon="6.34197">
        <ele>598.79998779297</ele>
        <time>2021-03-29T10:57:34.000Z</time>
      </trkpt>
      <trkpt lat="46.28999" lon="6.34259">
        <ele>595.20001220703</ele>
        <time>2021-03-29T10:57:39.000Z</time>
      </trkpt>
      <trkpt lat="46.29006" lon="6.34283">
        <ele>593.59997558594</ele>
        <time>2021-03-29T10:57:41.000Z</time>
      </trkpt>
      <trkpt lat="46.2901" lon="6.34306">
        <ele>592</ele>
        <time>2021-03-29T10:57:43.000Z</time>
      </trkpt>
      <trkpt lat="46.2901" lon="6.34329">
        <ele>590.59997558594</ele>
        <time>2021-03-29T10:57:45.000Z</time>
      </trkpt>
      <trkpt lat="46.29009" lon="6.34341">
        <ele>590</ele>
        <time>2021-03-29T10:57:46.000Z</time>
      </trkpt>
      <trkpt lat="46.29004" lon="6.3435">
        <ele>589.79998779297</ele>
        <time>2021-03-29T10:57:47.000Z</time>
      </trkpt>
      <trkpt lat="46.28993" lon="6.34368">
        <ele>589.59997558594</ele>
        <time>2021-03-29T10:57:49.000Z</time>
      </trkpt>
      <trkpt lat="46.28978" lon="6.34377">
        <ele>589.40002441406</ele>
        <time>2021-03-29T10:57:51.000Z</time>
      </trkpt>
      <trkpt lat="46.2897" lon="6.34377">
        <ele>589.20001220703</ele>
        <time>2021-03-29T10:57:52.000Z</time>
      </trkpt>
      <trkpt lat="46.28961" lon="6.34378">
        <ele>588.79998779297</ele>
        <time>2021-03-29T10:57:53.000Z</time>
      </trkpt>
      <trkpt lat="46.28945" lon="6.34373">
        <ele>589</ele>
        <time>2021-03-29T10:57:55.000Z</time>
      </trkpt>
      <trkpt lat="46.289" lon="6.34354">
        <ele>589.40002441406</ele>
        <time>2021-03-29T10:58:00.000Z</time>
      </trkpt>
      <trkpt lat="46.28853" lon="6.34333">
        <ele>584.59997558594</ele>
        <time>2021-03-29T10:58:05.000Z</time>
      </trkpt>
      <trkpt lat="46.2881" lon="6.34315">
        <ele>579.79998779297</ele>
        <time>2021-03-29T10:58:10.000Z</time>
      </trkpt>
      <trkpt lat="46.28758" lon="6.34292">
        <ele>578</ele>
        <time>2021-03-29T10:58:16.000Z</time>
      </trkpt>
      <trkpt lat="46.28733" lon="6.34281">
        <ele>577.20001220703</ele>
        <time>2021-03-29T10:58:19.000Z</time>
      </trkpt>
      <trkpt lat="46.28683" lon="6.34259">
        <ele>576</ele>
        <time>2021-03-29T10:58:25.000Z</time>
      </trkpt>
      <trkpt lat="46.28667" lon="6.34252">
        <ele>575.79998779297</ele>
        <time>2021-03-29T10:58:27.000Z</time>
      </trkpt>
      <trkpt lat="46.2865" lon="6.34246">
        <ele>575.59997558594</ele>
        <time>2021-03-29T10:58:29.000Z</time>
      </trkpt>
      <trkpt lat="46.28642" lon="6.34245">
        <ele>575.40002441406</ele>
        <time>2021-03-29T10:58:30.000Z</time>
      </trkpt>
      <trkpt lat="46.28622" lon="6.34247">
        <ele>574.59997558594</ele>
        <time>2021-03-29T10:58:32.000Z</time>
      </trkpt>
      <trkpt lat="46.28593" lon="6.34255">
        <ele>573.20001220703</ele>
        <time>2021-03-29T10:58:35.000Z</time>
      </trkpt>
      <trkpt lat="46.28585" lon="6.34262">
        <ele>572.59997558594</ele>
        <time>2021-03-29T10:58:36.000Z</time>
      </trkpt>
      <trkpt lat="46.28576" lon="6.34269">
        <ele>572.20001220703</ele>
        <time>2021-03-29T10:58:37.000Z</time>
      </trkpt>
      <trkpt lat="46.28559" lon="6.34283">
        <ele>571</ele>
        <time>2021-03-29T10:58:39.000Z</time>
      </trkpt>
      <trkpt lat="46.28546" lon="6.34303">
        <ele>569.40002441406</ele>
        <time>2021-03-29T10:58:41.000Z</time>
      </trkpt>
      <trkpt lat="46.28532" lon="6.34324">
        <ele>568</ele>
        <time>2021-03-29T10:58:43.000Z</time>
      </trkpt>
      <trkpt lat="46.28505" lon="6.34364">
        <ele>564.59997558594</ele>
        <time>2021-03-29T10:58:47.000Z</time>
      </trkpt>
      <trkpt lat="46.28462" lon="6.34428">
        <ele>559.20001220703</ele>
        <time>2021-03-29T10:58:53.000Z</time>
      </trkpt>
      <trkpt lat="46.28415" lon="6.34496">
        <ele>555.59997558594</ele>
        <time>2021-03-29T10:58:59.000Z</time>
      </trkpt>
      <trkpt lat="46.28397" lon="6.34533">
        <ele>553.79998779297</ele>
        <time>2021-03-29T10:59:02.000Z</time>
      </trkpt>
      <trkpt lat="46.28367" lon="6.34596">
        <ele>550.40002441406</ele>
        <time>2021-03-29T10:59:07.000Z</time>
      </trkpt>
      <trkpt lat="46.28334" lon="6.34666">
        <ele>548.40002441406</ele>
        <time>2021-03-29T10:59:13.000Z</time>
      </trkpt>
      <trkpt lat="46.28306" lon="6.34726">
        <ele>546.79998779297</ele>
        <time>2021-03-29T10:59:19.000Z</time>
      </trkpt>
      <trkpt lat="46.28284" lon="6.3478">
        <ele>545</ele>
        <time>2021-03-29T10:59:25.000Z</time>
      </trkpt>
      <trkpt lat="46.28267" lon="6.34825">
        <ele>545</ele>
        <time>2021-03-29T10:59:30.000Z</time>
      </trkpt>
      <trkpt lat="46.28255" lon="6.34886">
        <ele>546</ele>
        <time>2021-03-29T10:59:36.000Z</time>
      </trkpt>
      <trkpt lat="46.28243" lon="6.3494">
        <ele>544.20001220703</ele>
        <time>2021-03-29T10:59:41.000Z</time>
      </trkpt>
      <trkpt lat="46.28239" lon="6.34949">
        <ele>543.59997558594</ele>
        <time>2021-03-29T10:59:42.000Z</time>
      </trkpt>
      <trkpt lat="46.28216" lon="6.34997">
        <ele>540.79998779297</ele>
        <time>2021-03-29T10:59:47.000Z</time>
      </trkpt>
      <trkpt lat="46.2818" lon="6.35041">
        <ele>537.59997558594</ele>
        <time>2021-03-29T10:59:53.000Z</time>
      </trkpt>
      <trkpt lat="46.28174" lon="6.35049">
        <ele>537</ele>
        <time>2021-03-29T10:59:54.000Z</time>
      </trkpt>
      <trkpt lat="46.28168" lon="6.35056">
        <ele>536.40002441406</ele>
        <time>2021-03-29T10:59:55.000Z</time>
      </trkpt>
      <trkpt lat="46.28147" lon="6.35083">
        <ele>535.59997558594</ele>
        <time>2021-03-29T10:59:59.000Z</time>
      </trkpt>
      <trkpt lat="46.28117" lon="6.35128">
        <ele>534</ele>
        <time>2021-03-29T11:00:05.000Z</time>
      </trkpt>
      <trkpt lat="46.28112" lon="6.35136">
        <ele>533.59997558594</ele>
        <time>2021-03-29T11:00:06.000Z</time>
      </trkpt>
      <trkpt lat="46.281" lon="6.35172">
        <ele>532.79998779297</ele>
        <time>2021-03-29T11:00:10.000Z</time>
      </trkpt>
      <trkpt lat="46.28086" lon="6.35213">
        <ele>533</ele>
        <time>2021-03-29T11:00:15.000Z</time>
      </trkpt>
      <trkpt lat="46.28076" lon="6.35243">
        <ele>533.20001220703</ele>
        <time>2021-03-29T11:00:19.000Z</time>
      </trkpt>
      <trkpt lat="46.28072" lon="6.35257">
        <ele>533.79998779297</ele>
        <time>2021-03-29T11:00:21.000Z</time>
      </trkpt>
      <trkpt lat="46.28067" lon="6.35272">
        <ele>534.40002441406</ele>
        <time>2021-03-29T11:00:23.000Z</time>
      </trkpt>
      <trkpt lat="46.28055" lon="6.35308">
        <ele>535.79998779297</ele>
        <time>2021-03-29T11:00:28.000Z</time>
      </trkpt>
      <trkpt lat="46.2804" lon="6.35351">
        <ele>536.40002441406</ele>
        <time>2021-03-29T11:00:34.000Z</time>
      </trkpt>
      <trkpt lat="46.28021" lon="6.35401">
        <ele>537.59997558594</ele>
        <time>2021-03-29T11:00:42.000Z</time>
      </trkpt>
      <trkpt lat="46.27998" lon="6.35439">
        <ele>538</ele>
        <time>2021-03-29T11:00:49.000Z</time>
      </trkpt>
      <trkpt lat="46.27989" lon="6.35455">
        <ele>538.40002441406</ele>
        <time>2021-03-29T11:00:52.000Z</time>
      </trkpt>
      <trkpt lat="46.27979" lon="6.35472">
        <ele>538.79998779297</ele>
        <time>2021-03-29T11:00:55.000Z</time>
      </trkpt>
      <trkpt lat="46.27954" lon="6.35519">
        <ele>539.20001220703</ele>
        <time>2021-03-29T11:01:03.000Z</time>
      </trkpt>
      <trkpt lat="46.27935" lon="6.35561">
        <ele>540.40002441406</ele>
        <time>2021-03-29T11:01:10.000Z</time>
      </trkpt>
      <trkpt lat="46.27912" lon="6.35612">
        <ele>540.59997558594</ele>
        <time>2021-03-29T11:01:18.000Z</time>
      </trkpt>
      <trkpt lat="46.27895" lon="6.3565">
        <ele>542</ele>
        <time>2021-03-29T11:01:24.000Z</time>
      </trkpt>
      <trkpt lat="46.27882" lon="6.35681">
        <ele>541.40002441406</ele>
        <time>2021-03-29T11:01:29.000Z</time>
      </trkpt>
      <trkpt lat="46.27879" lon="6.35687">
        <ele>541.40002441406</ele>
        <time>2021-03-29T11:01:30.000Z</time>
      </trkpt>
      <trkpt lat="46.27857" lon="6.35737">
        <ele>543</ele>
        <time>2021-03-29T11:01:38.000Z</time>
      </trkpt>
      <trkpt lat="46.27845" lon="6.35764">
        <ele>544.20001220703</ele>
        <time>2021-03-29T11:01:42.000Z</time>
      </trkpt>
      <trkpt lat="46.27842" lon="6.35771">
        <ele>544.40002441406</ele>
        <time>2021-03-29T11:01:43.000Z</time>
      </trkpt>
      <trkpt lat="46.2783" lon="6.35799">
        <ele>544.59997558594</ele>
        <time>2021-03-29T11:01:48.000Z</time>
      </trkpt>
      <trkpt lat="46.27817" lon="6.3583">
        <ele>544.79998779297</ele>
        <time>2021-03-29T11:01:54.000Z</time>
      </trkpt>
      <trkpt lat="46.27814" lon="6.35835">
        <ele>544.79998779297</ele>
        <time>2021-03-29T11:01:55.000Z</time>
      </trkpt>
      <trkpt lat="46.27808" lon="6.35849">
        <ele>544.59997558594</ele>
        <time>2021-03-29T11:01:58.000Z</time>
      </trkpt>
      <trkpt lat="46.27797" lon="6.35875">
        <ele>544.40002441406</ele>
        <time>2021-03-29T11:02:03.000Z</time>
      </trkpt>
      <trkpt lat="46.27789" lon="6.35893">
        <ele>544.40002441406</ele>
        <time>2021-03-29T11:02:06.000Z</time>
      </trkpt>
      <trkpt lat="46.27783" lon="6.35907">
        <ele>544.20001220703</ele>
        <time>2021-03-29T11:02:08.000Z</time>
      </trkpt>
      <trkpt lat="46.27767" lon="6.35939">
        <ele>543.79998779297</ele>
        <time>2021-03-29T11:02:13.000Z</time>
      </trkpt>
      <trkpt lat="46.27753" lon="6.35967">
        <ele>544.79998779297</ele>
        <time>2021-03-29T11:02:18.000Z</time>
      </trkpt>
      <trkpt lat="46.2774" lon="6.35982">
        <ele>545.40002441406</ele>
        <time>2021-03-29T11:02:23.000Z</time>
      </trkpt>
      <trkpt lat="46.27732" lon="6.35991">
        <ele>545.79998779297</ele>
        <time>2021-03-29T11:02:26.000Z</time>
      </trkpt>
      <trkpt lat="46.27725" lon="6.35999">
        <ele>546</ele>
        <time>2021-03-29T11:02:28.000Z</time>
      </trkpt>
      <trkpt lat="46.27709" lon="6.36015">
        <ele>545.79998779297</ele>
        <time>2021-03-29T11:02:32.000Z</time>
      </trkpt>
      <trkpt lat="46.27705" lon="6.36019">
        <ele>545.79998779297</ele>
        <time>2021-03-29T11:02:33.000Z</time>
      </trkpt>
      <trkpt lat="46.27686" lon="6.36036">
        <ele>545.59997558594</ele>
        <time>2021-03-29T11:02:38.000Z</time>
      </trkpt>
      <trkpt lat="46.27667" lon="6.36051">
        <ele>545.79998779297</ele>
        <time>2021-03-29T11:02:43.000Z</time>
      </trkpt>
      <trkpt lat="46.27656" lon="6.3606">
        <ele>546</ele>
        <time>2021-03-29T11:02:49.000Z</time>
      </trkpt>
      <trkpt lat="46.27646" lon="6.36068">
        <ele>546</ele>
        <time>2021-03-29T11:02:55.000Z</time>
      </trkpt>
      <trkpt lat="46.27629" lon="6.36082">
        <ele>545.79998779297</ele>
        <time>2021-03-29T11:03:00.000Z</time>
      </trkpt>
      <trkpt lat="46.27622" lon="6.36088">
        <ele>545.79998779297</ele>
        <time>2021-03-29T11:03:02.000Z</time>
      </trkpt>
      <trkpt lat="46.27604" lon="6.36102">
        <ele>545.59997558594</ele>
        <time>2021-03-29T11:03:07.000Z</time>
      </trkpt>
      <trkpt lat="46.27596" lon="6.36109">
        <ele>545.40002441406</ele>
        <time>2021-03-29T11:03:11.000Z</time>
      </trkpt>
      <trkpt lat="46.27583" lon="6.36119">
        <ele>545.40002441406</ele>
        <time>2021-03-29T11:03:17.000Z</time>
      </trkpt>
      <trkpt lat="46.27562" lon="6.36135">
        <ele>545.20001220703</ele>
        <time>2021-03-29T11:03:24.000Z</time>
      </trkpt>
      <trkpt lat="46.27546" lon="6.36149">
        <ele>545</ele>
        <time>2021-03-29T11:03:29.000Z</time>
      </trkpt>
      <trkpt lat="46.27542" lon="6.36151">
        <ele>545</ele>
        <time>2021-03-29T11:03:30.000Z</time>
      </trkpt>
      <trkpt lat="46.27531" lon="6.36158">
        <ele>545</ele>
        <time>2021-03-29T11:03:33.000Z</time>
      </trkpt>
      <trkpt lat="46.27526" lon="6.36159">
        <ele>545</ele>
        <time>2021-03-29T11:03:34.000Z</time>
      </trkpt>
      <trkpt lat="46.27518" lon="6.36161">
        <ele>545</ele>
        <time>2021-03-29T11:03:36.000Z</time>
      </trkpt>
      <trkpt lat="46.27503" lon="6.36161">
        <ele>545</ele>
        <time>2021-03-29T11:03:39.000Z</time>
      </trkpt>
      <trkpt lat="46.27489" lon="6.36159">
        <ele>545</ele>
        <time>2021-03-29T11:03:42.000Z</time>
      </trkpt>
      <trkpt lat="46.27469" lon="6.36156">
        <ele>545.20001220703</ele>
        <time>2021-03-29T11:03:46.000Z</time>
      </trkpt>
      <trkpt lat="46.27426" lon="6.36144">
        <ele>545.79998779297</ele>
        <time>2021-03-29T11:03:55.000Z</time>
      </trkpt>
      <trkpt lat="46.27383" lon="6.36133">
        <ele>546.40002441406</ele>
        <time>2021-03-29T11:04:03.000Z</time>
      </trkpt>
      <trkpt lat="46.27339" lon="6.36121">
        <ele>546.59997558594</ele>
        <time>2021-03-29T11:04:11.000Z</time>
      </trkpt>
      <trkpt lat="46.27297" lon="6.36112">
        <ele>547.20001220703</ele>
        <time>2021-03-29T11:04:19.000Z</time>
      </trkpt>
      <trkpt lat="46.27262" lon="6.36106">
        <ele>548.20001220703</ele>
        <time>2021-03-29T11:04:26.000Z</time>
      </trkpt>
      <trkpt lat="46.27233" lon="6.3612">
        <ele>548.59997558594</ele>
        <time>2021-03-29T11:04:32.000Z</time>
      </trkpt>
      <trkpt lat="46.27218" lon="6.36126">
        <ele>548.40002441406</ele>
        <time>2021-03-29T11:04:35.000Z</time>
      </trkpt>
      <trkpt lat="46.27204" lon="6.36133">
        <ele>548</ele>
        <time>2021-03-29T11:04:38.000Z</time>
      </trkpt>
      <trkpt lat="46.27199" lon="6.36135">
        <ele>547.79998779297</ele>
        <time>2021-03-29T11:04:39.000Z</time>
      </trkpt>
      <trkpt lat="46.27194" lon="6.36138">
        <ele>547.59997558594</ele>
        <time>2021-03-29T11:04:40.000Z</time>
      </trkpt>
      <trkpt lat="46.2718" lon="6.36142">
        <ele>547</ele>
        <time>2021-03-29T11:04:42.000Z</time>
      </trkpt>
      <trkpt lat="46.27176" lon="6.36138">
        <ele>547</ele>
        <time>2021-03-29T11:04:43.000Z</time>
      </trkpt>
      <trkpt lat="46.27173" lon="6.36133">
        <ele>547.20001220703</ele>
        <time>2021-03-29T11:04:44.000Z</time>
      </trkpt>
      <trkpt lat="46.27165" lon="6.36133">
        <ele>547</ele>
        <time>2021-03-29T11:04:46.000Z</time>
      </trkpt>
      <trkpt lat="46.2716" lon="6.36147">
        <ele>546.40002441406</ele>
        <time>2021-03-29T11:04:48.000Z</time>
      </trkpt>
      <trkpt lat="46.27162" lon="6.36153">
        <ele>546.20001220703</ele>
        <time>2021-03-29T11:04:49.000Z</time>
      </trkpt>
      <trkpt lat="46.27161" lon="6.36163">
        <ele>545.59997558594</ele>
        <time>2021-03-29T11:04:50.000Z</time>
      </trkpt>
      <trkpt lat="46.27154" lon="6.36171">
        <ele>545.40002441406</ele>
        <time>2021-03-29T11:04:52.000Z</time>
      </trkpt>
      <trkpt lat="46.27147" lon="6.3618">
        <ele>545.20001220703</ele>
        <time>2021-03-29T11:04:54.000Z</time>
      </trkpt>
      <trkpt lat="46.27135" lon="6.36195">
        <ele>545.79998779297</ele>
        <time>2021-03-29T11:04:57.000Z</time>
      </trkpt>
      <trkpt lat="46.27112" lon="6.36214">
        <ele>546.20001220703</ele>
        <time>2021-03-29T11:05:02.000Z</time>
      </trkpt>
      <trkpt lat="46.27108" lon="6.36218">
        <ele>546.20001220703</ele>
        <time>2021-03-29T11:05:03.000Z</time>
      </trkpt>
      <trkpt lat="46.27096" lon="6.3623">
        <ele>545.79998779297</ele>
        <time>2021-03-29T11:05:06.000Z</time>
      </trkpt>
      <trkpt lat="46.27093" lon="6.36233">
        <ele>546</ele>
        <time>2021-03-29T11:05:07.000Z</time>
      </trkpt>
      <trkpt lat="46.27058" lon="6.3624">
        <ele>547</ele>
        <time>2021-03-29T11:05:14.000Z</time>
      </trkpt>
      <trkpt lat="46.27023" lon="6.36256">
        <ele>547.20001220703</ele>
        <time>2021-03-29T11:05:21.000Z</time>
      </trkpt>
      <trkpt lat="46.2698" lon="6.36276">
        <ele>547.40002441406</ele>
        <time>2021-03-29T11:05:29.000Z</time>
      </trkpt>
      <trkpt lat="46.26972" lon="6.36286">
        <ele>547.40002441406</ele>
        <time>2021-03-29T11:05:31.000Z</time>
      </trkpt>
      <trkpt lat="46.26957" lon="6.36305">
        <ele>547.59997558594</ele>
        <time>2021-03-29T11:05:35.000Z</time>
      </trkpt>
      <trkpt lat="46.26949" lon="6.36314">
        <ele>548</ele>
        <time>2021-03-29T11:05:37.000Z</time>
      </trkpt>
      <trkpt lat="46.2694" lon="6.3633">
        <ele>548.40002441406</ele>
        <time>2021-03-29T11:05:40.000Z</time>
      </trkpt>
      <trkpt lat="46.26937" lon="6.36335">
        <ele>548.59997558594</ele>
        <time>2021-03-29T11:05:41.000Z</time>
      </trkpt>
      <trkpt lat="46.26934" lon="6.36341">
        <ele>548.59997558594</ele>
        <time>2021-03-29T11:05:42.000Z</time>
      </trkpt>
      <trkpt lat="46.26924" lon="6.36358">
        <ele>548.79998779297</ele>
        <time>2021-03-29T11:05:45.000Z</time>
      </trkpt>
      <trkpt lat="46.26909" lon="6.36383">
        <ele>548.79998779297</ele>
        <time>2021-03-29T11:05:50.000Z</time>
      </trkpt>
      <trkpt lat="46.26906" lon="6.36387">
        <ele>548.79998779297</ele>
        <time>2021-03-29T11:05:51.000Z</time>
      </trkpt>
      <trkpt lat="46.26902" lon="6.36389">
        <ele>549</ele>
        <time>2021-03-29T11:05:52.000Z</time>
      </trkpt>
      <trkpt lat="46.26894" lon="6.36377">
        <ele>549.20001220703</ele>
        <time>2021-03-29T11:05:54.000Z</time>
      </trkpt>
      <trkpt lat="46.26893" lon="6.36347">
        <ele>549.59997558594</ele>
        <time>2021-03-29T11:05:59.000Z</time>
      </trkpt>
      <trkpt lat="46.26888" lon="6.36293">
        <ele>550</ele>
        <time>2021-03-29T11:06:07.000Z</time>
      </trkpt>
      <trkpt lat="46.26878" lon="6.36245">
        <ele>549.79998779297</ele>
        <time>2021-03-29T11:06:14.000Z</time>
      </trkpt>
      <trkpt lat="46.26859" lon="6.36184">
        <ele>550.59997558594</ele>
        <time>2021-03-29T11:06:23.000Z</time>
      </trkpt>
      <trkpt lat="46.26847" lon="6.36145">
        <ele>551.59997558594</ele>
        <time>2021-03-29T11:06:29.000Z</time>
      </trkpt>
      <trkpt lat="46.26831" lon="6.36098">
        <ele>551.20001220703</ele>
        <time>2021-03-29T11:06:37.000Z</time>
      </trkpt>
      <trkpt lat="46.26814" lon="6.3605">
        <ele>551.20001220703</ele>
        <time>2021-03-29T11:06:45.000Z</time>
      </trkpt>
      <trkpt lat="46.26805" lon="6.36022">
        <ele>552</ele>
        <time>2021-03-29T11:06:50.000Z</time>
      </trkpt>
      <trkpt lat="46.26803" lon="6.36017">
        <ele>552</ele>
        <time>2021-03-29T11:06:51.000Z</time>
      </trkpt>
      <trkpt lat="46.26787" lon="6.35973">
        <ele>553.40002441406</ele>
        <time>2021-03-29T11:06:58.000Z</time>
      </trkpt>
      <trkpt lat="46.26768" lon="6.35926">
        <ele>554.79998779297</ele>
        <time>2021-03-29T11:07:06.000Z</time>
      </trkpt>
      <trkpt lat="46.2675" lon="6.35883">
        <ele>556.40002441406</ele>
        <time>2021-03-29T11:07:14.000Z</time>
      </trkpt>
      <trkpt lat="46.2674" lon="6.35878">
        <ele>557</ele>
        <time>2021-03-29T11:07:16.000Z</time>
      </trkpt>
      <trkpt lat="46.26736" lon="6.3588">
        <ele>557.20001220703</ele>
        <time>2021-03-29T11:07:17.000Z</time>
      </trkpt>
      <trkpt lat="46.26732" lon="6.35882">
        <ele>557.20001220703</ele>
        <time>2021-03-29T11:07:18.000Z</time>
      </trkpt>
      <trkpt lat="46.26716" lon="6.3589">
        <ele>558</ele>
        <time>2021-03-29T11:07:22.000Z</time>
      </trkpt>
      <trkpt lat="46.26702" lon="6.35898">
        <ele>559</ele>
        <time>2021-03-29T11:07:26.000Z</time>
      </trkpt>
      <trkpt lat="46.26694" lon="6.35902">
        <ele>559.40002441406</ele>
        <time>2021-03-29T11:07:28.000Z</time>
      </trkpt>
      <trkpt lat="46.2669" lon="6.35904">
        <ele>559.79998779297</ele>
        <time>2021-03-29T11:07:29.000Z</time>
      </trkpt>
      <trkpt lat="46.26655" lon="6.35923">
        <ele>562</ele>
        <time>2021-03-29T11:07:38.000Z</time>
      </trkpt>
      <trkpt lat="46.26625" lon="6.35937">
        <ele>564</ele>
        <time>2021-03-29T11:07:46.000Z</time>
      </trkpt>
      <trkpt lat="46.26609" lon="6.35942">
        <ele>565.20001220703</ele>
        <time>2021-03-29T11:07:51.000Z</time>
      </trkpt>
      <trkpt lat="46.26589" lon="6.35947">
        <ele>566.20001220703</ele>
        <time>2021-03-29T11:07:58.000Z</time>
      </trkpt>
      <trkpt lat="46.26569" lon="6.35953">
        <ele>567.20001220703</ele>
        <time>2021-03-29T11:08:03.000Z</time>
      </trkpt>
      <trkpt lat="46.26568" lon="6.35947">
        <ele>567.40002441406</ele>
        <time>2021-03-29T11:08:04.000Z</time>
      </trkpt>
      <trkpt lat="46.26567" lon="6.35936">
        <ele>567.79998779297</ele>
        <time>2021-03-29T11:08:07.000Z</time>
      </trkpt>
      <trkpt lat="46.26562" lon="6.35905">
        <ele>568.79998779297</ele>
        <time>2021-03-29T11:08:14.000Z</time>
      </trkpt>
      <trkpt lat="46.26554" lon="6.35873">
        <ele>569.59997558594</ele>
        <time>2021-03-29T11:08:21.000Z</time>
      </trkpt>
      <trkpt lat="46.26543" lon="6.35852">
        <ele>570</ele>
        <time>2021-03-29T11:08:27.000Z</time>
      </trkpt>
      <trkpt lat="46.26532" lon="6.35831">
        <ele>570.59997558594</ele>
        <time>2021-03-29T11:08:34.000Z</time>
      </trkpt>
      <trkpt lat="46.26518" lon="6.35803">
        <ele>571.79998779297</ele>
        <time>2021-03-29T11:08:42.000Z</time>
      </trkpt>
      <trkpt lat="46.26504" lon="6.35776">
        <ele>573.79998779297</ele>
        <time>2021-03-29T11:08:49.000Z</time>
      </trkpt>
      <trkpt lat="46.26491" lon="6.35751">
        <ele>575.59997558594</ele>
        <time>2021-03-29T11:08:55.000Z</time>
      </trkpt>
      <trkpt lat="46.26475" lon="6.35726">
        <ele>577</ele>
        <time>2021-03-29T11:09:01.000Z</time>
      </trkpt>
      <trkpt lat="46.26465" lon="6.35715">
        <ele>577</ele>
        <time>2021-03-29T11:09:04.000Z</time>
      </trkpt>
      <trkpt lat="46.26455" lon="6.35703">
        <ele>577</ele>
        <time>2021-03-29T11:09:07.000Z</time>
      </trkpt>
      <trkpt lat="46.26452" lon="6.35699">
        <ele>577</ele>
        <time>2021-03-29T11:09:08.000Z</time>
      </trkpt>
      <trkpt lat="46.26433" lon="6.35688">
        <ele>576.79998779297</ele>
        <time>2021-03-29T11:09:12.000Z</time>
      </trkpt>
      <trkpt lat="46.26403" lon="6.35669">
        <ele>575.79998779297</ele>
        <time>2021-03-29T11:09:17.000Z</time>
      </trkpt>
      <trkpt lat="46.26397" lon="6.35665">
        <ele>575.59997558594</ele>
        <time>2021-03-29T11:09:18.000Z</time>
      </trkpt>
      <trkpt lat="46.26375" lon="6.35659">
        <ele>574</ele>
        <time>2021-03-29T11:09:21.000Z</time>
      </trkpt>
      <trkpt lat="46.26353" lon="6.35657">
        <ele>572</ele>
        <time>2021-03-29T11:09:24.000Z</time>
      </trkpt>
      <trkpt lat="46.26338" lon="6.35661">
        <ele>570.20001220703</ele>
        <time>2021-03-29T11:09:26.000Z</time>
      </trkpt>
      <trkpt lat="46.26324" lon="6.35664">
        <ele>569</ele>
        <time>2021-03-29T11:09:28.000Z</time>
      </trkpt>
      <trkpt lat="46.2631" lon="6.3567">
        <ele>568.79998779297</ele>
        <time>2021-03-29T11:09:30.000Z</time>
      </trkpt>
      <trkpt lat="46.26303" lon="6.35673">
        <ele>568.79998779297</ele>
        <time>2021-03-29T11:09:31.000Z</time>
      </trkpt>
      <trkpt lat="46.26289" lon="6.35673">
        <ele>569</ele>
        <time>2021-03-29T11:09:33.000Z</time>
      </trkpt>
      <trkpt lat="46.26282" lon="6.35672">
        <ele>569</ele>
        <time>2021-03-29T11:09:34.000Z</time>
      </trkpt>
      <trkpt lat="46.26277" lon="6.35667">
        <ele>569.20001220703</ele>
        <time>2021-03-29T11:09:35.000Z</time>
      </trkpt>
      <trkpt lat="46.26267" lon="6.35654">
        <ele>569.40002441406</ele>
        <time>2021-03-29T11:09:37.000Z</time>
      </trkpt>
      <trkpt lat="46.26245" lon="6.35627">
        <ele>570</ele>
        <time>2021-03-29T11:09:42.000Z</time>
      </trkpt>
      <trkpt lat="46.26224" lon="6.35602">
        <ele>571</ele>
        <time>2021-03-29T11:09:48.000Z</time>
      </trkpt>
      <trkpt lat="46.2622" lon="6.35599">
        <ele>571.40002441406</ele>
        <time>2021-03-29T11:09:49.000Z</time>
      </trkpt>
      <trkpt lat="46.26209" lon="6.35579">
        <ele>572.79998779297</ele>
        <time>2021-03-29T11:09:53.000Z</time>
      </trkpt>
      <trkpt lat="46.26213" lon="6.35563">
        <ele>572.59997558594</ele>
        <time>2021-03-29T11:09:56.000Z</time>
      </trkpt>
      <trkpt lat="46.26215" lon="6.35557">
        <ele>572</ele>
        <time>2021-03-29T11:09:57.000Z</time>
      </trkpt>
      <trkpt lat="46.26221" lon="6.35536">
        <ele>571.59997558594</ele>
        <time>2021-03-29T11:10:00.000Z</time>
      </trkpt>
      <trkpt lat="46.26239" lon="6.35476">
        <ele>572.79998779297</ele>
        <time>2021-03-29T11:10:07.000Z</time>
      </trkpt>
      <trkpt lat="46.26253" lon="6.35429">
        <ele>573</ele>
        <time>2021-03-29T11:10:12.000Z</time>
      </trkpt>
      <trkpt lat="46.26272" lon="6.35374">
        <ele>570.59997558594</ele>
        <time>2021-03-29T11:10:17.000Z</time>
      </trkpt>
      <trkpt lat="46.26299" lon="6.35337">
        <ele>567</ele>
        <time>2021-03-29T11:10:21.000Z</time>
      </trkpt>
      <trkpt lat="46.26343" lon="6.35277">
        <ele>564.79998779297</ele>
        <time>2021-03-29T11:10:27.000Z</time>
      </trkpt>
      <trkpt lat="46.26351" lon="6.35268">
        <ele>565</ele>
        <time>2021-03-29T11:10:28.000Z</time>
      </trkpt>
      <trkpt lat="46.26388" lon="6.35231">
        <ele>562</ele>
        <time>2021-03-29T11:10:32.000Z</time>
      </trkpt>
      <trkpt lat="46.26441" lon="6.35186">
        <ele>560.40002441406</ele>
        <time>2021-03-29T11:10:38.000Z</time>
      </trkpt>
      <trkpt lat="46.26449" lon="6.35178">
        <ele>559</ele>
        <time>2021-03-29T11:10:39.000Z</time>
      </trkpt>
      <trkpt lat="46.26463" lon="6.35158">
        <ele>556</ele>
        <time>2021-03-29T11:10:41.000Z</time>
      </trkpt>
      <trkpt lat="46.26476" lon="6.35137">
        <ele>553.79998779297</ele>
        <time>2021-03-29T11:10:43.000Z</time>
      </trkpt>
      <trkpt lat="46.26497" lon="6.35072">
        <ele>549.20001220703</ele>
        <time>2021-03-29T11:10:48.000Z</time>
      </trkpt>
      <trkpt lat="46.2652" lon="6.34995">
        <ele>543.40002441406</ele>
        <time>2021-03-29T11:10:54.000Z</time>
      </trkpt>
      <trkpt lat="46.26535" lon="6.34945">
        <ele>541.40002441406</ele>
        <time>2021-03-29T11:10:58.000Z</time>
      </trkpt>
      <trkpt lat="46.26557" lon="6.34863">
        <ele>542</ele>
        <time>2021-03-29T11:11:05.000Z</time>
      </trkpt>
      <trkpt lat="46.26558" lon="6.3484">
        <ele>542.40002441406</ele>
        <time>2021-03-29T11:11:07.000Z</time>
      </trkpt>
      <trkpt lat="46.26559" lon="6.34817">
        <ele>542.79998779297</ele>
        <time>2021-03-29T11:11:09.000Z</time>
      </trkpt>
      <trkpt lat="46.2656" lon="6.34797">
        <ele>542.59997558594</ele>
        <time>2021-03-29T11:11:11.000Z</time>
      </trkpt>
      <trkpt lat="46.26561" lon="6.34778">
        <ele>542.40002441406</ele>
        <time>2021-03-29T11:11:13.000Z</time>
      </trkpt>
      <trkpt lat="46.26564" lon="6.34771">
        <ele>542.40002441406</ele>
        <time>2021-03-29T11:11:14.000Z</time>
      </trkpt>
      <trkpt lat="46.26571" lon="6.3475">
        <ele>542.20001220703</ele>
        <time>2021-03-29T11:11:17.000Z</time>
      </trkpt>
      <trkpt lat="46.26575" lon="6.34737">
        <ele>542.59997558594</ele>
        <time>2021-03-29T11:11:19.000Z</time>
      </trkpt>
      <trkpt lat="46.26583" lon="6.3472">
        <ele>543.79998779297</ele>
        <time>2021-03-29T11:11:22.000Z</time>
      </trkpt>
      <trkpt lat="46.26591" lon="6.34704">
        <ele>545</ele>
        <time>2021-03-29T11:11:25.000Z</time>
      </trkpt>
      <trkpt lat="46.26598" lon="6.34698">
        <ele>545.79998779297</ele>
        <time>2021-03-29T11:11:27.000Z</time>
      </trkpt>
      <trkpt lat="46.26618" lon="6.34693">
        <ele>547.40002441406</ele>
        <time>2021-03-29T11:11:32.000Z</time>
      </trkpt>
      <trkpt lat="46.2664" lon="6.34702">
        <ele>549</ele>
        <time>2021-03-29T11:11:38.000Z</time>
      </trkpt>
      <trkpt lat="46.26668" lon="6.34714">
        <ele>549</ele>
        <time>2021-03-29T11:11:47.000Z</time>
      </trkpt>
      <trkpt lat="46.26694" lon="6.34722">
        <ele>549</ele>
        <time>2021-03-29T11:11:55.000Z</time>
      </trkpt>
      <trkpt lat="46.26714" lon="6.3472">
        <ele>549.40002441406</ele>
        <time>2021-03-29T11:12:01.000Z</time>
      </trkpt>
      <trkpt lat="46.26731" lon="6.34704">
        <ele>550.59997558594</ele>
        <time>2021-03-29T11:12:07.000Z</time>
      </trkpt>
      <trkpt lat="46.26754" lon="6.34672">
        <ele>550.79998779297</ele>
        <time>2021-03-29T11:12:16.000Z</time>
      </trkpt>
      <trkpt lat="46.26785" lon="6.34624">
        <ele>550.59997558594</ele>
        <time>2021-03-29T11:12:28.000Z</time>
      </trkpt>
      <trkpt lat="46.26788" lon="6.34601">
        <ele>552.59997558594</ele>
        <time>2021-03-29T11:12:33.000Z</time>
      </trkpt>
      <trkpt lat="46.26784" lon="6.34578">
        <ele>555</ele>
        <time>2021-03-29T11:12:38.000Z</time>
      </trkpt>
      <trkpt lat="46.2677" lon="6.34557">
        <ele>557.79998779297</ele>
        <time>2021-03-29T11:12:44.000Z</time>
      </trkpt>
      <trkpt lat="46.26745" lon="6.34534">
        <ele>560.40002441406</ele>
        <time>2021-03-29T11:12:53.000Z</time>
      </trkpt>
      <trkpt lat="46.2672" lon="6.3452">
        <ele>562.59997558594</ele>
        <time>2021-03-29T11:13:01.000Z</time>
      </trkpt>
      <trkpt lat="46.26697" lon="6.34516">
        <ele>563.59997558594</ele>
        <time>2021-03-29T11:13:08.000Z</time>
      </trkpt>
      <trkpt lat="46.26673" lon="6.34509">
        <ele>565</ele>
        <time>2021-03-29T11:13:16.000Z</time>
      </trkpt>
      <trkpt lat="46.26662" lon="6.34492">
        <ele>566</ele>
        <time>2021-03-29T11:13:21.000Z</time>
      </trkpt>
      <trkpt lat="46.26651" lon="6.34462">
        <ele>567.59997558594</ele>
        <time>2021-03-29T11:13:28.000Z</time>
      </trkpt>
      <trkpt lat="46.26637" lon="6.34427">
        <ele>569.79998779297</ele>
        <time>2021-03-29T11:13:36.000Z</time>
      </trkpt>
      <trkpt lat="46.26626" lon="6.34405">
        <ele>570.79998779297</ele>
        <time>2021-03-29T11:13:41.000Z</time>
      </trkpt>
      <trkpt lat="46.26615" lon="6.34384">
        <ele>571.59997558594</ele>
        <time>2021-03-29T11:13:46.000Z</time>
      </trkpt>
      <trkpt lat="46.26613" lon="6.34379">
        <ele>571.59997558594</ele>
        <time>2021-03-29T11:13:47.000Z</time>
      </trkpt>
      <trkpt lat="46.26601" lon="6.34363">
        <ele>572</ele>
        <time>2021-03-29T11:13:51.000Z</time>
      </trkpt>
      <trkpt lat="46.26585" lon="6.34344">
        <ele>572.40002441406</ele>
        <time>2021-03-29T11:13:56.000Z</time>
      </trkpt>
      <trkpt lat="46.26565" lon="6.34319">
        <ele>573</ele>
        <time>2021-03-29T11:14:02.000Z</time>
      </trkpt>
      <trkpt lat="46.26548" lon="6.34294">
        <ele>573.40002441406</ele>
        <time>2021-03-29T11:14:07.000Z</time>
      </trkpt>
      <trkpt lat="46.26543" lon="6.34281">
        <ele>573.40002441406</ele>
        <time>2021-03-29T11:14:09.000Z</time>
      </trkpt>
      <trkpt lat="46.26539" lon="6.34267">
        <ele>573.59997558594</ele>
        <time>2021-03-29T11:14:11.000Z</time>
      </trkpt>
      <trkpt lat="46.26531" lon="6.34239">
        <ele>573.79998779297</ele>
        <time>2021-03-29T11:14:15.000Z</time>
      </trkpt>
      <trkpt lat="46.26518" lon="6.34188">
        <ele>574</ele>
        <time>2021-03-29T11:14:22.000Z</time>
      </trkpt>
      <trkpt lat="46.26512" lon="6.34176">
        <ele>574.20001220703</ele>
        <time>2021-03-29T11:14:24.000Z</time>
      </trkpt>
      <trkpt lat="46.265" lon="6.34151">
        <ele>574.59997558594</ele>
        <time>2021-03-29T11:14:28.000Z</time>
      </trkpt>
      <trkpt lat="46.26477" lon="6.34107">
        <ele>575.40002441406</ele>
        <time>2021-03-29T11:14:35.000Z</time>
      </trkpt>
      <trkpt lat="46.26466" lon="6.34088">
        <ele>575.20001220703</ele>
        <time>2021-03-29T11:14:38.000Z</time>
      </trkpt>
      <trkpt lat="46.2645" lon="6.34062">
        <ele>575</ele>
        <time>2021-03-29T11:14:42.000Z</time>
      </trkpt>
      <trkpt lat="46.26417" lon="6.34012">
        <ele>574.40002441406</ele>
        <time>2021-03-29T11:14:50.000Z</time>
      </trkpt>
      <trkpt lat="46.26388" lon="6.3396">
        <ele>573.20001220703</ele>
        <time>2021-03-29T11:14:57.000Z</time>
      </trkpt>
      <trkpt lat="46.26383" lon="6.33942">
        <ele>572.40002441406</ele>
        <time>2021-03-29T11:14:59.000Z</time>
      </trkpt>
      <trkpt lat="46.26382" lon="6.33923">
        <ele>572.20001220703</ele>
        <time>2021-03-29T11:15:01.000Z</time>
      </trkpt>
      <trkpt lat="46.26384" lon="6.33904">
        <ele>572</ele>
        <time>2021-03-29T11:15:03.000Z</time>
      </trkpt>
      <trkpt lat="46.26386" lon="6.33886">
        <ele>572.20001220703</ele>
        <time>2021-03-29T11:15:05.000Z</time>
      </trkpt>
      <trkpt lat="46.26394" lon="6.33836">
        <ele>572.79998779297</ele>
        <time>2021-03-29T11:15:11.000Z</time>
      </trkpt>
      <trkpt lat="46.26405" lon="6.33772">
        <ele>572.79998779297</ele>
        <time>2021-03-29T11:15:19.000Z</time>
      </trkpt>
      <trkpt lat="46.26417" lon="6.33697">
        <ele>570.59997558594</ele>
        <time>2021-03-29T11:15:28.000Z</time>
      </trkpt>
      <trkpt lat="46.26428" lon="6.3363">
        <ele>570.20001220703</ele>
        <time>2021-03-29T11:15:36.000Z</time>
      </trkpt>
      <trkpt lat="46.26441" lon="6.33552">
        <ele>569.79998779297</ele>
        <time>2021-03-29T11:15:45.000Z</time>
      </trkpt>
      <trkpt lat="46.26443" lon="6.33544">
        <ele>570</ele>
        <time>2021-03-29T11:15:46.000Z</time>
      </trkpt>
      <trkpt lat="46.26456" lon="6.33467">
        <ele>570.20001220703</ele>
        <time>2021-03-29T11:15:55.000Z</time>
      </trkpt>
      <trkpt lat="46.26458" lon="6.3345">
        <ele>569.79998779297</ele>
        <time>2021-03-29T11:15:57.000Z</time>
      </trkpt>
      <trkpt lat="46.26465" lon="6.3341">
        <ele>570.20001220703</ele>
        <time>2021-03-29T11:16:02.000Z</time>
      </trkpt>
      <trkpt lat="46.26466" lon="6.33402">
        <ele>570.40002441406</ele>
        <time>2021-03-29T11:16:03.000Z</time>
      </trkpt>
      <trkpt lat="46.26468" lon="6.33395">
        <ele>570.40002441406</ele>
        <time>2021-03-29T11:16:04.000Z</time>
      </trkpt>
      <trkpt lat="46.2647" lon="6.3338">
        <ele>570.79998779297</ele>
        <time>2021-03-29T11:16:06.000Z</time>
      </trkpt>
      <trkpt lat="46.26467" lon="6.3337">
        <ele>570.59997558594</ele>
        <time>2021-03-29T11:16:07.000Z</time>
      </trkpt>
      <trkpt lat="46.26448" lon="6.33323">
        <ele>568.20001220703</ele>
        <time>2021-03-29T11:16:13.000Z</time>
      </trkpt>
      <trkpt lat="46.26428" lon="6.33272">
        <ele>568.20001220703</ele>
        <time>2021-03-29T11:16:20.000Z</time>
      </trkpt>
      <trkpt lat="46.26402" lon="6.33229">
        <ele>567.40002441406</ele>
        <time>2021-03-29T11:16:27.000Z</time>
      </trkpt>
      <trkpt lat="46.26367" lon="6.33183">
        <ele>566.59997558594</ele>
        <time>2021-03-29T11:16:35.000Z</time>
      </trkpt>
      <trkpt lat="46.26327" lon="6.33128">
        <ele>565.79998779297</ele>
        <time>2021-03-29T11:16:44.000Z</time>
      </trkpt>
      <trkpt lat="46.26285" lon="6.33075">
        <ele>565.20001220703</ele>
        <time>2021-03-29T11:16:53.000Z</time>
      </trkpt>
      <trkpt lat="46.26279" lon="6.33071">
        <ele>564.79998779297</ele>
        <time>2021-03-29T11:16:54.000Z</time>
      </trkpt>
      <trkpt lat="46.26243" lon="6.33041">
        <ele>563.20001220703</ele>
        <time>2021-03-29T11:17:00.000Z</time>
      </trkpt>
      <trkpt lat="46.26196" lon="6.33018">
        <ele>561.20001220703</ele>
        <time>2021-03-29T11:17:06.000Z</time>
      </trkpt>
      <trkpt lat="46.26145" lon="6.32992">
        <ele>558.59997558594</ele>
        <time>2021-03-29T11:17:12.000Z</time>
      </trkpt>
      <trkpt lat="46.26137" lon="6.32988">
        <ele>558.59997558594</ele>
        <time>2021-03-29T11:17:13.000Z</time>
      </trkpt>
      <trkpt lat="46.26079" lon="6.32956">
        <ele>557.59997558594</ele>
        <time>2021-03-29T11:17:20.000Z</time>
      </trkpt>
      <trkpt lat="46.26027" lon="6.32912">
        <ele>556.79998779297</ele>
        <time>2021-03-29T11:17:27.000Z</time>
      </trkpt>
      <trkpt lat="46.26014" lon="6.32899">
        <ele>556.59997558594</ele>
        <time>2021-03-29T11:17:29.000Z</time>
      </trkpt>
      <trkpt lat="46.26" lon="6.32885">
        <ele>556</ele>
        <time>2021-03-29T11:17:31.000Z</time>
      </trkpt>
      <trkpt lat="46.25967" lon="6.32831">
        <ele>554.40002441406</ele>
        <time>2021-03-29T11:17:37.000Z</time>
      </trkpt>
      <trkpt lat="46.25958" lon="6.32812">
        <ele>554</ele>
        <time>2021-03-29T11:17:39.000Z</time>
      </trkpt>
      <trkpt lat="46.25952" lon="6.3279">
        <ele>553.40002441406</ele>
        <time>2021-03-29T11:17:41.000Z</time>
      </trkpt>
      <trkpt lat="46.25946" lon="6.32756">
        <ele>552.59997558594</ele>
        <time>2021-03-29T11:17:44.000Z</time>
      </trkpt>
      <trkpt lat="46.25941" lon="6.32748">
        <ele>552.40002441406</ele>
        <time>2021-03-29T11:17:45.000Z</time>
      </trkpt>
      <trkpt lat="46.25934" lon="6.32743">
        <ele>552</ele>
        <time>2021-03-29T11:17:46.000Z</time>
      </trkpt>
      <trkpt lat="46.2592" lon="6.32733">
        <ele>551.20001220703</ele>
        <time>2021-03-29T11:17:48.000Z</time>
      </trkpt>
      <trkpt lat="46.25878" lon="6.32702">
        <ele>550</ele>
        <time>2021-03-29T11:17:54.000Z</time>
      </trkpt>
      <trkpt lat="46.25836" lon="6.3267">
        <ele>550</ele>
        <time>2021-03-29T11:18:00.000Z</time>
      </trkpt>
      <trkpt lat="46.25794" lon="6.32632">
        <ele>548.59997558594</ele>
        <time>2021-03-29T11:18:06.000Z</time>
      </trkpt>
      <trkpt lat="46.25763" lon="6.326">
        <ele>546.40002441406</ele>
        <time>2021-03-29T11:18:11.000Z</time>
      </trkpt>
      <trkpt lat="46.25754" lon="6.32585">
        <ele>545.59997558594</ele>
        <time>2021-03-29T11:18:13.000Z</time>
      </trkpt>
      <trkpt lat="46.25749" lon="6.32567">
        <ele>544.59997558594</ele>
        <time>2021-03-29T11:18:15.000Z</time>
      </trkpt>
      <trkpt lat="46.25745" lon="6.3256">
        <ele>544.20001220703</ele>
        <time>2021-03-29T11:18:16.000Z</time>
      </trkpt>
      <trkpt lat="46.25736" lon="6.32546">
        <ele>543.79998779297</ele>
        <time>2021-03-29T11:18:18.000Z</time>
      </trkpt>
      <trkpt lat="46.25702" lon="6.32502">
        <ele>542.20001220703</ele>
        <time>2021-03-29T11:18:24.000Z</time>
      </trkpt>
      <trkpt lat="46.25669" lon="6.3247">
        <ele>541</ele>
        <time>2021-03-29T11:18:29.000Z</time>
      </trkpt>
      <trkpt lat="46.25647" lon="6.32459">
        <ele>540.20001220703</ele>
        <time>2021-03-29T11:18:32.000Z</time>
      </trkpt>
      <trkpt lat="46.25639" lon="6.32455">
        <ele>540.20001220703</ele>
        <time>2021-03-29T11:18:33.000Z</time>
      </trkpt>
      <trkpt lat="46.25617" lon="6.32451">
        <ele>540.20001220703</ele>
        <time>2021-03-29T11:18:36.000Z</time>
      </trkpt>
      <trkpt lat="46.25602" lon="6.3245">
        <ele>539.40002441406</ele>
        <time>2021-03-29T11:18:38.000Z</time>
      </trkpt>
      <trkpt lat="46.25558" lon="6.32452">
        <ele>537</ele>
        <time>2021-03-29T11:18:44.000Z</time>
      </trkpt>
      <trkpt lat="46.25516" lon="6.32468">
        <ele>536.40002441406</ele>
        <time>2021-03-29T11:18:50.000Z</time>
      </trkpt>
      <trkpt lat="46.25463" lon="6.32484">
        <ele>535.79998779297</ele>
        <time>2021-03-29T11:18:58.000Z</time>
      </trkpt>
      <trkpt lat="46.25458" lon="6.32485">
        <ele>535.59997558594</ele>
        <time>2021-03-29T11:18:59.000Z</time>
      </trkpt>
      <trkpt lat="46.25442" lon="6.32489">
        <ele>535.40002441406</ele>
        <time>2021-03-29T11:19:03.000Z</time>
      </trkpt>
      <trkpt lat="46.25434" lon="6.32492">
        <ele>535.20001220703</ele>
        <time>2021-03-29T11:19:05.000Z</time>
      </trkpt>
      <trkpt lat="46.25431" lon="6.32497">
        <ele>534.79998779297</ele>
        <time>2021-03-29T11:19:06.000Z</time>
      </trkpt>
      <trkpt lat="46.25428" lon="6.32504">
        <ele>534.40002441406</ele>
        <time>2021-03-29T11:19:07.000Z</time>
      </trkpt>
      <trkpt lat="46.25421" lon="6.32518">
        <ele>534</ele>
        <time>2021-03-29T11:19:09.000Z</time>
      </trkpt>
      <trkpt lat="46.25417" lon="6.32525">
        <ele>534</ele>
        <time>2021-03-29T11:19:10.000Z</time>
      </trkpt>
      <trkpt lat="46.25398" lon="6.32577">
        <ele>533.20001220703</ele>
        <time>2021-03-29T11:19:16.000Z</time>
      </trkpt>
      <trkpt lat="46.25387" lon="6.32604">
        <ele>531.79998779297</ele>
        <time>2021-03-29T11:19:19.000Z</time>
      </trkpt>
      <trkpt lat="46.25382" lon="6.32611">
        <ele>531.59997558594</ele>
        <time>2021-03-29T11:19:20.000Z</time>
      </trkpt>
      <trkpt lat="46.25371" lon="6.32625">
        <ele>531</ele>
        <time>2021-03-29T11:19:22.000Z</time>
      </trkpt>
      <trkpt lat="46.25357" lon="6.32635">
        <ele>531</ele>
        <time>2021-03-29T11:19:24.000Z</time>
      </trkpt>
      <trkpt lat="46.25317" lon="6.32668">
        <ele>530.79998779297</ele>
        <time>2021-03-29T11:19:30.000Z</time>
      </trkpt>
      <trkpt lat="46.25276" lon="6.32701">
        <ele>531</ele>
        <time>2021-03-29T11:19:36.000Z</time>
      </trkpt>
      <trkpt lat="46.25263" lon="6.32711">
        <ele>530.59997558594</ele>
        <time>2021-03-29T11:19:38.000Z</time>
      </trkpt>
      <trkpt lat="46.25252" lon="6.32721">
        <ele>530.20001220703</ele>
        <time>2021-03-29T11:19:40.000Z</time>
      </trkpt>
      <trkpt lat="46.25226" lon="6.32742">
        <ele>529.59997558594</ele>
        <time>2021-03-29T11:19:44.000Z</time>
      </trkpt>
      <trkpt lat="46.2522" lon="6.32747">
        <ele>529.59997558594</ele>
        <time>2021-03-29T11:19:45.000Z</time>
      </trkpt>
      <trkpt lat="46.25184" lon="6.32767">
        <ele>529.79998779297</ele>
        <time>2021-03-29T11:19:50.000Z</time>
      </trkpt>
      <trkpt lat="46.25171" lon="6.32774">
        <ele>529.40002441406</ele>
        <time>2021-03-29T11:19:52.000Z</time>
      </trkpt>
      <trkpt lat="46.25159" lon="6.32781">
        <ele>528.79998779297</ele>
        <time>2021-03-29T11:19:54.000Z</time>
      </trkpt>
      <trkpt lat="46.25154" lon="6.32784">
        <ele>528.59997558594</ele>
        <time>2021-03-29T11:19:55.000Z</time>
      </trkpt>
      <trkpt lat="46.25136" lon="6.32782">
        <ele>528.40002441406</ele>
        <time>2021-03-29T11:19:58.000Z</time>
      </trkpt>
      <trkpt lat="46.25114" lon="6.32776">
        <ele>528.40002441406</ele>
        <time>2021-03-29T11:20:02.000Z</time>
      </trkpt>
      <trkpt lat="46.25108" lon="6.32773">
        <ele>528.59997558594</ele>
        <time>2021-03-29T11:20:03.000Z</time>
      </trkpt>
      <trkpt lat="46.25075" lon="6.3276">
        <ele>529</ele>
        <time>2021-03-29T11:20:09.000Z</time>
      </trkpt>
      <trkpt lat="46.25044" lon="6.32738">
        <ele>529</ele>
        <time>2021-03-29T11:20:15.000Z</time>
      </trkpt>
      <trkpt lat="46.25008" lon="6.32711">
        <ele>528</ele>
        <time>2021-03-29T11:20:22.000Z</time>
      </trkpt>
      <trkpt lat="46.25003" lon="6.32708">
        <ele>527.79998779297</ele>
        <time>2021-03-29T11:20:23.000Z</time>
      </trkpt>
      <trkpt lat="46.24998" lon="6.32704">
        <ele>527.59997558594</ele>
        <time>2021-03-29T11:20:24.000Z</time>
      </trkpt>
      <trkpt lat="46.24992" lon="6.32689">
        <ele>527.79998779297</ele>
        <time>2021-03-29T11:20:26.000Z</time>
      </trkpt>
      <trkpt lat="46.24988" lon="6.32681">
        <ele>528</ele>
        <time>2021-03-29T11:20:27.000Z</time>
      </trkpt>
      <trkpt lat="46.24975" lon="6.32649">
        <ele>528.59997558594</ele>
        <time>2021-03-29T11:20:31.000Z</time>
      </trkpt>
      <trkpt lat="46.24973" lon="6.32638">
        <ele>528.59997558594</ele>
        <time>2021-03-29T11:20:32.000Z</time>
      </trkpt>
      <trkpt lat="46.24973" lon="6.32628">
        <ele>528.40002441406</ele>
        <time>2021-03-29T11:20:33.000Z</time>
      </trkpt>
      <trkpt lat="46.24972" lon="6.326">
        <ele>528.40002441406</ele>
        <time>2021-03-29T11:20:36.000Z</time>
      </trkpt>
      <trkpt lat="46.24976" lon="6.32582">
        <ele>528.59997558594</ele>
        <time>2021-03-29T11:20:38.000Z</time>
      </trkpt>
      <trkpt lat="46.24979" lon="6.32566">
        <ele>529</ele>
        <time>2021-03-29T11:20:40.000Z</time>
      </trkpt>
      <trkpt lat="46.24985" lon="6.32539">
        <ele>530.20001220703</ele>
        <time>2021-03-29T11:20:44.000Z</time>
      </trkpt>
      <trkpt lat="46.24986" lon="6.32533">
        <ele>530.40002441406</ele>
        <time>2021-03-29T11:20:45.000Z</time>
      </trkpt>
      <trkpt lat="46.24987" lon="6.32528">
        <ele>530.59997558594</ele>
        <time>2021-03-29T11:20:46.000Z</time>
      </trkpt>
      <trkpt lat="46.2499" lon="6.32517">
        <ele>531.20001220703</ele>
        <time>2021-03-29T11:20:48.000Z</time>
      </trkpt>
      <trkpt lat="46.24991" lon="6.32511">
        <ele>531.40002441406</ele>
        <time>2021-03-29T11:20:49.000Z</time>
      </trkpt>
      <trkpt lat="46.2499" lon="6.32483">
        <ele>531.79998779297</ele>
        <time>2021-03-29T11:20:55.000Z</time>
      </trkpt>
      <trkpt lat="46.24985" lon="6.32443">
        <ele>533.40002441406</ele>
        <time>2021-03-29T11:21:02.000Z</time>
      </trkpt>
      <trkpt lat="46.24973" lon="6.32405">
        <ele>534</ele>
        <time>2021-03-29T11:21:08.000Z</time>
      </trkpt>
      <trkpt lat="46.24971" lon="6.32398">
        <ele>534.20001220703</ele>
        <time>2021-03-29T11:21:09.000Z</time>
      </trkpt>
      <trkpt lat="46.24959" lon="6.32364">
        <ele>533.40002441406</ele>
        <time>2021-03-29T11:21:14.000Z</time>
      </trkpt>
      <trkpt lat="46.24941" lon="6.32312">
        <ele>531.79998779297</ele>
        <time>2021-03-29T11:21:21.000Z</time>
      </trkpt>
      <trkpt lat="46.24926" lon="6.32269">
        <ele>531.20001220703</ele>
        <time>2021-03-29T11:21:26.000Z</time>
      </trkpt>
      <trkpt lat="46.24925" lon="6.32259">
        <ele>531</ele>
        <time>2021-03-29T11:21:27.000Z</time>
      </trkpt>
      <trkpt lat="46.24924" lon="6.32248">
        <ele>530.59997558594</ele>
        <time>2021-03-29T11:21:28.000Z</time>
      </trkpt>
      <trkpt lat="46.24921" lon="6.32215">
        <ele>529.79998779297</ele>
        <time>2021-03-29T11:21:31.000Z</time>
      </trkpt>
      <trkpt lat="46.24919" lon="6.32145">
        <ele>529.40002441406</ele>
        <time>2021-03-29T11:21:38.000Z</time>
      </trkpt>
      <trkpt lat="46.24917" lon="6.32094">
        <ele>530</ele>
        <time>2021-03-29T11:21:44.000Z</time>
      </trkpt>
      <trkpt lat="46.24912" lon="6.32053">
        <ele>530.20001220703</ele>
        <time>2021-03-29T11:21:49.000Z</time>
      </trkpt>
      <trkpt lat="46.2491" lon="6.32045">
        <ele>530.20001220703</ele>
        <time>2021-03-29T11:21:50.000Z</time>
      </trkpt>
      <trkpt lat="46.2489" lon="6.31974">
        <ele>530.40002441406</ele>
        <time>2021-03-29T11:21:59.000Z</time>
      </trkpt>
      <trkpt lat="46.24869" lon="6.319">
        <ele>528</ele>
        <time>2021-03-29T11:22:08.000Z</time>
      </trkpt>
      <trkpt lat="46.24867" lon="6.31892">
        <ele>528</ele>
        <time>2021-03-29T11:22:09.000Z</time>
      </trkpt>
      <trkpt lat="46.24844" lon="6.31816">
        <ele>527.59997558594</ele>
        <time>2021-03-29T11:22:18.000Z</time>
      </trkpt>
      <trkpt lat="46.24825" lon="6.31762">
        <ele>527.20001220703</ele>
        <time>2021-03-29T11:22:25.000Z</time>
      </trkpt>
      <trkpt lat="46.24821" lon="6.3175">
        <ele>527.20001220703</ele>
        <time>2021-03-29T11:22:28.000Z</time>
      </trkpt>
      <trkpt lat="46.24819" lon="6.31744">
        <ele>527.20001220703</ele>
        <time>2021-03-29T11:22:30.000Z</time>
      </trkpt>
      <trkpt lat="46.24816" lon="6.31736">
        <ele>527.20001220703</ele>
        <time>2021-03-29T11:22:32.000Z</time>
      </trkpt>
      <trkpt lat="46.24814" lon="6.3173">
        <ele>527</ele>
        <time>2021-03-29T11:22:33.000Z</time>
      </trkpt>
      <trkpt lat="46.24809" lon="6.31717">
        <ele>526.40002441406</ele>
        <time>2021-03-29T11:22:35.000Z</time>
      </trkpt>
      <trkpt lat="46.24807" lon="6.31711">
        <ele>526</ele>
        <time>2021-03-29T11:22:36.000Z</time>
      </trkpt>
      <trkpt lat="46.24792" lon="6.31669">
        <ele>523.79998779297</ele>
        <time>2021-03-29T11:22:41.000Z</time>
      </trkpt>
      <trkpt lat="46.24775" lon="6.31621">
        <ele>522.20001220703</ele>
        <time>2021-03-29T11:22:46.000Z</time>
      </trkpt>
      <trkpt lat="46.24746" lon="6.31546">
        <ele>520</ele>
        <time>2021-03-29T11:22:53.000Z</time>
      </trkpt>
      <trkpt lat="46.24719" lon="6.31501">
        <ele>519.40002441406</ele>
        <time>2021-03-29T11:22:58.000Z</time>
      </trkpt>
      <trkpt lat="46.24684" lon="6.31445">
        <ele>518</ele>
        <time>2021-03-29T11:23:05.000Z</time>
      </trkpt>
      <trkpt lat="46.24656" lon="6.31401">
        <ele>516.59997558594</ele>
        <time>2021-03-29T11:23:11.000Z</time>
      </trkpt>
      <trkpt lat="46.24618" lon="6.3134">
        <ele>516.40002441406</ele>
        <time>2021-03-29T11:23:19.000Z</time>
      </trkpt>
      <trkpt lat="46.24613" lon="6.31332">
        <ele>516.40002441406</ele>
        <time>2021-03-29T11:23:20.000Z</time>
      </trkpt>
      <trkpt lat="46.24581" lon="6.31293">
        <ele>516.59997558594</ele>
        <time>2021-03-29T11:23:26.000Z</time>
      </trkpt>
      <trkpt lat="46.24542" lon="6.31264">
        <ele>516.40002441406</ele>
        <time>2021-03-29T11:23:32.000Z</time>
      </trkpt>
      <trkpt lat="46.2453" lon="6.31255">
        <ele>516.20001220703</ele>
        <time>2021-03-29T11:23:34.000Z</time>
      </trkpt>
      <trkpt lat="46.24517" lon="6.31245">
        <ele>516.20001220703</ele>
        <time>2021-03-29T11:23:36.000Z</time>
      </trkpt>
      <trkpt lat="46.24507" lon="6.31233">
        <ele>516.20001220703</ele>
        <time>2021-03-29T11:23:38.000Z</time>
      </trkpt>
      <trkpt lat="46.24502" lon="6.31225">
        <ele>516.20001220703</ele>
        <time>2021-03-29T11:23:39.000Z</time>
      </trkpt>
      <trkpt lat="46.24471" lon="6.31175">
        <ele>515.59997558594</ele>
        <time>2021-03-29T11:23:45.000Z</time>
      </trkpt>
      <trkpt lat="46.24446" lon="6.31135">
        <ele>515.40002441406</ele>
        <time>2021-03-29T11:23:50.000Z</time>
      </trkpt>
      <trkpt lat="46.24422" lon="6.31096">
        <ele>514.79998779297</ele>
        <time>2021-03-29T11:23:55.000Z</time>
      </trkpt>
      <trkpt lat="46.24389" lon="6.31039">
        <ele>513.59997558594</ele>
        <time>2021-03-29T11:24:02.000Z</time>
      </trkpt>
      <trkpt lat="46.24383" lon="6.31033">
        <ele>513.40002441406</ele>
        <time>2021-03-29T11:24:03.000Z</time>
      </trkpt>
      <trkpt lat="46.2436" lon="6.3101">
        <ele>513.20001220703</ele>
        <time>2021-03-29T11:24:07.000Z</time>
      </trkpt>
      <trkpt lat="46.24325" lon="6.30983">
        <ele>513</ele>
        <time>2021-03-29T11:24:13.000Z</time>
      </trkpt>
      <trkpt lat="46.2428" lon="6.30954">
        <ele>514</ele>
        <time>2021-03-29T11:24:21.000Z</time>
      </trkpt>
      <trkpt lat="46.24271" lon="6.30946">
        <ele>514.40002441406</ele>
        <time>2021-03-29T11:24:23.000Z</time>
      </trkpt>
      <trkpt lat="46.24263" lon="6.30939">
        <ele>514.59997558594</ele>
        <time>2021-03-29T11:24:25.000Z</time>
      </trkpt>
      <trkpt lat="46.2423" lon="6.30909">
        <ele>515.79998779297</ele>
        <time>2021-03-29T11:24:33.000Z</time>
      </trkpt>
      <trkpt lat="46.24191" lon="6.30878">
        <ele>516.20001220703</ele>
        <time>2021-03-29T11:24:42.000Z</time>
      </trkpt>
      <trkpt lat="46.24187" lon="6.30875">
        <ele>516.20001220703</ele>
        <time>2021-03-29T11:24:43.000Z</time>
      </trkpt>
      <trkpt lat="46.24177" lon="6.30866">
        <ele>516.20001220703</ele>
        <time>2021-03-29T11:24:46.000Z</time>
      </trkpt>
      <trkpt lat="46.24166" lon="6.30851">
        <ele>516.20001220703</ele>
        <time>2021-03-29T11:24:51.000Z</time>
      </trkpt>
      <trkpt lat="46.24165" lon="6.3085">
        <ele>516.20001220703</ele>
        <time>2021-03-29T11:24:52.000Z</time>
      </trkpt>
      <trkpt lat="46.24163" lon="6.30847">
        <ele>516.20001220703</ele>
        <time>2021-03-29T11:25:02.000Z</time>
      </trkpt>
      <trkpt lat="46.24163" lon="6.30847">
        <ele>516.20001220703</ele>
        <time>2021-03-29T11:25:04.000Z</time>
      </trkpt>
      <trkpt lat="46.24157" lon="6.30839">
        <ele>516.20001220703</ele>
        <time>2021-03-29T11:28:15.000Z</time>
      </trkpt>
      <trkpt lat="46.24154" lon="6.30835">
        <ele>516.20001220703</ele>
        <time>2021-03-29T11:28:17.000Z</time>
      </trkpt>
      <trkpt lat="46.24144" lon="6.3082">
        <ele>516.20001220703</ele>
        <time>2021-03-29T11:28:22.000Z</time>
      </trkpt>
      <trkpt lat="46.24141" lon="6.30816">
        <ele>516.20001220703</ele>
        <time>2021-03-29T11:28:23.000Z</time>
      </trkpt>
      <trkpt lat="46.2414" lon="6.30804">
        <ele>515.79998779297</ele>
        <time>2021-03-29T11:28:25.000Z</time>
      </trkpt>
      <trkpt lat="46.24142" lon="6.3079">
        <ele>515.20001220703</ele>
        <time>2021-03-29T11:28:27.000Z</time>
      </trkpt>
      <trkpt lat="46.24147" lon="6.30775">
        <ele>514.59997558594</ele>
        <time>2021-03-29T11:28:29.000Z</time>
      </trkpt>
      <trkpt lat="46.24169" lon="6.30718">
        <ele>512.79998779297</ele>
        <time>2021-03-29T11:28:36.000Z</time>
      </trkpt>
      <trkpt lat="46.2419" lon="6.3066">
        <ele>512.20001220703</ele>
        <time>2021-03-29T11:28:43.000Z</time>
      </trkpt>
      <trkpt lat="46.24206" lon="6.30601">
        <ele>511.39999389648</ele>
        <time>2021-03-29T11:28:50.000Z</time>
      </trkpt>
      <trkpt lat="46.24219" lon="6.30525">
        <ele>510.39999389648</ele>
        <time>2021-03-29T11:28:58.000Z</time>
      </trkpt>
      <trkpt lat="46.2423" lon="6.30447">
        <ele>508.60000610352</ele>
        <time>2021-03-29T11:29:06.000Z</time>
      </trkpt>
      <trkpt lat="46.24237" lon="6.3036">
        <ele>507.39999389648</ele>
        <time>2021-03-29T11:29:14.000Z</time>
      </trkpt>
      <trkpt lat="46.24243" lon="6.30275">
        <ele>505.39999389648</ele>
        <time>2021-03-29T11:29:21.000Z</time>
      </trkpt>
      <trkpt lat="46.24245" lon="6.3025">
        <ele>504.60000610352</ele>
        <time>2021-03-29T11:29:23.000Z</time>
      </trkpt>
      <trkpt lat="46.2425" lon="6.30185">
        <ele>503.39999389648</ele>
        <time>2021-03-29T11:29:28.000Z</time>
      </trkpt>
      <trkpt lat="46.2425" lon="6.30106">
        <ele>500.79998779297</ele>
        <time>2021-03-29T11:29:34.000Z</time>
      </trkpt>
      <trkpt lat="46.2425" lon="6.30026">
        <ele>499.79998779297</ele>
        <time>2021-03-29T11:29:40.000Z</time>
      </trkpt>
      <trkpt lat="46.2425" lon="6.29984">
        <ele>500.20001220703</ele>
        <time>2021-03-29T11:29:43.000Z</time>
      </trkpt>
      <trkpt lat="46.2425" lon="6.29902">
        <ele>502</ele>
        <time>2021-03-29T11:29:49.000Z</time>
      </trkpt>
      <trkpt lat="46.24248" lon="6.2986">
        <ele>501.20001220703</ele>
        <time>2021-03-29T11:29:52.000Z</time>
      </trkpt>
      <trkpt lat="46.24241" lon="6.29782">
        <ele>501</ele>
        <time>2021-03-29T11:29:58.000Z</time>
      </trkpt>
      <trkpt lat="46.24236" lon="6.29758">
        <ele>501</ele>
        <time>2021-03-29T11:30:00.000Z</time>
      </trkpt>
      <trkpt lat="46.24232" lon="6.29747">
        <ele>501</ele>
        <time>2021-03-29T11:30:01.000Z</time>
      </trkpt>
      <trkpt lat="46.24209" lon="6.29713">
        <ele>500</ele>
        <time>2021-03-29T11:30:05.000Z</time>
      </trkpt>
      <trkpt lat="46.2417" lon="6.29656">
        <ele>497.20001220703</ele>
        <time>2021-03-29T11:30:12.000Z</time>
      </trkpt>
      <trkpt lat="46.2413" lon="6.2959">
        <ele>499</ele>
        <time>2021-03-29T11:30:20.000Z</time>
      </trkpt>
      <trkpt lat="46.24103" lon="6.29538">
        <ele>500</ele>
        <time>2021-03-29T11:30:26.000Z</time>
      </trkpt>
      <trkpt lat="46.24083" lon="6.29479">
        <ele>499.79998779297</ele>
        <time>2021-03-29T11:30:32.000Z</time>
      </trkpt>
      <trkpt lat="46.24077" lon="6.29437">
        <ele>500.39999389648</ele>
        <time>2021-03-29T11:30:36.000Z</time>
      </trkpt>
      <trkpt lat="46.24075" lon="6.29428">
        <ele>500.39999389648</ele>
        <time>2021-03-29T11:30:37.000Z</time>
      </trkpt>
      <trkpt lat="46.24067" lon="6.2937">
        <ele>501</ele>
        <time>2021-03-29T11:30:43.000Z</time>
      </trkpt>
      <trkpt lat="46.24057" lon="6.29311">
        <ele>501.20001220703</ele>
        <time>2021-03-29T11:30:49.000Z</time>
      </trkpt>
      <trkpt lat="46.24048" lon="6.29273">
        <ele>501.20001220703</ele>
        <time>2021-03-29T11:30:53.000Z</time>
      </trkpt>
      <trkpt lat="46.24042" lon="6.29245">
        <ele>501.20001220703</ele>
        <time>2021-03-29T11:30:56.000Z</time>
      </trkpt>
      <trkpt lat="46.24024" lon="6.29169">
        <ele>500.39999389648</ele>
        <time>2021-03-29T11:31:04.000Z</time>
      </trkpt>
      <trkpt lat="46.24007" lon="6.29108">
        <ele>498.39999389648</ele>
        <time>2021-03-29T11:31:11.000Z</time>
      </trkpt>
      <trkpt lat="46.23983" lon="6.29053">
        <ele>497</ele>
        <time>2021-03-29T11:31:18.000Z</time>
      </trkpt>
      <trkpt lat="46.23961" lon="6.29005">
        <ele>497.20001220703</ele>
        <time>2021-03-29T11:31:24.000Z</time>
      </trkpt>
      <trkpt lat="46.23955" lon="6.28959">
        <ele>498.60000610352</ele>
        <time>2021-03-29T11:31:29.000Z</time>
      </trkpt>
      <trkpt lat="46.23954" lon="6.28951">
        <ele>499</ele>
        <time>2021-03-29T11:31:30.000Z</time>
      </trkpt>
      <trkpt lat="46.23954" lon="6.28904">
        <ele>499.60000610352</ele>
        <time>2021-03-29T11:31:35.000Z</time>
      </trkpt>
      <trkpt lat="46.23958" lon="6.28874">
        <ele>499.79998779297</ele>
        <time>2021-03-29T11:31:38.000Z</time>
      </trkpt>
      <trkpt lat="46.23962" lon="6.28844">
        <ele>500.39999389648</ele>
        <time>2021-03-29T11:31:41.000Z</time>
      </trkpt>
      <trkpt lat="46.2397" lon="6.28775">
        <ele>499.79998779297</ele>
        <time>2021-03-29T11:31:48.000Z</time>
      </trkpt>
      <trkpt lat="46.23975" lon="6.28729">
        <ele>498</ele>
        <time>2021-03-29T11:31:53.000Z</time>
      </trkpt>
      <trkpt lat="46.23981" lon="6.28673">
        <ele>497.39999389648</ele>
        <time>2021-03-29T11:31:59.000Z</time>
      </trkpt>
      <trkpt lat="46.2398" lon="6.28606">
        <ele>496</ele>
        <time>2021-03-29T11:32:06.000Z</time>
      </trkpt>
      <trkpt lat="46.23979" lon="6.2853">
        <ele>493</ele>
        <time>2021-03-29T11:32:14.000Z</time>
      </trkpt>
      <trkpt lat="46.23975" lon="6.28444">
        <ele>488.39999389648</ele>
        <time>2021-03-29T11:32:23.000Z</time>
      </trkpt>
      <trkpt lat="46.23962" lon="6.2839">
        <ele>486.39999389648</ele>
        <time>2021-03-29T11:32:29.000Z</time>
      </trkpt>
      <trkpt lat="46.2394" lon="6.28311">
        <ele>485.79998779297</ele>
        <time>2021-03-29T11:32:38.000Z</time>
      </trkpt>
      <trkpt lat="46.2392" lon="6.28238">
        <ele>485.79998779297</ele>
        <time>2021-03-29T11:32:46.000Z</time>
      </trkpt>
      <trkpt lat="46.23899" lon="6.28165">
        <ele>485.20001220703</ele>
        <time>2021-03-29T11:32:54.000Z</time>
      </trkpt>
      <trkpt lat="46.23894" lon="6.28146">
        <ele>485</ele>
        <time>2021-03-29T11:32:56.000Z</time>
      </trkpt>
      <trkpt lat="46.23872" lon="6.28069">
        <ele>484</ele>
        <time>2021-03-29T11:33:04.000Z</time>
      </trkpt>
      <trkpt lat="46.23866" lon="6.28049">
        <ele>483.79998779297</ele>
        <time>2021-03-29T11:33:06.000Z</time>
      </trkpt>
      <trkpt lat="46.23842" lon="6.27974">
        <ele>483</ele>
        <time>2021-03-29T11:33:14.000Z</time>
      </trkpt>
      <trkpt lat="46.23835" lon="6.27955">
        <ele>483.20001220703</ele>
        <time>2021-03-29T11:33:16.000Z</time>
      </trkpt>
      <trkpt lat="46.23813" lon="6.27889">
        <ele>484</ele>
        <time>2021-03-29T11:33:23.000Z</time>
      </trkpt>
      <trkpt lat="46.23795" lon="6.27829">
        <ele>483.79998779297</ele>
        <time>2021-03-29T11:33:29.000Z</time>
      </trkpt>
      <trkpt lat="46.23784" lon="6.27747">
        <ele>483.60000610352</ele>
        <time>2021-03-29T11:33:37.000Z</time>
      </trkpt>
      <trkpt lat="46.23773" lon="6.27668">
        <ele>481.79998779297</ele>
        <time>2021-03-29T11:33:45.000Z</time>
      </trkpt>
      <trkpt lat="46.23772" lon="6.27637">
        <ele>481</ele>
        <time>2021-03-29T11:33:48.000Z</time>
      </trkpt>
      <trkpt lat="46.23774" lon="6.27583">
        <ele>481.39999389648</ele>
        <time>2021-03-29T11:33:53.000Z</time>
      </trkpt>
      <trkpt lat="46.23786" lon="6.27506">
        <ele>481.39999389648</ele>
        <time>2021-03-29T11:34:00.000Z</time>
      </trkpt>
      <trkpt lat="46.23784" lon="6.27452">
        <ele>481.60000610352</ele>
        <time>2021-03-29T11:34:05.000Z</time>
      </trkpt>
      <trkpt lat="46.23773" lon="6.2739">
        <ele>481.20001220703</ele>
        <time>2021-03-29T11:34:11.000Z</time>
      </trkpt>
      <trkpt lat="46.23771" lon="6.27381">
        <ele>481</ele>
        <time>2021-03-29T11:34:12.000Z</time>
      </trkpt>
      <trkpt lat="46.23767" lon="6.27373">
        <ele>480.79998779297</ele>
        <time>2021-03-29T11:34:13.000Z</time>
      </trkpt>
      <trkpt lat="46.23753" lon="6.27362">
        <ele>480.79998779297</ele>
        <time>2021-03-29T11:34:15.000Z</time>
      </trkpt>
      <trkpt lat="46.23717" lon="6.27333">
        <ele>480.39999389648</ele>
        <time>2021-03-29T11:34:20.000Z</time>
      </trkpt>
      <trkpt lat="46.23696" lon="6.27313">
        <ele>479.20001220703</ele>
        <time>2021-03-29T11:34:23.000Z</time>
      </trkpt>
      <trkpt lat="46.2369" lon="6.27304">
        <ele>479</ele>
        <time>2021-03-29T11:34:24.000Z</time>
      </trkpt>
      <trkpt lat="46.23684" lon="6.27295">
        <ele>479</ele>
        <time>2021-03-29T11:34:25.000Z</time>
      </trkpt>
      <trkpt lat="46.23673" lon="6.27263">
        <ele>478.60000610352</ele>
        <time>2021-03-29T11:34:28.000Z</time>
      </trkpt>
      <trkpt lat="46.2366" lon="6.27212">
        <ele>478.20001220703</ele>
        <time>2021-03-29T11:34:33.000Z</time>
      </trkpt>
      <trkpt lat="46.23658" lon="6.27181">
        <ele>477.79998779297</ele>
        <time>2021-03-29T11:34:36.000Z</time>
      </trkpt>
      <trkpt lat="46.23658" lon="6.27161">
        <ele>477.39999389648</ele>
        <time>2021-03-29T11:34:38.000Z</time>
      </trkpt>
      <trkpt lat="46.23666" lon="6.27146">
        <ele>478.39999389648</ele>
        <time>2021-03-29T11:34:40.000Z</time>
      </trkpt>
      <trkpt lat="46.2367" lon="6.2714">
        <ele>478.60000610352</ele>
        <time>2021-03-29T11:34:41.000Z</time>
      </trkpt>
      <trkpt lat="46.23711" lon="6.27109">
        <ele>480.79998779297</ele>
        <time>2021-03-29T11:34:48.000Z</time>
      </trkpt>
      <trkpt lat="46.2374" lon="6.27087">
        <ele>481.20001220703</ele>
        <time>2021-03-29T11:34:54.000Z</time>
      </trkpt>
      <trkpt lat="46.23746" lon="6.27082">
        <ele>480.79998779297</ele>
        <time>2021-03-29T11:34:56.000Z</time>
      </trkpt>
      <trkpt lat="46.23745" lon="6.27078">
        <ele>480.79998779297</ele>
        <time>2021-03-29T11:34:57.000Z</time>
      </trkpt>
      <trkpt lat="46.23743" lon="6.27072">
        <ele>480.79998779297</ele>
        <time>2021-03-29T11:34:58.000Z</time>
      </trkpt>
      <trkpt lat="46.23738" lon="6.27057">
        <ele>480.39999389648</ele>
        <time>2021-03-29T11:35:00.000Z</time>
      </trkpt>
      <trkpt lat="46.23715" lon="6.27005">
        <ele>477.60000610352</ele>
        <time>2021-03-29T11:35:07.000Z</time>
      </trkpt>
      <trkpt lat="46.23683" lon="6.26936">
        <ele>475.39999389648</ele>
        <time>2021-03-29T11:35:16.000Z</time>
      </trkpt>
      <trkpt lat="46.2368" lon="6.26929">
        <ele>475.20001220703</ele>
        <time>2021-03-29T11:35:17.000Z</time>
      </trkpt>
      <trkpt lat="46.23666" lon="6.26897">
        <ele>473.79998779297</ele>
        <time>2021-03-29T11:35:21.000Z</time>
      </trkpt>
      <trkpt lat="46.23663" lon="6.26889">
        <ele>473.60000610352</ele>
        <time>2021-03-29T11:35:22.000Z</time>
      </trkpt>
      <trkpt lat="46.23642" lon="6.26841">
        <ele>472</ele>
        <time>2021-03-29T11:35:28.000Z</time>
      </trkpt>
      <trkpt lat="46.23615" lon="6.26783">
        <ele>471.79998779297</ele>
        <time>2021-03-29T11:35:36.000Z</time>
      </trkpt>
      <trkpt lat="46.23584" lon="6.26733">
        <ele>472.39999389648</ele>
        <time>2021-03-29T11:35:44.000Z</time>
      </trkpt>
      <trkpt lat="46.23568" lon="6.26707">
        <ele>473.39999389648</ele>
        <time>2021-03-29T11:35:48.000Z</time>
      </trkpt>
      <trkpt lat="46.2356" lon="6.26694">
        <ele>473.79998779297</ele>
        <time>2021-03-29T11:35:50.000Z</time>
      </trkpt>
      <trkpt lat="46.23541" lon="6.26652">
        <ele>474.20001220703</ele>
        <time>2021-03-29T11:35:56.000Z</time>
      </trkpt>
      <trkpt lat="46.23532" lon="6.26626">
        <ele>474.20001220703</ele>
        <time>2021-03-29T11:36:00.000Z</time>
      </trkpt>
      <trkpt lat="46.23517" lon="6.26584">
        <ele>474</ele>
        <time>2021-03-29T11:36:06.000Z</time>
      </trkpt>
      <trkpt lat="46.23514" lon="6.26576">
        <ele>473.79998779297</ele>
        <time>2021-03-29T11:36:07.000Z</time>
      </trkpt>
      <trkpt lat="46.23506" lon="6.26563">
        <ele>473.60000610352</ele>
        <time>2021-03-29T11:36:09.000Z</time>
      </trkpt>
      <trkpt lat="46.235" lon="6.26557">
        <ele>473.39999389648</ele>
        <time>2021-03-29T11:36:10.000Z</time>
      </trkpt>
      <trkpt lat="46.23477" lon="6.26532">
        <ele>472.60000610352</ele>
        <time>2021-03-29T11:36:15.000Z</time>
      </trkpt>
      <trkpt lat="46.23467" lon="6.26527">
        <ele>472.20001220703</ele>
        <time>2021-03-29T11:36:17.000Z</time>
      </trkpt>
      <trkpt lat="46.23461" lon="6.26524">
        <ele>472</ele>
        <time>2021-03-29T11:36:18.000Z</time>
      </trkpt>
      <trkpt lat="46.23455" lon="6.26521">
        <ele>471.60000610352</ele>
        <time>2021-03-29T11:36:19.000Z</time>
      </trkpt>
      <trkpt lat="46.23431" lon="6.26509">
        <ele>470.60000610352</ele>
        <time>2021-03-29T11:36:23.000Z</time>
      </trkpt>
      <trkpt lat="46.23379" lon="6.26482">
        <ele>469.20001220703</ele>
        <time>2021-03-29T11:36:31.000Z</time>
      </trkpt>
      <trkpt lat="46.23372" lon="6.26478">
        <ele>469.20001220703</ele>
        <time>2021-03-29T11:36:32.000Z</time>
      </trkpt>
      <trkpt lat="46.23362" lon="6.26467">
        <ele>469.39999389648</ele>
        <time>2021-03-29T11:36:34.000Z</time>
      </trkpt>
      <trkpt lat="46.23353" lon="6.26453">
        <ele>469.60000610352</ele>
        <time>2021-03-29T11:36:36.000Z</time>
      </trkpt>
      <trkpt lat="46.23345" lon="6.26437">
        <ele>469.60000610352</ele>
        <time>2021-03-29T11:36:38.000Z</time>
      </trkpt>
      <trkpt lat="46.23342" lon="6.26419">
        <ele>469.60000610352</ele>
        <time>2021-03-29T11:36:40.000Z</time>
      </trkpt>
      <trkpt lat="46.23336" lon="6.26378">
        <ele>469.39999389648</ele>
        <time>2021-03-29T11:36:45.000Z</time>
      </trkpt>
      <trkpt lat="46.23331" lon="6.26366">
        <ele>469.39999389648</ele>
        <time>2021-03-29T11:36:47.000Z</time>
      </trkpt>
      <trkpt lat="46.23311" lon="6.26338">
        <ele>469.20001220703</ele>
        <time>2021-03-29T11:36:52.000Z</time>
      </trkpt>
      <trkpt lat="46.23278" lon="6.26303">
        <ele>468.79998779297</ele>
        <time>2021-03-29T11:36:59.000Z</time>
      </trkpt>
      <trkpt lat="46.23241" lon="6.26282">
        <ele>468.20001220703</ele>
        <time>2021-03-29T11:37:06.000Z</time>
      </trkpt>
      <trkpt lat="46.23229" lon="6.26269">
        <ele>468</ele>
        <time>2021-03-29T11:37:09.000Z</time>
      </trkpt>
      <trkpt lat="46.23226" lon="6.26266">
        <ele>468</ele>
        <time>2021-03-29T11:37:10.000Z</time>
      </trkpt>
      <trkpt lat="46.23227" lon="6.26256">
        <ele>467.60000610352</ele>
        <time>2021-03-29T11:37:11.000Z</time>
      </trkpt>
      <trkpt lat="46.23231" lon="6.26241">
        <ele>467.20001220703</ele>
        <time>2021-03-29T11:37:13.000Z</time>
      </trkpt>
      <trkpt lat="46.23242" lon="6.26197">
        <ele>464.79998779297</ele>
        <time>2021-03-29T11:37:18.000Z</time>
      </trkpt>
      <trkpt lat="46.23262" lon="6.26122">
        <ele>462.39999389648</ele>
        <time>2021-03-29T11:37:26.000Z</time>
      </trkpt>
      <trkpt lat="46.23282" lon="6.26044">
        <ele>462.60000610352</ele>
        <time>2021-03-29T11:37:35.000Z</time>
      </trkpt>
      <trkpt lat="46.23286" lon="6.26026">
        <ele>462.39999389648</ele>
        <time>2021-03-29T11:37:37.000Z</time>
      </trkpt>
      <trkpt lat="46.23305" lon="6.25951">
        <ele>460.60000610352</ele>
        <time>2021-03-29T11:37:46.000Z</time>
      </trkpt>
      <trkpt lat="46.23308" lon="6.25943">
        <ele>460.60000610352</ele>
        <time>2021-03-29T11:37:47.000Z</time>
      </trkpt>
      <trkpt lat="46.2332" lon="6.25894">
        <ele>460</ele>
        <time>2021-03-29T11:37:53.000Z</time>
      </trkpt>
      <trkpt lat="46.23319" lon="6.25882">
        <ele>460</ele>
        <time>2021-03-29T11:37:54.000Z</time>
      </trkpt>
      <trkpt lat="46.23315" lon="6.2588">
        <ele>460</ele>
        <time>2021-03-29T11:37:55.000Z</time>
      </trkpt>
      <trkpt lat="46.23305" lon="6.25875">
        <ele>460</ele>
        <time>2021-03-29T11:37:57.000Z</time>
      </trkpt>
      <trkpt lat="46.23269" lon="6.25855">
        <ele>460</ele>
        <time>2021-03-29T11:38:04.000Z</time>
      </trkpt>
      <trkpt lat="46.2323" lon="6.25834">
        <ele>460</ele>
        <time>2021-03-29T11:38:11.000Z</time>
      </trkpt>
      <trkpt lat="46.23177" lon="6.25806">
        <ele>461.20001220703</ele>
        <time>2021-03-29T11:38:21.000Z</time>
      </trkpt>
      <trkpt lat="46.23131" lon="6.25781">
        <ele>462.20001220703</ele>
        <time>2021-03-29T11:38:30.000Z</time>
      </trkpt>
      <trkpt lat="46.23079" lon="6.25754">
        <ele>463.79998779297</ele>
        <time>2021-03-29T11:38:40.000Z</time>
      </trkpt>
      <trkpt lat="46.23046" lon="6.25736">
        <ele>465</ele>
        <time>2021-03-29T11:38:47.000Z</time>
      </trkpt>
      <trkpt lat="46.2304" lon="6.25733">
        <ele>465.20001220703</ele>
        <time>2021-03-29T11:38:49.000Z</time>
      </trkpt>
      <trkpt lat="46.23038" lon="6.25727">
        <ele>465.20001220703</ele>
        <time>2021-03-29T11:38:50.000Z</time>
      </trkpt>
      <trkpt lat="46.23038" lon="6.25723">
        <ele>465</ele>
        <time>2021-03-29T11:38:51.000Z</time>
      </trkpt>
      <trkpt lat="46.2304" lon="6.25711">
        <ele>464.60000610352</ele>
        <time>2021-03-29T11:38:53.000Z</time>
      </trkpt>
      <trkpt lat="46.2304" lon="6.25704">
        <ele>464.39999389648</ele>
        <time>2021-03-29T11:38:54.000Z</time>
      </trkpt>
      <trkpt lat="46.23045" lon="6.25661">
        <ele>462.60000610352</ele>
        <time>2021-03-29T11:38:59.000Z</time>
      </trkpt>
      <trkpt lat="46.23055" lon="6.25602">
        <ele>459.39999389648</ele>
        <time>2021-03-29T11:39:05.000Z</time>
      </trkpt>
      <trkpt lat="46.23057" lon="6.25594">
        <ele>458.79998779297</ele>
        <time>2021-03-29T11:39:06.000Z</time>
      </trkpt>
      <trkpt lat="46.2306" lon="6.25586">
        <ele>458.20001220703</ele>
        <time>2021-03-29T11:39:07.000Z</time>
      </trkpt>
      <trkpt lat="46.23061" lon="6.25566">
        <ele>457.20001220703</ele>
        <time>2021-03-29T11:39:09.000Z</time>
      </trkpt>
      <trkpt lat="46.23053" lon="6.25562">
        <ele>457.60000610352</ele>
        <time>2021-03-29T11:39:11.000Z</time>
      </trkpt>
      <trkpt lat="46.23049" lon="6.25559">
        <ele>457.79998779297</ele>
        <time>2021-03-29T11:39:12.000Z</time>
      </trkpt>
      <trkpt lat="46.23011" lon="6.25538">
        <ele>459.20001220703</ele>
        <time>2021-03-29T11:39:20.000Z</time>
      </trkpt>
      <trkpt lat="46.22968" lon="6.25513">
        <ele>460</ele>
        <time>2021-03-29T11:39:28.000Z</time>
      </trkpt>
      <trkpt lat="46.22918" lon="6.25479">
        <ele>458.20001220703</ele>
        <time>2021-03-29T11:39:37.000Z</time>
      </trkpt>
      <trkpt lat="46.22866" lon="6.25438">
        <ele>457.60000610352</ele>
        <time>2021-03-29T11:39:47.000Z</time>
      </trkpt>
      <trkpt lat="46.22861" lon="6.25434">
        <ele>457.39999389648</ele>
        <time>2021-03-29T11:39:48.000Z</time>
      </trkpt>
      <trkpt lat="46.22826" lon="6.25405">
        <ele>457.20001220703</ele>
        <time>2021-03-29T11:39:55.000Z</time>
      </trkpt>
      <trkpt lat="46.22813" lon="6.25394">
        <ele>457</ele>
        <time>2021-03-29T11:39:58.000Z</time>
      </trkpt>
      <trkpt lat="46.22805" lon="6.25384">
        <ele>456.60000610352</ele>
        <time>2021-03-29T11:40:00.000Z</time>
      </trkpt>
      <trkpt lat="46.22776" lon="6.25346">
        <ele>455</ele>
        <time>2021-03-29T11:40:07.000Z</time>
      </trkpt>
      <trkpt lat="46.22754" lon="6.25317">
        <ele>453.79998779297</ele>
        <time>2021-03-29T11:40:12.000Z</time>
      </trkpt>
      <trkpt lat="46.22745" lon="6.25306">
        <ele>453.39999389648</ele>
        <time>2021-03-29T11:40:14.000Z</time>
      </trkpt>
      <trkpt lat="46.22733" lon="6.25278">
        <ele>452.60000610352</ele>
        <time>2021-03-29T11:40:18.000Z</time>
      </trkpt>
      <trkpt lat="46.22731" lon="6.2527">
        <ele>452.60000610352</ele>
        <time>2021-03-29T11:40:19.000Z</time>
      </trkpt>
      <trkpt lat="46.22721" lon="6.2524">
        <ele>452.20001220703</ele>
        <time>2021-03-29T11:40:23.000Z</time>
      </trkpt>
      <trkpt lat="46.22718" lon="6.2523">
        <ele>452.20001220703</ele>
        <time>2021-03-29T11:40:25.000Z</time>
      </trkpt>
      <trkpt lat="46.22707" lon="6.25239">
        <ele>452.39999389648</ele>
        <time>2021-03-29T11:40:27.000Z</time>
      </trkpt>
      <trkpt lat="46.22704" lon="6.25244">
        <ele>452.39999389648</ele>
        <time>2021-03-29T11:40:28.000Z</time>
      </trkpt>
      <trkpt lat="46.22695" lon="6.25263">
        <ele>452.79998779297</ele>
        <time>2021-03-29T11:40:31.000Z</time>
      </trkpt>
      <trkpt lat="46.22661" lon="6.25331">
        <ele>455</ele>
        <time>2021-03-29T11:40:41.000Z</time>
      </trkpt>
      <trkpt lat="46.22635" lon="6.25382">
        <ele>454.79998779297</ele>
        <time>2021-03-29T11:40:49.000Z</time>
      </trkpt>
      <trkpt lat="46.22608" lon="6.25437">
        <ele>456.79998779297</ele>
        <time>2021-03-29T11:40:58.000Z</time>
      </trkpt>
      <trkpt lat="46.22593" lon="6.25469">
        <ele>458</ele>
        <time>2021-03-29T11:41:03.000Z</time>
      </trkpt>
      <trkpt lat="46.2259" lon="6.25476">
        <ele>458.20001220703</ele>
        <time>2021-03-29T11:41:04.000Z</time>
      </trkpt>
      <trkpt lat="46.22587" lon="6.25486">
        <ele>458.60000610352</ele>
        <time>2021-03-29T11:41:05.000Z</time>
      </trkpt>
      <trkpt lat="46.22589" lon="6.2551">
        <ele>459.39999389648</ele>
        <time>2021-03-29T11:41:08.000Z</time>
      </trkpt>
      <trkpt lat="46.2259" lon="6.25519">
        <ele>459.39999389648</ele>
        <time>2021-03-29T11:41:09.000Z</time>
      </trkpt>
      <trkpt lat="46.22594" lon="6.25552">
        <ele>459.79998779297</ele>
        <time>2021-03-29T11:41:13.000Z</time>
      </trkpt>
      <trkpt lat="46.22594" lon="6.2556">
        <ele>460</ele>
        <time>2021-03-29T11:41:14.000Z</time>
      </trkpt>
      <trkpt lat="46.22595" lon="6.25593">
        <ele>460.39999389648</ele>
        <time>2021-03-29T11:41:18.000Z</time>
      </trkpt>
      <trkpt lat="46.22595" lon="6.2561">
        <ele>460.20001220703</ele>
        <time>2021-03-29T11:41:20.000Z</time>
      </trkpt>
      <trkpt lat="46.22595" lon="6.25626">
        <ele>460</ele>
        <time>2021-03-29T11:41:22.000Z</time>
      </trkpt>
      <trkpt lat="46.22593" lon="6.25704">
        <ele>460.39999389648</ele>
        <time>2021-03-29T11:41:32.000Z</time>
      </trkpt>
      <trkpt lat="46.22592" lon="6.25776">
        <ele>462.39999389648</ele>
        <time>2021-03-29T11:41:41.000Z</time>
      </trkpt>
      <trkpt lat="46.22591" lon="6.25852">
        <ele>464.20001220703</ele>
        <time>2021-03-29T11:41:51.000Z</time>
      </trkpt>
      <trkpt lat="46.2259" lon="6.25903">
        <ele>464.60000610352</ele>
        <time>2021-03-29T11:41:58.000Z</time>
      </trkpt>
      <trkpt lat="46.22591" lon="6.25949">
        <ele>465</ele>
        <time>2021-03-29T11:42:05.000Z</time>
      </trkpt>
      <trkpt lat="46.22592" lon="6.26008">
        <ele>465.79998779297</ele>
        <time>2021-03-29T11:42:13.000Z</time>
      </trkpt>
      <trkpt lat="46.22594" lon="6.26077">
        <ele>467.79998779297</ele>
        <time>2021-03-29T11:42:22.000Z</time>
      </trkpt>
      <trkpt lat="46.22596" lon="6.26147">
        <ele>467.39999389648</ele>
        <time>2021-03-29T11:42:31.000Z</time>
      </trkpt>
      <trkpt lat="46.22599" lon="6.26217">
        <ele>467.79998779297</ele>
        <time>2021-03-29T11:42:40.000Z</time>
      </trkpt>
      <trkpt lat="46.22607" lon="6.26297">
        <ele>468.20001220703</ele>
        <time>2021-03-29T11:42:50.000Z</time>
      </trkpt>
      <trkpt lat="46.22615" lon="6.26379">
        <ele>468.60000610352</ele>
        <time>2021-03-29T11:43:00.000Z</time>
      </trkpt>
      <trkpt lat="46.22616" lon="6.26387">
        <ele>468.60000610352</ele>
        <time>2021-03-29T11:43:01.000Z</time>
      </trkpt>
      <trkpt lat="46.22622" lon="6.26443">
        <ele>469.60000610352</ele>
        <time>2021-03-29T11:43:08.000Z</time>
      </trkpt>
      <trkpt lat="46.22626" lon="6.26487">
        <ele>470.60000610352</ele>
        <time>2021-03-29T11:43:14.000Z</time>
      </trkpt>
      <trkpt lat="46.22625" lon="6.26493">
        <ele>470.79998779297</ele>
        <time>2021-03-29T11:43:15.000Z</time>
      </trkpt>
      <trkpt lat="46.22621" lon="6.26494">
        <ele>471</ele>
        <time>2021-03-29T11:43:16.000Z</time>
      </trkpt>
      <trkpt lat="46.22611" lon="6.26496">
        <ele>471.20001220703</ele>
        <time>2021-03-29T11:43:18.000Z</time>
      </trkpt>
      <trkpt lat="46.22574" lon="6.26507">
        <ele>472</ele>
        <time>2021-03-29T11:43:25.000Z</time>
      </trkpt>
      <trkpt lat="46.22519" lon="6.26522">
        <ele>471.60000610352</ele>
        <time>2021-03-29T11:43:34.000Z</time>
      </trkpt>
      <trkpt lat="46.22514" lon="6.26524">
        <ele>471.60000610352</ele>
        <time>2021-03-29T11:43:35.000Z</time>
      </trkpt>
      <trkpt lat="46.22474" lon="6.26535">
        <ele>471.79998779297</ele>
        <time>2021-03-29T11:43:42.000Z</time>
      </trkpt>
      <trkpt lat="46.22451" lon="6.26542">
        <ele>472</ele>
        <time>2021-03-29T11:43:46.000Z</time>
      </trkpt>
      <trkpt lat="46.22445" lon="6.26541">
        <ele>472</ele>
        <time>2021-03-29T11:43:47.000Z</time>
      </trkpt>
      <trkpt lat="46.22439" lon="6.2654">
        <ele>472</ele>
        <time>2021-03-29T11:43:48.000Z</time>
      </trkpt>
      <trkpt lat="46.22431" lon="6.26531">
        <ele>472</ele>
        <time>2021-03-29T11:43:50.000Z</time>
      </trkpt>
      <trkpt lat="46.22421" lon="6.26512">
        <ele>472</ele>
        <time>2021-03-29T11:43:53.000Z</time>
      </trkpt>
      <trkpt lat="46.22418" lon="6.26506">
        <ele>472</ele>
        <time>2021-03-29T11:43:54.000Z</time>
      </trkpt>
      <trkpt lat="46.22415" lon="6.26499">
        <ele>472</ele>
        <time>2021-03-29T11:43:55.000Z</time>
      </trkpt>
      <trkpt lat="46.22406" lon="6.26488">
        <ele>472</ele>
        <time>2021-03-29T11:43:57.000Z</time>
      </trkpt>
      <trkpt lat="46.22401" lon="6.26484">
        <ele>472</ele>
        <time>2021-03-29T11:43:58.000Z</time>
      </trkpt>
      <trkpt lat="46.22397" lon="6.26479">
        <ele>472</ele>
        <time>2021-03-29T11:43:59.000Z</time>
      </trkpt>
      <trkpt lat="46.22386" lon="6.26467">
        <ele>471.79998779297</ele>
        <time>2021-03-29T11:44:01.000Z</time>
      </trkpt>
      <trkpt lat="46.22387" lon="6.26462">
        <ele>471.60000610352</ele>
        <time>2021-03-29T11:44:02.000Z</time>
      </trkpt>
      <trkpt lat="46.22388" lon="6.26458">
        <ele>471.60000610352</ele>
        <time>2021-03-29T11:44:03.000Z</time>
      </trkpt>
      <trkpt lat="46.22391" lon="6.2644">
        <ele>471.39999389648</ele>
        <time>2021-03-29T11:44:06.000Z</time>
      </trkpt>
      <trkpt lat="46.22393" lon="6.26432">
        <ele>471.39999389648</ele>
        <time>2021-03-29T11:44:07.000Z</time>
      </trkpt>
      <trkpt lat="46.22397" lon="6.26409">
        <ele>471.20001220703</ele>
        <time>2021-03-29T11:44:10.000Z</time>
      </trkpt>
      <trkpt lat="46.22398" lon="6.26402">
        <ele>471</ele>
        <time>2021-03-29T11:44:11.000Z</time>
      </trkpt>
      <trkpt lat="46.22397" lon="6.26392">
        <ele>471</ele>
        <time>2021-03-29T11:44:13.000Z</time>
      </trkpt>
      <trkpt lat="46.22396" lon="6.26388">
        <ele>470.79998779297</ele>
        <time>2021-03-29T11:44:14.000Z</time>
      </trkpt>
      <trkpt lat="46.22386" lon="6.26356">
        <ele>470.39999389648</ele>
        <time>2021-03-29T11:44:20.000Z</time>
      </trkpt>
      <trkpt lat="46.22379" lon="6.26334">
        <ele>470</ele>
        <time>2021-03-29T11:44:24.000Z</time>
      </trkpt>
      <trkpt lat="46.22376" lon="6.26322">
        <ele>469.79998779297</ele>
        <time>2021-03-29T11:44:26.000Z</time>
      </trkpt>
      <trkpt lat="46.22374" lon="6.26316">
        <ele>469.79998779297</ele>
        <time>2021-03-29T11:44:27.000Z</time>
      </trkpt>
      <trkpt lat="46.22373" lon="6.26286">
        <ele>470</ele>
        <time>2021-03-29T11:44:31.000Z</time>
      </trkpt>
      <trkpt lat="46.22373" lon="6.26277">
        <ele>470</ele>
        <time>2021-03-29T11:44:32.000Z</time>
      </trkpt>
      <trkpt lat="46.22373" lon="6.26238">
        <ele>470</ele>
        <time>2021-03-29T11:44:36.000Z</time>
      </trkpt>
      <trkpt lat="46.22373" lon="6.26232">
        <ele>470</ele>
        <time>2021-03-29T11:44:37.000Z</time>
      </trkpt>
      <trkpt lat="46.22373" lon="6.26228">
        <ele>470</ele>
        <time>2021-03-29T11:44:38.000Z</time>
      </trkpt>
      <trkpt lat="46.2237" lon="6.26214">
        <ele>469.79998779297</ele>
        <time>2021-03-29T11:44:40.000Z</time>
      </trkpt>
      <trkpt lat="46.22367" lon="6.26205">
        <ele>469.79998779297</ele>
        <time>2021-03-29T11:44:41.000Z</time>
      </trkpt>
      <trkpt lat="46.22358" lon="6.26177">
        <ele>469</ele>
        <time>2021-03-29T11:44:44.000Z</time>
      </trkpt>
      <trkpt lat="46.22344" lon="6.26134">
        <ele>468.20001220703</ele>
        <time>2021-03-29T11:44:49.000Z</time>
      </trkpt>
      <trkpt lat="46.22326" lon="6.26081">
        <ele>467.79998779297</ele>
        <time>2021-03-29T11:44:55.000Z</time>
      </trkpt>
      <trkpt lat="46.22323" lon="6.26073">
        <ele>467.79998779297</ele>
        <time>2021-03-29T11:44:56.000Z</time>
      </trkpt>
      <trkpt lat="46.22324" lon="6.26055">
        <ele>467.60000610352</ele>
        <time>2021-03-29T11:44:58.000Z</time>
      </trkpt>
      <trkpt lat="46.22331" lon="6.26023">
        <ele>466.60000610352</ele>
        <time>2021-03-29T11:45:02.000Z</time>
      </trkpt>
      <trkpt lat="46.22334" lon="6.26006">
        <ele>466</ele>
        <time>2021-03-29T11:45:04.000Z</time>
      </trkpt>
      <trkpt lat="46.22333" lon="6.25986">
        <ele>466.20001220703</ele>
        <time>2021-03-29T11:45:06.000Z</time>
      </trkpt>
      <trkpt lat="46.22332" lon="6.25966">
        <ele>466.20001220703</ele>
        <time>2021-03-29T11:45:08.000Z</time>
      </trkpt>
      <trkpt lat="46.22324" lon="6.2594">
        <ele>466.20001220703</ele>
        <time>2021-03-29T11:45:11.000Z</time>
      </trkpt>
      <trkpt lat="46.22313" lon="6.25914">
        <ele>466</ele>
        <time>2021-03-29T11:45:14.000Z</time>
      </trkpt>
      <trkpt lat="46.22306" lon="6.25896">
        <ele>466</ele>
        <time>2021-03-29T11:45:16.000Z</time>
      </trkpt>
      <trkpt lat="46.22281" lon="6.25837">
        <ele>465.60000610352</ele>
        <time>2021-03-29T11:45:23.000Z</time>
      </trkpt>
      <trkpt lat="46.2225" lon="6.2577">
        <ele>464.79998779297</ele>
        <time>2021-03-29T11:45:31.000Z</time>
      </trkpt>
      <trkpt lat="46.22246" lon="6.25763">
        <ele>464.60000610352</ele>
        <time>2021-03-29T11:45:32.000Z</time>
      </trkpt>
      <trkpt lat="46.22226" lon="6.25731">
        <ele>464</ele>
        <time>2021-03-29T11:45:37.000Z</time>
      </trkpt>
      <trkpt lat="46.22206" lon="6.25701">
        <ele>463.79998779297</ele>
        <time>2021-03-29T11:45:42.000Z</time>
      </trkpt>
      <trkpt lat="46.22169" lon="6.25652">
        <ele>463.39999389648</ele>
        <time>2021-03-29T11:45:50.000Z</time>
      </trkpt>
      <trkpt lat="46.22132" lon="6.25617">
        <ele>462.60000610352</ele>
        <time>2021-03-29T11:45:56.000Z</time>
      </trkpt>
      <trkpt lat="46.22125" lon="6.25616">
        <ele>462.60000610352</ele>
        <time>2021-03-29T11:45:57.000Z</time>
      </trkpt>
      <trkpt lat="46.22111" lon="6.25616">
        <ele>462.60000610352</ele>
        <time>2021-03-29T11:45:59.000Z</time>
      </trkpt>
      <trkpt lat="46.22087" lon="6.25617">
        <ele>462.20001220703</ele>
        <time>2021-03-29T11:46:03.000Z</time>
      </trkpt>
      <trkpt lat="46.22078" lon="6.25611">
        <ele>462</ele>
        <time>2021-03-29T11:46:05.000Z</time>
      </trkpt>
      <trkpt lat="46.22074" lon="6.25604">
        <ele>461.60000610352</ele>
        <time>2021-03-29T11:46:06.000Z</time>
      </trkpt>
      <trkpt lat="46.22062" lon="6.25583">
        <ele>460.79998779297</ele>
        <time>2021-03-29T11:46:09.000Z</time>
      </trkpt>
      <trkpt lat="46.22057" lon="6.25567">
        <ele>460.39999389648</ele>
        <time>2021-03-29T11:46:11.000Z</time>
      </trkpt>
      <trkpt lat="46.22056" lon="6.25559">
        <ele>460</ele>
        <time>2021-03-29T11:46:12.000Z</time>
      </trkpt>
      <trkpt lat="46.22052" lon="6.25542">
        <ele>459.39999389648</ele>
        <time>2021-03-29T11:46:14.000Z</time>
      </trkpt>
      <trkpt lat="46.22049" lon="6.25534">
        <ele>459.20001220703</ele>
        <time>2021-03-29T11:46:15.000Z</time>
      </trkpt>
      <trkpt lat="46.22043" lon="6.25528">
        <ele>459</ele>
        <time>2021-03-29T11:46:16.000Z</time>
      </trkpt>
      <trkpt lat="46.2203" lon="6.25522">
        <ele>459</ele>
        <time>2021-03-29T11:46:18.000Z</time>
      </trkpt>
      <trkpt lat="46.21981" lon="6.2552">
        <ele>460.39999389648</ele>
        <time>2021-03-29T11:46:25.000Z</time>
      </trkpt>
      <trkpt lat="46.21969" lon="6.2552">
        <ele>460.79998779297</ele>
        <time>2021-03-29T11:46:27.000Z</time>
      </trkpt>
      <trkpt lat="46.21955" lon="6.25517">
        <ele>461.20001220703</ele>
        <time>2021-03-29T11:46:29.000Z</time>
      </trkpt>
      <trkpt lat="46.21931" lon="6.25486">
        <ele>460.20001220703</ele>
        <time>2021-03-29T11:46:34.000Z</time>
      </trkpt>
      <trkpt lat="46.21924" lon="6.25473">
        <ele>459.60000610352</ele>
        <time>2021-03-29T11:46:36.000Z</time>
      </trkpt>
      <trkpt lat="46.21921" lon="6.25465">
        <ele>459</ele>
        <time>2021-03-29T11:46:37.000Z</time>
      </trkpt>
      <trkpt lat="46.21917" lon="6.25422">
        <ele>456</ele>
        <time>2021-03-29T11:46:42.000Z</time>
      </trkpt>
      <trkpt lat="46.21916" lon="6.25413">
        <ele>455.39999389648</ele>
        <time>2021-03-29T11:46:43.000Z</time>
      </trkpt>
      <trkpt lat="46.21917" lon="6.25385">
        <ele>453.79998779297</ele>
        <time>2021-03-29T11:46:47.000Z</time>
      </trkpt>
      <trkpt lat="46.21921" lon="6.25373">
        <ele>453.20001220703</ele>
        <time>2021-03-29T11:46:49.000Z</time>
      </trkpt>
      <trkpt lat="46.21926" lon="6.2536">
        <ele>452.60000610352</ele>
        <time>2021-03-29T11:46:51.000Z</time>
      </trkpt>
      <trkpt lat="46.2193" lon="6.2535">
        <ele>452.20001220703</ele>
        <time>2021-03-29T11:46:53.000Z</time>
      </trkpt>
      <trkpt lat="46.21921" lon="6.25342">
        <ele>452.20001220703</ele>
        <time>2021-03-29T11:46:54.000Z</time>
      </trkpt>
      <trkpt lat="46.21912" lon="6.25345">
        <ele>452.60000610352</ele>
        <time>2021-03-29T11:46:56.000Z</time>
      </trkpt>
      <trkpt lat="46.21907" lon="6.25347">
        <ele>452.79998779297</ele>
        <time>2021-03-29T11:46:57.000Z</time>
      </trkpt>
      <trkpt lat="46.21869" lon="6.25355">
        <ele>454.20001220703</ele>
        <time>2021-03-29T11:47:04.000Z</time>
      </trkpt>
      <trkpt lat="46.21857" lon="6.25351">
        <ele>454.39999389648</ele>
        <time>2021-03-29T11:47:06.000Z</time>
      </trkpt>
      <trkpt lat="46.21838" lon="6.25344">
        <ele>454.60000610352</ele>
        <time>2021-03-29T11:47:09.000Z</time>
      </trkpt>
      <trkpt lat="46.21785" lon="6.25325">
        <ele>454.79998779297</ele>
        <time>2021-03-29T11:47:17.000Z</time>
      </trkpt>
      <trkpt lat="46.21741" lon="6.253">
        <ele>454.20001220703</ele>
        <time>2021-03-29T11:47:24.000Z</time>
      </trkpt>
      <trkpt lat="46.21706" lon="6.2528">
        <ele>453.39999389648</ele>
        <time>2021-03-29T11:47:29.000Z</time>
      </trkpt>
      <trkpt lat="46.21701" lon="6.25274">
        <ele>453.20001220703</ele>
        <time>2021-03-29T11:47:30.000Z</time>
      </trkpt>
      <trkpt lat="46.2169" lon="6.25262">
        <ele>452.60000610352</ele>
        <time>2021-03-29T11:47:32.000Z</time>
      </trkpt>
      <trkpt lat="46.21685" lon="6.25256">
        <ele>452.20001220703</ele>
        <time>2021-03-29T11:47:33.000Z</time>
      </trkpt>
      <trkpt lat="46.21674" lon="6.25244">
        <ele>451.60000610352</ele>
        <time>2021-03-29T11:47:35.000Z</time>
      </trkpt>
      <trkpt lat="46.21669" lon="6.25238">
        <ele>451.39999389648</ele>
        <time>2021-03-29T11:47:36.000Z</time>
      </trkpt>
      <trkpt lat="46.21632" lon="6.25193">
        <ele>450.20001220703</ele>
        <time>2021-03-29T11:47:43.000Z</time>
      </trkpt>
      <trkpt lat="46.21616" lon="6.25174">
        <ele>449.60000610352</ele>
        <time>2021-03-29T11:47:46.000Z</time>
      </trkpt>
      <trkpt lat="46.21605" lon="6.25161">
        <ele>449.39999389648</ele>
        <time>2021-03-29T11:47:48.000Z</time>
      </trkpt>
      <trkpt lat="46.21577" lon="6.2513">
        <ele>448.60000610352</ele>
        <time>2021-03-29T11:47:53.000Z</time>
      </trkpt>
      <trkpt lat="46.21571" lon="6.25124">
        <ele>448.39999389648</ele>
        <time>2021-03-29T11:47:54.000Z</time>
      </trkpt>
      <trkpt lat="46.21554" lon="6.25107">
        <ele>448.20001220703</ele>
        <time>2021-03-29T11:47:57.000Z</time>
      </trkpt>
      <trkpt lat="46.21542" lon="6.25095">
        <ele>448.20001220703</ele>
        <time>2021-03-29T11:47:59.000Z</time>
      </trkpt>
      <trkpt lat="46.21514" lon="6.25068">
        <ele>448.20001220703</ele>
        <time>2021-03-29T11:48:04.000Z</time>
      </trkpt>
      <trkpt lat="46.21497" lon="6.25051">
        <ele>448.20001220703</ele>
        <time>2021-03-29T11:48:07.000Z</time>
      </trkpt>
      <trkpt lat="46.21489" lon="6.25037">
        <ele>448.20001220703</ele>
        <time>2021-03-29T11:48:09.000Z</time>
      </trkpt>
      <trkpt lat="46.21488" lon="6.2502">
        <ele>447.79998779297</ele>
        <time>2021-03-29T11:48:11.000Z</time>
      </trkpt>
      <trkpt lat="46.21489" lon="6.2501">
        <ele>447.39999389648</ele>
        <time>2021-03-29T11:48:12.000Z</time>
      </trkpt>
      <trkpt lat="46.21505" lon="6.24955">
        <ele>445.60000610352</ele>
        <time>2021-03-29T11:48:18.000Z</time>
      </trkpt>
      <trkpt lat="46.2153" lon="6.249">
        <ele>443</ele>
        <time>2021-03-29T11:48:24.000Z</time>
      </trkpt>
      <trkpt lat="46.21559" lon="6.24834">
        <ele>440.60000610352</ele>
        <time>2021-03-29T11:48:31.000Z</time>
      </trkpt>
      <trkpt lat="46.21566" lon="6.24815">
        <ele>440.20001220703</ele>
        <time>2021-03-29T11:48:33.000Z</time>
      </trkpt>
      <trkpt lat="46.21568" lon="6.24795">
        <ele>439.79998779297</ele>
        <time>2021-03-29T11:48:35.000Z</time>
      </trkpt>
      <trkpt lat="46.21566" lon="6.24777">
        <ele>439.60000610352</ele>
        <time>2021-03-29T11:48:37.000Z</time>
      </trkpt>
      <trkpt lat="46.21562" lon="6.2477">
        <ele>439.39999389648</ele>
        <time>2021-03-29T11:48:38.000Z</time>
      </trkpt>
      <trkpt lat="46.21557" lon="6.24762">
        <ele>439.60000610352</ele>
        <time>2021-03-29T11:48:39.000Z</time>
      </trkpt>
      <trkpt lat="46.21539" lon="6.24748">
        <ele>439.79998779297</ele>
        <time>2021-03-29T11:48:42.000Z</time>
      </trkpt>
      <trkpt lat="46.21495" lon="6.24717">
        <ele>440.60000610352</ele>
        <time>2021-03-29T11:48:50.000Z</time>
      </trkpt>
      <trkpt lat="46.21483" lon="6.24709">
        <ele>440.79998779297</ele>
        <time>2021-03-29T11:48:52.000Z</time>
      </trkpt>
      <trkpt lat="46.21472" lon="6.24701">
        <ele>441</ele>
        <time>2021-03-29T11:48:54.000Z</time>
      </trkpt>
      <trkpt lat="46.21467" lon="6.24697">
        <ele>441.20001220703</ele>
        <time>2021-03-29T11:48:55.000Z</time>
      </trkpt>
      <trkpt lat="46.21433" lon="6.24674">
        <ele>441.60000610352</ele>
        <time>2021-03-29T11:49:01.000Z</time>
      </trkpt>
      <trkpt lat="46.21405" lon="6.24653">
        <ele>441.79998779297</ele>
        <time>2021-03-29T11:49:06.000Z</time>
      </trkpt>
      <trkpt lat="46.2138" lon="6.24636">
        <ele>441.60000610352</ele>
        <time>2021-03-29T11:49:10.000Z</time>
      </trkpt>
      <trkpt lat="46.21336" lon="6.24605">
        <ele>440</ele>
        <time>2021-03-29T11:49:17.000Z</time>
      </trkpt>
      <trkpt lat="46.21289" lon="6.2457">
        <ele>439.60000610352</ele>
        <time>2021-03-29T11:49:25.000Z</time>
      </trkpt>
      <trkpt lat="46.21254" lon="6.2454">
        <ele>440.20001220703</ele>
        <time>2021-03-29T11:49:31.000Z</time>
      </trkpt>
      <trkpt lat="46.21225" lon="6.24497">
        <ele>440.20001220703</ele>
        <time>2021-03-29T11:49:37.000Z</time>
      </trkpt>
      <trkpt lat="46.2119" lon="6.24445">
        <ele>440</ele>
        <time>2021-03-29T11:49:44.000Z</time>
      </trkpt>
      <trkpt lat="46.21154" lon="6.24391">
        <ele>439.79998779297</ele>
        <time>2021-03-29T11:49:51.000Z</time>
      </trkpt>
      <trkpt lat="46.21114" lon="6.2433">
        <ele>438.39999389648</ele>
        <time>2021-03-29T11:49:59.000Z</time>
      </trkpt>
      <trkpt lat="46.21108" lon="6.24322">
        <ele>438.20001220703</ele>
        <time>2021-03-29T11:50:00.000Z</time>
      </trkpt>
      <trkpt lat="46.21068" lon="6.24261">
        <ele>436.79998779297</ele>
        <time>2021-03-29T11:50:08.000Z</time>
      </trkpt>
      <trkpt lat="46.21053" lon="6.24238">
        <ele>436.39999389648</ele>
        <time>2021-03-29T11:50:11.000Z</time>
      </trkpt>
      <trkpt lat="46.21014" lon="6.24179">
        <ele>437.79998779297</ele>
        <time>2021-03-29T11:50:19.000Z</time>
      </trkpt>
      <trkpt lat="46.21009" lon="6.24172">
        <ele>437.79998779297</ele>
        <time>2021-03-29T11:50:20.000Z</time>
      </trkpt>
      <trkpt lat="46.20974" lon="6.24125">
        <ele>438.79998779297</ele>
        <time>2021-03-29T11:50:27.000Z</time>
      </trkpt>
      <trkpt lat="46.20968" lon="6.24121">
        <ele>438.79998779297</ele>
        <time>2021-03-29T11:50:28.000Z</time>
      </trkpt>
      <trkpt lat="46.20963" lon="6.24118">
        <ele>438.60000610352</ele>
        <time>2021-03-29T11:50:29.000Z</time>
      </trkpt>
      <trkpt lat="46.20953" lon="6.24114">
        <ele>438.60000610352</ele>
        <time>2021-03-29T11:50:31.000Z</time>
      </trkpt>
      <trkpt lat="46.20947" lon="6.24114">
        <ele>438.60000610352</ele>
        <time>2021-03-29T11:50:32.000Z</time>
      </trkpt>
      <trkpt lat="46.20906" lon="6.24111">
        <ele>438.20001220703</ele>
        <time>2021-03-29T11:50:39.000Z</time>
      </trkpt>
      <trkpt lat="46.20875" lon="6.24103">
        <ele>438</ele>
        <time>2021-03-29T11:50:44.000Z</time>
      </trkpt>
      <trkpt lat="46.20869" lon="6.24101">
        <ele>438</ele>
        <time>2021-03-29T11:50:45.000Z</time>
      </trkpt>
      <trkpt lat="46.20864" lon="6.24099">
        <ele>438</ele>
        <time>2021-03-29T11:50:46.000Z</time>
      </trkpt>
      <trkpt lat="46.20852" lon="6.24082">
        <ele>438</ele>
        <time>2021-03-29T11:50:49.000Z</time>
      </trkpt>
      <trkpt lat="46.2085" lon="6.24078">
        <ele>438</ele>
        <time>2021-03-29T11:50:50.000Z</time>
      </trkpt>
      <trkpt lat="46.20841" lon="6.24066">
        <ele>438</ele>
        <time>2021-03-29T11:50:55.000Z</time>
      </trkpt>
      <trkpt lat="46.20828" lon="6.24057">
        <ele>438</ele>
        <time>2021-03-29T11:50:59.000Z</time>
      </trkpt>
      <trkpt lat="46.20819" lon="6.24053">
        <ele>437.79998779297</ele>
        <time>2021-03-29T11:51:01.000Z</time>
      </trkpt>
      <trkpt lat="46.20809" lon="6.2405">
        <ele>437.79998779297</ele>
        <time>2021-03-29T11:51:03.000Z</time>
      </trkpt>
      <trkpt lat="46.20779" lon="6.24044">
        <ele>437.60000610352</ele>
        <time>2021-03-29T11:51:09.000Z</time>
      </trkpt>
      <trkpt lat="46.20742" lon="6.24025">
        <ele>437.20001220703</ele>
        <time>2021-03-29T11:51:16.000Z</time>
      </trkpt>
      <trkpt lat="46.20701" lon="6.24011">
        <ele>436.39999389648</ele>
        <time>2021-03-29T11:51:23.000Z</time>
      </trkpt>
      <trkpt lat="46.20661" lon="6.24002">
        <ele>435.39999389648</ele>
        <time>2021-03-29T11:51:29.000Z</time>
      </trkpt>
      <trkpt lat="46.20655" lon="6.24001">
        <ele>435.39999389648</ele>
        <time>2021-03-29T11:51:30.000Z</time>
      </trkpt>
      <trkpt lat="46.2063" lon="6.23994">
        <ele>435.20001220703</ele>
        <time>2021-03-29T11:51:34.000Z</time>
      </trkpt>
      <trkpt lat="46.20581" lon="6.23977">
        <ele>435</ele>
        <time>2021-03-29T11:51:42.000Z</time>
      </trkpt>
      <trkpt lat="46.20541" lon="6.23957">
        <ele>435.20001220703</ele>
        <time>2021-03-29T11:51:49.000Z</time>
      </trkpt>
      <trkpt lat="46.20514" lon="6.23943">
        <ele>435.79998779297</ele>
        <time>2021-03-29T11:51:55.000Z</time>
      </trkpt>
      <trkpt lat="46.20494" lon="6.23937">
        <ele>436.39999389648</ele>
        <time>2021-03-29T11:52:00.000Z</time>
      </trkpt>
      <trkpt lat="46.20475" lon="6.23931">
        <ele>437</ele>
        <time>2021-03-29T11:52:05.000Z</time>
      </trkpt>
      <trkpt lat="46.20464" lon="6.23927">
        <ele>437</ele>
        <time>2021-03-29T11:52:10.000Z</time>
      </trkpt>
      <trkpt lat="46.20464" lon="6.2393">
        <ele>437.20001220703</ele>
        <time>2021-03-29T11:52:11.000Z</time>
      </trkpt>
      <trkpt lat="46.20463" lon="6.23934">
        <ele>437.20001220703</ele>
        <time>2021-03-29T11:52:12.000Z</time>
      </trkpt>
      <trkpt lat="46.2046" lon="6.23947">
        <ele>437.60000610352</ele>
        <time>2021-03-29T11:52:14.000Z</time>
      </trkpt>
      <trkpt lat="46.20458" lon="6.23955">
        <ele>438</ele>
        <time>2021-03-29T11:52:15.000Z</time>
      </trkpt>
      <trkpt lat="46.20451" lon="6.23979">
        <ele>437.60000610352</ele>
        <time>2021-03-29T11:52:18.000Z</time>
      </trkpt>
      <trkpt lat="46.20435" lon="6.24034">
        <ele>436.79998779297</ele>
        <time>2021-03-29T11:52:25.000Z</time>
      </trkpt>
      <trkpt lat="46.20425" lon="6.24055">
        <ele>436.39999389648</ele>
        <time>2021-03-29T11:52:29.000Z</time>
      </trkpt>
      <trkpt lat="46.20422" lon="6.2406">
        <ele>436.39999389648</ele>
        <time>2021-03-29T11:52:30.000Z</time>
      </trkpt>
      <trkpt lat="46.20416" lon="6.24055">
        <ele>436.39999389648</ele>
        <time>2021-03-29T11:52:31.000Z</time>
      </trkpt>
      <trkpt lat="46.20412" lon="6.24055">
        <ele>436.20001220703</ele>
        <time>2021-03-29T11:52:33.000Z</time>
      </trkpt>
      <trkpt lat="46.20404" lon="6.24067">
        <ele>436.20001220703</ele>
        <time>2021-03-29T11:52:35.000Z</time>
      </trkpt>
      <trkpt lat="46.20408" lon="6.2408">
        <ele>436.39999389648</ele>
        <time>2021-03-29T11:52:37.000Z</time>
      </trkpt>
      <trkpt lat="46.20417" lon="6.24107">
        <ele>437.39999389648</ele>
        <time>2021-03-29T11:52:41.000Z</time>
      </trkpt>
      <trkpt lat="46.2042" lon="6.24121">
        <ele>437.79998779297</ele>
        <time>2021-03-29T11:52:43.000Z</time>
      </trkpt>
      <trkpt lat="46.20419" lon="6.24128">
        <ele>438</ele>
        <time>2021-03-29T11:52:44.000Z</time>
      </trkpt>
      <trkpt lat="46.20413" lon="6.24186">
        <ele>439.20001220703</ele>
        <time>2021-03-29T11:52:52.000Z</time>
      </trkpt>
      <trkpt lat="46.20409" lon="6.24245">
        <ele>439.79998779297</ele>
        <time>2021-03-29T11:53:00.000Z</time>
      </trkpt>
      <trkpt lat="46.20404" lon="6.24311">
        <ele>440.79998779297</ele>
        <time>2021-03-29T11:53:09.000Z</time>
      </trkpt>
      <trkpt lat="46.20398" lon="6.24394">
        <ele>440</ele>
        <time>2021-03-29T11:53:20.000Z</time>
      </trkpt>
      <trkpt lat="46.20397" lon="6.24408">
        <ele>439.79998779297</ele>
        <time>2021-03-29T11:53:22.000Z</time>
      </trkpt>
      <trkpt lat="46.20393" lon="6.24421">
        <ele>439.60000610352</ele>
        <time>2021-03-29T11:53:24.000Z</time>
      </trkpt>
      <trkpt lat="46.20389" lon="6.24426">
        <ele>439.60000610352</ele>
        <time>2021-03-29T11:53:25.000Z</time>
      </trkpt>
      <trkpt lat="46.20375" lon="6.24449">
        <ele>439.20001220703</ele>
        <time>2021-03-29T11:53:29.000Z</time>
      </trkpt>
      <trkpt lat="46.20363" lon="6.2445">
        <ele>439</ele>
        <time>2021-03-29T11:53:31.000Z</time>
      </trkpt>
      <trkpt lat="46.20358" lon="6.24445">
        <ele>439</ele>
        <time>2021-03-29T11:53:32.000Z</time>
      </trkpt>
      <trkpt lat="46.20354" lon="6.24439">
        <ele>439</ele>
        <time>2021-03-29T11:53:33.000Z</time>
      </trkpt>
      <trkpt lat="46.20349" lon="6.24423">
        <ele>439.20001220703</ele>
        <time>2021-03-29T11:53:35.000Z</time>
      </trkpt>
      <trkpt lat="46.2033" lon="6.24364">
        <ele>438.39999389648</ele>
        <time>2021-03-29T11:53:42.000Z</time>
      </trkpt>
      <trkpt lat="46.2031" lon="6.24312">
        <ele>437</ele>
        <time>2021-03-29T11:53:48.000Z</time>
      </trkpt>
      <trkpt lat="46.203" lon="6.24296">
        <ele>436.79998779297</ele>
        <time>2021-03-29T11:53:50.000Z</time>
      </trkpt>
      <trkpt lat="46.20295" lon="6.2429">
        <ele>436.60000610352</ele>
        <time>2021-03-29T11:53:51.000Z</time>
      </trkpt>
      <trkpt lat="46.20288" lon="6.24286">
        <ele>436.60000610352</ele>
        <time>2021-03-29T11:53:52.000Z</time>
      </trkpt>
      <trkpt lat="46.20273" lon="6.2428">
        <ele>436.60000610352</ele>
        <time>2021-03-29T11:53:54.000Z</time>
      </trkpt>
      <trkpt lat="46.20225" lon="6.24256">
        <ele>436.60000610352</ele>
        <time>2021-03-29T11:54:01.000Z</time>
      </trkpt>
      <trkpt lat="46.20214" lon="6.24244">
        <ele>436.60000610352</ele>
        <time>2021-03-29T11:54:03.000Z</time>
      </trkpt>
      <trkpt lat="46.20205" lon="6.2423">
        <ele>436.39999389648</ele>
        <time>2021-03-29T11:54:05.000Z</time>
      </trkpt>
      <trkpt lat="46.20176" lon="6.24179">
        <ele>436</ele>
        <time>2021-03-29T11:54:12.000Z</time>
      </trkpt>
      <trkpt lat="46.20146" lon="6.24125">
        <ele>435.79998779297</ele>
        <time>2021-03-29T11:54:20.000Z</time>
      </trkpt>
      <trkpt lat="46.2014" lon="6.24114">
        <ele>435.60000610352</ele>
        <time>2021-03-29T11:54:22.000Z</time>
      </trkpt>
      <trkpt lat="46.20133" lon="6.24101">
        <ele>435.60000610352</ele>
        <time>2021-03-29T11:54:25.000Z</time>
      </trkpt>
      <trkpt lat="46.20124" lon="6.24084">
        <ele>435.60000610352</ele>
        <time>2021-03-29T11:54:28.000Z</time>
      </trkpt>
      <trkpt lat="46.20117" lon="6.24072">
        <ele>435.39999389648</ele>
        <time>2021-03-29T11:54:30.000Z</time>
      </trkpt>
      <trkpt lat="46.20086" lon="6.24016">
        <ele>435.79998779297</ele>
        <time>2021-03-29T11:54:38.000Z</time>
      </trkpt>
      <trkpt lat="46.2006" lon="6.23971">
        <ele>436</ele>
        <time>2021-03-29T11:54:45.000Z</time>
      </trkpt>
      <trkpt lat="46.20032" lon="6.23922">
        <ele>435.60000610352</ele>
        <time>2021-03-29T11:54:53.000Z</time>
      </trkpt>
      <trkpt lat="46.20017" lon="6.23895">
        <ele>435.60000610352</ele>
        <time>2021-03-29T11:54:59.000Z</time>
      </trkpt>
      <trkpt lat="46.20004" lon="6.23888">
        <ele>435.60000610352</ele>
        <time>2021-03-29T11:55:04.000Z</time>
      </trkpt>
      <trkpt lat="46.20002" lon="6.23887">
        <ele>435.60000610352</ele>
        <time>2021-03-29T11:55:07.000Z</time>
      </trkpt>
      <trkpt lat="46.20002" lon="6.23887">
        <ele>435.60000610352</ele>
        <time>2021-03-29T11:55:09.000Z</time>
      </trkpt>
      <trkpt lat="46.20002" lon="6.23887">
        <ele>435.60000610352</ele>
        <time>2021-03-29T11:55:11.000Z</time>
      </trkpt>
      <trkpt lat="46.20002" lon="6.23887">
        <ele>435.60000610352</ele>
        <time>2021-03-29T11:55:14.000Z</time>
      </trkpt>
    </trkseg>
  </trk>
</gpx>